# Wetter Temperatur Luftdruck Luftfeuchtigkeit Sichtweite Windgeschwindigkeit Windrichtung Zeit
1 Clouds 14 1027 93 10000 1.54 10 08:27 02.10.2022
2 Clear 14 1027 94 10000 1.54 30 05:18 02.10.2022
3 Clear 18 1028 79 10000 0.89 323 00:56 02.10.2022
4 Clouds 18 1025 76 10000 2.06 20 00:36 02.10.2022
5 Clouds 18 1025 72 10000 1.34 355 23:24 01.10.2022
6 Clouds 20 1024 61 10000 0.89 319 21:38 01.10.2022
7 Clouds 24 1026 53 10000 5.66 240 18:54 01.10.2022
8 Clouds 25 1026 46 10000 6.17 240 17:25 01.10.2022
9 Clouds 24 1026 50 10000 6.69 240 14:44 01.10.2022
10 Clouds 25 1023 43 10000 5.14 230 13:43 01.10.2022
11 Clouds 24 1026 54 10000 4.02 186 12:34 01.10.2022
12 Clouds 22 1026 58 10000 1.34 148 11:22 01.10.2022
13 Clouds 23 1021 54 10000 1.03 360 10:44 01.10.2022
14 Clouds 21 1021 58 10000 0.45 68 10:25 01.10.2022
15 Clouds 17 1020 83 10000 0.51 0 09:21 01.10.2022
16 Clouds 12 1022 87 10000 0 0 08:26 01.10.2022
17 Clouds 14 1018 83 10000 1.34 360 03:39 01.10.2022
18 Clouds 14 1020 86 10000 2.06 350 01:31 01.10.2022
19 Clouds 15 1016 75 10000 2.24 355 23:21 30.09.2022
20 Clouds 17 1015 65 10000 1.03 0 21:58 30.09.2022
21 Clouds 19 1013 60 10000 2.06 90 20:45 30.09.2022
22 Clouds 19 1013 59 10000 2.24 46 20:20 30.09.2022
23 Clouds 21 1011 49 10000 5.66 70 18:27 30.09.2022
24 Clouds 22 1013 57 10000 8.23 70 16:32 30.09.2022
25 Clouds 21 1010 61 10000 8.23 50 14:23 30.09.2022
26 Clouds 20 1008 67 10000 7.2 70 12:29 30.09.2022
27 Clouds 19 1008 74 10000 6.17 60 11:55 30.09.2022
28 Clouds 15 1008 85 5000 7.2 20 09:24 30.09.2022
29 Clouds 16 1002 87 10000 2.06 350 07:50 30.09.2022
30 Clouds 17 1002 83 10000 2.06 100 03:19 30.09.2022
31 Clouds 17 1005 83 6000 7.72 330 01:44 30.09.2022
32 Clouds 21 1001 50 10000 2.06 300 21:40 29.09.2022
33 Clouds 21 1001 50 10000 2.06 300 21:19 29.09.2022
34 Clouds 23 1004 53 10000 3.09 330 19:56 29.09.2022
35 Clouds 24 1003 50 10000 3.6 310 17:49 29.09.2022
36 Clouds 25 998 38 10000 4.63 300 16:29 29.09.2022
37 Clouds 25 1000 40 10000 4.63 310 15:37 29.09.2022
38 Clouds 25 1004 47 10000 4.63 310 14:59 29.09.2022
39 Clouds 25 1004 48 10000 5.66 320 12:39 29.09.2022
40 Clouds 21 1000 65 10000 1.34 50 08:45 29.09.2022
41 Clouds 19 1005 82 10000 2.06 130 04:46 29.09.2022
42 Clouds 19 1007 79 10000 1.54 60 02:36 29.09.2022
43 Clouds 22 1008 66 10000 5.14 240 23:26 28.09.2022
44 Clear 23 1008 61 10000 6.17 250 21:40 28.09.2022
45 Clear 23 1008 59 10000 6.17 250 21:22 28.09.2022
46 Clouds 24 1008 54 10000 5.66 270 19:57 28.09.2022
47 Clouds 25 1009 47 10000 5.66 330 16:52 28.09.2022
48 Clouds 25 1010 52 10000 8.23 320 14:35 28.09.2022
49 Clouds 23 1011 61 10000 9.77 330 11:49 28.09.2022
50 Clouds 22 1011 63 10000 5.14 310 09:49 28.09.2022
51 Clouds 20 1010 65 10000 2.57 290 07:53 28.09.2022
52 Clouds 21 1011 63 10000 3.09 300 06:27 28.09.2022
53 Clouds 22 1013 62 10000 2.06 320 01:47 28.09.2022
54 Clouds 22 1013 59 10000 2.06 340 01:25 28.09.2022
55 Clouds 22 1014 56 10000 2.06 270 22:49 27.09.2022
56 Clouds 23 1013 55 10000 2.57 280 21:20 27.09.2022
57 Clouds 23 1012 54 10000 3.6 290 20:36 27.09.2022
58 Clouds 23 1012 56 10000 3.09 330 19:47 27.09.2022
59 Clouds 24 1012 54 10000 7.72 320 17:54 27.09.2022
60 Clouds 24 1011 55 10000 7.72 330 17:32 27.09.2022
61 Clouds 24 1011 51 10000 5.66 290 15:24 27.09.2022
62 Clouds 24 1012 53 10000 5.66 330 14:24 27.09.2022
63 Clouds 23 1012 51 10000 9.77 310 12:40 27.09.2022
64 Clouds 23 1012 50 10000 6.69 320 10:53 27.09.2022
65 Clouds 21 1010 62 10000 3.6 280 08:46 27.09.2022
66 Clouds 19 1012 79 10000 1.34 288 05:49 27.09.2022
67 Clouds 17 1014 88 10000 2.06 30 01:45 27.09.2022
68 Clouds 18 1014 82 10000 1.03 0 00:50 27.09.2022
69 Clouds 19 1014 81 10000 1.03 0 23:25 26.09.2022
70 Clouds 20 1014 74 10000 1.03 0 22:24 26.09.2022
71 Clouds 22 1013 66 10000 1.54 100 20:29 26.09.2022
72 Clouds 23 1013 62 10000 1.03 0 19:30 26.09.2022
73 Clouds 23 1013 57 10000 3.6 60 18:31 26.09.2022
74 Clouds 25 1012 51 10000 4.12 60 15:55 26.09.2022
75 Clouds 24 1013 56 10000 7.2 60 13:30 26.09.2022
76 Clouds 23 1012 62 10000 8.75 60 11:29 26.09.2022
77 Clouds 22 1012 63 10000 7.6 26 10:37 26.09.2022
78 Clouds 22 1012 63 10000 7.6 26 10:19 26.09.2022
79 Clouds 21 1011 71 10000 6.69 60 09:53 26.09.2022
80 Clouds 21 1011 71 10000 4.63 50 09:22 26.09.2022
81 Clouds 19 1010 77 10000 3.09 70 07:30 26.09.2022
82 Clouds 19 1011 88 9000 7.72 70 02:48 26.09.2022
83 Rain 20 1012 89 9000 7.2 60 23:29 25.09.2022
84 Rain 21 1012 80 10000 5.14 70 21:54 25.09.2022
85 Rain 21 1012 79 10000 5.66 70 21:34 25.09.2022
86 Rain 22 1011 75 10000 5.14 70 20:45 25.09.2022
87 Clouds 22 1011 72 10000 5.66 70 19:32 25.09.2022
88 Clouds 23 1010 68 10000 6.69 70 18:35 25.09.2022
89 Clouds 23 1011 70 10000 8.23 70 17:52 25.09.2022
90 Clouds 23 1011 70 10000 8.23 60 16:22 25.09.2022
91 Clouds 23 1011 69 10000 8.23 70 15:44 25.09.2022
92 Clouds 23 1013 73 10000 6.69 70 14:22 25.09.2022
93 Clouds 22 1012 80 10000 6.17 60 12:51 25.09.2022
94 Rain 22 1011 78 10000 7.72 60 10:29 25.09.2022
95 Clouds 19 1010 89 10000 3.6 70 08:24 25.09.2022
96 Clouds 19 1010 86 10000 5.66 60 05:38 25.09.2022
97 Clouds 22 1011 81 10000 2.06 360 01:32 25.09.2022
98 Clouds 23 1012 72 10000 4.12 70 22:35 24.09.2022
99 Clouds 24 1011 67 10000 5.66 70 20:55 24.09.2022
100 Clouds 26 1010 64 10000 3.09 230 19:22 24.09.2022
101 Clouds 27 1011 64 10000 5.66 230 17:19 24.09.2022
102 Clouds 28 1011 63 10000 5.14 230 16:24 24.09.2022
103 Clouds 27 1012 65 10000 5.14 230 15:20 24.09.2022
104 Clouds 27 1013 67 10000 5.14 230 13:25 24.09.2022
105 Clouds 26 1014 67 10000 4.12 230 12:49 24.09.2022
106 Clouds 23 1013 72 10000 4.63 70 10:38 24.09.2022
107 Clouds 21 1013 73 10000 5.66 80 09:40 24.09.2022
108 Clouds 21 1013 76 10000 6.69 70 08:43 24.09.2022
109 Clouds 24 1013 75 10000 3.13 199 06:53 24.09.2022
110 Clouds 24 1014 73 10000 4.92 171 04:40 24.09.2022
111 Clouds 24 1016 69 10000 3.58 182 02:19 24.09.2022
112 Clouds 24 1017 67 10000 1.03 170 22:28 23.09.2022
113 Clouds 25 1017 66 10000 2.06 160 21:28 23.09.2022
114 Clouds 25 1017 68 10000 2.68 155 20:55 23.09.2022
115 Clouds 25 1017 65 10000 3.13 162 20:19 23.09.2022
116 Clouds 26 1017 61 10000 4.63 220 18:26 23.09.2022
117 Clouds 27 1019 53 10000 5.14 240 13:44 23.09.2022
118 Clouds 24 1019 68 10000 2.06 80 10:27 23.09.2022
119 Clouds 20 1018 83 10000 2.06 60 08:57 23.09.2022
120 Clouds 19 1018 84 10000 1.79 355 04:56 23.09.2022
121 Clouds 22 1019 72 10000 2.06 70 23:31 22.09.2022
122 Clouds 22 1018 70 10000 1.54 50 22:41 22.09.2022
123 Clouds 23 1018 68 10000 1.54 50 22:19 22.09.2022
124 Clouds 25 1017 61 10000 3.6 70 20:45 22.09.2022
125 Clouds 26 1017 52 10000 5.14 80 19:23 22.09.2022
126 Clouds 27 1017 55 10000 4.12 230 16:53 22.09.2022
127 Clouds 26 1018 58 10000 3.6 70 11:58 22.09.2022
128 Clouds 24 1018 69 10000 2.57 70 10:20 22.09.2022
129 Clouds 21 1016 83 10000 2.06 70 08:39 22.09.2022
130 Rain 21 1017 81 10000 3.09 70 06:27 22.09.2022
131 Clouds 21 1018 79 10000 1.03 0 02:43 22.09.2022
132 Clouds 22 1018 78 10000 2.57 70 22:50 21.09.2022
133 Clouds 23 1018 75 10000 3.09 70 21:40 21.09.2022
134 Clouds 23 1017 72 10000 2.06 70 19:55 21.09.2022
135 Clouds 28 1015 59 10000 4.63 220 17:47 21.09.2022
136 Clouds 29 1015 56 10000 5.66 230 16:22 21.09.2022
137 Clouds 28 1018 52 10000 4.12 250 13:59 21.09.2022
138 Clouds 27 1018 52 10000 2.06 50 12:41 21.09.2022
139 Clouds 26 1018 58 10000 2.57 60 11:28 21.09.2022
140 Clouds 26 1017 63 10000 1.03 0 09:50 21.09.2022
141 Clouds 22 1017 73 10000 1.54 50 08:58 21.09.2022
142 Clouds 20 1018 77 10000 1.54 40 07:18 21.09.2022
143 Clouds 21 1018 70 10000 2.06 70 02:47 21.09.2022
144 Clouds 22 1018 71 10000 1.54 80 02:25 21.09.2022
145 Clouds 23 1019 70 10000 1.03 0 00:34 21.09.2022
146 Clouds 24 1019 68 10000 3.09 80 22:43 20.09.2022
147 Clouds 26 1017 57 10000 2.57 190 20:51 20.09.2022
148 Clouds 28 1017 54 10000 5.14 210 19:32 20.09.2022
149 Clouds 29 1017 50 10000 6.17 230 16:28 20.09.2022
150 Clouds 28 1018 54 10000 5.66 230 14:46 20.09.2022
151 Clouds 28 1018 49 10000 5.14 230 13:22 20.09.2022
152 Clear 23 1018 50 10000 1.54 360 09:50 20.09.2022
153 Clear 17 1017 71 10000 0.89 355 08:27 20.09.2022
154 Clear 17 1017 74 10000 1.79 5 05:24 20.09.2022
155 Clear 18 1017 68 10000 1.79 344 03:59 20.09.2022
156 Clear 22 1017 61 10000 2.57 20 22:55 19.09.2022
157 Clear 23 1017 58 10000 2.57 360 22:18 19.09.2022
158 Clear 24 1015 52 10000 4.12 70 20:51 19.09.2022
159 Clear 25 1014 47 10000 4.63 70 20:31 19.09.2022
160 Clear 28 1015 35 10000 5.14 70 17:45 19.09.2022
161 Clear 30 1014 34 10000 4.63 70 15:34 19.09.2022
162 Clear 28 1016 39 10000 5.66 60 13:33 19.09.2022
163 Clear 26 1016 42 10000 5.66 60 11:28 19.09.2022
164 Clear 20 1015 54 10000 2.57 40 08:51 19.09.2022
165 Clear 20 1014 60 10000 2.06 10 08:18 19.09.2022
166 Clouds 19 1016 70 10000 0.51 0 01:58 19.09.2022
167 Clouds 21 1017 68 10000 3.58 40 23:22 18.09.2022
168 Clouds 22 1017 65 10000 4.12 70 21:45 18.09.2022
169 Clouds 23 1016 60 10000 6.17 70 20:29 18.09.2022
170 Clouds 26 1016 51 10000 6.17 70 18:34 18.09.2022
171 Clouds 27 1016 50 10000 6.69 70 17:39 18.09.2022
172 Clouds 28 1016 49 10000 5.66 70 15:53 18.09.2022
173 Clouds 28 1017 49 10000 5.14 70 14:23 18.09.2022
174 Clouds 26 1018 53 10000 4.12 70 12:36 18.09.2022
175 Clear 25 1017 55 10000 4.63 60 11:39 18.09.2022
176 Clouds 20 1015 66 10000 3.09 70 05:24 18.09.2022
177 Clouds 21 1017 70 10000 1.79 24 01:27 18.09.2022
178 Clouds 21 1016 71 10000 1.03 0 00:42 18.09.2022
179 Clouds 23 1016 68 10000 1.79 44 21:54 17.09.2022
180 Clouds 23 1015 67 10000 5.14 60 20:29 17.09.2022
181 Clouds 24 1014 64 10000 6.69 60 19:19 17.09.2022
182 Clouds 25 1014 58 10000 7.72 60 17:19 17.09.2022
183 Clouds 25 1015 60 10000 7.2 80 13:59 17.09.2022
184 Clouds 26 1015 60 10000 9.26 60 12:29 17.09.2022
185 Clouds 25 1014 72 10000 5.66 60 10:28 17.09.2022
186 Clouds 22 1012 89 10000 2.06 130 06:28 17.09.2022
187 Clouds 21 1012 87 10000 0.51 150 03:34 17.09.2022
188 Clouds 24 1013 82 10000 0.51 0 23:23 16.09.2022
189 Clouds 25 1012 81 10000 2.06 10 21:33 16.09.2022
190 Clouds 26 1011 76 10000 1.54 40 20:41 16.09.2022
191 Clouds 27 1011 69 10000 2.57 330 18:28 16.09.2022
192 Clouds 28 1012 59 10000 6.17 80 16:18 16.09.2022
193 Clouds 29 1012 54 10000 3.6 360 14:40 16.09.2022
194 Clouds 29 1013 57 10000 3.58 211 12:31 16.09.2022
195 Clouds 25 1013 72 10000 1.03 0 09:37 16.09.2022
196 Clouds 21 1012 79 10000 1.79 360 07:22 16.09.2022
197 Clouds 21 1012 80 10000 1.79 360 06:47 16.09.2022
198 Clear 22 1012 77 10000 1.54 50 05:19 16.09.2022
199 Clouds 25 1013 61 10000 1.03 50 23:50 15.09.2022
200 Clouds 27 1011 70 10000 2.57 90 21:24 15.09.2022
201 Clouds 29 1011 55 10000 4.63 200 20:28 15.09.2022
202 Clouds 31 1011 50 10000 5.14 220 18:54 15.09.2022
203 Clouds 30 1011 66 10000 6.17 220 17:34 15.09.2022
204 Clouds 30 1011 66 10000 6.17 220 17:34 15.09.2022
205 Clouds 30 1011 66 10000 6.17 220 17:34 15.09.2022
206 Clouds 30 1011 64 10000 5.66 220 16:57 15.09.2022
207 Clouds 30 1012 64 10000 6.17 220 15:22 15.09.2022
208 Clouds 30 1013 69 10000 4.63 230 12:49 15.09.2022
209 Clouds 28 1012 70 10000 1.54 230 10:42 15.09.2022
210 Clouds 25 1012 78 10000 1.54 360 09:42 15.09.2022
211 Clouds 25 1011 73 10000 0.89 317 04:46 15.09.2022
212 Clouds 27 1011 68 10000 1.34 302 02:57 15.09.2022
213 Clouds 28 1011 67 10000 3.09 320 22:44 14.09.2022
214 Rain 29 1010 77 10000 2.06 200 20:24 14.09.2022
215 Clouds 29 1009 74 10000 1.54 40 19:32 14.09.2022
216 Clouds 30 1011 73 10000 3.09 230 17:28 14.09.2022
217 Clouds 30 1011 76 10000 3.09 230 16:36 14.09.2022
218 Clouds 30 1011 78 10000 5.14 230 14:47 14.09.2022
219 Clouds 30 1011 67 10000 1.54 190 12:33 14.09.2022
220 Clouds 28 1009 78 10000 1.03 170 09:50 14.09.2022
221 Clouds 29 1008 73 10000 1.54 170 07:55 14.09.2022
222 Clouds 28 1008 77 10000 1.34 248 06:48 14.09.2022
223 Rain 28 1008 77 10000 1.34 248 06:23 14.09.2022
224 Rain 28 1010 78 10000 2.06 60 01:55 14.09.2022
225 Clouds 28 1010 77 10000 2.57 40 01:30 14.09.2022
226 Clouds 28 1009 77 10000 4.12 60 00:52 14.09.2022
227 Rain 28 1010 79 10000 4.02 82 23:54 13.09.2022
228 Rain 28 1010 80 10000 4.63 80 23:36 13.09.2022
229 Clouds 28 1010 80 10000 7.2 70 23:18 13.09.2022
230 Clouds 29 1010 78 10000 6.69 70 22:22 13.09.2022
231 Clouds 29 1010 78 10000 6.69 70 22:22 13.09.2022
232 Clouds 30 1010 67 10000 7.2 70 20:41 13.09.2022
233 Clouds 32 1010 56 10000 5.66 90 18:43 13.09.2022
234 Clouds 33 1010 58 10000 4.02 313 16:19 13.09.2022
235 Clouds 33 1011 60 10000 4.63 250 15:18 13.09.2022
236 Clouds 34 1011 50 10000 5.14 70 13:31 13.09.2022
237 Clouds 28 1012 74 10000 2.57 80 09:58 13.09.2022
238 Clouds 24 1010 82 10000 3.09 60 07:47 13.09.2022
239 Clouds 27 1013 70 10000 1.54 30 00:58 13.09.2022
240 Clouds 28 1013 71 10000 2.57 80 23:21 12.09.2022
241 Clouds 28 1013 70 10000 2.57 70 22:26 12.09.2022
242 Clear 30 1010 54 10000 1.54 100 20:54 12.09.2022
243 Clear 32 1012 49 10000 4.12 130 19:26 12.09.2022
244 Clear 33 1012 42 10000 4.12 140 17:46 12.09.2022
245 Clear 34 1013 43 10000 5.36 167 15:40 12.09.2022
246 Clear 33 1014 53 10000 3.09 120 12:26 12.09.2022
247 Clouds 29 1014 60 10000 2.57 60 10:24 12.09.2022
248 Clouds 22 1014 80 10000 1.79 346 05:57 12.09.2022
249 Clouds 23 1013 83 10000 1.54 30 04:32 12.09.2022
250 Clouds 25 1016 84 10000 2.06 80 00:42 12.09.2022
251 Clouds 27 1016 78 10000 0.51 0 22:45 11.09.2022
252 Clouds 28 1015 75 10000 2.06 180 21:22 11.09.2022
253 Clouds 28 1015 75 10000 2.68 196 20:43 11.09.2022
254 Clouds 30 1015 71 10000 4.12 220 19:27 11.09.2022
255 Clouds 30 1015 70 10000 5.14 230 18:58 11.09.2022
256 Clouds 30 1016 70 10000 5.66 220 17:26 11.09.2022
257 Clouds 31 1017 67 10000 6.69 240 15:46 11.09.2022
258 Clouds 30 1017 69 10000 4.63 240 13:19 11.09.2022
259 Clouds 30 1018 65 10000 1.03 10 11:25 11.09.2022
260 Clouds 24 1016 91 10000 1.54 60 08:19 11.09.2022
261 Clouds 24 1017 89 10000 0.51 0 05:19 11.09.2022
262 Clouds 26 1018 83 10000 1.03 0 23:50 10.09.2022
263 Clouds 27 1018 80 10000 1.03 0 22:22 10.09.2022
264 Clouds 28 1018 76 10000 3.09 230 20:33 10.09.2022
265 Clouds 29 1018 70 10000 4.12 230 19:44 10.09.2022
266 Clouds 29 1018 69 10000 4.12 230 19:25 10.09.2022
267 Clouds 29 1018 67 10000 6.17 240 17:27 10.09.2022
268 Clouds 30 1019 63 10000 5.81 206 15:35 10.09.2022
269 Clouds 30 1019 65 10000 6.26 173 15:35 10.09.2022
270 Clouds 31 1019 56 10000 5.81 223 13:40 10.09.2022
271 Clouds 31 1020 52 10000 2.06 100 12:30 10.09.2022
272 Clouds 28 1020 68 10000 3.6 80 10:31 10.09.2022
273 Clouds 25 1019 79 10000 2.06 70 08:41 10.09.2022
274 Clouds 25 1019 81 10000 2.06 70 08:20 10.09.2022
275 Clouds 25 1019 80 10000 2.57 80 03:48 10.09.2022
276 Clouds 27 1018 74 10000 1.54 40 23:37 09.09.2022
277 Clouds 28 1018 70 10000 2.06 80 22:36 09.09.2022
278 Clouds 28 1016 73 10000 1.54 190 20:57 09.09.2022
279 Clouds 29 1016 70 10000 2.06 200 20:19 09.09.2022
280 Clouds 29 1016 70 10000 2.68 142 19:22 09.09.2022
281 Clouds 30 1016 65 10000 5.14 220 17:29 09.09.2022
282 Clouds 31 1017 61 10000 6.69 220 15:19 09.09.2022
283 Clouds 32 1017 54 10000 4.63 220 13:33 09.09.2022
284 Clouds 30 1017 69 10000 2.68 180 11:27 09.09.2022
285 Clouds 23 1015 91 10000 0 0 07:57 09.09.2022
286 Clouds 24 1016 84 10000 1.34 350 03:39 09.09.2022
287 Clouds 26 1016 78 10000 1.54 90 00:21 09.09.2022
288 Clouds 28 1015 67 10000 4.12 60 21:52 08.09.2022
289 Clouds 29 1014 64 10000 3.09 40 20:49 08.09.2022
290 Clouds 30 1014 62 10000 4.12 50 20:29 08.09.2022
291 Clouds 30 1014 59 10000 4.63 50 19:25 08.09.2022
292 Clouds 32 1014 44 10000 4.12 230 17:29 08.09.2022
293 Clouds 32 1014 49 10000 6.69 220 15:53 08.09.2022
294 Clouds 32 1015 54 10000 4.12 240 13:30 08.09.2022
295 Clouds 31 1015 56 10000 3.13 175 12:42 08.09.2022
296 Clouds 31 1014 55 10000 1.54 0 11:24 08.09.2022
297 Clouds 28 1014 70 10000 1.03 360 09:57 08.09.2022
298 Clouds 23 1013 88 10000 1.03 40 07:38 08.09.2022
299 Clouds 23 1013 87 10000 0.89 333 04:53 08.09.2022
300 Clouds 24 1013 83 10000 0.89 333 02:36 08.09.2022
301 Clouds 24 1013 83 10000 0.89 333 02:18 08.09.2022
302 Clouds 25 1013 83 10000 2.06 170 23:25 07.09.2022
303 Clouds 28 1013 79 10000 1.54 210 21:58 07.09.2022
304 Clouds 28 1013 79 10000 1.03 220 21:38 07.09.2022
305 Clouds 29 1012 73 10000 3.09 220 20:29 07.09.2022
306 Clouds 30 1012 70 10000 4.12 220 19:23 07.09.2022
307 Clouds 32 1012 62 10000 5.14 220 16:30 07.09.2022
308 Clouds 29 1015 74 10000 2.57 240 11:28 07.09.2022
309 Clouds 28 1015 74 10000 1.54 220 10:32 07.09.2022
310 Clouds 22 1014 88 10000 1.54 30 08:33 07.09.2022
311 Clouds 22 1014 83 10000 1.54 70 06:31 07.09.2022
312 Clouds 25 1016 84 10000 0.45 313 00:49 07.09.2022
313 Clouds 28 1016 76 10000 1.54 210 21:58 06.09.2022
314 Clouds 28 1015 74 10000 1.54 240 21:36 06.09.2022
315 Clouds 28 1016 74 10000 4.12 220 19:40 06.09.2022
316 Clouds 29 1016 70 10000 4.63 220 18:40 06.09.2022
317 Clouds 29 1015 68 10000 2.57 220 17:50 06.09.2022
318 Clouds 30 1016 69 10000 2.06 220 16:53 06.09.2022
319 Clouds 29 1017 68 10000 4.12 220 16:26 06.09.2022
320 Clouds 30 1018 64 10000 5.66 220 14:54 06.09.2022
321 Clouds 30 1018 65 10000 4.12 230 13:44 06.09.2022
322 Clouds 30 1018 65 10000 5.66 230 13:44 06.09.2022
323 Clouds 30 1018 69 10000 4.12 240 13:20 06.09.2022
324 Clouds 28 1017 79 10000 1.03 20 10:57 06.09.2022
325 Clouds 28 1018 79 10000 0.89 30 10:33 06.09.2022
326 Clouds 24 1017 90 10000 1.03 70 08:29 06.09.2022
327 Clouds 23 1017 89 10000 0.51 0 06:58 06.09.2022
328 Clouds 28 1018 84 10000 0.89 218 01:23 06.09.2022
329 Clouds 28 1018 84 10000 1.34 136 23:21 05.09.2022
330 Clouds 29 1017 79 10000 1.54 180 21:50 05.09.2022
331 Clouds 29 1016 79 10000 2.57 240 20:32 05.09.2022
332 Clouds 31 1016 70 10000 3.09 220 18:59 05.09.2022
333 Clouds 31 1016 70 10000 4.12 210 18:38 05.09.2022
334 Clouds 31 1016 70 10000 4.12 210 18:19 05.09.2022
335 Clouds 33 1017 63 10000 5.14 230 16:27 05.09.2022
336 Clouds 32 1018 62 10000 5.14 230 15:29 05.09.2022
337 Clouds 31 1019 66 10000 7.2 230 13:21 05.09.2022
338 Clouds 31 1019 61 10000 1.79 106 11:53 05.09.2022
339 Rain 28 1019 66 10000 2.57 40 09:19 05.09.2022
340 Rain 26 1018 74 10000 4.02 360 06:40 05.09.2022
341 Clear 28 1018 70 10000 2.24 16 01:56 05.09.2022
342 Clear 28 1018 66 10000 2.06 70 22:44 04.09.2022
343 Clear 29 1018 65 10000 1.54 90 22:25 04.09.2022
344 Clear 30 1016 57 10000 2.57 140 20:43 04.09.2022
345 Clouds 32 1016 58 10000 4.12 150 19:20 04.09.2022
346 Clouds 31 1016 59 10000 7.2 240 17:43 04.09.2022
347 Clouds 32 1016 53 10000 6.69 240 16:28 04.09.2022
348 Clouds 33 1016 46 10000 4.63 240 14:27 04.09.2022
349 Clouds 32 1017 46 10000 4.63 250 12:57 04.09.2022
350 Clouds 32 1017 52 10000 3.09 220 11:52 04.09.2022
351 Clouds 29 1013 65 10000 1.54 40 09:56 04.09.2022
352 Clouds 23 1011 83 10000 1.03 0 07:27 04.09.2022
353 Clouds 25 1011 73 10000 0.51 0 04:00 04.09.2022
354 Clouds 27 1010 61 10000 2.57 180 00:42 04.09.2022
355 Clouds 28 1009 56 10000 2.06 210 22:21 03.09.2022
356 Clouds 29 1008 57 10000 3.09 230 21:23 03.09.2022
357 Clouds 31 1008 58 10000 5.14 230 18:59 03.09.2022
358 Clouds 31 1012 60 10000 6.69 230 17:26 03.09.2022
359 Clouds 31 1012 60 10000 6.69 230 17:26 03.09.2022
360 Clouds 32 1008 61 10000 5.14 220 16:27 03.09.2022
361 Clouds 32 1005 58 10000 1.54 280 14:44 03.09.2022
362 Rain 31 1006 56 10000 6.17 220 13:55 03.09.2022
363 Clouds 30 1012 64 10000 1.03 350 11:51 03.09.2022
364 Clouds 29 1008 68 10000 2.57 60 10:27 03.09.2022
365 Clouds 25 1007 73 10000 2.57 60 08:27 03.09.2022
366 Clouds 24 1007 76 10000 3.09 60 06:53 03.09.2022
367 Clouds 23 1008 74 10000 2.57 40 04:33 03.09.2022
368 Clouds 25 1005 69 10000 1.03 0 23:55 02.09.2022
369 Clouds 27 1008 67 10000 2.06 230 22:45 02.09.2022
370 Clouds 29 1007 64 10000 2.57 230 20:59 02.09.2022
371 Clouds 29 1007 60 10000 3.09 240 20:27 02.09.2022
372 Clouds 31 1007 61 10000 6.17 220 19:01 02.09.2022
373 Clouds 31 1007 62 10000 6.17 230 18:28 02.09.2022
374 Clouds 30 1011 72 10000 6.69 240 17:43 02.09.2022
375 Clouds 31 1011 63 10000 5.66 220 16:47 02.09.2022
376 Clouds 31 1012 62 10000 4.63 220 14:33 02.09.2022
377 Clouds 30 1013 67 10000 5.66 220 12:36 02.09.2022
378 Clouds 28 1012 77 10000 1.03 0 10:19 02.09.2022
379 Clouds 27 1008 77 10000 1.54 70 09:39 02.09.2022
380 Clouds 25 1008 82 10000 1.54 40 07:32 02.09.2022
381 Clouds 25 1008 83 10000 1.54 50 06:38 02.09.2022
382 Clouds 26 1010 78 10000 2.06 170 02:52 02.09.2022
383 Clouds 28 1010 74 10000 2.06 230 22:35 01.09.2022
384 Clouds 28 1009 74 10000 2.57 220 21:44 01.09.2022
385 Clouds 28 1009 73 10000 2.68 229 21:25 01.09.2022
386 Clouds 28 1009 72 10000 3.6 220 20:44 01.09.2022
387 Clouds 29 1013 74 10000 4.12 220 18:54 01.09.2022
388 Clouds 30 1013 72 10000 5.66 210 17:22 01.09.2022
389 Clouds 31 1014 67 10000 6.17 220 15:59 01.09.2022
390 Clouds 31 1015 63 10000 6.17 230 14:33 01.09.2022
391 Clouds 31 1015 66 10000 5.66 230 12:58 01.09.2022
392 Clouds 31 1015 60 10000 4.02 211 11:53 01.09.2022
393 Clouds 30 1015 61 10000 0.51 330 11:32 01.09.2022
394 Clouds 29 1015 65 10000 1.34 102 10:38 01.09.2022
395 Clouds 24 1009 78 10000 2.57 70 08:30 01.09.2022
396 Clouds 23 1011 80 10000 1.54 350 06:23 01.09.2022
397 Clouds 24 1011 66 10000 1.34 355 01:33 01.09.2022
398 Clouds 25 1011 61 10000 3.09 80 00:18 01.09.2022
399 Clouds 28 1010 68 10000 2.06 210 21:33 31.08.2022
400 Clouds 30 1010 58 10000 5.14 230 19:50 31.08.2022
401 Clouds 31 1010 49 10000 5.66 230 18:18 31.08.2022
402 Clouds 32 1012 49 10000 7.2 240 16:23 31.08.2022
403 Clouds 29 1017 65 10000 6.69 230 14:32 31.08.2022
404 Clouds 31 1017 59 10000 5.14 220 12:23 31.08.2022
405 Clouds 29 1016 70 10000 2.57 230 11:26 31.08.2022
406 Clouds 27 1010 75 10000 1.03 180 08:54 31.08.2022
407 Rain 27 1013 79 10000 0.89 290 05:26 31.08.2022
408 Clouds 28 1011 75 10000 2.06 210 23:20 30.08.2022
409 Clouds 28 1009 73 10000 1.03 200 21:43 30.08.2022
410 Clouds 29 1009 73 10000 2.06 240 20:57 30.08.2022
411 Clouds 33 1009 55 10000 4.63 230 18:32 30.08.2022
412 Clouds 32 1017 66 10000 4.47 243 15:29 30.08.2022
413 Clouds 33 1012 51 10000 4.12 230 13:24 30.08.2022
414 Clouds 31 1017 55 10000 1.54 270 11:22 30.08.2022
415 Clouds 30 1017 57 10000 1.03 350 10:57 30.08.2022
416 Clear 23 1013 60 10000 2.06 350 07:46 30.08.2022
417 Clear 24 1013 66 10000 1.79 344 02:34 30.08.2022
418 Clear 26 1013 64 10000 0.51 0 23:22 29.08.2022
419 Clear 27 1013 61 10000 2.06 120 22:28 29.08.2022
420 Clear 28 1012 59 10000 2.06 110 21:26 29.08.2022
421 Clear 31 1011 53 10000 3.09 170 19:54 29.08.2022
422 Clear 33 1012 43 10000 4.63 150 17:58 29.08.2022
423 Clouds 34 1010 43 10000 4.12 170 17:25 29.08.2022
424 Clouds 34 1011 43 10000 3.6 170 16:40 29.08.2022
425 Clouds 31 1017 62 10000 7.2 260 15:18 29.08.2022
426 Clear 32 1018 52 10000 4.02 185 13:23 29.08.2022
427 Clear 31 1017 53 10000 3.6 50 11:20 29.08.2022
428 Clear 29 1017 55 10000 4.12 70 10:19 29.08.2022
429 Clear 23 1013 64 10000 3.6 60 08:37 29.08.2022
430 Clouds 23 1012 75 10000 1.79 360 05:36 29.08.2022
431 Clouds 24 1013 72 10000 2.06 70 01:24 29.08.2022
432 Clouds 27 1011 64 10000 1.54 40 22:47 28.08.2022
433 Clouds 28 1011 61 10000 2.24 148 21:44 28.08.2022
434 Clouds 29 1010 62 10000 3.6 160 20:55 28.08.2022
435 Clouds 31 1010 51 10000 4.63 150 19:29 28.08.2022
436 Clouds 31 1014 54 10000 5.81 219 18:21 28.08.2022
437 Clouds 31 1014 52 10000 4.02 211 17:25 28.08.2022
438 Clouds 31 1014 54 10000 9.26 250 16:28 28.08.2022
439 Clouds 32 1015 56 10000 5.66 240 14:42 28.08.2022
440 Clouds 32 1015 43 10000 2.68 213 12:48 28.08.2022
441 Clouds 30 1014 54 10000 2.57 60 10:51 28.08.2022
442 Clouds 28 1014 61 10000 2.06 50 09:54 28.08.2022
443 Clear 23 1008 71 10000 1.54 50 08:38 28.08.2022
444 Clear 21 1010 76 10000 2.24 355 07:45 28.08.2022
445 Clear 23 1010 75 10000 1.34 351 02:59 28.08.2022
446 Clear 24 1010 71 10000 2.06 80 00:29 28.08.2022
447 Clear 26 1009 66 10000 1.34 60 22:37 27.08.2022
448 Clear 26 1008 62 10000 2.57 20 21:40 27.08.2022
449 Clouds 29 1005 45 10000 3.09 240 19:57 27.08.2022
450 Clouds 31 1006 38 10000 2.57 240 18:27 27.08.2022
451 Clouds 28 1007 53 10000 1.34 45 15:53 27.08.2022
452 Clouds 25 1013 73 10000 2.06 30 15:25 27.08.2022
453 Clouds 30 1011 56 10000 4.12 270 12:31 27.08.2022
454 Clouds 30 1009 52 10000 1.54 360 11:47 27.08.2022
455 Clouds 28 1009 57 10000 1.54 360 09:51 27.08.2022
456 Clouds 26 1009 62 10000 1.34 355 08:45 27.08.2022
457 Clouds 25 1008 68 10000 2.06 70 03:58 27.08.2022
458 Clouds 26 1010 61 10000 1.54 80 00:20 27.08.2022
459 Clouds 27 1010 58 10000 1.54 30 23:24 26.08.2022
460 Clouds 28 1009 53 10000 2.06 70 21:43 26.08.2022
461 Clouds 31 1008 45 10000 5.66 70 19:25 26.08.2022
462 Clouds 32 1013 42 10000 6.69 60 17:29 26.08.2022
463 Clouds 32 1014 44 10000 6.69 60 15:37 26.08.2022
464 Clouds 31 1014 47 10000 7.72 60 14:56 26.08.2022
465 Clouds 30 1011 46 10000 6.69 60 12:54 26.08.2022
466 Clouds 29 1015 65 10000 4.63 60 11:42 26.08.2022
467 Clouds 29 1011 58 10000 5.14 50 11:21 26.08.2022
468 Clouds 26 1010 74 10000 3.09 70 07:37 26.08.2022
469 Clouds 26 1011 70 10000 1.03 40 02:43 26.08.2022
470 Clouds 28 1011 62 10000 1.54 50 23:45 25.08.2022
471 Clouds 29 1010 63 10000 1.03 0 21:55 25.08.2022
472 Clouds 30 1010 61 10000 1.54 280 20:51 25.08.2022
473 Clouds 30 1014 68 10000 3.6 240 19:25 25.08.2022
474 Clouds 31 1011 61 10000 5.14 230 18:29 25.08.2022
475 Clouds 30 1015 70 10000 5.81 178 17:31 25.08.2022
476 Clouds 31 1015 64 10000 8.23 240 16:36 25.08.2022
477 Clouds 31 1014 64 10000 6.17 230 15:28 25.08.2022
478 Clouds 32 1015 61 10000 3.6 210 13:20 25.08.2022
479 Clouds 30 1016 63 10000 1.03 230 10:49 25.08.2022
480 Clouds 29 1015 68 10000 1.54 110 09:52 25.08.2022
481 Clear 24 1011 81 10000 1.34 348 07:35 25.08.2022
482 Clouds 26 1012 74 10000 1.03 20 02:41 25.08.2022
483 Clouds 27 1011 66 10000 1.54 140 23:30 24.08.2022
484 Clouds 27 1011 65 10000 1.54 130 22:55 24.08.2022
485 Clouds 28 1011 63 10000 1.03 210 21:53 24.08.2022
486 Clouds 28 1011 63 10000 2.06 220 21:28 24.08.2022
487 Clouds 29 1014 66 10000 4.12 230 19:52 24.08.2022
488 Clouds 31 1015 59 10000 5.14 220 16:58 24.08.2022
489 Clouds 31 1015 61 10000 6.69 220 15:54 24.08.2022
490 Clouds 31 1015 61 10000 6.69 240 15:18 24.08.2022
491 Clouds 31 1014 58 10000 2.57 230 12:48 24.08.2022
492 Clouds 31 1014 57 10000 3.09 230 11:18 24.08.2022
493 Clouds 26 1009 74 10000 1.54 80 08:45 24.08.2022
494 Clouds 23 1010 81 10000 1.03 0 06:23 24.08.2022
495 Clouds 26 1011 71 10000 1.54 130 00:53 24.08.2022
496 Clouds 28 1011 66 10000 2.06 190 22:38 23.08.2022
497 Clouds 28 1011 64 10000 2.57 210 21:55 23.08.2022
498 Clouds 29 1008 56 10000 4.63 240 20:47 23.08.2022
499 Clouds 30 1013 63 10000 6.69 230 19:18 23.08.2022
500 Clouds 31 1014 61 10000 7.2 220 17:59 23.08.2022
501 Clouds 31 1014 60 10000 7.2 220 17:22 23.08.2022
502 Clouds 30 1015 65 10000 5.81 198 16:24 23.08.2022
503 Clouds 31 1011 54 10000 5.66 230 14:30 23.08.2022
504 Clouds 30 1010 57 10000 5.66 230 12:46 23.08.2022
505 Clouds 30 1014 64 10000 2.57 250 10:58 23.08.2022
506 Clouds 30 1014 65 10000 0.51 200 10:33 23.08.2022
507 Clouds 27 1014 73 10000 0.51 0 09:32 23.08.2022
508 Clouds 26 1009 78 10000 0.51 0 08:46 23.08.2022
509 Clouds 24 1011 83 10000 1.03 90 08:19 23.08.2022
510 Clouds 23 1011 84 10000 1.03 360 07:31 23.08.2022
511 Clouds 24 1010 81 10000 0.89 339 06:23 23.08.2022
512 Clouds 25 1010 75 10000 1.03 40 01:45 23.08.2022
513 Clouds 26 1010 73 10000 1.03 0 00:27 23.08.2022
514 Clouds 26 1010 72 10000 1.03 0 23:32 22.08.2022
515 Clouds 26 1010 72 10000 1.03 150 22:25 22.08.2022
516 Clouds 28 1009 62 10000 3.09 210 20:44 22.08.2022
517 Clouds 29 1013 67 10000 3.6 210 19:44 22.08.2022
518 Clouds 29 1013 64 10000 4.63 220 18:37 22.08.2022
519 Clouds 30 1014 60 10000 6.17 230 15:55 22.08.2022
520 Clouds 30 1010 51 10000 6.69 230 15:18 22.08.2022
521 Clouds 30 1014 56 10000 4.12 240 12:53 22.08.2022
522 Clouds 27 1015 77 10000 1.54 50 09:27 22.08.2022
523 Clouds 25 1010 79 10000 1.54 40 06:58 22.08.2022
524 Clouds 26 1010 72 10000 0.89 28 02:28 22.08.2022
525 Clouds 27 1010 67 10000 0.51 0 00:37 22.08.2022
526 Clouds 27 1010 65 10000 1.79 65 23:34 21.08.2022
527 Clouds 28 1010 63 10000 0.51 200 21:56 21.08.2022
528 Rain 28 1010 62 10000 1.34 235 21:20 21.08.2022
529 Rain 29 1010 59 10000 2.24 183 20:20 21.08.2022
530 Clouds 30 1014 65 10000 5.14 230 18:49 21.08.2022
531 Clouds 30 1014 63 10000 5.66 220 16:52 21.08.2022
532 Clouds 30 1015 62 10000 5.66 230 15:52 21.08.2022
533 Clouds 30 1015 61 10000 6.17 230 14:57 21.08.2022
534 Clear 30 1016 59 10000 5.66 230 13:51 21.08.2022
535 Clear 30 1016 62 10000 5.36 178 12:56 21.08.2022
536 Clouds 28 1017 66 10000 3.58 202 10:41 21.08.2022
537 Clouds 26 1013 64 10000 1.03 20 09:21 21.08.2022
538 Clouds 24 1011 70 10000 0.89 23 08:46 21.08.2022
539 Clouds 23 1013 72 10000 1.79 360 08:28 21.08.2022
540 Clouds 21 1013 76 10000 0.89 355 06:59 21.08.2022
541 Clear 23 1013 66 10000 1.34 336 02:35 21.08.2022
542 Clear 25 1015 60 10000 1.54 140 23:35 20.08.2022
543 Clear 27 1014 53 10000 1.54 220 21:57 20.08.2022
544 Clouds 28 1014 49 10000 2.06 220 20:56 20.08.2022
545 Clouds 29 1018 58 10000 4.12 220 19:49 20.08.2022
546 Clouds 29 1018 58 10000 4.12 220 19:21 20.08.2022
547 Clouds 29 1018 56 10000 5.66 230 18:26 20.08.2022
548 Clouds 29 1018 58 10000 6.17 240 17:25 20.08.2022
549 Clouds 30 1019 50 10000 6.17 230 16:23 20.08.2022
550 Clouds 30 1019 50 10000 5.66 240 14:35 20.08.2022
551 Clear 30 1020 46 10000 4.12 240 12:28 20.08.2022
552 Clear 29 1020 48 10000 3.6 250 11:46 20.08.2022
553 Clear 26 1016 62 10000 1.03 0 09:25 20.08.2022
554 Clear 21 1016 78 10000 1.34 355 07:31 20.08.2022
555 Clouds 21 1015 77 10000 1.54 30 05:48 20.08.2022
556 Clouds 24 1016 66 10000 1.54 40 00:58 20.08.2022
557 Clouds 25 1015 64 10000 1.03 110 23:52 19.08.2022
558 Clouds 25 1015 61 10000 2.06 70 22:48 19.08.2022
559 Clouds 27 1014 51 10000 3.09 160 21:34 19.08.2022
560 Clouds 29 1017 52 10000 5.14 240 19:41 19.08.2022
561 Clouds 30 1018 52 10000 6.17 230 16:32 19.08.2022
562 Clouds 29 1019 53 10000 6.17 240 14:37 19.08.2022
563 Clouds 29 1019 55 10000 5.66 230 12:45 19.08.2022
564 Clouds 28 1019 55 10000 2.06 230 10:43 19.08.2022
565 Clouds 26 1018 62 10000 0 0 09:39 19.08.2022
566 Clouds 22 1013 64 10000 1.54 50 04:59 19.08.2022
567 Clouds 23 1013 56 10000 0.89 355 00:45 19.08.2022
568 Clouds 23 1013 53 10000 0.89 9 00:22 19.08.2022
569 Clouds 24 1012 50 10000 1.54 130 22:59 18.08.2022
570 Clouds 25 1012 50 10000 2.06 100 22:30 18.08.2022
571 Clouds 25 1011 50 10000 3.09 30 21:53 18.08.2022
572 Clouds 25 1011 48 10000 6.17 320 21:18 18.08.2022
573 Clouds 28 1010 42 10000 4.63 310 19:54 18.08.2022
574 Clouds 27 1014 50 10000 4.63 310 19:24 18.08.2022
575 Clouds 28 1014 46 10000 4.63 340 17:46 18.08.2022
576 Clouds 28 1014 51 10000 5.66 340 16:25 18.08.2022
577 Clouds 28 1013 53 10000 4.92 317 14:22 18.08.2022
578 Clouds 28 1013 51 10000 5.36 329 13:58 18.08.2022
579 Clouds 28 1013 52 10000 3.6 220 12:46 18.08.2022
580 Clouds 28 1012 54 10000 3.6 230 11:23 18.08.2022
581 Clouds 26 1012 65 10000 1.54 330 09:43 18.08.2022
582 Clouds 24 1005 65 10000 1.54 60 08:31 18.08.2022
583 Clouds 23 1006 67 10000 5.14 60 07:18 18.08.2022
584 Clouds 24 1006 70 10000 4.12 340 03:23 18.08.2022
585 Clear 26 1004 61 10000 0.89 327 23:18 17.08.2022
586 Clouds 27 1004 58 10000 1.03 100 21:28 17.08.2022
587 Clouds 30 1007 59 10000 1.03 310 19:59 17.08.2022
588 Rain 28 1004 67 10000 1.03 0 18:58 17.08.2022
589 Rain 28 1000 57 10000 1.03 0 17:28 17.08.2022
590 Rain 29 1000 53 10000 1.54 210 16:21 17.08.2022
591 Clouds 30 1003 62 10000 6.17 240 15:18 17.08.2022
592 Clouds 30 1003 63 10000 6.17 230 12:54 17.08.2022
593 Clouds 31 1002 58 10000 4.12 250 11:36 17.08.2022
594 Clouds 31 1002 58 10000 4.12 250 11:36 17.08.2022
595 Clouds 27 1000 63 10000 2.06 40 09:31 17.08.2022
596 Rain 26 1002 78 10000 3.13 76 07:55 17.08.2022
597 Clouds 27 1004 80 10000 1.03 0 02:24 17.08.2022
598 Clouds 28 1004 75 10000 1.54 180 23:58 16.08.2022
599 Rain 28 1003 72 10000 2.06 180 22:30 16.08.2022
600 Clouds 29 1003 70 10000 2.57 230 20:52 16.08.2022
601 Clouds 30 1003 64 10000 3.09 230 19:53 16.08.2022
602 Clouds 30 1008 69 10000 5.14 230 18:40 16.08.2022
603 Clouds 31 1008 65 10000 4.63 220 17:43 16.08.2022
604 Clouds 31 1009 63 10000 4.12 230 15:48 16.08.2022
605 Clouds 31 1009 60 10000 5.14 230 14:55 16.08.2022
606 Clouds 31 1009 60 10000 5.66 240 14:37 16.08.2022
607 Clouds 30 1009 62 10000 6.69 220 12:58 16.08.2022
608 Clouds 30 1009 66 10000 3.58 159 10:37 16.08.2022
609 Clouds 29 1004 70 10000 3.13 147 09:50 16.08.2022
610 Clouds 27 1005 79 10000 2.06 50 08:47 16.08.2022
611 Clouds 25 1004 83 10000 2.57 50 07:33 16.08.2022
612 Clouds 27 1004 79 10000 2.06 70 02:19 16.08.2022
613 Clouds 29 1004 68 10000 4.12 50 22:31 15.08.2022
614 Clouds 29 1003 66 10000 3.6 50 21:55 15.08.2022
615 Clouds 30 1003 64 10000 4.63 60 21:34 15.08.2022
616 Clouds 31 1007 66 10000 6.69 70 20:20 15.08.2022
617 Clouds 33 1007 53 10000 4.47 313 18:42 15.08.2022
618 Clouds 35 1007 41 10000 4.12 300 17:46 15.08.2022
619 Clouds 34 1007 47 10000 5.66 230 16:22 15.08.2022
620 Clouds 34 1007 56 10000 5.66 230 13:58 15.08.2022
621 Clouds 33 1007 60 10000 3.09 240 12:38 15.08.2022
622 Clouds 31 1006 70 10000 3.09 130 10:18 15.08.2022
623 Clouds 28 1002 66 10000 3.09 140 08:52 15.08.2022
624 Clear 27 1005 66 10000 1.03 0 06:34 15.08.2022
625 Clear 27 1007 58 10000 0.89 339 03:34 15.08.2022
626 Clear 31 1008 46 10000 0.89 116 23:24 14.08.2022
627 Clear 34 1006 33 10000 0.51 180 21:43 14.08.2022
628 Clear 36 1006 26 10000 4.12 170 20:41 14.08.2022
629 Clear 35 1006 34 10000 4.12 160 19:36 14.08.2022
630 Clouds 35 1006 38 10000 4.02 233 18:21 14.08.2022
631 Clouds 35 1007 37 10000 4.92 200 17:31 14.08.2022
632 Clouds 35 1007 33 10000 5.66 230 16:23 14.08.2022
633 Clouds 35 1007 34 10000 6.17 220 15:34 14.08.2022
634 Clear 35 1007 36 10000 4.12 230 13:51 14.08.2022
635 Clear 35 1007 39 10000 4.12 230 13:31 14.08.2022
636 Clouds 35 1008 39 10000 4.02 155 12:45 14.08.2022
637 Clear 35 1008 38 10000 4.12 220 11:30 14.08.2022
638 Clear 33 1010 44 10000 4.63 230 09:34 14.08.2022
639 Clear 26 1009 50 10000 0.51 230 06:54 14.08.2022
640 Clear 29 1008 39 10000 1.03 0 05:45 14.08.2022
641 Clouds 33 1011 40 10000 1.03 120 01:43 14.08.2022
642 Clouds 33 1013 47 10000 5.66 270 23:23 13.08.2022
643 Clouds 34 1009 42 10000 3.09 280 22:28 13.08.2022
644 Clear 35 1007 32 10000 3.6 250 20:56 13.08.2022
645 Clouds 34 1005 35 9000 1.79 233 19:49 13.08.2022
646 Clouds 35 1007 33 9000 7.72 320 19:19 13.08.2022
647 Clouds 37 1008 31 9000 7.2 320 17:22 13.08.2022
648 Clear 35 1007 44 10000 5.14 220 15:18 13.08.2022
649 Clear 34 1008 48 10000 6.17 230 14:24 13.08.2022
650 Clear 34 1008 51 10000 5.14 230 13:36 13.08.2022
651 Clear 33 1009 58 10000 7.2 220 11:49 13.08.2022
652 Clear 29 1011 70 10000 1.03 350 09:27 13.08.2022
653 Clear 25 1011 78 10000 0 0 07:48 13.08.2022
654 Clear 27 1013 81 10000 1.54 170 01:56 13.08.2022
655 Clouds 29 1014 77 10000 1.34 219 23:45 12.08.2022
656 Clear 29 1013 74 10000 2.57 220 21:40 12.08.2022
657 Clear 31 1013 62 10000 3.09 230 19:51 12.08.2022
658 Clear 32 1010 54 10000 3.58 198 19:24 12.08.2022
659 Clear 32 1010 54 10000 5.14 220 18:31 12.08.2022
660 Clear 33 1008 48 10000 5.66 210 16:28 12.08.2022
661 Clear 34 1009 47 10000 6.17 220 15:23 12.08.2022
662 Clear 34 1009 45 10000 5.14 220 13:56 12.08.2022
663 Clear 33 1009 45 10000 4.63 220 12:51 12.08.2022
664 Clear 28 1015 65 10000 1.03 0 09:28 12.08.2022
665 Clear 24 1015 81 10000 1.03 0 07:47 12.08.2022
666 Clear 24 1015 81 10000 0.89 342 06:28 12.08.2022
667 Clear 26 1016 78 10000 1.03 0 01:45 12.08.2022
668 Clear 28 1016 73 10000 1.54 100 00:23 12.08.2022
669 Clear 29 1016 69 10000 1.54 180 23:34 11.08.2022
670 Clear 29 1015 74 10000 1.34 229 21:58 11.08.2022
671 Clear 30 1015 69 10000 2.24 219 21:39 11.08.2022
672 Clear 30 1015 64 10000 5.14 240 20:32 11.08.2022
673 Clouds 30 1015 66 10000 5.14 240 19:57 11.08.2022
674 Clouds 31 1015 64 10000 5.14 230 19:32 11.08.2022
675 Clouds 33 1011 47 10000 6.17 260 17:47 11.08.2022
676 Clear 33 1010 44 10000 5.36 221 16:34 11.08.2022
677 Clouds 35 1009 35 10000 4.63 250 15:21 11.08.2022
678 Clear 34 1012 36 10000 2.57 120 12:44 11.08.2022
679 Clear 30 1016 53 10000 3.09 60 10:18 11.08.2022
680 Clear 23 1016 78 10000 1.79 5 07:19 11.08.2022
681 Clear 24 1016 75 10000 2.06 40 03:46 11.08.2022
682 Clear 27 1016 67 10000 1.34 5 00:35 11.08.2022
683 Clear 29 1016 63 10000 0.51 0 22:32 10.08.2022
684 Clear 30 1016 59 10000 2.57 170 21:25 10.08.2022
685 Clear 29 1016 68 10000 3.58 211 20:54 10.08.2022
686 Clear 33 1011 46 10000 6.17 250 19:27 10.08.2022
687 Clouds 33 1012 45 10000 7.2 240 18:22 10.08.2022
688 Clouds 33 1012 47 10000 8.75 250 16:36 10.08.2022
689 Clouds 33 1012 46 10000 5.66 240 13:36 10.08.2022
690 Clear 34 1012 40 10000 3.6 240 12:41 10.08.2022
691 Clear 29 1018 61 10000 1.54 20 09:25 10.08.2022
692 Clear 25 1018 67 10000 1.03 0 08:33 10.08.2022
693 Clear 23 1018 75 10000 0.89 329 07:19 10.08.2022
694 Clear 25 1017 72 10000 0.51 0 03:28 10.08.2022
695 Clear 28 1018 69 10000 0 0 23:34 09.08.2022
696 Clear 29 1018 70 10000 0.51 0 22:56 09.08.2022
697 Clear 30 1018 71 10000 3.09 240 21:36 09.08.2022
698 Clear 29 1018 71 10000 4.63 240 20:36 09.08.2022
699 Clouds 32 1017 63 10000 5.14 240 18:44 09.08.2022
700 Clouds 33 1013 48 10000 6.69 230 17:28 09.08.2022
701 Clouds 33 1013 49 10000 7.2 230 16:41 09.08.2022
702 Clouds 33 1013 48 10000 6.69 240 15:58 09.08.2022
703 Clear 33 1013 52 10000 6.17 230 13:51 09.08.2022
704 Clear 31 1017 58 10000 5.66 60 09:56 09.08.2022
705 Clear 28 1017 63 10000 3.09 50 08:51 09.08.2022
706 Clear 25 1017 76 10000 1.79 32 07:54 09.08.2022
707 Clouds 26 1017 75 10000 0.45 328 04:28 09.08.2022
708 Clear 29 1017 68 10000 1.54 30 23:46 08.08.2022
709 Clear 29 1017 70 10000 1.03 0 22:57 08.08.2022
710 Clear 30 1017 66 10000 1.54 240 22:35 08.08.2022
711 Clouds 30 1016 63 10000 2.06 220 21:27 08.08.2022
712 Clouds 31 1015 55 10000 3.6 220 19:57 08.08.2022
713 Clouds 33 1011 49 10000 4.63 220 19:22 08.08.2022
714 Clouds 33 1012 46 10000 5.14 220 17:34 08.08.2022
715 Clouds 34 1012 41 10000 5.66 230 15:46 08.08.2022
716 Clouds 34 1012 42 10000 5.14 240 14:45 08.08.2022
717 Clouds 33 1012 50 10000 5.14 240 12:29 08.08.2022
718 Clear 32 1016 48 10000 1.03 60 10:23 08.08.2022
719 Clear 24 1015 68 10000 0.89 347 07:49 08.08.2022
720 Clouds 26 1015 72 10000 1.54 100 03:39 08.08.2022
721 Clear 29 1015 70 10000 2.24 97 22:52 07.08.2022
722 Clouds 30 1015 66 10000 3.09 200 21:41 07.08.2022
723 Clouds 30 1015 61 10000 3.09 210 20:55 07.08.2022
724 Clouds 31 1014 60 10000 3.6 210 20:18 07.08.2022
725 Clouds 31 1014 58 10000 3.6 210 19:51 07.08.2022
726 Clouds 32 1014 51 10000 6.69 210 18:41 07.08.2022
727 Clouds 33 1010 48 10000 6.17 210 17:21 07.08.2022
728 Clouds 34 1011 42 10000 6.17 220 16:41 07.08.2022
729 Clouds 34 1011 43 10000 5.66 220 15:26 07.08.2022
730 Clouds 34 1012 45 10000 6.69 230 13:47 07.08.2022
731 Clouds 33 1012 47 10000 4.02 146 12:38 07.08.2022
732 Clear 32 1012 47 10000 1.34 233 10:42 07.08.2022
733 Clouds 29 1016 63 10000 1.03 0 09:35 07.08.2022
734 Clear 25 1015 79 10000 2.06 40 04:33 07.08.2022
735 Clear 26 1016 77 10000 0 0 01:59 07.08.2022
736 Clouds 29 1016 71 10000 1.54 220 22:33 06.08.2022
737 Clouds 29 1016 75 10000 3.09 230 21:48 06.08.2022
738 Clouds 30 1016 67 10000 4.63 230 19:43 06.08.2022
739 Clouds 33 1012 54 10000 5.66 230 18:35 06.08.2022
740 Clouds 32 1016 61 10000 6.17 230 17:44 06.08.2022
741 Clouds 32 1017 58 10000 6.69 230 16:19 06.08.2022
742 Clouds 35 1017 39 10000 3.13 127 13:51 06.08.2022
743 Clouds 35 1017 32 10000 2.06 50 12:27 06.08.2022
744 Clear 33 1017 38 10000 1.03 40 10:53 06.08.2022
745 Clouds 30 1017 55 10000 1.54 360 09:31 06.08.2022
746 Clear 25 1012 66 10000 1.34 5 04:38 06.08.2022
747 Clouds 28 1012 66 10000 2.57 40 00:46 06.08.2022
748 Clouds 29 1012 55 10000 1.54 200 22:35 05.08.2022
749 Clouds 30 1009 43 10000 3.6 240 20:50 05.08.2022
750 Clouds 31 1015 60 10000 6.69 240 18:56 05.08.2022
751 Clouds 31 1015 61 10000 7.2 240 18:38 05.08.2022
752 Clouds 31 1015 65 10000 8.75 240 16:53 05.08.2022
753 Clouds 33 1015 45 10000 5.66 230 15:25 05.08.2022
754 Clouds 34 1015 35 10000 5.66 210 14:38 05.08.2022
755 Clouds 35 1015 29 10000 4.12 270 13:38 05.08.2022
756 Clouds 35 1015 29 10000 2.24 251 13:18 05.08.2022
757 Clouds 34 1016 31 10000 1.34 200 11:55 05.08.2022
758 Clear 32 1016 42 10000 1.03 20 10:24 05.08.2022
759 Clear 25 1011 70 10000 1.54 60 07:57 05.08.2022
760 Clear 25 1011 69 10000 1.54 50 05:20 05.08.2022
761 Clear 28 1011 60 10000 0.45 1 23:49 04.08.2022
762 Clear 29 1009 55 10000 3.13 218 21:39 04.08.2022
763 Clear 30 1010 57 10000 2.68 207 21:21 04.08.2022
764 Clear 30 1010 53 10000 4.12 240 20:40 04.08.2022
765 Clouds 32 1014 52 10000 5.14 240 19:21 04.08.2022
766 Clouds 31 1014 56 10000 6.17 240 18:34 04.08.2022
767 Clouds 32 1015 54 10000 7.2 240 16:54 04.08.2022
768 Clouds 32 1015 52 10000 5.14 240 13:35 04.08.2022
769 Clear 33 1015 46 10000 4.12 230 11:46 04.08.2022
770 Clear 31 1015 44 10000 0.89 109 10:27 04.08.2022
771 Clear 24 1011 50 10000 2.06 350 07:51 04.08.2022
772 Clear 24 1010 51 10000 2.06 60 04:28 04.08.2022
773 Clear 26 1011 53 10000 1.79 355 01:58 04.08.2022
774 Clear 28 1011 57 10000 1.54 80 23:42 03.08.2022
775 Clear 29 1007 42 10000 1.34 230 21:50 03.08.2022
776 Clear 32 1007 39 10000 3.6 240 20:37 03.08.2022
777 Clouds 31 1014 62 10000 4.63 240 19:28 03.08.2022
778 Clouds 31 1014 63 10000 6.69 240 17:58 03.08.2022
779 Clouds 32 1015 61 10000 7.2 240 16:24 03.08.2022
780 Clouds 33 1015 55 10000 5.66 240 14:43 03.08.2022
781 Clear 34 1016 37 10000 3.09 240 11:53 03.08.2022
782 Clear 27 1011 51 10000 2.06 350 08:26 03.08.2022
783 Clear 25 1010 56 10000 1.54 60 04:47 03.08.2022
784 Clear 26 1011 53 10000 1.54 80 03:28 03.08.2022
785 Clear 27 1011 52 10000 1.03 80 01:18 03.08.2022
786 Clear 30 1011 46 10000 1.54 170 23:18 02.08.2022
787 Clear 30 1011 45 10000 1.54 200 21:55 02.08.2022
788 Clear 31 1010 44 10000 2.06 200 21:30 02.08.2022
789 Clouds 32 1015 48 10000 4.63 210 18:59 02.08.2022
790 Clouds 33 1016 42 10000 5.81 183 16:27 02.08.2022
791 Clouds 33 1017 46 10000 5.66 240 12:53 02.08.2022
792 Clear 31 1017 47 10000 0.51 300 09:42 02.08.2022
793 Clear 25 1012 60 10000 1.03 0 07:56 02.08.2022
794 Clear 24 1012 62 10000 0.89 68 07:25 02.08.2022
795 Clouds 25 1010 57 10000 1.78 323 04:55 02.08.2022
796 Clouds 28 1012 58 10000 1.03 130 23:52 01.08.2022
797 Clouds 29 1012 54 10000 1.03 0 22:57 01.08.2022
798 Clear 30 1011 46 10000 2.57 220 20:57 01.08.2022
799 Clouds 31 1016 52 10000 4.12 210 19:41 01.08.2022
800 Clouds 32 1016 49 10000 5.36 180 18:43 01.08.2022
801 Clouds 33 1016 40 10000 6.69 220 16:54 01.08.2022
802 Clouds 33 1016 41 10000 6.69 220 16:29 01.08.2022
803 Clouds 33 1017 38 10000 6.17 210 15:33 01.08.2022
804 Clouds 33 1017 42 10000 5.66 230 14:43 01.08.2022
805 Clouds 33 1017 50 10000 4.63 230 12:57 01.08.2022
806 Clear 30 1011 48 10000 1.34 220 10:30 01.08.2022
807 Clear 28 1011 54 10000 1.34 220 08:45 01.08.2022
808 Clouds 25 1011 59 10000 2.57 20 06:50 01.08.2022
809 Clouds 26 1011 62 10000 1.34 220 04:30 01.08.2022
810 Clouds 27 1011 58 10000 2.57 70 00:58 01.08.2022
811 Clouds 28 1011 56 10000 1.54 90 22:44 31.07.2022
812 Clouds 28 1011 56 10000 1.34 220 22:18 31.07.2022
813 Clouds 29 1011 53 10000 3.09 230 20:21 31.07.2022
814 Clouds 30 1011 50 10000 5.14 230 18:38 31.07.2022
815 Clouds 31 1017 55 10000 6.69 250 16:26 31.07.2022
816 Clouds 32 1017 55 10000 3.09 190 14:33 31.07.2022
817 Clouds 33 1018 43 10000 3.6 50 12:55 31.07.2022
818 Clouds 31 1018 51 10000 3.6 60 10:53 31.07.2022
819 Clouds 27 1012 63 10000 1.34 220 08:46 31.07.2022
820 Clouds 26 1012 65 10000 1.54 350 05:20 31.07.2022
821 Clouds 27 1013 62 10000 1.79 355 01:20 31.07.2022
822 Clouds 28 1012 65 10000 1.54 240 22:40 30.07.2022
823 Clouds 28 1012 62 10000 2.57 230 21:50 30.07.2022
824 Clouds 28 1012 62 10000 3.09 230 21:32 30.07.2022
825 Clouds 29 1012 59 10000 4.12 230 20:33 30.07.2022
826 Clouds 29 1012 60 10000 4.63 220 19:50 30.07.2022
827 Clouds 30 1012 58 10000 6.17 220 17:53 30.07.2022
828 Clouds 31 1018 62 10000 5.66 240 16:38 30.07.2022
829 Clouds 32 1019 59 10000 3.58 211 15:30 30.07.2022
830 Clouds 32 1019 53 10000 4.12 60 13:23 30.07.2022
831 Clouds 31 1019 55 10000 5.14 60 12:22 30.07.2022
832 Clouds 31 1019 57 10000 5.14 60 11:51 30.07.2022
833 Clouds 29 1012 56 10000 5.66 70 10:19 30.07.2022
834 Clouds 27 1012 68 10000 3.09 50 08:54 30.07.2022
835 Clouds 25 1018 84 10000 1.54 80 06:58 30.07.2022
836 Clouds 27 1011 67 10000 2.06 30 02:33 30.07.2022
837 Clouds 28 1011 67 10000 2.06 70 00:30 30.07.2022
838 Clouds 28 1011 65 10000 3.09 230 21:38 29.07.2022
839 Clouds 28 1010 65 10000 3.09 230 20:50 29.07.2022
840 Clouds 29 1010 63 10000 3.6 230 19:46 29.07.2022
841 Clouds 30 1010 61 10000 6.69 240 17:34 29.07.2022
842 Clouds 32 1015 64 10000 7.72 220 14:50 29.07.2022
843 Clouds 32 1015 55 10000 5.66 240 12:52 29.07.2022
844 Clouds 28 1010 62 10000 2.06 40 09:34 29.07.2022
845 Clouds 27 1010 66 10000 1.54 40 08:41 29.07.2022
846 Clouds 24 1014 85 10000 2.57 70 06:40 29.07.2022
847 Clouds 26 1015 78 10000 2.06 70 01:19 29.07.2022
848 Clouds 28 1006 54 10000 2.57 180 21:45 28.07.2022
849 Clouds 28 1009 58 10000 2.68 182 20:54 28.07.2022
850 Clouds 29 1009 59 10000 3.13 221 20:20 28.07.2022
851 Clear 29 1008 57 10000 3.13 195 19:40 28.07.2022
852 Clouds 30 1009 56 10000 6.17 240 18:25 28.07.2022
853 Clouds 29 1009 57 10000 6.17 230 17:42 28.07.2022
854 Clouds 29 1009 56 10000 7.2 220 16:41 28.07.2022
855 Clouds 29 1009 56 10000 7.72 230 14:50 28.07.2022
856 Clouds 29 1010 56 10000 5.14 230 12:41 28.07.2022
857 Clear 28 1009 58 10000 1.34 220 09:34 28.07.2022
858 Clouds 23 1013 79 10000 1.34 355 06:21 28.07.2022
859 Clouds 23 1013 81 10000 1.34 355 05:26 28.07.2022
860 Clouds 26 1014 70 10000 1.03 80 00:44 28.07.2022
861 Clouds 28 1006 55 10000 2.06 180 22:26 27.07.2022
862 Clouds 29 1006 49 10000 4.12 230 20:25 27.07.2022
863 Clouds 29 1013 63 10000 4.63 220 19:34 27.07.2022
864 Clouds 30 1013 58 10000 5.66 230 17:23 27.07.2022
865 Clouds 31 1014 51 10000 6.17 220 15:52 27.07.2022
866 Clouds 31 1014 58 10000 6.69 230 14:48 27.07.2022
867 Clouds 31 1014 58 10000 6.69 230 14:30 27.07.2022
868 Clouds 31 1014 58 10000 6.17 220 12:48 27.07.2022
869 Clouds 25 1008 71 10000 1.54 40 07:53 27.07.2022
870 Clouds 25 1007 70 10000 1.54 90 06:18 27.07.2022
871 Clouds 26 1014 69 10000 2.06 60 00:46 27.07.2022
872 Clouds 28 1007 62 10000 2.06 10 22:25 26.07.2022
873 Clouds 29 1006 59 10000 3.09 260 21:20 26.07.2022
874 Clouds 29 1006 59 10000 3.09 260 21:20 26.07.2022
875 Clouds 31 1006 48 10000 4.63 240 19:59 26.07.2022
876 Clouds 31 1013 55 10000 4.12 240 18:41 26.07.2022
877 Clouds 32 1013 51 10000 1.54 100 17:57 26.07.2022
878 Clouds 32 1015 43 10000 3.6 50 15:58 26.07.2022
879 Clouds 32 1016 44 10000 5.66 60 14:57 26.07.2022
880 Clouds 31 1016 49 10000 7.72 60 13:20 26.07.2022
881 Clouds 30 1016 57 10000 8.75 60 10:59 26.07.2022
882 Clouds 29 1012 59 10000 8.75 70 08:55 26.07.2022
883 Clear 27 1011 73 10000 5.14 60 05:49 26.07.2022
884 Clear 28 1011 73 10000 2.57 50 00:28 26.07.2022
885 Clear 28 1011 77 10000 1.03 190 22:53 25.07.2022
886 Clear 29 1010 75 10000 1.03 210 22:22 25.07.2022
887 Clear 29 1007 68 10000 1.54 210 21:38 25.07.2022
888 Clear 29 1014 77 10000 3.09 220 20:40 25.07.2022
889 Clouds 30 1014 74 10000 3.6 220 19:33 25.07.2022
890 Clear 32 1014 67 10000 4.63 220 18:18 25.07.2022
891 Clear 33 1013 63 10000 5.14 220 17:27 25.07.2022
892 Clear 34 1014 54 10000 5.66 220 14:59 25.07.2022
893 Clear 33 1016 40 10000 4.63 230 12:22 25.07.2022
894 Clear 32 1016 42 10000 0 0 09:50 25.07.2022
895 Clear 25 1012 50 10000 1.54 50 04:38 25.07.2022
896 Clear 28 1013 43 10000 0.89 248 23:54 24.07.2022
897 Clear 28 1010 42 10000 0.51 50 23:18 24.07.2022
898 Clear 30 1010 36 10000 0.45 248 22:29 24.07.2022
899 Clear 31 1012 42 10000 2.06 240 21:25 24.07.2022
900 Clear 31 1017 49 10000 3.6 240 20:51 24.07.2022
901 Clear 32 1016 53 10000 4.12 240 20:26 24.07.2022
902 Clear 33 1016 48 10000 5.14 240 18:48 24.07.2022
903 Clear 33 1018 48 10000 7.2 240 16:32 24.07.2022
904 Clear 34 1018 44 10000 7.2 240 15:50 24.07.2022
905 Clear 34 1018 40 10000 6.69 250 14:38 24.07.2022
906 Clear 34 1019 29 10000 4.12 240 12:55 24.07.2022
907 Clear 34 1019 30 10000 3.6 250 12:18 24.07.2022
908 Clear 34 1019 34 10000 1.79 221 11:26 24.07.2022
909 Clear 29 1014 45 10000 0.51 70 08:56 24.07.2022
910 Clear 24 1014 55 10000 0.89 344 07:52 24.07.2022
911 Clear 24 1014 55 10000 1.54 40 06:27 24.07.2022
912 Clear 26 1014 50 10000 0.45 292 01:50 24.07.2022
913 Clear 29 1014 62 10000 1.34 292 22:25 23.07.2022
914 Clear 31 1018 62 10000 3.09 240 20:35 23.07.2022
915 Clear 32 1018 57 10000 5.66 230 18:51 23.07.2022
916 Clear 32 1018 57 10000 6.17 230 17:41 23.07.2022
917 Clear 32 1018 55 10000 6.17 230 17:23 23.07.2022
918 Clouds 32 1018 56 10000 6.69 240 15:42 23.07.2022
919 Clear 33 1018 46 10000 6.69 250 14:59 23.07.2022
920 Clear 33 1018 51 10000 6.17 250 14:36 23.07.2022
921 Clear 33 1019 41 10000 5.14 240 13:50 23.07.2022
922 Clear 34 1018 32 10000 1.03 80 11:19 23.07.2022
923 Clear 33 1018 41 10000 2.57 50 10:23 23.07.2022
924 Clear 29 1018 43 10000 2.57 40 09:26 23.07.2022
925 Clear 23 1014 61 10000 1.34 347 04:59 23.07.2022
926 Clear 25 1013 62 10000 0.51 0 02:30 23.07.2022
927 Clear 27 1013 64 10000 1.03 140 23:39 22.07.2022
928 Clear 30 1013 59 10000 3.6 230 21:18 22.07.2022
929 Clear 31 1016 57 10000 5.14 230 19:55 22.07.2022
930 Clear 31 1017 65 10000 4.47 142 18:36 22.07.2022
931 Clear 33 1017 43 10000 5.14 230 17:37 22.07.2022
932 Clear 33 1017 47 10000 5.14 240 15:26 22.07.2022
933 Clear 33 1018 37 10000 3.6 240 12:33 22.07.2022
934 Clear 30 1018 50 10000 1.03 340 09:45 22.07.2022
935 Clear 29 1018 59 10000 1.03 0 09:19 22.07.2022
936 Clear 23 1013 73 10000 0.89 5 07:23 22.07.2022
937 Clear 25 1013 74 10000 1.03 0 04:18 22.07.2022
938 Clear 28 1014 70 10000 1.54 250 22:56 21.07.2022
939 Clear 29 1013 63 10000 3.09 230 21:35 21.07.2022
940 Clear 31 1018 60 10000 4.12 230 19:35 21.07.2022
941 Clouds 31 1018 53 10000 5.66 230 18:29 21.07.2022
942 Clouds 32 1019 52 10000 6.17 230 17:20 21.07.2022
943 Clouds 32 1019 52 10000 5.14 230 15:39 21.07.2022
944 Clouds 35 1018 44 10000 5.66 230 14:44 21.07.2022
945 Clouds 34 1020 43 10000 4.63 60 13:22 21.07.2022
946 Clear 32 1020 47 10000 5.66 60 11:42 21.07.2022
947 Clear 31 1016 51 10000 7.72 60 09:44 21.07.2022
948 Clear 29 1015 58 10000 6.69 60 08:53 21.07.2022
949 Clouds 25 1015 74 10000 3.09 50 07:50 21.07.2022
950 Clear 25 1015 72 10000 2.57 60 06:25 21.07.2022
951 Clear 26 1015 68 10000 1.54 40 02:23 21.07.2022
952 Clear 29 1015 67 10000 1.03 0 22:24 20.07.2022
953 Clear 29 1015 66 10000 1.54 230 21:49 20.07.2022
954 Clouds 30 1018 62 10000 3.09 240 20:46 20.07.2022
955 Clouds 31 1018 65 10000 3.6 240 19:46 20.07.2022
956 Clouds 31 1018 66 10000 3.6 230 18:53 20.07.2022
957 Clouds 31 1018 62 10000 4.12 230 18:30 20.07.2022
958 Clouds 32 1018 57 10000 5.14 230 17:24 20.07.2022
959 Clouds 32 1019 57 10000 7.2 240 15:32 20.07.2022
960 Clouds 32 1019 56 10000 6.69 240 14:35 20.07.2022
961 Clear 32 1019 58 10000 5.66 230 12:51 20.07.2022
962 Clear 32 1018 46 10000 2.57 50 10:29 20.07.2022
963 Clear 24 1013 71 10000 1.34 360 05:52 20.07.2022
964 Clear 26 1013 76 10000 0.89 270 01:40 20.07.2022
965 Clear 27 1013 75 10000 0.89 270 00:41 20.07.2022
966 Clear 28 1012 70 10000 0.89 203 22:35 19.07.2022
967 Clear 28 1009 66 10000 1.79 215 21:54 19.07.2022
968 Clear 30 1008 62 10000 3.6 240 20:49 19.07.2022
969 Clear 30 1016 69 10000 5.14 240 19:22 19.07.2022
970 Clear 31 1016 65 10000 6.17 240 18:41 19.07.2022
971 Clouds 31 1017 59 10000 6.69 240 17:53 19.07.2022
972 Clouds 32 1017 54 10000 6.69 240 15:49 19.07.2022
973 Clear 32 1018 56 10000 6.17 230 13:37 19.07.2022
974 Clear 33 1017 43 10000 1.34 224 11:33 19.07.2022
975 Clear 30 1018 65 10000 0.51 330 09:53 19.07.2022
976 Clear 29 1014 65 10000 1.03 0 08:48 19.07.2022
977 Clouds 25 1014 69 10000 1.03 0 07:57 19.07.2022
978 Clouds 24 1013 72 10000 1.34 343 07:18 19.07.2022
979 Clear 25 1013 70 10000 1.03 50 05:19 19.07.2022
980 Clear 25 1013 68 10000 0.89 248 04:40 19.07.2022
981 Clear 28 1014 66 10000 1.03 70 00:18 19.07.2022
982 Clear 28 1014 64 10000 1.54 110 23:20 18.07.2022
983 Clear 29 1014 66 10000 1.54 140 22:51 18.07.2022
984 Clear 29 1013 60 10000 3.09 230 21:27 18.07.2022
985 Clear 30 1017 64 10000 3.6 230 20:49 18.07.2022
986 Clear 31 1017 54 10000 3.6 230 19:21 18.07.2022
987 Clouds 32 1018 52 10000 6.69 220 16:50 18.07.2022
988 Clouds 32 1018 46 10000 6.17 220 15:41 18.07.2022
989 Clear 33 1019 41 10000 5.14 230 13:41 18.07.2022
990 Clear 33 1019 40 10000 3.6 230 12:37 18.07.2022
991 Clear 31 1019 45 10000 0.51 190 10:34 18.07.2022
992 Clear 29 1015 49 10000 1.54 360 08:50 18.07.2022
993 Clear 23 1014 69 10000 1.03 50 06:54 18.07.2022
994 Clear 29 1015 53 10000 0.89 242 23:31 17.07.2022
995 Clear 30 1014 46 10000 0.89 248 22:34 17.07.2022
996 Clear 30 1019 56 10000 1.03 230 21:47 17.07.2022
997 Clear 31 1018 52 10000 2.57 250 20:55 17.07.2022
998 Clear 31 1018 52 10000 2.57 250 20:36 17.07.2022
999 Clear 32 1015 43 10000 4.12 240 19:28 17.07.2022
1000 Clear 32 1015 41 10000 5.14 240 18:27 17.07.2022
1001 Clouds 32 1016 43 10000 7.2 240 17:38 17.07.2022
1002 Clouds 32 1016 43 10000 7.2 230 16:50 17.07.2022
1003 Clouds 33 1016 42 10000 7.2 230 16:26 17.07.2022
1004 Clear 33 1016 40 10000 6.69 230 14:37 17.07.2022
1005 Clear 33 1016 38 10000 4.63 230 13:30 17.07.2022
1006 Clear 33 1016 38 10000 1.79 198 11:35 17.07.2022
1007 Clear 29 1016 51 10000 0.89 215 08:57 17.07.2022
1008 Clear 25 1017 66 10000 1.03 0 03:44 17.07.2022
1009 Clear 26 1018 64 10000 1.03 170 02:32 17.07.2022
1010 Clear 28 1017 67 10000 0.51 0 23:20 16.07.2022
1011 Clear 29 1017 70 10000 2.06 210 21:30 16.07.2022
1012 Clouds 32 1014 43 10000 4.12 220 19:40 16.07.2022
1013 Clouds 32 1014 38 10000 4.12 220 18:32 16.07.2022
1014 Clouds 32 1014 38 10000 4.12 220 18:32 16.07.2022
1015 Clouds 32 1015 40 10000 5.14 230 16:53 16.07.2022
1016 Clear 32 1015 44 10000 5.14 240 13:56 16.07.2022
1017 Clear 32 1015 44 10000 1.34 200 11:38 16.07.2022
1018 Clear 30 1015 50 10000 1.03 0 09:35 16.07.2022
1019 Clear 28 1015 55 10000 2.06 50 08:47 16.07.2022
1020 Clear 25 1016 65 10000 1.54 70 08:29 16.07.2022
1021 Clear 23 1016 68 10000 1.03 60 04:24 16.07.2022
1022 Clear 24 1017 68 10000 1.03 40 03:29 16.07.2022
1023 Clear 27 1017 76 10000 1.03 70 23:37 15.07.2022
1024 Clear 28 1016 71 10000 1.03 220 22:41 15.07.2022
1025 Clear 29 1016 67 10000 2.06 220 21:29 15.07.2022
1026 Clear 31 1013 48 10000 3.09 230 20:31 15.07.2022
1027 Clear 31 1014 50 10000 4.63 220 18:44 15.07.2022
1028 Clear 31 1014 49 10000 5.66 220 17:44 15.07.2022
1029 Clouds 31 1014 43 10000 6.17 220 14:57 15.07.2022
1030 Clouds 32 1014 46 10000 5.14 230 13:20 15.07.2022
1031 Clear 31 1015 50 10000 3.09 230 11:45 15.07.2022
1032 Clear 30 1015 52 10000 1.54 220 10:27 15.07.2022
1033 Clouds 22 1016 79 10000 0.51 0 07:42 15.07.2022
1034 Clear 24 1018 77 10000 1.54 60 02:24 15.07.2022
1035 Clear 26 1018 72 10000 1.03 130 00:37 15.07.2022
1036 Clear 27 1019 74 10000 1.03 0 22:54 14.07.2022
1037 Clear 28 1018 69 10000 2.57 230 21:56 14.07.2022
1038 Clear 28 1018 67 10000 3.6 230 21:32 14.07.2022
1039 Clear 28 1018 68 10000 4.12 220 20:46 14.07.2022
1040 Clear 28 1018 68 10000 4.63 220 20:28 14.07.2022
1041 Clear 29 1018 65 10000 4.63 220 19:58 14.07.2022
1042 Clouds 31 1016 50 10000 7.2 240 16:42 14.07.2022
1043 Clouds 31 1016 50 10000 7.2 240 16:18 14.07.2022
1044 Clear 31 1017 48 10000 5.14 240 14:44 14.07.2022
1045 Clear 32 1017 43 10000 5.14 250 13:33 14.07.2022
1046 Clear 31 1017 46 10000 3.6 240 12:23 14.07.2022
1047 Clear 31 1017 42 10000 2.57 250 11:26 14.07.2022
1048 Clear 30 1017 41 10000 1.79 195 10:49 14.07.2022
1049 Clear 24 1021 60 10000 0.51 0 08:28 14.07.2022
1050 Clear 23 1021 65 10000 1.03 60 03:42 14.07.2022
1051 Clear 25 1022 70 10000 0.89 338 00:55 14.07.2022
1052 Clear 25 1022 71 10000 0.51 0 00:18 14.07.2022
1053 Clear 27 1021 68 10000 1.03 230 22:28 13.07.2022
1054 Clear 27 1021 70 10000 3.6 230 21:37 13.07.2022
1055 Clear 28 1020 68 10000 4.63 220 20:38 13.07.2022
1056 Clear 31 1017 38 10000 6.69 230 18:23 13.07.2022
1057 Clear 32 1017 41 10000 6.17 230 17:22 13.07.2022
1058 Clear 32 1017 41 10000 6.17 230 17:22 13.07.2022
1059 Clear 32 1017 42 10000 6.17 230 16:18 13.07.2022
1060 Clear 32 1018 39 10000 5.14 230 13:50 13.07.2022
1061 Clear 32 1018 43 10000 3.6 250 11:33 13.07.2022
1062 Clear 31 1018 46 10000 1.79 192 10:44 13.07.2022
1063 Clear 28 1021 57 10000 0.51 350 09:30 13.07.2022
1064 Clear 26 1021 59 10000 0.51 0 08:24 13.07.2022
1065 Clear 23 1020 71 10000 1.34 321 04:50 13.07.2022
1066 Clear 25 1021 73 10000 1.34 336 00:49 13.07.2022
1067 Clear 27 1020 72 10000 3.09 250 22:48 12.07.2022
1068 Clear 28 1020 65 10000 2.57 240 21:49 12.07.2022
1069 Clear 28 1019 58 10000 3.13 194 20:54 12.07.2022
1070 Clear 31 1016 47 10000 3.6 230 20:21 12.07.2022
1071 Clear 31 1016 41 10000 4.63 250 18:53 12.07.2022
1072 Clear 32 1016 36 10000 6.69 240 17:29 12.07.2022
1073 Clear 32 1017 41 10000 7.72 250 15:35 12.07.2022
1074 Clouds 32 1017 40 10000 5.66 230 13:44 12.07.2022
1075 Clear 33 1016 33 10000 2.57 90 11:59 12.07.2022
1076 Clear 32 1016 35 10000 2.57 60 10:46 12.07.2022
1077 Clear 29 1019 49 10000 1.34 18 09:19 12.07.2022
1078 Clear 23 1018 68 10000 1.54 50 07:57 12.07.2022
1079 Clear 21 1019 71 10000 2.06 70 05:54 12.07.2022
1080 Clear 21 1019 70 10000 1.34 346 05:35 12.07.2022
1081 Clear 25 1018 65 10000 1.03 50 01:43 12.07.2022
1082 Clear 26 1017 64 10000 0 0 22:52 11.07.2022
1083 Clear 28 1017 62 10000 1.03 0 21:44 11.07.2022
1084 Clear 28 1016 59 10000 4.12 230 20:33 11.07.2022
1085 Clear 31 1015 47 10000 4.63 230 19:33 11.07.2022
1086 Clouds 30 1015 50 10000 5.14 230 18:32 11.07.2022
1087 Clouds 31 1015 46 10000 5.66 220 17:36 11.07.2022
1088 Clouds 31 1015 49 10000 5.14 230 15:46 11.07.2022
1089 Clear 31 1015 42 10000 5.14 220 14:32 11.07.2022
1090 Clear 31 1015 46 10000 4.12 240 11:40 11.07.2022
1091 Clear 31 1015 39 10000 1.34 122 10:22 11.07.2022
1092 Clear 30 1015 41 10000 0.89 215 09:42 11.07.2022
1093 Clear 25 1016 57 10000 1.54 80 08:33 11.07.2022
1094 Clear 22 1016 69 10000 1.03 0 04:34 11.07.2022
1095 Clear 25 1017 66 10000 1.54 60 00:20 11.07.2022
1096 Clear 27 1017 63 10000 1.54 220 22:56 10.07.2022
1097 Clear 28 1017 65 10000 3.6 230 21:51 10.07.2022
1098 Clouds 28 1016 59 10000 3.6 230 20:54 10.07.2022
1099 Clouds 29 1016 50 10000 4.63 220 19:50 10.07.2022
1100 Clouds 31 1015 42 10000 5.14 210 18:48 10.07.2022
1101 Clouds 31 1015 40 10000 6.17 210 17:37 10.07.2022
1102 Clouds 32 1015 39 10000 5.66 210 16:57 10.07.2022
1103 Clouds 32 1015 32 10000 6.17 220 15:33 10.07.2022
1104 Clear 33 1015 34 10000 5.66 220 14:30 10.07.2022
1105 Clear 32 1015 34 10000 2.24 179 12:29 10.07.2022
1106 Clear 32 1015 33 10000 1.79 227 11:20 10.07.2022
1107 Clear 26 1018 50 10000 0.51 350 08:45 10.07.2022
1108 Clear 22 1018 66 10000 1.03 0 07:59 10.07.2022
1109 Clear 23 1020 65 10000 0.51 0 02:50 10.07.2022
1110 Clear 27 1020 60 10000 1.03 210 22:59 09.07.2022
1111 Clear 27 1020 60 10000 1.54 210 22:25 09.07.2022
1112 Clear 28 1020 56 10000 3.6 220 21:29 09.07.2022
1113 Clouds 29 1020 54 10000 4.63 220 18:45 09.07.2022
1114 Clouds 31 1017 45 10000 5.66 230 17:48 09.07.2022
1115 Clouds 31 1017 46 10000 6.69 240 16:59 09.07.2022
1116 Clouds 30 1018 48 10000 7.2 240 15:44 09.07.2022
1117 Clear 31 1018 47 10000 7.2 230 15:25 09.07.2022
1118 Clear 31 1018 45 10000 4.02 248 13:51 09.07.2022
1119 Clear 32 1018 33 10000 5.14 60 13:27 09.07.2022
1120 Clouds 32 1018 36 10000 4.63 60 11:33 09.07.2022
1121 Clouds 30 1022 43 10000 7.2 60 10:24 09.07.2022
1122 Clear 25 1022 61 10000 0.51 10 08:25 09.07.2022
1123 Clear 21 1022 70 10000 1.54 360 06:59 09.07.2022
1124 Clear 22 1022 69 10000 1.03 0 04:34 09.07.2022
1125 Clouds 26 1023 57 10000 1.03 0 23:22 08.07.2022
1126 Clouds 26 1022 63 10000 2.57 70 21:59 08.07.2022
1127 Clouds 27 1022 61 10000 4.12 70 21:18 08.07.2022
1128 Clouds 28 1021 60 10000 2.68 173 20:30 08.07.2022
1129 Clouds 30 1017 48 10000 3.6 140 18:36 08.07.2022
1130 Clouds 32 1017 42 10000 4.63 140 17:45 08.07.2022
1131 Clouds 32 1017 34 10000 5.66 230 15:30 08.07.2022
1132 Clouds 31 1017 35 10000 5.66 240 14:49 08.07.2022
1133 Clouds 30 1022 42 10000 3.09 230 12:30 08.07.2022
1134 Clouds 29 1022 50 10000 2.06 220 10:46 08.07.2022
1135 Clouds 27 1022 60 10000 0.89 326 09:24 08.07.2022
1136 Clouds 21 1018 76 10000 1.54 30 06:55 08.07.2022
1137 Clouds 22 1018 75 10000 0.45 270 04:32 08.07.2022
1138 Clouds 25 1018 66 10000 2.06 220 00:23 08.07.2022
1139 Clouds 27 1020 68 10000 3.09 210 22:47 07.07.2022
1140 Clouds 27 1020 65 10000 3.6 210 21:41 07.07.2022
1141 Clouds 28 1021 58 10000 5.66 210 19:28 07.07.2022
1142 Clouds 29 1022 59 10000 8.75 250 17:42 07.07.2022
1143 Clouds 29 1022 60 10000 8.75 230 15:58 07.07.2022
1144 Clouds 30 1022 41 10000 6.69 70 13:32 07.07.2022
1145 Clouds 30 1022 41 10000 8.75 60 12:40 07.07.2022
1146 Clouds 31 1022 41 10000 8.75 60 12:21 07.07.2022
1147 Clear 30 1021 43 10000 7.72 70 11:32 07.07.2022
1148 Clear 30 1021 45 10000 9.77 60 10:45 07.07.2022
1149 Clear 29 1021 48 10000 7.72 60 10:26 07.07.2022
1150 Clear 27 1016 55 10000 1.34 50 08:40 07.07.2022
1151 Clear 24 1016 67 10000 1.54 140 05:44 07.07.2022
1152 Clear 26 1015 49 10000 1.34 52 23:54 06.07.2022
1153 Clear 27 1016 51 10000 4.12 70 23:36 06.07.2022
1154 Clear 27 1016 46 10000 4.12 70 23:18 06.07.2022
1155 Clear 27 1013 32 10000 4.12 70 22:47 06.07.2022
1156 Clear 27 1013 32 10000 4.12 70 22:47 06.07.2022
1157 Clear 28 1015 32 10000 4.63 70 22:28 06.07.2022
1158 Clear 31 1017 33 10000 7.72 50 19:46 06.07.2022
1159 Clear 32 1018 38 10000 5.14 60 18:48 06.07.2022
1160 Clouds 33 1019 39 10000 8.23 60 16:58 06.07.2022
1161 Clouds 32 1019 38 10000 7.2 40 15:50 06.07.2022
1162 Clouds 31 1016 40 10000 5.66 80 12:44 06.07.2022
1163 Rain 30 1017 42 10000 5.66 70 11:52 06.07.2022
1164 Clear 29 1016 44 10000 8.75 70 10:49 06.07.2022
1165 Clouds 28 1015 50 10000 8.23 60 09:21 06.07.2022
1166 Clouds 26 1015 67 10000 4.63 60 07:44 06.07.2022
1167 Clouds 26 1015 70 10000 1.79 319 06:44 06.07.2022
1168 Clouds 27 1015 64 10000 4.63 50 23:42 05.07.2022
1169 Clouds 28 1017 69 10000 5.14 70 22:42 05.07.2022
1170 Clear 29 1017 62 10000 4.12 280 20:48 05.07.2022
1171 Clear 29 1017 62 10000 4.12 280 20:21 05.07.2022
1172 Clear 30 1017 62 10000 3.6 310 19:37 05.07.2022
1173 Clouds 31 1017 56 10000 6.17 280 17:50 05.07.2022
1174 Clouds 32 1012 44 10000 6.69 260 17:19 05.07.2022
1175 Clouds 33 1012 42 10000 4.63 230 16:18 05.07.2022
1176 Clear 33 1018 49 10000 5.66 240 14:54 05.07.2022
1177 Clear 32 1019 48 10000 6.69 50 13:34 05.07.2022
1178 Clear 31 1018 53 10000 6.69 60 12:22 05.07.2022
1179 Clear 31 1014 47 10000 9.26 60 10:45 05.07.2022
1180 Clear 30 1014 53 10000 9.26 70 09:52 05.07.2022
1181 Clouds 27 1014 78 9000 7.2 60 08:21 05.07.2022
1182 Clouds 24 1015 83 10000 2.06 70 06:51 05.07.2022
1183 Clouds 25 1014 83 10000 2.06 50 04:35 05.07.2022
1184 Clear 26 1013 76 10000 1.54 30 01:26 05.07.2022
1185 Clear 27 1013 80 10000 0.89 230 23:37 04.07.2022
1186 Clear 27 1009 77 10000 1.03 0 22:56 04.07.2022
1187 Clear 28 1009 67 10000 2.06 250 22:18 04.07.2022
1188 Clear 29 1011 63 10000 1.54 300 20:56 04.07.2022
1189 Clear 30 1011 60 10000 2.06 190 20:36 04.07.2022
1190 Clouds 30 1015 61 10000 3.09 220 19:56 04.07.2022
1191 Clouds 30 1015 63 10000 2.06 160 19:37 04.07.2022
1192 Clouds 31 1015 57 10000 3.13 111 18:51 04.07.2022
1193 Clouds 31 1016 60 10000 4.12 210 16:54 04.07.2022
1194 Clouds 31 1017 67 10000 6.17 230 15:35 04.07.2022
1195 Clouds 30 1017 69 10000 5.14 230 13:47 04.07.2022
1196 Clouds 30 1017 70 10000 4.12 230 12:42 04.07.2022
1197 Clear 31 1011 60 10000 4.12 240 10:57 04.07.2022
1198 Clear 30 1011 59 10000 4.12 230 10:27 04.07.2022
1199 Clear 28 1017 65 10000 2.68 179 09:21 04.07.2022
1200 Clear 24 1012 71 10000 4.12 70 06:27 04.07.2022
1201 Clear 25 1014 69 10000 2.06 80 02:59 04.07.2022
1202 Clear 26 1013 59 10000 1.54 70 23:52 03.07.2022
1203 Clear 28 1013 57 10000 2.06 80 22:36 03.07.2022
1204 Clear 29 1016 56 10000 0.51 0 20:46 03.07.2022
1205 Clear 31 1016 52 10000 2.06 230 19:52 03.07.2022
1206 Clear 31 1016 52 10000 2.06 230 19:24 03.07.2022
1207 Clear 31 1016 49 10000 2.06 220 18:27 03.07.2022
1208 Clear 30 1017 52 10000 5.14 220 17:38 03.07.2022
1209 Clear 30 1017 53 10000 2.68 228 15:28 03.07.2022
1210 Clear 30 1018 55 10000 3.6 230 14:53 03.07.2022
1211 Clear 31 1018 45 10000 6.17 230 13:50 03.07.2022
1212 Clear 31 1018 47 10000 3.09 330 12:47 03.07.2022
1213 Clear 32 1011 30 10000 2.57 340 12:19 03.07.2022
1214 Clear 29 1010 40 10000 0.89 45 10:54 03.07.2022
1215 Clear 28 1012 48 10000 2.57 90 10:36 03.07.2022
1216 Clear 24 1014 55 10000 2.57 80 07:38 03.07.2022
1217 Clear 24 1014 53 10000 4.12 60 06:52 03.07.2022
1218 Clear 26 1012 29 10000 3.09 80 00:41 03.07.2022
1219 Clear 27 1018 47 10000 2.57 70 23:38 02.07.2022
1220 Clear 27 1018 36 10000 3.09 70 22:31 02.07.2022
1221 Clear 31 1011 20 10000 4.12 80 20:31 02.07.2022
1222 Clear 32 1017 28 10000 4.63 80 19:49 02.07.2022
1223 Clear 33 1018 31 10000 4.12 100 18:48 02.07.2022
1224 Clear 33 1018 33 10000 4.12 90 17:40 02.07.2022
1225 Clear 33 1018 33 10000 5.14 120 16:32 02.07.2022
1226 Clear 32 1018 38 10000 4.63 90 13:51 02.07.2022
1227 Clear 29 1019 45 10000 4.63 90 11:51 02.07.2022
1228 Clear 27 1020 52 10000 5.14 70 10:52 02.07.2022
1229 Clear 27 1020 56 10000 4.02 61 10:25 02.07.2022
1230 Clear 24 1016 62 10000 2.24 29 08:39 02.07.2022
1231 Clear 24 1016 62 10000 2.24 29 08:19 02.07.2022
1232 Clear 22 1015 68 10000 4.12 50 05:51 02.07.2022
1233 Clear 24 1017 65 10000 2.57 30 00:34 02.07.2022
1234 Clear 24 1016 60 10000 2.06 40 23:30 01.07.2022
1235 Clear 25 1019 63 10000 3.09 80 22:35 01.07.2022
1236 Clear 27 1017 50 10000 3.6 70 21:39 01.07.2022
1237 Clear 27 1018 53 10000 4.12 70 20:59 01.07.2022
1238 Clear 27 1018 52 10000 5.14 60 20:37 01.07.2022
1239 Clouds 27 1017 64 10000 2.06 230 19:40 01.07.2022
1240 Clouds 28 1018 63 10000 3.6 240 17:45 01.07.2022
1241 Clouds 29 1018 47 10000 6.69 60 15:21 01.07.2022
1242 Clouds 28 1018 51 10000 7.72 50 13:54 01.07.2022
1243 Clouds 27 1018 53 10000 8.23 60 11:48 01.07.2022
1244 Clouds 25 1017 62 10000 8.75 70 10:19 01.07.2022
1245 Clouds 25 1013 63 10000 8.75 60 08:46 01.07.2022
1246 Clear 23 1010 80 10000 1.54 90 02:49 01.07.2022
1247 Clouds 24 1011 77 10000 1.54 40 00:25 01.07.2022
1248 Clouds 25 1013 80 10000 1.79 132 22:54 30.06.2022
1249 Clouds 25 1013 79 10000 1.34 144 22:33 30.06.2022
1250 Clouds 25 1012 78 10000 1.54 220 21:59 30.06.2022
1251 Clouds 26 1012 75 10000 2.06 210 21:35 30.06.2022
1252 Clouds 27 1012 71 10000 3.6 230 20:22 30.06.2022
1253 Clouds 27 1011 72 10000 3.6 230 19:53 30.06.2022
1254 Clouds 27 1011 70 10000 4.63 240 19:18 30.06.2022
1255 Clouds 27 1011 68 10000 5.66 240 18:35 30.06.2022
1256 Clouds 28 1012 72 10000 5.66 240 17:38 30.06.2022
1257 Clouds 28 1012 67 10000 5.66 240 16:48 30.06.2022
1258 Clouds 28 1012 67 10000 6.17 240 15:27 30.06.2022
1259 Clouds 28 1013 63 10000 4.63 230 13:34 30.06.2022
1260 Clouds 28 1013 61 10000 4.63 240 12:35 30.06.2022
1261 Clouds 27 1013 63 10000 3.6 240 11:37 30.06.2022
1262 Clouds 26 1013 67 10000 1.03 0 09:54 30.06.2022
1263 Clouds 26 1013 65 10000 1.54 20 09:34 30.06.2022
1264 Clouds 23 1012 69 10000 1.54 10 08:18 30.06.2022
1265 Clear 20 1012 77 10000 0.89 11 06:21 30.06.2022
1266 Clear 23 1013 83 10000 1.03 60 01:42 30.06.2022
1267 Clear 25 1013 75 10000 0.51 170 23:34 29.06.2022
1268 Clear 25 1013 72 10000 2.06 200 22:40 29.06.2022
1269 Clear 25 1012 75 10000 3.6 240 21:39 29.06.2022
1270 Clear 26 1012 72 10000 4.63 250 20:34 29.06.2022
1271 Clouds 28 1013 63 10000 5.66 240 19:37 29.06.2022
1272 Clouds 28 1014 64 10000 6.69 230 17:45 29.06.2022
1273 Clouds 28 1014 63 10000 7.2 240 16:43 29.06.2022
1274 Clouds 29 1015 55 10000 6.17 230 15:26 29.06.2022
1275 Clouds 29 1016 56 10000 4.63 230 12:49 29.06.2022
1276 Clouds 28 1016 58 10000 3.13 200 11:47 29.06.2022
1277 Clouds 26 1017 69 10000 1.03 0 09:34 29.06.2022
1278 Clouds 24 1017 71 10000 1.03 0 08:42 29.06.2022
1279 Clouds 20 1016 84 10000 1.03 30 05:19 29.06.2022
1280 Clouds 21 1017 79 10000 0.45 332 02:21 29.06.2022
1281 Clouds 23 1018 78 10000 1.03 160 00:38 29.06.2022
1282 Clouds 24 1018 76 10000 2.68 213 23:26 28.06.2022
1283 Clouds 25 1017 73 10000 2.24 219 22:48 28.06.2022
1284 Clouds 25 1017 73 10000 3.6 230 21:55 28.06.2022
1285 Clouds 25 1017 70 10000 4.63 240 21:33 28.06.2022
1286 Clouds 26 1017 67 10000 6.17 230 20:51 28.06.2022
1287 Clouds 27 1016 60 10000 7.2 240 19:48 28.06.2022
1288 Clouds 28 1016 51 10000 7.72 240 19:24 28.06.2022
1289 Clouds 29 1016 43 10000 8.23 240 17:49 28.06.2022
1290 Clouds 30 1017 41 10000 7.2 230 16:29 28.06.2022
1291 Clouds 30 1017 41 10000 6.69 230 15:53 28.06.2022
1292 Clouds 28 1018 50 10000 6.17 230 14:22 28.06.2022
1293 Clouds 28 1018 51 10000 6.17 230 13:55 28.06.2022
1294 Clouds 27 1018 55 10000 6.17 220 13:32 28.06.2022
1295 Clouds 27 1018 60 10000 4.63 230 11:57 28.06.2022
1296 Clouds 26 1018 56 10000 1.54 20 09:46 28.06.2022
1297 Clouds 25 1018 60 10000 3.09 340 08:46 28.06.2022
1298 Clouds 24 1018 72 10000 2.06 350 07:58 28.06.2022
1299 Clouds 23 1017 75 10000 2.24 279 07:19 28.06.2022
1300 Clouds 24 1017 81 10000 1.03 50 02:25 28.06.2022
1301 Clouds 25 1018 77 10000 3.09 70 23:47 27.06.2022
1302 Clouds 25 1017 76 10000 3.09 60 22:56 27.06.2022
1303 Clouds 26 1016 71 10000 2.57 50 21:39 27.06.2022
1304 Clouds 26 1016 72 10000 2.57 50 21:18 27.06.2022
1305 Clouds 27 1015 69 10000 3.6 60 19:48 27.06.2022
1306 Clouds 28 1014 65 10000 4.12 60 18:45 27.06.2022
1307 Clouds 28 1015 69 10000 4.63 60 17:26 27.06.2022
1308 Clouds 29 1014 67 10000 4.02 228 15:43 27.06.2022
1309 Clouds 27 1014 76 10000 4.47 198 14:18 27.06.2022
1310 Clouds 30 1014 56 10000 5.66 60 12:58 27.06.2022
1311 Clouds 29 1014 60 10000 3.6 60 11:30 27.06.2022
1312 Clouds 26 1014 76 10000 0.51 40 09:45 27.06.2022
1313 Clouds 23 1013 78 10000 0.51 0 08:43 27.06.2022
1314 Clouds 22 1012 77 10000 1.03 0 07:39 27.06.2022
1315 Clear 21 1011 84 10000 2.06 60 05:22 27.06.2022
1316 Clouds 23 1012 82 10000 1.03 0 01:22 27.06.2022
1317 Clouds 25 1011 78 10000 0.51 0 22:59 26.06.2022
1318 Clear 26 1009 68 10000 3.6 210 21:38 26.06.2022
1319 Clouds 27 1009 68 10000 4.63 210 20:28 26.06.2022
1320 Clouds 28 1010 62 10000 5.66 230 18:33 26.06.2022
1321 Clouds 27 1010 66 10000 5.66 220 17:47 26.06.2022
1322 Clouds 29 1010 64 10000 6.17 230 15:37 26.06.2022
1323 Clouds 28 1011 70 10000 6.69 230 14:23 26.06.2022
1324 Clouds 29 1010 67 10000 7.2 220 13:24 26.06.2022
1325 Clouds 30 1010 50 10000 2.06 80 11:41 26.06.2022
1326 Clouds 28 1011 63 10000 2.57 70 10:42 26.06.2022
1327 Clouds 28 1011 66 10000 2.57 70 10:19 26.06.2022
1328 Clouds 24 1010 79 10000 2.06 340 08:27 26.06.2022
1329 Clouds 22 1010 82 10000 1.79 31 06:31 26.06.2022
1330 Clear 24 1012 81 10000 0 0 00:37 26.06.2022
1331 Clear 24 1012 81 10000 0 0 00:19 26.06.2022
1332 Clear 25 1012 77 10000 1.03 200 23:31 25.06.2022
1333 Clear 25 1012 75 10000 1.03 190 22:48 25.06.2022
1334 Clear 25 1011 73 10000 2.06 180 22:25 25.06.2022
1335 Clear 25 1011 73 10000 3.6 240 21:21 25.06.2022
1336 Clear 25 1010 72 10000 3.6 240 20:48 25.06.2022
1337 Clouds 27 1010 68 10000 3.6 240 20:25 25.06.2022
1338 Clouds 27 1011 68 10000 6.69 230 18:24 25.06.2022
1339 Clouds 27 1011 67 10000 6.69 230 17:27 25.06.2022
1340 Clouds 28 1012 64 10000 5.66 240 16:28 25.06.2022
1341 Clouds 28 1012 67 10000 6.69 240 14:43 25.06.2022
1342 Clouds 27 1013 69 10000 6.69 240 12:51 25.06.2022
1343 Clouds 27 1013 68 10000 6.69 230 12:32 25.06.2022
1344 Clear 26 1013 66 10000 0.51 0 09:35 25.06.2022
1345 Clear 25 1013 70 10000 0.51 340 08:55 25.06.2022
1346 Clear 23 1013 73 10000 0.89 360 08:25 25.06.2022
1347 Clear 20 1013 82 10000 0.45 340 06:36 25.06.2022
1348 Clouds 24 1015 77 10000 1.03 0 01:31 25.06.2022
1349 Clouds 25 1014 71 10000 1.54 110 23:58 24.06.2022
1350 Clouds 26 1014 69 10000 1.03 310 22:29 24.06.2022
1351 Clouds 27 1013 62 10000 2.57 210 21:28 24.06.2022
1352 Clouds 29 1013 48 10000 4.12 210 20:24 24.06.2022
1353 Clouds 29 1013 49 10000 5.14 210 19:39 24.06.2022
1354 Clouds 29 1013 50 10000 5.14 210 19:18 24.06.2022
1355 Clouds 30 1013 50 10000 6.17 220 18:44 24.06.2022
1356 Clouds 30 1013 50 10000 5.14 210 18:24 24.06.2022
1357 Clouds 28 1014 69 10000 4.12 220 16:48 24.06.2022
1358 Clouds 27 1014 69 10000 6.17 210 14:57 24.06.2022
1359 Clouds 26 1014 71 10000 6.17 220 14:24 24.06.2022
1360 Clouds 27 1014 68 10000 5.14 240 13:46 24.06.2022
1361 Clouds 26 1014 75 10000 7.2 230 11:42 24.06.2022
1362 Clouds 26 1014 74 10000 5.81 190 10:39 24.06.2022
1363 Clouds 25 1015 70 10000 6.17 240 09:42 24.06.2022
1364 Clouds 25 1014 72 10000 4.63 240 08:54 24.06.2022
1365 Clouds 25 1014 75 10000 3.6 240 08:32 24.06.2022
1366 Clouds 24 1014 80 10000 3.09 210 06:45 24.06.2022
1367 Clouds 24 1014 84 10000 2.57 210 06:26 24.06.2022
1368 Clouds 24 1015 82 10000 4.12 210 04:50 24.06.2022
1369 Clear 24 1015 74 10000 3.09 240 23:43 23.06.2022
1370 Clear 24 1015 74 10000 3.09 240 23:43 23.06.2022
1371 Clear 25 1015 71 10000 3.09 220 22:43 23.06.2022
1372 Clear 25 1014 72 10000 3.09 220 21:40 23.06.2022
1373 Clear 24 1015 77 10000 5.14 220 20:42 23.06.2022
1374 Clear 25 1014 77 10000 5.66 210 19:55 23.06.2022
1375 Clear 26 1014 74 10000 6.17 210 18:43 23.06.2022
1376 Clear 27 1014 62 10000 6.69 220 17:35 23.06.2022
1377 Clouds 27 1015 64 10000 6.17 230 16:32 23.06.2022
1378 Clouds 28 1015 56 10000 6.69 220 15:26 23.06.2022
1379 Clouds 28 1015 62 10000 7.2 230 14:45 23.06.2022
1380 Clouds 25 1015 74 10000 7.2 220 11:49 23.06.2022
1381 Clouds 25 1014 70 10000 8.23 230 10:42 23.06.2022
1382 Clouds 24 1014 77 10000 7.72 230 09:19 23.06.2022
1383 Rain 20 1012 93 10000 3.09 50 05:37 23.06.2022
1384 Rain 25 1013 73 10000 5.66 230 01:21 23.06.2022
1385 Clouds 25 1013 71 10000 6.17 220 00:18 23.06.2022
1386 Clouds 26 1012 73 10000 4.12 220 23:22 22.06.2022
1387 Clouds 26 1011 71 10000 3.6 220 21:44 22.06.2022
1388 Clouds 26 1011 69 10000 4.12 220 20:52 22.06.2022
1389 Clouds 27 1011 69 10000 4.63 220 20:20 22.06.2022
1390 Clouds 27 1011 68 10000 4.63 220 19:43 22.06.2022
1391 Clouds 29 1011 63 10000 6.17 220 17:40 22.06.2022
1392 Clouds 29 1011 63 10000 6.69 220 16:43 22.06.2022
1393 Clouds 29 1012 67 10000 6.69 230 15:29 22.06.2022
1394 Clouds 29 1012 62 10000 7.2 230 14:51 22.06.2022
1395 Clouds 28 1012 68 10000 7.2 220 13:48 22.06.2022
1396 Clouds 28 1012 69 10000 7.2 220 13:24 22.06.2022
1397 Clouds 28 1011 68 10000 7.2 220 12:18 22.06.2022
1398 Clouds 28 1011 62 10000 6.17 220 11:45 22.06.2022
1399 Clouds 29 1011 64 10000 6.69 220 11:45 22.06.2022
1400 Clouds 28 1011 67 10000 7.72 220 10:47 22.06.2022
1401 Clouds 26 1011 86 10000 4.12 190 09:40 22.06.2022
1402 Clouds 25 1012 79 10000 1.34 160 06:55 22.06.2022
1403 Rain 26 1010 82 10000 2.68 308 02:26 22.06.2022
1404 Clouds 26 1013 79 9000 4.12 260 00:57 22.06.2022
1405 Clouds 26 1013 80 9000 4.12 260 00:57 22.06.2022
1406 Rain 28 1009 68 10000 1.03 0 22:53 21.06.2022
1407 Clouds 30 1009 47 10000 5.14 340 21:21 21.06.2022
1408 Rain 29 1009 52 10000 1.03 0 19:30 21.06.2022
1409 Rain 29 1009 52 10000 1.03 0 19:30 21.06.2022
1410 Clouds 29 1011 54 10000 1.34 190 17:56 21.06.2022
1411 Clouds 30 1011 70 10000 5.14 230 16:47 21.06.2022
1412 Clouds 28 1013 72 10000 6.69 240 12:23 21.06.2022
1413 Clouds 28 1011 72 10000 1.54 310 10:47 21.06.2022
1414 Clouds 26 1012 81 8000 1.03 0 09:35 21.06.2022
1415 Clouds 24 1012 87 9000 0 0 07:56 21.06.2022
1416 Clear 24 1011 82 10000 1.54 90 04:59 21.06.2022
1417 Clouds 25 1012 77 10000 1.54 90 00:31 21.06.2022
1418 Clouds 28 1012 70 10000 3.09 170 22:21 20.06.2022
1419 Clouds 29 1011 70 10000 2.06 170 21:40 20.06.2022
1420 Clear 30 1010 67 10000 2.57 240 20:30 20.06.2022
1421 Clear 29 1010 78 10000 5.14 290 19:37 20.06.2022
1422 Clear 29 1011 78 10000 3.6 270 18:43 20.06.2022
1423 Clear 31 1011 62 10000 4.12 250 17:50 20.06.2022
1424 Clear 30 1011 65 10000 5.66 250 16:53 20.06.2022
1425 Clouds 30 1013 62 10000 7.2 250 15:52 20.06.2022
1426 Clear 31 1011 64 10000 3.6 270 12:38 20.06.2022
1427 Clouds 28 1012 69 9000 0.51 160 10:32 20.06.2022
1428 Clouds 25 1012 81 9000 1.03 0 08:57 20.06.2022
1429 Clouds 24 1011 85 9000 0 0 08:20 20.06.2022
1430 Clear 24 1011 82 10000 1.54 70 05:35 20.06.2022
1431 Clear 25 1013 76 10000 2.57 60 01:33 20.06.2022
1432 Clear 25 1013 66 10000 2.06 70 00:25 20.06.2022
1433 Clear 26 1012 59 10000 1.34 116 22:50 19.06.2022
1434 Clear 28 1011 51 10000 2.57 130 21:51 19.06.2022
1435 Clear 28 1012 48 10000 3.13 93 21:31 19.06.2022
1436 Clear 28 1012 47 10000 5.14 130 20:38 19.06.2022
1437 Clear 30 1012 41 10000 5.66 150 19:47 19.06.2022
1438 Clear 31 1012 36 10000 7.2 160 18:45 19.06.2022
1439 Clear 31 1012 42 10000 7.15 130 17:54 19.06.2022
1440 Clear 33 1012 38 10000 7.2 170 17:22 19.06.2022
1441 Clear 32 1012 41 10000 6.69 150 16:35 19.06.2022
1442 Clear 33 1012 38 10000 6.69 160 15:41 19.06.2022
1443 Clear 33 1012 39 10000 7.2 140 14:57 19.06.2022
1444 Clear 34 1012 34 10000 6.17 150 14:19 19.06.2022
1445 Clear 34 1012 32 10000 6.69 140 13:23 19.06.2022
1446 Clear 32 1012 43 10000 5.36 130 11:21 19.06.2022
1447 Clear 29 1013 55 10000 3.6 80 09:58 19.06.2022
1448 Clear 28 1012 57 10000 4.12 60 08:49 19.06.2022
1449 Clear 26 1012 62 10000 3.6 70 08:19 19.06.2022
1450 Clear 23 1013 60 10000 2.06 60 05:42 19.06.2022
1451 Clouds 24 1014 74 10000 1.79 5 02:26 19.06.2022
1452 Clear 25 1015 74 10000 3.09 50 00:25 19.06.2022
1453 Clear 26 1014 74 10000 3.6 50 23:36 18.06.2022
1454 Clear 26 1014 72 10000 2.68 73 22:44 18.06.2022
1455 Clear 27 1014 79 10000 2.06 320 21:38 18.06.2022
1456 Clouds 27 1014 79 10000 3.6 330 20:42 18.06.2022
1457 Clear 30 1014 69 10000 3.6 250 19:40 18.06.2022
1458 Clear 30 1014 69 10000 3.6 230 18:54 18.06.2022
1459 Clear 31 1015 65 10000 5.14 230 17:35 18.06.2022
1460 Clear 31 1015 63 10000 5.66 240 16:59 18.06.2022
1461 Clear 32 1015 55 10000 5.66 240 15:37 18.06.2022
1462 Clear 32 1015 37 10000 4.63 250 14:48 18.06.2022
1463 Clear 31 1016 48 10000 4.12 240 13:42 18.06.2022
1464 Clear 35 1017 29 10000 2.57 40 11:58 18.06.2022
1465 Clear 34 1017 33 10000 2.06 360 10:56 18.06.2022
1466 Clear 33 1017 34 10000 2.06 360 10:56 18.06.2022
1467 Clear 29 1018 46 10000 2.57 50 09:28 18.06.2022
1468 Clear 26 1018 50 10000 2.06 40 08:32 18.06.2022
1469 Clear 23 1018 58 10000 0.89 340 07:23 18.06.2022
1470 Clear 24 1018 53 10000 1.03 40 04:20 18.06.2022
1471 Clear 27 1018 45 10000 2.06 40 01:27 18.06.2022
1472 Clear 27 1019 46 10000 0.89 333 00:50 18.06.2022
1473 Clear 28 1019 42 10000 1.34 337 00:21 18.06.2022
1474 Clear 29 1018 39 10000 3.09 60 23:29 17.06.2022
1475 Clear 33 1017 38 10000 2.57 60 21:44 17.06.2022
1476 Clear 34 1018 40 10000 0.89 134 20:29 17.06.2022
1477 Clear 32 1018 49 10000 3.6 220 19:19 17.06.2022
1478 Clear 32 1019 47 10000 4.12 220 17:47 17.06.2022
1479 Clear 31 1019 54 10000 4.63 220 16:44 17.06.2022
1480 Clear 32 1019 55 10000 4.63 220 16:19 17.06.2022
1481 Clear 32 1018 55 10000 4.12 230 15:37 17.06.2022
1482 Clear 32 1018 55 10000 4.12 230 15:37 17.06.2022
1483 Clear 32 1020 42 10000 5.14 210 14:23 17.06.2022
1484 Clear 31 1020 44 10000 5.66 220 13:58 17.06.2022
1485 Clear 31 1020 44 10000 5.66 230 13:38 17.06.2022
1486 Clear 33 1019 40 10000 4.63 240 12:24 17.06.2022
1487 Clear 32 1019 37 10000 3.09 240 11:50 17.06.2022
1488 Clear 34 1015 23 10000 2.06 230 11:32 17.06.2022
1489 Clear 29 1013 36 10000 0.89 204 08:56 17.06.2022
1490 Clear 27 1015 44 10000 1.03 0 08:25 17.06.2022
1491 Clear 22 1014 50 10000 1.79 355 06:42 17.06.2022
1492 Clear 23 1014 48 10000 1.03 60 03:45 17.06.2022
1493 Clear 24 1015 44 10000 0.45 270 01:55 17.06.2022
1494 Clear 27 1015 38 10000 1.03 120 23:35 16.06.2022
1495 Clear 28 1015 40 10000 1.03 190 22:41 16.06.2022
1496 Clear 29 1018 48 10000 1.03 200 21:22 16.06.2022
1497 Clear 30 1019 43 10000 1.54 210 20:51 16.06.2022
1498 Clear 31 1018 38 10000 2.57 220 20:32 16.06.2022
1499 Clear 31 1018 35 10000 4.63 240 19:32 16.06.2022
1500 Clear 31 1019 44 10000 6.17 240 17:57 16.06.2022
1501 Clear 31 1019 38 10000 5.14 240 17:35 16.06.2022
1502 Clear 32 1019 36 10000 6.17 230 16:30 16.06.2022
1503 Clear 33 1018 33 10000 6.69 240 15:21 16.06.2022
1504 Clear 31 1019 45 10000 4.92 175 14:30 16.06.2022
1505 Clear 33 1019 32 10000 3.6 230 13:19 16.06.2022
1506 Clear 33 1019 27 10000 2.57 260 12:35 16.06.2022
1507 Clear 32 1019 28 10000 2.57 230 11:49 16.06.2022
1508 Clear 32 1019 32 10000 1.34 161 10:54 16.06.2022
1509 Clear 31 1019 38 10000 0.51 0 09:43 16.06.2022
1510 Clear 28 1019 46 10000 0.51 0 09:21 16.06.2022
1511 Clear 27 1014 43 10000 0 0 08:28 16.06.2022
1512 Clear 23 1014 50 10000 1.79 360 07:24 16.06.2022
1513 Clear 23 1014 50 10000 1.54 330 04:42 16.06.2022
1514 Clear 24 1014 45 10000 1.34 348 02:19 16.06.2022
1515 Clear 25 1014 44 10000 0.51 0 01:35 16.06.2022
1516 Clear 26 1014 42 10000 1.03 0 00:39 16.06.2022
1517 Clear 26 1012 36 10000 1.54 220 23:33 15.06.2022
1518 Clear 27 1012 31 10000 1.03 280 22:35 15.06.2022
1519 Clear 29 1011 36 10000 3.6 330 21:22 15.06.2022
1520 Clear 32 1016 43 10000 2.57 190 20:42 15.06.2022
1521 Clear 32 1016 43 10000 2.57 190 20:23 15.06.2022
1522 Clear 32 1013 34 10000 5.14 240 19:20 15.06.2022
1523 Clear 33 1017 27 10000 4.12 240 17:56 15.06.2022
1524 Clear 32 1017 38 10000 4.12 240 16:55 15.06.2022
1525 Clear 31 1018 40 10000 4.12 240 15:36 15.06.2022
1526 Clear 31 1018 37 10000 3.6 240 14:18 15.06.2022
1527 Clear 31 1019 44 10000 3.6 230 12:54 15.06.2022
1528 Clear 33 1012 31 10000 6.17 240 11:53 15.06.2022
1529 Clear 30 1017 36 10000 3.58 213 10:24 15.06.2022
1530 Clear 28 1017 40 10000 2.06 320 09:42 15.06.2022
1531 Clear 27 1011 37 10000 1.54 20 08:40 15.06.2022
1532 Clouds 22 1013 46 10000 1.03 0 06:34 15.06.2022
1533 Clouds 24 1013 45 10000 1.54 40 04:34 15.06.2022
1534 Clear 24 1014 39 10000 1.03 0 01:54 15.06.2022
1535 Clear 24 1014 40 10000 0.51 0 00:50 15.06.2022
1536 Clear 26 1013 37 10000 0.51 0 23:39 14.06.2022
1537 Clear 26 1013 36 10000 0.51 0 23:21 14.06.2022
1538 Clear 27 1013 33 10000 1.03 0 22:23 14.06.2022
1539 Clear 29 1010 20 10000 1.03 0 21:38 14.06.2022
1540 Clear 29 1015 39 10000 0.51 320 20:54 14.06.2022
1541 Clouds 30 1016 34 10000 3.6 290 20:28 14.06.2022
1542 Clear 30 1016 37 10000 4.63 260 19:20 14.06.2022
1543 Clear 31 1016 36 10000 5.14 240 18:20 14.06.2022
1544 Clear 32 1016 36 10000 7.2 250 16:47 14.06.2022
1545 Clear 31 1016 35 10000 6.17 260 15:50 14.06.2022
1546 Clear 31 1016 31 10000 6.17 260 15:28 14.06.2022
1547 Clear 32 1017 23 10000 5.14 250 14:37 14.06.2022
1548 Clear 31 1017 28 10000 5.14 240 13:46 14.06.2022
1549 Clear 32 1017 22 10000 4.63 260 12:48 14.06.2022
1550 Clear 32 1017 22 10000 1.34 227 11:41 14.06.2022
1551 Clear 31 1017 22 10000 1.03 0 10:49 14.06.2022
1552 Clear 31 1017 22 10000 1.03 0 10:49 14.06.2022
1553 Clear 30 1017 25 10000 2.06 290 10:24 14.06.2022
1554 Clear 27 1012 31 10000 1.54 10 08:49 14.06.2022
1555 Clear 23 1010 33 10000 2.57 60 07:50 14.06.2022
1556 Clear 20 1012 45 10000 1.03 70 05:56 14.06.2022
1557 Clouds 22 1012 38 10000 0.89 340 03:20 14.06.2022
1558 Clear 22 1013 46 10000 0.89 315 01:36 14.06.2022
1559 Clear 23 1011 40 10000 0.51 30 23:51 13.06.2022
1560 Clear 25 1011 38 10000 0.51 0 22:27 13.06.2022
1561 Clear 26 1011 34 10000 0.51 220 21:59 13.06.2022
1562 Clear 28 1018 37 10000 2.06 230 20:43 13.06.2022
1563 Clear 28 1016 44 10000 4.12 250 19:42 13.06.2022
1564 Clear 29 1017 41 10000 4.12 240 18:45 13.06.2022
1565 Clear 29 1018 43 10000 5.66 250 17:52 13.06.2022
1566 Clear 29 1018 43 10000 6.69 240 17:18 13.06.2022
1567 Clear 29 1019 44 10000 7.72 240 15:53 13.06.2022
1568 Clear 28 1019 56 10000 5.66 230 14:48 13.06.2022
1569 Clear 28 1018 69 10000 4.63 240 14:18 13.06.2022
1570 Clear 29 1019 65 10000 5.14 240 13:23 13.06.2022
1571 Clear 31 1019 44 10000 3.09 210 11:50 13.06.2022
1572 Clear 30 1020 39 10000 1.03 30 10:36 13.06.2022
1573 Clear 27 1019 54 10000 1.03 0 09:42 13.06.2022
1574 Clear 24 1016 64 10000 1.03 0 08:30 13.06.2022
1575 Clear 20 1016 74 10000 1.54 60 06:35 13.06.2022
1576 Clear 21 1015 76 10000 1.03 360 04:23 13.06.2022
1577 Clear 23 1016 80 10000 2.57 10 01:44 13.06.2022
1578 Clear 24 1016 79 10000 1.03 0 01:18 13.06.2022
1579 Clear 25 1017 75 10000 2.06 170 23:41 12.06.2022
1580 Clear 25 1017 73 10000 1.03 0 22:34 12.06.2022
1581 Clear 25 1014 69 10000 1.54 230 21:45 12.06.2022
1582 Clear 26 1021 75 10000 2.06 240 20:49 12.06.2022
1583 Clear 27 1020 71 10000 2.57 240 19:49 12.06.2022
1584 Clear 27 1020 69 10000 4.12 230 18:54 12.06.2022
1585 Clear 28 1020 63 10000 4.63 220 17:24 12.06.2022
1586 Clear 28 1021 59 10000 6.17 220 15:45 12.06.2022
1587 Clear 28 1021 57 10000 5.66 220 14:50 12.06.2022
1588 Clear 27 1022 62 10000 5.14 230 14:18 12.06.2022
1589 Clear 29 1022 60 10000 5.14 220 13:45 12.06.2022
1590 Clear 29 1021 58 10000 5.14 230 12:28 12.06.2022
1591 Clear 28 1022 55 10000 1.79 206 10:46 12.06.2022
1592 Clear 26 1022 62 10000 1.54 360 09:42 12.06.2022
1593 Clear 25 1018 58 10000 1.54 70 08:50 12.06.2022
1594 Clear 23 1018 64 10000 1.54 30 08:29 12.06.2022
1595 Clear 19 1017 75 10000 2.06 60 06:49 12.06.2022
1596 Clear 20 1017 78 10000 1.03 0 04:26 12.06.2022
1597 Clear 21 1017 72 10000 1.54 120 02:27 12.06.2022
1598 Clear 22 1018 76 10000 1.03 70 01:35 12.06.2022
1599 Clear 22 1018 74 10000 0.51 0 00:48 12.06.2022
1600 Clear 23 1019 72 10000 1.03 120 00:19 12.06.2022
1601 Clear 24 1019 72 10000 1.03 170 23:21 11.06.2022
1602 Clear 24 1018 71 10000 1.54 230 22:37 11.06.2022
1603 Clear 25 1018 67 10000 2.57 230 21:31 11.06.2022
1604 Clouds 25 1021 73 10000 4.12 220 20:27 11.06.2022
1605 Clouds 26 1021 74 10000 5.14 230 19:36 11.06.2022
1606 Clouds 26 1021 71 10000 5.14 230 18:45 11.06.2022
1607 Clouds 26 1021 73 10000 5.14 220 18:27 11.06.2022
1608 Clouds 26 1021 67 10000 5.66 220 17:48 11.06.2022
1609 Clouds 27 1021 63 10000 5.66 220 17:26 11.06.2022
1610 Clouds 26 1021 69 10000 5.66 220 16:44 11.06.2022
1611 Clouds 27 1022 67 10000 5.66 220 16:18 11.06.2022
1612 Clouds 28 1021 66 10000 6.69 220 14:57 11.06.2022
1613 Clouds 29 1016 54 10000 6.69 220 13:52 11.06.2022
1614 Clouds 29 1016 51 10000 5.66 230 12:19 11.06.2022
1615 Clouds 28 1021 69 10000 4.63 250 12:19 11.06.2022
1616 Clear 27 1021 60 10000 1.34 222 10:32 11.06.2022
1617 Clear 26 1021 65 10000 1.03 10 09:41 11.06.2022
1618 Clear 24 1021 69 10000 0 0 08:44 11.06.2022
1619 Clouds 19 1017 80 10000 1.03 60 06:33 11.06.2022
1620 Clouds 19 1017 80 10000 1.03 0 05:44 11.06.2022
1621 Clouds 20 1017 84 10000 0.51 0 03:18 11.06.2022
1622 Clouds 21 1017 82 10000 1.03 30 01:51 11.06.2022
1623 Clouds 21 1017 83 10000 0.51 0 01:25 11.06.2022
1624 Clouds 21 1017 83 10000 0.51 0 01:25 11.06.2022
1625 Clouds 23 1017 75 10000 2.06 220 23:27 10.06.2022
1626 Clouds 24 1017 73 10000 2.57 220 22:21 10.06.2022
1627 Clouds 24 1020 80 10000 2.57 220 21:44 10.06.2022
1628 Clouds 24 1020 76 10000 4.63 230 20:39 10.06.2022
1629 Clouds 24 1020 76 10000 4.63 230 20:19 10.06.2022
1630 Clouds 25 1019 74 10000 5.66 220 19:19 10.06.2022
1631 Clouds 25 1020 73 10000 6.17 210 18:32 10.06.2022
1632 Clouds 26 1020 72 10000 6.69 210 17:50 10.06.2022
1633 Clouds 27 1020 68 10000 6.69 220 17:22 10.06.2022
1634 Clouds 27 1020 66 10000 7.2 230 16:26 10.06.2022
1635 Clouds 27 1020 62 10000 6.17 240 15:39 10.06.2022
1636 Clouds 27 1021 67 10000 7.72 250 14:24 10.06.2022
1637 Clouds 26 1021 67 10000 5.14 240 12:57 10.06.2022
1638 Clouds 26 1021 69 10000 4.12 240 11:59 10.06.2022
1639 Clouds 25 1021 68 10000 3.13 165 10:46 10.06.2022
1640 Clouds 24 1021 76 10000 2.24 142 09:56 10.06.2022
1641 Clouds 23 1020 74 10000 0.51 350 08:48 10.06.2022
1642 Clouds 20 1017 79 10000 0.51 130 07:41 10.06.2022
1643 Clouds 19 1016 80 10000 1.54 20 06:46 10.06.2022
1644 Clouds 19 1016 79 10000 0.51 0 06:27 10.06.2022
1645 Clouds 20 1016 75 10000 1.03 70 04:47 10.06.2022
1646 Clouds 21 1017 69 10000 0.89 69 01:59 10.06.2022
1647 Clouds 21 1017 67 10000 0.51 0 01:36 10.06.2022
1648 Clouds 21 1017 68 10000 0.51 0 01:36 10.06.2022
1649 Clouds 22 1016 66 10000 3.6 70 23:57 09.06.2022
1650 Clouds 22 1016 68 10000 4.12 80 22:24 09.06.2022
1651 Clouds 23 1015 72 10000 3.09 190 21:38 09.06.2022
1652 Clouds 24 1015 74 10000 3.6 170 21:18 09.06.2022
1653 Clouds 25 1014 69 10000 4.12 180 20:36 09.06.2022
1654 Clouds 25 1017 76 10000 3.6 190 19:41 09.06.2022
1655 Clouds 27 1016 65 10000 5.66 220 18:36 09.06.2022
1656 Clouds 26 1018 70 10000 6.17 230 17:28 09.06.2022
1657 Clouds 26 1014 65 10000 6.69 230 16:28 09.06.2022
1658 Clouds 26 1015 63 10000 6.17 240 14:45 09.06.2022
1659 Clouds 26 1015 63 10000 6.69 230 14:24 09.06.2022
1660 Clouds 26 1015 59 10000 6.17 230 13:30 09.06.2022
1661 Clouds 26 1018 64 10000 5.66 230 12:51 09.06.2022
1662 Clouds 26 1018 60 10000 3.6 220 11:33 09.06.2022
1663 Clouds 25 1018 63 10000 1.79 190 09:55 09.06.2022
1664 Clouds 25 1018 63 10000 1.79 190 09:55 09.06.2022
1665 Clouds 25 1018 63 10000 1.34 153 09:37 09.06.2022
1666 Clouds 23 1017 73 10000 1.03 0 08:33 09.06.2022
1667 Clouds 21 1014 75 10000 1.03 0 07:29 09.06.2022
1668 Clouds 22 1013 81 10000 2.06 60 03:31 09.06.2022
1669 Clouds 23 1013 77 10000 1.03 70 00:34 09.06.2022
1670 Clouds 23 1012 75 10000 2.06 100 23:18 08.06.2022
1671 Clouds 24 1011 77 10000 0.51 0 22:42 08.06.2022
1672 Clouds 24 1011 77 10000 0.51 0 22:23 08.06.2022
1673 Clouds 24 1010 76 10000 1.54 210 21:33 08.06.2022
1674 Clouds 25 1012 78 10000 2.57 210 20:25 08.06.2022
1675 Clouds 25 1013 77 10000 3.6 220 19:41 08.06.2022
1676 Clouds 26 1013 70 10000 4.63 220 18:48 08.06.2022
1677 Clouds 26 1013 67 10000 6.17 230 17:41 08.06.2022
1678 Clouds 26 1014 71 10000 6.71 198 15:54 08.06.2022
1679 Clouds 25 1014 73 10000 6.17 220 14:44 08.06.2022
1680 Clouds 26 1010 64 10000 5.14 220 12:55 08.06.2022
1681 Clouds 26 1010 64 10000 5.14 220 12:55 08.06.2022
1682 Clouds 25 1014 74 10000 5.14 220 12:55 08.06.2022
1683 Clouds 25 1014 74 10000 5.14 220 12:55 08.06.2022
1684 Clouds 25 1014 74 10000 5.14 220 12:55 08.06.2022
1685 Clouds 25 1014 73 10000 3.6 220 11:36 08.06.2022
1686 Clouds 24 1014 77 10000 3.6 230 10:51 08.06.2022
1687 Clouds 24 1011 75 10000 1.79 179 09:30 08.06.2022
1688 Clouds 23 1011 77 10000 0.45 190 08:55 08.06.2022
1689 Clouds 20 1011 84 10000 1.54 70 07:21 08.06.2022
1690 Clouds 20 1011 84 10000 1.54 70 07:21 08.06.2022
1691 Clouds 21 1012 76 10000 0.51 20 04:47 08.06.2022
1692 Clouds 22 1012 67 10000 2.06 110 01:27 08.06.2022
1693 Clear 23 1013 65 10000 0.89 248 23:33 07.06.2022
1694 Clouds 23 1012 63 10000 0.45 248 22:58 07.06.2022
1695 Clouds 24 1012 61 10000 0.89 248 22:37 07.06.2022
1696 Clear 25 1016 67 10000 2.57 250 21:41 07.06.2022
1697 Clear 25 1012 52 10000 2.57 250 21:20 07.06.2022
1698 Clouds 25 1016 66 10000 3.09 250 20:42 07.06.2022
1699 Clouds 26 1016 68 10000 4.63 240 19:58 07.06.2022
1700 Clouds 26 1017 65 10000 4.63 240 18:38 07.06.2022
1701 Clouds 26 1017 70 10000 5.14 240 17:36 07.06.2022
1702 Clouds 26 1018 68 10000 5.66 240 16:47 07.06.2022
1703 Clouds 26 1018 70 10000 5.66 240 16:28 07.06.2022
1704 Clouds 26 1018 72 10000 5.66 220 15:38 07.06.2022
1705 Clouds 26 1018 72 10000 5.66 220 15:19 07.06.2022
1706 Clouds 26 1018 72 10000 5.66 230 14:44 07.06.2022
1707 Clear 27 1019 66 10000 6.17 240 13:42 07.06.2022
1708 Clear 27 1019 66 10000 6.17 240 13:42 07.06.2022
1709 Clear 27 1019 66 10000 6.17 240 13:23 07.06.2022
1710 Clear 27 1019 60 10000 4.47 184 11:56 07.06.2022
1711 Clear 28 1018 51 10000 5.14 70 10:53 07.06.2022
1712 Clear 25 1018 63 10000 4.63 70 09:26 07.06.2022
1713 Clear 24 1015 64 10000 4.12 40 08:28 07.06.2022
1714 Clear 20 1015 77 10000 4.12 40 07:19 07.06.2022
1715 Clouds 20 1014 77 10000 2.06 50 04:52 07.06.2022
1716 Clear 22 1015 69 10000 0.51 100 01:43 07.06.2022
1717 Clear 22 1013 67 10000 1.03 180 23:59 06.06.2022
1718 Clear 23 1012 66 10000 1.03 0 22:59 06.06.2022
1719 Clear 24 1012 62 10000 2.06 220 22:30 06.06.2022
1720 Clear 24 1014 60 10000 2.06 240 21:28 06.06.2022
1721 Clouds 26 1016 65 10000 4.12 250 19:37 06.06.2022
1722 Clouds 26 1016 65 10000 4.12 250 19:19 06.06.2022
1723 Clouds 27 1017 65 10000 6.17 250 18:33 06.06.2022
1724 Clear 28 1017 57 10000 7.72 250 17:31 06.06.2022
1725 Clear 29 1018 51 10000 6.17 240 16:21 06.06.2022
1726 Clear 30 1018 49 10000 5.66 260 15:33 06.06.2022
1727 Clear 30 1019 49 10000 6.17 250 14:36 06.06.2022
1728 Clear 29 1020 52 10000 4.12 250 13:27 06.06.2022
1729 Clear 29 1020 49 10000 4.47 222 12:37 06.06.2022
1730 Clear 29 1020 48 10000 2.57 80 11:58 06.06.2022
1731 Clear 28 1020 49 10000 3.6 70 11:28 06.06.2022
1732 Clouds 26 1020 63 10000 4.12 50 09:40 06.06.2022
1733 Clouds 24 1017 75 10000 1.54 30 08:35 06.06.2022
1734 Clouds 21 1016 87 10000 2.57 30 07:37 06.06.2022
1735 Clouds 21 1016 86 10000 2.06 70 05:29 06.06.2022
1736 Clouds 21 1016 86 10000 2.06 70 05:29 06.06.2022
1737 Clouds 22 1015 82 10000 1.54 130 03:46 06.06.2022
1738 Clouds 22 1014 86 10000 0.51 0 01:29 06.06.2022
1739 Clouds 23 1014 84 10000 1.03 150 00:42 06.06.2022
1740 Clouds 23 1014 81 10000 1.03 0 23:50 05.06.2022
1741 Clouds 24 1013 81 10000 1.34 216 22:53 05.06.2022
1742 Clouds 25 1015 78 10000 1.34 242 21:26 05.06.2022
1743 Clouds 26 1015 67 10000 4.12 230 20:23 05.06.2022
1744 Clouds 27 1018 63 10000 4.63 210 18:42 05.06.2022
1745 Clouds 27 1018 69 10000 6.17 220 17:56 05.06.2022
1746 Clouds 27 1018 67 10000 5.14 220 17:36 05.06.2022
1747 Clouds 27 1018 68 10000 5.14 220 17:18 05.06.2022
1748 Clouds 27 1018 69 10000 5.14 220 16:45 05.06.2022
1749 Clouds 27 1019 71 10000 4.12 230 14:46 05.06.2022
1750 Clouds 27 1019 72 10000 4.12 240 13:21 05.06.2022
1751 Clouds 26 1018 71 10000 1.54 210 11:56 05.06.2022
1752 Clouds 24 1018 77 10000 3.6 220 10:44 05.06.2022
1753 Clouds 24 1018 79 10000 3.6 220 10:23 05.06.2022
1754 Clouds 24 1014 75 10000 3.6 190 08:45 05.06.2022
1755 Clouds 23 1014 76 10000 3.13 168 08:21 05.06.2022
1756 Clouds 21 1013 87 9000 0.45 292 05:23 05.06.2022
1757 Clouds 21 1013 85 9000 0.51 0 04:36 05.06.2022
1758 Clouds 22 1013 84 9000 2.57 230 02:19 05.06.2022
1759 Clouds 22 1013 83 9000 3.09 230 01:23 05.06.2022
1760 Clouds 22 1013 82 9000 2.57 220 01:23 05.06.2022
1761 Clouds 23 1013 81 8000 3.6 220 22:48 04.06.2022
1762 Clouds 23 1011 79 9000 4.63 220 21:24 04.06.2022
1763 Clouds 26 1014 67 10000 3.13 165 18:58 04.06.2022
1764 Clouds 26 1015 65 10000 5.14 240 16:48 04.06.2022
1765 Clouds 26 1015 64 10000 4.63 240 16:20 04.06.2022
1766 Clouds 27 1014 68 10000 6.17 230 15:35 04.06.2022
1767 Clouds 28 1009 58 10000 7.2 240 13:57 04.06.2022
1768 Clouds 27 1012 62 10000 5.66 60 11:38 04.06.2022
1769 Clouds 26 1011 61 10000 3.09 40 10:52 04.06.2022
1770 Clouds 24 1015 79 10000 1.34 338 09:47 04.06.2022
1771 Clouds 22 1011 78 10000 2.06 30 08:59 04.06.2022
1772 Clouds 22 1011 80 10000 1.34 48 08:37 04.06.2022
1773 Clouds 21 1010 87 10000 1.03 0 06:25 04.06.2022
1774 Clouds 22 1011 85 10000 2.06 170 03:52 04.06.2022
1775 Clouds 23 1010 82 10000 3.6 220 00:22 04.06.2022
1776 Clear 23 1009 72 10000 4.63 240 22:56 03.06.2022
1777 Clouds 25 1008 54 10000 0.89 222 21:53 03.06.2022
1778 Clouds 26 1013 63 10000 1.54 330 20:40 03.06.2022
1779 Clouds 27 1010 51 10000 3.6 220 19:37 03.06.2022
1780 Clouds 28 1014 48 10000 1.54 240 16:58 03.06.2022
1781 Clouds 28 1015 44 10000 6.69 220 15:57 03.06.2022
1782 Clouds 28 1015 46 10000 0.89 188 14:42 03.06.2022
1783 Clouds 26 1015 68 10000 6.26 180 12:21 03.06.2022
1784 Clouds 25 1011 70 10000 4.02 206 09:57 03.06.2022
1785 Clear 25 1009 70 10000 4.12 70 09:29 03.06.2022
1786 Clouds 23 1008 74 10000 6.69 50 07:50 03.06.2022
1787 Clouds 23 1009 71 10000 5.14 60 07:19 03.06.2022
1788 Rain 23 1012 76 10000 4.63 70 06:29 03.06.2022
1789 Clouds 23 1009 77 10000 2.24 332 03:52 03.06.2022
1790 Clouds 24 1009 67 10000 2.06 60 00:21 03.06.2022
1791 Clouds 24 1010 66 10000 2.24 107 22:33 02.06.2022
1792 Clouds 26 1012 63 10000 4.63 70 20:57 02.06.2022
1793 Clouds 28 1012 58 10000 5.66 60 19:58 02.06.2022
1794 Clouds 28 1008 46 10000 3.13 54 19:40 02.06.2022
1795 Clouds 28 1011 56 10000 2.06 210 18:59 02.06.2022
1796 Clouds 28 1013 56 10000 4.63 200 16:30 02.06.2022
1797 Clear 28 1013 56 10000 4.63 210 15:47 02.06.2022
1798 Clear 29 1014 45 10000 5.14 220 13:32 02.06.2022
1799 Clear 29 1014 46 10000 4.63 230 12:51 02.06.2022
1800 Clear 27 1014 49 10000 1.54 60 10:53 02.06.2022
1801 Clear 26 1014 56 10000 2.57 60 10:19 02.06.2022
1802 Clear 23 1014 68 10000 2.57 30 09:27 02.06.2022
1803 Clear 22 1011 68 10000 1.54 360 08:24 02.06.2022
1804 Clouds 19 1009 62 10000 0.89 341 06:26 02.06.2022
1805 Clouds 20 1010 60 10000 0.51 0 03:54 02.06.2022
1806 Clouds 20 1011 66 10000 1.54 60 02:22 02.06.2022
1807 Clear 21 1012 69 10000 1.03 0 23:36 01.06.2022
1808 Clouds 23 1012 69 10000 1.03 0 22:21 01.06.2022
1809 Clouds 24 1010 68 10000 1.03 190 21:32 01.06.2022
1810 Clear 24 1015 66 10000 2.06 220 20:39 01.06.2022
1811 Clear 26 1014 57 10000 2.57 240 19:53 01.06.2022
1812 Clear 27 1014 42 10000 3.09 240 18:58 01.06.2022
1813 Clear 28 1015 35 10000 3.09 260 17:40 01.06.2022
1814 Clear 26 1016 56 10000 5.14 260 16:33 01.06.2022
1815 Clear 28 1011 48 10000 6.69 230 14:52 01.06.2022
1816 Clear 27 1015 61 10000 4.12 250 13:44 01.06.2022
1817 Clear 28 1011 54 10000 3.6 240 12:25 01.06.2022
1818 Fog 22 1016 81 8000 1.03 0 09:36 01.06.2022
1819 Fog 22 1011 77 8000 1.03 0 08:38 01.06.2022
1820 Mist 18 1012 87 5000 0.51 0 07:22 01.06.2022
1821 Clouds 18 1012 87 10000 0.51 40 05:22 01.06.2022
1822 Clouds 21 1013 84 10000 1.54 190 00:22 01.06.2022
1823 Clear 22 1012 85 10000 1.54 200 23:26 31.05.2022
1824 Clear 22 1012 82 10000 1.03 210 22:36 31.05.2022
1825 Clear 23 1011 77 10000 1.03 0 21:45 31.05.2022
1826 Clear 23 1014 80 10000 2.57 240 20:45 31.05.2022
1827 Clear 25 1010 66 10000 3.6 230 19:57 31.05.2022
1828 Clouds 25 1014 70 10000 3.09 230 18:52 31.05.2022
1829 Clouds 25 1014 72 10000 4.12 240 17:50 31.05.2022
1830 Clouds 25 1014 72 10000 4.63 230 16:56 31.05.2022
1831 Clouds 24 1014 72 10000 5.14 240 15:40 31.05.2022
1832 Clouds 28 1009 50 10000 4.12 220 13:52 31.05.2022
1833 Clear 25 1014 69 10000 2.57 240 12:20 31.05.2022
1834 Clouds 24 1013 68 10000 1.03 230 10:55 31.05.2022
1835 Clouds 21 1014 85 10000 1.54 180 09:29 31.05.2022
1836 Clouds 19 1010 86 10000 2.06 70 07:25 31.05.2022
1837 Clouds 18 1009 87 10000 1.34 57 05:20 31.05.2022
1838 Clear 21 1008 83 10000 2.06 80 00:52 31.05.2022
1839 Clear 22 1008 79 10000 2.57 210 23:27 30.05.2022
1840 Clear 22 1008 77 10000 3.6 210 22:56 30.05.2022
1841 Clouds 23 1007 75 10000 3.09 220 21:59 30.05.2022
1842 Clouds 23 1006 74 10000 3.6 210 21:32 30.05.2022
1843 Clouds 23 1006 72 10000 5.66 220 20:20 30.05.2022
1844 Clouds 24 1008 78 10000 6.17 220 18:41 30.05.2022
1845 Clouds 25 1008 72 10000 5.66 210 17:36 30.05.2022
1846 Clouds 25 1008 71 10000 6.71 211 16:41 30.05.2022
1847 Clouds 25 1008 72 10000 7.2 230 14:49 30.05.2022
1848 Clouds 24 1008 75 10000 6.17 230 12:29 30.05.2022
1849 Clouds 24 1007 72 10000 1.54 240 10:46 30.05.2022
1850 Clouds 22 1006 80 10000 1.54 230 09:38 30.05.2022
1851 Clouds 19 1002 86 9000 1.03 330 07:22 30.05.2022
1852 Clouds 19 1002 85 10000 0.89 90 05:49 30.05.2022
1853 Clear 19 1003 82 10000 2.57 60 02:24 30.05.2022
1854 Clear 21 1003 79 10000 1.54 60 23:21 29.05.2022
1855 Clear 22 1003 76 10000 2.06 220 22:38 29.05.2022
1856 Clear 24 1005 64 10000 1.03 270 20:57 29.05.2022
1857 Clear 25 1006 63 10000 3.6 250 19:38 29.05.2022
1858 Clear 25 1006 63 10000 3.6 250 19:18 29.05.2022
1859 Clouds 25 1006 61 10000 6.69 230 17:32 29.05.2022
1860 Clouds 25 1007 63 10000 6.69 240 15:49 29.05.2022
1861 Clouds 25 1007 64 10000 4.63 250 15:23 29.05.2022
1862 Clouds 26 1008 53 10000 3.6 250 14:23 29.05.2022
1863 Clouds 26 1008 48 10000 3.6 250 11:55 29.05.2022
1864 Clear 25 1008 50 10000 1.54 300 10:42 29.05.2022
1865 Clear 25 1008 52 10000 1.03 0 09:52 29.05.2022
1866 Clear 17 1005 69 10000 2.06 60 06:56 29.05.2022
1867 Clear 18 1005 70 10000 1.54 70 04:49 29.05.2022
1868 Clear 18 1005 71 10000 1.54 50 04:24 29.05.2022
1869 Clear 21 1006 66 10000 2.57 160 00:35 29.05.2022
1870 Clear 22 1007 62 10000 1.54 170 23:42 28.05.2022
1871 Clear 22 1007 60 10000 1.79 175 22:46 28.05.2022
1872 Clear 23 1007 58 10000 2.06 210 21:42 28.05.2022
1873 Clear 23 1011 70 10000 4.12 220 20:30 28.05.2022
1874 Clear 25 1012 59 10000 5.66 230 19:18 28.05.2022
1875 Clear 26 1012 51 10000 6.69 230 17:48 28.05.2022
1876 Clear 25 1013 59 10000 8.75 230 16:53 28.05.2022
1877 Clear 26 1013 55 10000 9.77 220 15:44 28.05.2022
1878 Clear 27 1013 52 10000 6.69 230 15:19 28.05.2022
1879 Clear 29 1015 43 10000 5.66 230 13:26 28.05.2022
1880 Clear 28 1015 51 10000 4.63 210 12:41 28.05.2022
1881 Clear 28 1015 38 10000 3.09 230 11:27 28.05.2022
1882 Clear 27 1015 41 10000 3.09 250 10:32 28.05.2022
1883 Clear 25 1015 44 10000 4.47 264 09:39 28.05.2022
1884 Clear 20 1011 45 10000 3.13 284 07:53 28.05.2022
1885 Clear 20 1011 39 10000 4.47 5 06:32 28.05.2022
1886 Clear 21 1011 38 10000 4.02 296 04:39 28.05.2022
1887 Clear 19 1014 54 10000 0.51 70 01:30 28.05.2022
1888 Clear 20 1014 54 10000 1.03 0 23:53 27.05.2022
1889 Clear 22 1014 46 10000 1.54 250 22:32 27.05.2022
1890 Clear 25 1016 47 10000 2.06 70 20:59 27.05.2022
1891 Clear 26 1016 41 10000 3.09 70 20:40 27.05.2022
1892 Clear 26 1017 41 10000 3.09 70 20:18 27.05.2022
1893 Clear 26 1017 42 10000 3.58 321 19:34 27.05.2022
1894 Clear 26 1017 43 10000 2.68 343 18:41 27.05.2022
1895 Clouds 25 1018 44 10000 5.14 310 16:42 27.05.2022
1896 Clouds 25 1019 49 10000 2.06 330 15:47 27.05.2022
1897 Clouds 25 1016 45 10000 2.57 50 14:46 27.05.2022
1898 Clouds 22 1020 62 10000 5.14 80 13:36 27.05.2022
1899 Clouds 24 1017 51 10000 1.54 350 11:53 27.05.2022
1900 Clouds 22 1017 57 10000 4.12 310 11:27 27.05.2022
1901 Clouds 22 1016 59 10000 3.6 280 10:37 27.05.2022
1902 Clouds 21 1016 60 10000 3.6 290 09:52 27.05.2022
1903 Clouds 21 1016 62 10000 3.09 330 09:28 27.05.2022
1904 Clouds 20 1015 51 10000 4.47 281 06:58 27.05.2022
1905 Clouds 21 1016 33 10000 3.13 360 02:59 27.05.2022
1906 Clouds 21 1017 39 10000 2.06 290 00:57 27.05.2022
1907 Clouds 21 1016 39 10000 2.24 331 23:23 26.05.2022
1908 Clouds 22 1017 47 10000 1.54 180 21:48 26.05.2022
1909 Clouds 22 1017 49 10000 1.34 40 21:27 26.05.2022
1910 Clouds 23 1020 55 10000 3.6 200 19:34 26.05.2022
1911 Clouds 23 1020 51 10000 5.66 240 18:31 26.05.2022
1912 Clouds 24 1021 45 10000 3.6 330 17:36 26.05.2022
1913 Clouds 24 1021 43 10000 4.12 320 16:18 26.05.2022
1914 Clouds 23 1022 48 10000 4.12 310 15:19 26.05.2022
1915 Clouds 24 1019 39 10000 4.63 30 13:56 26.05.2022
1916 Clouds 23 1019 37 10000 9.77 50 11:59 26.05.2022
1917 Clouds 22 1019 39 10000 8.75 40 11:18 26.05.2022
1918 Clouds 22 1019 43 10000 4.63 40 09:38 26.05.2022
1919 Clouds 21 1018 45 10000 4.63 50 08:40 26.05.2022
1920 Clouds 19 1015 65 10000 2.06 330 05:43 26.05.2022
1921 Clouds 19 1016 58 10000 0.51 0 02:24 26.05.2022
1922 Clouds 17 1016 59 10000 1.54 300 23:53 25.05.2022
1923 Clouds 17 1016 61 10000 2.57 320 22:52 25.05.2022
1924 Clouds 19 1015 56 10000 2.57 40 21:42 25.05.2022
1925 Clouds 20 1014 42 10000 5.66 60 20:49 25.05.2022
1926 Clouds 22 1013 36 10000 6.17 60 19:42 25.05.2022
1927 Clouds 22 1013 37 10000 9.26 50 18:48 25.05.2022
1928 Clouds 22 1016 46 10000 10.29 50 17:24 25.05.2022
1929 Clouds 21 1012 44 10000 10.29 50 16:33 25.05.2022
1930 Clouds 20 1012 52 10000 8.75 50 15:36 25.05.2022
1931 Clouds 20 1012 56 10000 7.72 70 14:50 25.05.2022
1932 Clouds 20 1016 65 10000 9.26 60 14:32 25.05.2022
1933 Clouds 20 1015 68 10000 7.72 60 13:23 25.05.2022
1934 Clouds 20 1015 79 10000 5.25 48 11:50 25.05.2022
1935 Clouds 19 1014 77 10000 6.69 50 10:42 25.05.2022
1936 Clouds 18 1013 82 10000 8.23 60 09:45 25.05.2022
1937 Clouds 16 1008 88 10000 3.13 48 07:42 25.05.2022
1938 Rain 16 1006 87 6000 5.14 60 05:57 25.05.2022
1939 Thunderstorm 17 1007 92 1600 8.23 350 02:44 25.05.2022
1940 Clouds 20 1006 76 10000 6.17 60 23:52 24.05.2022
1941 Clouds 21 1007 74 10000 5.14 50 23:23 24.05.2022
1942 Clouds 21 1005 74 10000 5.66 50 22:18 24.05.2022
1943 Clouds 21 1004 73 10000 5.66 60 21:38 24.05.2022
1944 Clouds 21 1004 73 10000 5.66 60 21:19 24.05.2022
1945 Clouds 25 1003 58 10000 4.47 61 19:28 24.05.2022
1946 Clouds 26 1007 59 10000 4.12 130 18:38 24.05.2022
1947 Clouds 26 1008 60 10000 5.81 190 16:40 24.05.2022
1948 Clouds 26 1009 56 10000 6.26 187 15:54 24.05.2022
1949 Clouds 27 1009 51 10000 4.63 130 14:45 24.05.2022
1950 Clouds 27 1010 50 10000 3.6 140 13:48 24.05.2022
1951 Clouds 26 1010 56 10000 5.66 110 12:35 24.05.2022
1952 Clouds 23 1010 65 10000 6.17 60 09:52 24.05.2022
1953 Clouds 23 1011 68 10000 5.66 70 09:27 24.05.2022
1954 Clouds 24 1005 61 10000 4.63 60 08:42 24.05.2022
1955 Clouds 19 1004 81 10000 1.54 40 06:45 24.05.2022
1956 Clear 20 1004 82 10000 3.09 80 03:48 24.05.2022
1957 Clear 21 1005 80 10000 2.57 80 01:49 24.05.2022
1958 Clear 21 1004 79 10000 3.09 70 00:57 24.05.2022
1959 Clouds 23 1004 71 10000 3.6 60 22:50 23.05.2022
1960 Clouds 24 1003 66 10000 2.06 160 21:54 23.05.2022
1961 Clouds 24 1007 78 10000 3.6 220 20:59 23.05.2022
1962 Clouds 24 1007 78 10000 4.63 210 20:26 23.05.2022
1963 Clear 28 1006 54 10000 5.66 230 19:31 23.05.2022
1964 Clear 30 1006 42 10000 6.17 230 18:54 23.05.2022
1965 Clouds 30 1006 42 10000 4.12 220 18:27 23.05.2022
1966 Clouds 31 1006 37 10000 5.66 220 17:18 23.05.2022
1967 Clouds 30 1006 42 10000 3.09 200 14:52 23.05.2022
1968 Clouds 26 1007 69 10000 5.14 210 12:50 23.05.2022
1969 Clouds 25 1007 71 10000 4.63 210 11:31 23.05.2022
1970 Clouds 24 1007 78 10000 4.63 220 09:50 23.05.2022
1971 Clouds 24 1002 72 10000 4.63 220 09:28 23.05.2022
1972 Clouds 22 1002 76 10000 5.66 220 08:20 23.05.2022
1973 Clear 20 1000 60 10000 1.03 30 06:45 23.05.2022
1974 Clear 20 1001 57 10000 0.51 0 05:25 23.05.2022
1975 Clear 21 1002 43 10000 2.57 70 02:32 23.05.2022
1976 Clear 22 1003 40 10000 1.03 0 01:37 23.05.2022
1977 Clear 22 1003 38 10000 1.03 50 00:20 23.05.2022
1978 Clear 24 1001 17 10000 0.89 292 22:36 22.05.2022
1979 Clear 25 1001 15 10000 1.03 0 21:55 22.05.2022
1980 Clear 26 1001 12 10000 2.06 290 21:32 22.05.2022
1981 Clear 29 1000 9 10000 2.57 310 20:32 22.05.2022
1982 Clear 27 1010 47 10000 2.57 280 19:56 22.05.2022
1983 Clear 29 1010 39 10000 4.12 260 18:55 22.05.2022
1984 Clear 30 1010 30 10000 4.63 250 18:25 22.05.2022
1985 Clear 31 1011 22 10000 5.14 240 17:37 22.05.2022
1986 Clear 34 1011 13 10000 4.12 260 16:39 22.05.2022
1987 Clear 34 1012 9 10000 4.63 240 14:53 22.05.2022
1988 Clear 32 1013 8 10000 3.6 240 13:54 22.05.2022
1989 Clear 33 1013 8 10000 4.12 230 12:52 22.05.2022
1990 Clear 33 1013 18 10000 1.03 260 11:47 22.05.2022
1991 Clear 30 1014 28 10000 1.03 0 10:24 22.05.2022
1992 Clear 24 1014 46 10000 0 0 09:18 22.05.2022
1993 Clear 19 1009 48 10000 1.03 20 07:22 22.05.2022
1994 Clear 17 1009 48 10000 0.51 0 06:27 22.05.2022
1995 Clear 20 1010 43 10000 2.57 70 02:50 22.05.2022
1996 Clear 20 1013 48 10000 0.45 270 00:44 22.05.2022
1997 Clear 21 1013 47 10000 0.51 0 23:55 21.05.2022
1998 Clear 22 1013 46 10000 1.03 130 23:21 21.05.2022
1999 Clear 22 1013 46 10000 1.03 130 23:21 21.05.2022
2000 Clear 23 1012 51 10000 0.89 270 21:55 21.05.2022
2001 Clouds 24 1012 45 10000 1.03 0 21:26 21.05.2022
2002 Clouds 27 1013 44 10000 1.54 230 20:27 21.05.2022
2003 Clear 26 1018 57 10000 2.06 230 19:43 21.05.2022
2004 Clear 27 1018 54 10000 3.09 230 18:31 21.05.2022
2005 Clear 27 1020 54 10000 4.12 230 16:57 21.05.2022
2006 Clear 29 1021 38 10000 6.17 230 14:38 21.05.2022
2007 Clear 29 1021 39 10000 5.66 230 13:54 21.05.2022
2008 Clear 29 1021 34 10000 6.17 230 13:18 21.05.2022
2009 Clear 31 1021 29 10000 3.09 230 12:38 21.05.2022
2010 Clear 28 1021 34 10000 2.06 40 11:20 21.05.2022
2011 Clear 25 1022 41 10000 2.06 30 09:57 21.05.2022
2012 Clear 24 1017 43 10000 2.06 30 08:58 21.05.2022
2013 Clear 24 1016 40 10000 1.54 50 08:37 21.05.2022
2014 Clouds 19 1018 54 10000 1.79 360 05:52 21.05.2022
2015 Clear 22 1020 52 10000 2.06 50 01:33 21.05.2022
2016 Clear 24 1020 44 10000 2.57 70 23:32 20.05.2022
2017 Clear 24 1023 53 10000 3.09 100 22:29 20.05.2022
2018 Clear 26 1022 44 10000 2.06 80 21:55 20.05.2022
2019 Clear 26 1022 44 10000 2.06 80 21:55 20.05.2022
2020 Clear 28 1022 36 10000 2.06 150 21:19 20.05.2022
2021 Clear 30 1022 30 10000 3.09 150 20:45 20.05.2022
2022 Clear 31 1022 23 10000 4.63 150 19:45 20.05.2022
2023 Clear 31 1023 32 10000 5.14 150 18:53 20.05.2022
2024 Clear 32 1023 27 10000 5.14 130 17:53 20.05.2022
2025 Clear 33 1024 27 10000 4.63 140 16:23 20.05.2022
2026 Clear 33 1024 27 10000 4.92 130 15:54 20.05.2022
2027 Clear 32 1025 29 10000 5.66 140 14:44 20.05.2022
2028 Clear 31 1025 34 10000 5.66 140 14:26 20.05.2022
2029 Clear 30 1025 35 10000 3.09 140 11:52 20.05.2022
2030 Clear 28 1026 39 10000 3.09 70 10:45 20.05.2022
2031 Clear 25 1025 48 10000 4.12 70 09:27 20.05.2022
2032 Clear 25 1022 40 10000 2.06 50 08:24 20.05.2022
2033 Clear 21 1021 47 10000 3.13 27 06:42 20.05.2022
2034 Clear 21 1021 46 10000 4.12 60 05:39 20.05.2022
2035 Clear 23 1020 39 10000 3.09 70 01:30 20.05.2022
2036 Clear 23 1024 54 10000 3.09 70 23:47 19.05.2022
2037 Clear 23 1022 49 10000 4.12 60 22:36 19.05.2022
2038 Clear 24 1022 43 10000 2.57 80 21:50 19.05.2022
2039 Clear 26 1022 34 10000 4.12 90 21:24 19.05.2022
2040 Clear 28 1021 34 10000 3.6 90 20:47 19.05.2022
2041 Clear 31 1021 30 10000 3.6 130 19:54 19.05.2022
2042 Clear 30 1022 36 10000 4.63 150 19:18 19.05.2022
2043 Clear 30 1022 38 10000 5.14 150 17:44 19.05.2022
2044 Clear 28 1022 47 10000 4.92 194 15:51 19.05.2022
2045 Clear 28 1023 44 10000 5.14 230 14:49 19.05.2022
2046 Clear 28 1023 44 10000 5.14 220 14:20 19.05.2022
2047 Clear 29 1023 39 10000 2.57 190 11:55 19.05.2022
2048 Clear 26 1023 44 10000 1.03 0 10:31 19.05.2022
2049 Clear 23 1017 68 10000 2.57 60 08:44 19.05.2022
2050 Clouds 18 1018 83 10000 2.57 60 07:24 19.05.2022
2051 Clear 19 1017 77 10000 0 0 03:52 19.05.2022
2052 Clear 20 1017 79 10000 1.03 60 01:28 19.05.2022
2053 Clear 21 1017 82 10000 1.03 140 23:43 18.05.2022
2054 Clear 22 1017 81 10000 0.89 90 22:44 18.05.2022
2055 Clear 22 1016 79 10000 0 0 21:45 18.05.2022
2056 Clear 22 1016 75 10000 1.54 240 21:23 18.05.2022
2057 Clear 23 1016 69 10000 1.54 230 20:22 18.05.2022
2058 Clear 25 1016 66 10000 3.09 220 19:18 18.05.2022
2059 Clear 27 1014 55 10000 3.6 220 18:18 18.05.2022
2060 Clear 26 1016 62 10000 4.63 220 17:40 18.05.2022
2061 Clear 24 1018 73 10000 4.63 220 17:22 18.05.2022
2062 Clear 28 1014 52 10000 5.14 230 15:58 18.05.2022
2063 Clouds 28 1015 50 10000 5.14 230 15:37 18.05.2022
2064 Clouds 26 1019 60 10000 6.17 210 14:25 18.05.2022
2065 Clear 28 1015 44 10000 5.14 220 12:58 18.05.2022
2066 Clouds 27 1019 57 10000 4.12 230 12:25 18.05.2022
2067 Clear 27 1019 60 10000 3.6 230 11:33 18.05.2022
2068 Clear 28 1015 50 10000 3.09 230 10:48 18.05.2022
2069 Fog 21 1017 77 10000 0.45 203 08:27 18.05.2022
2070 Mist 17 1016 87 4000 0.45 333 07:28 18.05.2022
2071 Clouds 18 1016 88 10000 1.03 70 04:26 18.05.2022
2072 Clear 19 1016 87 10000 1.03 80 00:52 18.05.2022
2073 Clear 20 1016 86 10000 0.51 90 23:41 17.05.2022
2074 Clouds 21 1015 82 9000 2.06 230 21:23 17.05.2022
2075 Clouds 22 1015 77 10000 2.57 220 20:44 17.05.2022
2076 Clouds 24 1015 69 10000 3.09 220 19:45 17.05.2022
2077 Clouds 25 1013 60 10000 3.09 220 19:25 17.05.2022
2078 Clouds 25 1018 71 10000 4.12 210 17:49 17.05.2022
2079 Clouds 25 1018 67 10000 5.14 210 16:58 17.05.2022
2080 Clouds 28 1014 55 10000 6.17 220 16:29 17.05.2022
2081 Clouds 28 1015 56 10000 4.63 230 15:18 17.05.2022
2082 Clouds 27 1015 58 10000 6.17 220 14:29 17.05.2022
2083 Clouds 26 1015 58 10000 3.09 240 13:31 17.05.2022
2084 Clouds 25 1015 60 10000 3.6 240 11:21 17.05.2022
2085 Mist 23 1015 74 4000 1.54 310 09:23 17.05.2022
2086 Mist 19 1015 86 4000 0.51 0 07:59 17.05.2022
2087 Clouds 18 1016 89 8000 0.45 203 06:36 17.05.2022
2088 Clouds 18 1017 88 9000 1.34 331 02:55 17.05.2022
2089 Clouds 19 1017 85 10000 1.03 130 00:32 17.05.2022
2090 Clouds 20 1017 83 9000 0.51 220 22:42 16.05.2022
2091 Clouds 21 1017 80 9000 2.06 210 21:36 16.05.2022
2092 Clouds 21 1016 76 9000 2.57 230 20:46 16.05.2022
2093 Clear 23 1016 66 10000 3.09 220 19:22 16.05.2022
2094 Clear 24 1016 62 10000 3.09 230 18:18 16.05.2022
2095 Clear 24 1019 69 10000 4.63 230 15:49 16.05.2022
2096 Clouds 27 1015 50 10000 2.57 230 13:49 16.05.2022
2097 Clouds 27 1015 49 10000 3.09 210 13:20 16.05.2022
2098 Clouds 26 1015 53 10000 2.57 240 10:53 16.05.2022
2099 Clouds 22 1019 66 10000 1.03 0 09:30 16.05.2022
2100 Clouds 17 1015 55 10000 1.03 90 06:47 16.05.2022
2101 Clouds 18 1015 50 10000 0.89 349 03:31 16.05.2022
2102 Clear 21 1014 36 10000 0 0 23:26 15.05.2022
2103 Clear 22 1012 23 10000 0.51 0 22:29 15.05.2022
2104 Clear 23 1017 46 10000 0.51 190 21:44 15.05.2022
2105 Clouds 24 1016 46 10000 0.51 0 20:54 15.05.2022
2106 Clear 26 1014 28 10000 4.12 170 19:32 15.05.2022
2107 Clear 26 1017 36 10000 4.63 180 17:51 15.05.2022
2108 Clear 26 1017 40 10000 5.36 238 15:59 15.05.2022
2109 Clear 26 1018 43 10000 5.36 202 13:54 15.05.2022
2110 Clear 26 1018 39 10000 5.66 240 12:50 15.05.2022
2111 Clear 28 1018 26 10000 1.54 30 11:39 15.05.2022
2112 Clear 26 1018 30 10000 1.54 10 10:27 15.05.2022
2113 Clear 22 1013 42 10000 2.57 40 08:45 15.05.2022
2114 Clear 16 1014 64 10000 1.34 355 06:58 15.05.2022
2115 Clear 16 1014 65 10000 1.34 342 05:47 15.05.2022
2116 Clear 19 1016 62 10000 0.51 110 00:49 15.05.2022
2117 Clear 20 1016 61 10000 1.03 100 23:39 14.05.2022
2118 Clear 20 1016 62 10000 0.45 292 22:59 14.05.2022
2119 Clear 21 1015 56 10000 1.54 340 21:29 14.05.2022
2120 Clear 22 1013 44 10000 0.51 250 20:53 14.05.2022
2121 Clear 23 1018 65 10000 3.13 205 19:38 14.05.2022
2122 Clear 22 1018 65 10000 3.09 240 19:19 14.05.2022
2123 Clear 23 1019 63 10000 3.09 240 18:44 14.05.2022
2124 Clear 23 1019 60 10000 7.72 250 16:46 14.05.2022
2125 Clear 27 1015 35 10000 6.17 230 15:30 14.05.2022
2126 Clear 27 1015 39 10000 4.63 220 14:34 14.05.2022
2127 Clear 24 1021 52 10000 4.12 240 12:34 14.05.2022
2128 Clear 25 1021 44 10000 2.57 240 11:35 14.05.2022
2129 Clear 25 1021 40 10000 1.03 320 10:21 14.05.2022
2130 Clear 23 1021 46 10000 1.03 0 09:53 14.05.2022
2131 Clear 22 1018 48 10000 1.03 340 08:49 14.05.2022
2132 Clear 15 1016 64 10000 1.79 342 06:47 14.05.2022
2133 Clear 16 1017 61 10000 1.54 50 02:46 14.05.2022
2134 Clear 19 1018 55 10000 0.51 80 23:44 13.05.2022
2135 Clear 19 1018 54 10000 1.03 100 23:18 13.05.2022
2136 Clear 20 1016 46 10000 0 0 22:43 13.05.2022
2137 Clear 21 1018 51 10000 0.45 292 22:18 13.05.2022
2138 Clear 21 1020 73 10000 1.03 0 20:46 13.05.2022
2139 Clear 23 1017 45 10000 3.6 240 20:27 13.05.2022
2140 Clear 23 1021 62 10000 4.12 230 19:28 13.05.2022
2141 Clear 23 1021 57 10000 5.14 210 17:53 13.05.2022
2142 Clear 23 1021 60 10000 5.66 230 17:29 13.05.2022
2143 Clear 23 1021 59 10000 5.14 230 16:20 13.05.2022
2144 Clear 23 1021 66 10000 5.66 220 15:29 13.05.2022
2145 Clear 23 1021 59 10000 6.17 230 13:54 13.05.2022
2146 Clear 25 1022 57 10000 4.47 221 12:32 13.05.2022
2147 Clear 27 1021 34 10000 2.06 30 11:23 13.05.2022
2148 Clear 27 1021 34 10000 2.06 30 11:23 13.05.2022
2149 Clear 22 1021 56 10000 2.57 30 09:35 13.05.2022
2150 Clear 20 1018 60 10000 2.57 40 08:49 13.05.2022
2151 Clear 16 1018 70 10000 2.24 348 07:48 13.05.2022
2152 Clear 15 1018 73 10000 2.68 350 06:35 13.05.2022
2153 Clear 16 1018 75 10000 2.57 40 04:22 13.05.2022
2154 Clear 19 1019 71 10000 3.6 60 00:39 13.05.2022
2155 Clear 20 1020 73 10000 2.57 70 22:46 12.05.2022
2156 Clear 21 1020 68 10000 2.57 60 21:58 12.05.2022
2157 Clear 24 1020 60 10000 3.6 80 20:37 12.05.2022
2158 Clear 25 1020 51 10000 3.13 201 19:18 12.05.2022
2159 Clear 26 1020 47 10000 3.58 264 17:27 12.05.2022
2160 Clear 28 1021 34 10000 4.12 150 16:27 12.05.2022
2161 Clear 26 1022 39 10000 3.6 140 14:47 12.05.2022
2162 Clear 26 1022 40 10000 4.12 150 13:47 12.05.2022
2163 Clear 24 1023 51 10000 3.6 70 11:23 12.05.2022
2164 Clouds 20 1023 58 10000 4.12 60 09:37 12.05.2022
2165 Clear 21 1020 52 10000 3.09 70 08:51 12.05.2022
2166 Clear 14 1017 65 10000 2.06 50 07:41 12.05.2022
2167 Clear 13 1019 67 10000 2.06 30 06:39 12.05.2022
2168 Clear 15 1019 70 10000 2.57 70 03:31 12.05.2022
2169 Clear 16 1019 68 10000 1.03 0 00:41 12.05.2022
2170 Clear 18 1020 68 10000 0.89 292 22:41 11.05.2022
2171 Clear 19 1019 67 10000 0.89 292 21:56 11.05.2022
2172 Clear 19 1019 61 10000 1.54 160 21:24 11.05.2022
2173 Clear 20 1022 70 10000 3.13 201 19:42 11.05.2022
2174 Clear 22 1022 61 10000 7.2 230 17:24 11.05.2022
2175 Clouds 22 1023 57 10000 6.17 230 15:59 11.05.2022
2176 Clouds 22 1023 53 10000 6.69 230 14:39 11.05.2022
2177 Clouds 22 1023 53 10000 6.69 230 14:39 11.05.2022
2178 Clouds 22 1023 56 10000 6.17 230 14:19 11.05.2022
2179 Clear 23 1023 59 10000 5.66 240 12:23 11.05.2022
2180 Clear 21 1023 65 10000 4.12 230 11:47 11.05.2022
2181 Clouds 20 1023 71 10000 0.51 0 09:29 11.05.2022
2182 Clear 13 1019 78 10000 1.79 346 06:24 11.05.2022
2183 Clear 16 1021 72 10000 1.03 30 01:29 11.05.2022
2184 Clear 19 1021 67 10000 1.54 150 22:56 10.05.2022
2185 Clear 19 1021 66 10000 1.79 214 22:21 10.05.2022
2186 Clear 19 1020 63 10000 2.57 200 21:21 10.05.2022
2187 Clear 21 1020 60 10000 3.6 210 20:21 10.05.2022
2188 Clouds 21 1023 62 10000 5.14 210 18:38 10.05.2022
2189 Clouds 21 1023 63 10000 5.66 220 17:38 10.05.2022
2190 Clouds 22 1024 67 10000 6.69 210 15:56 10.05.2022
2191 Clouds 21 1025 56 10000 5.14 230 12:51 10.05.2022
2192 Clear 22 1025 52 10000 4.12 230 11:53 10.05.2022
2193 Clear 22 1025 49 10000 3.09 250 11:30 10.05.2022
2194 Clear 22 1024 50 10000 2.57 230 10:56 10.05.2022
2195 Clear 19 1024 62 10000 0 0 09:28 10.05.2022
2196 Clouds 14 1018 70 10000 0.51 0 07:58 10.05.2022
2197 Clear 13 1020 68 10000 0.89 355 05:54 10.05.2022
2198 Clear 15 1020 64 10000 1.34 9 01:53 10.05.2022
2199 Clouds 16 1020 65 9000 0.89 292 23:43 09.05.2022
2200 Clear 18 1020 72 10000 1.03 0 22:33 09.05.2022
2201 Clear 19 1020 66 10000 2.06 230 21:37 09.05.2022
2202 Clouds 20 1023 67 10000 3.09 230 19:56 09.05.2022
2203 Clouds 21 1022 57 10000 5.14 230 18:25 09.05.2022
2204 Clouds 20 1022 62 10000 6.17 220 17:25 09.05.2022
2205 Clouds 20 1023 58 10000 4.63 220 16:18 09.05.2022
2206 Clouds 22 1019 46 10000 5.14 220 15:47 09.05.2022
2207 Clouds 21 1023 55 10000 5.66 230 14:33 09.05.2022
2208 Clouds 21 1023 57 10000 5.14 230 13:57 09.05.2022
2209 Clouds 22 1023 54 10000 3.13 225 12:55 09.05.2022
2210 Clouds 22 1023 52 10000 1.54 70 11:53 09.05.2022
2211 Clouds 22 1020 47 10000 2.57 30 10:48 09.05.2022
2212 Clouds 21 1020 52 10000 3.09 30 10:23 09.05.2022
2213 Clouds 14 1019 59 10000 2.06 70 07:57 09.05.2022
2214 Clouds 13 1019 65 10000 1.54 70 04:52 09.05.2022
2215 Clear 15 1019 65 10000 1.34 342 00:30 09.05.2022
2216 Clear 17 1019 61 10000 0.89 310 23:28 08.05.2022
2217 Clear 17 1017 57 10000 0.51 0 22:32 08.05.2022
2218 Clouds 19 1018 55 10000 3.09 250 21:20 08.05.2022
2219 Clouds 20 1017 54 10000 4.12 250 20:23 08.05.2022
2220 Clouds 20 1020 70 10000 2.06 220 19:33 08.05.2022
2221 Clouds 20 1021 72 10000 3.6 230 18:38 08.05.2022
2222 Clouds 22 1020 46 10000 4.63 230 17:39 08.05.2022
2223 Clouds 22 1017 57 10000 3.6 220 15:46 08.05.2022
2224 Clouds 21 1021 72 10000 4.12 220 15:22 08.05.2022
2225 Clouds 21 1020 68 10000 5.66 230 12:48 08.05.2022
2226 Clouds 20 1020 69 10000 4.63 210 11:45 08.05.2022
2227 Clouds 21 1020 61 10000 2.57 230 10:25 08.05.2022
2228 Clouds 20 1020 64 10000 1.54 210 09:53 08.05.2022
2229 Clouds 14 1019 77 10000 1.03 80 07:44 08.05.2022
2230 Clouds 13 1016 70 10000 1.54 20 06:18 08.05.2022
2231 Clear 15 1016 63 10000 0.89 292 03:22 08.05.2022
2232 Clear 16 1017 60 10000 0.89 5 01:19 08.05.2022
2233 Clouds 17 1018 62 10000 0.89 288 23:57 07.05.2022
2234 Clear 17 1018 63 10000 1.34 280 23:32 07.05.2022
2235 Clear 18 1017 61 10000 1.54 170 22:42 07.05.2022
2236 Clear 19 1017 59 10000 2.06 180 21:56 07.05.2022
2237 Clouds 19 1017 59 10000 2.57 160 21:28 07.05.2022
2238 Clouds 21 1016 44 10000 4.12 170 20:25 07.05.2022
2239 Clouds 25 1018 36 10000 3.09 220 18:52 07.05.2022
2240 Clouds 25 1019 35 10000 6.17 220 16:51 07.05.2022
2241 Clouds 24 1019 38 10000 7.2 250 15:18 07.05.2022
2242 Clouds 23 1020 38 10000 2.57 270 11:51 07.05.2022
2243 Clouds 21 1019 43 10000 1.54 280 10:18 07.05.2022
2244 Clouds 18 1017 52 10000 1.03 160 08:34 07.05.2022
2245 Clouds 17 1017 53 10000 1.54 140 07:30 07.05.2022
2246 Clouds 17 1016 53 10000 1.34 286 06:42 07.05.2022
2247 Clouds 17 1016 55 10000 0.45 292 04:19 07.05.2022
2248 Clouds 16 1018 63 10000 1.34 346 00:49 07.05.2022
2249 Clouds 16 1018 67 10000 2.57 250 22:41 06.05.2022
2250 Clouds 17 1018 68 10000 2.57 250 22:21 06.05.2022
2251 Clouds 17 1018 66 10000 2.57 230 21:32 06.05.2022
2252 Clouds 19 1019 67 10000 4.63 200 19:49 06.05.2022
2253 Clouds 21 1016 54 10000 4.63 200 19:27 06.05.2022
2254 Clouds 20 1019 66 10000 3.6 180 18:43 06.05.2022
2255 Clouds 21 1019 55 10000 4.47 211 17:38 06.05.2022
2256 Clouds 22 1019 51 10000 5.14 150 15:55 06.05.2022
2257 Clouds 22 1019 52 10000 5.14 130 15:32 06.05.2022
2258 Clouds 23 1019 45 10000 4.63 230 14:22 06.05.2022
2259 Clouds 22 1020 47 10000 3.58 272 12:52 06.05.2022
2260 Clouds 21 1020 52 10000 4.63 310 11:58 06.05.2022
2261 Clouds 20 1020 54 10000 5.14 310 11:31 06.05.2022
2262 Clouds 19 1020 54 10000 4.92 300 09:48 06.05.2022
2263 Clouds 18 1020 65 10000 0.89 257 09:18 06.05.2022
2264 Clouds 15 1018 69 10000 1.03 0 07:55 06.05.2022
2265 Clouds 13 1017 70 10000 1.03 160 06:27 06.05.2022
2266 Clouds 14 1018 65 10000 0.89 294 04:29 06.05.2022
2267 Clouds 15 1018 61 10000 0.89 68 02:38 06.05.2022
2268 Clouds 17 1020 59 10000 1.54 120 23:25 05.05.2022
2269 Clouds 18 1019 52 10000 1.54 110 21:51 05.05.2022
2270 Clouds 19 1018 52 10000 7.2 60 20:37 05.05.2022
2271 Clouds 20 1019 51 10000 7.72 60 19:20 05.05.2022
2272 Clouds 21 1018 46 10000 10.8 50 16:49 05.05.2022
2273 Clouds 22 1018 41 10000 12.35 60 15:48 05.05.2022
2274 Clouds 22 1015 33 10000 11.32 60 14:34 05.05.2022
2275 Clouds 21 1016 48 10000 9.77 50 13:18 05.05.2022
2276 Clouds 21 1015 49 10000 9.26 60 11:46 05.05.2022
2277 Clouds 20 1014 52 10000 8.75 50 09:47 05.05.2022
2278 Clouds 19 1016 64 10000 8.23 60 09:26 05.05.2022
2279 Clouds 18 1013 49 10000 7.2 40 06:49 05.05.2022
2280 Clouds 18 1013 51 10000 7.72 70 02:30 05.05.2022
2281 Clouds 18 1013 52 10000 7.2 60 01:47 05.05.2022
2282 Clouds 18 1013 49 10000 8.49 63 01:19 05.05.2022
2283 Clouds 18 1013 49 10000 10.29 60 23:27 04.05.2022
2284 Clouds 18 1013 51 10000 8.23 50 22:23 04.05.2022
2285 Clouds 18 1012 54 10000 9.26 60 21:46 04.05.2022
2286 Clouds 18 1012 54 10000 9.77 50 21:22 04.05.2022
2287 Clouds 18 1011 57 10000 10.29 50 20:20 04.05.2022
2288 Clouds 19 1011 59 10000 11.83 50 19:44 04.05.2022
2289 Clouds 19 1011 58 10000 11.32 60 18:44 04.05.2022
2290 Clouds 20 1012 55 10000 11.83 50 18:20 04.05.2022
2291 Clouds 21 1011 53 10000 11.83 60 17:22 04.05.2022
2292 Clouds 21 1012 50 10000 9.26 50 15:35 04.05.2022
2293 Clouds 20 1015 61 10000 8.23 60 14:49 04.05.2022
2294 Clouds 20 1012 61 10000 7.72 50 14:20 04.05.2022
2295 Clouds 18 1012 70 10000 5.66 60 12:58 04.05.2022
2296 Clouds 18 1013 69 10000 7.15 20 12:28 04.05.2022
2297 Clouds 17 1012 78 10000 7.2 60 10:33 04.05.2022
2298 Clouds 16 1011 80 10000 7.2 60 09:28 04.05.2022
2299 Rain 15 1011 81 10000 5.66 60 08:33 04.05.2022
2300 Clouds 14 1013 85 10000 5.14 60 05:44 04.05.2022
2301 Clouds 14 1012 83 10000 1.34 55 02:43 04.05.2022
2302 Clouds 16 1013 81 10000 2.06 50 23:31 03.05.2022
2303 Clouds 17 1012 76 10000 2.06 50 22:20 03.05.2022
2304 Clouds 18 1012 73 10000 2.06 130 21:33 03.05.2022
2305 Clouds 18 1011 70 10000 2.57 130 20:52 03.05.2022
2306 Clouds 19 1014 69 10000 4.12 120 19:44 03.05.2022
2307 Clouds 20 1013 66 10000 4.12 130 18:50 03.05.2022
2308 Clouds 21 1013 64 10000 5.14 130 17:38 03.05.2022
2309 Clouds 21 1011 61 10000 5.66 80 16:35 03.05.2022
2310 Clouds 19 1013 72 10000 4.12 80 14:51 03.05.2022
2311 Clouds 19 1013 73 10000 5.14 110 12:47 03.05.2022
2312 Clouds 19 1013 79 10000 5.14 80 12:25 03.05.2022
2313 Clouds 18 1011 80 10000 4.92 67 10:52 03.05.2022
2314 Clouds 17 1010 76 10000 4.63 70 08:58 03.05.2022
2315 Clouds 15 1009 82 10000 2.57 70 06:46 03.05.2022
2316 Clouds 15 1009 76 10000 3.09 70 04:58 03.05.2022
2317 Clouds 16 1011 62 10000 2.57 80 00:19 03.05.2022
2318 Clouds 16 1012 67 10000 2.06 70 22:36 02.05.2022
2319 Clouds 17 1012 63 10000 1.54 80 21:51 02.05.2022
2320 Clouds 18 1013 57 10000 3.6 80 20:51 02.05.2022
2321 Clouds 21 1008 55 10000 4.63 160 18:37 02.05.2022
2322 Clouds 21 1009 56 10000 5.14 160 17:57 02.05.2022
2323 Clouds 20 1013 64 10000 5.66 170 17:34 02.05.2022
2324 Clouds 21 1013 65 10000 7.6 196 16:21 02.05.2022
2325 Clouds 21 1011 61 10000 6.17 180 15:29 02.05.2022
2326 Clouds 21 1014 71 10000 4.47 178 13:50 02.05.2022
2327 Clouds 22 1014 56 10000 3.13 76 12:19 02.05.2022
2328 Clouds 18 1015 76 10000 2.24 78 10:38 02.05.2022
2329 Clouds 17 1012 83 10000 1.54 50 08:49 02.05.2022
2330 Clouds 15 1011 85 10000 0.45 45 07:40 02.05.2022
2331 Clouds 15 1013 87 10000 1.03 40 03:48 02.05.2022
2332 Clouds 16 1014 83 10000 1.03 0 00:24 02.05.2022
2333 Clouds 17 1014 82 10000 0.45 189 23:47 01.05.2022
2334 Clouds 17 1014 82 10000 1.34 189 22:25 01.05.2022
2335 Clouds 17 1013 78 10000 2.57 230 21:19 01.05.2022
2336 Clear 18 1016 80 10000 4.12 230 19:51 01.05.2022
2337 Clear 19 1017 79 10000 4.63 230 18:57 01.05.2022
2338 Clear 21 1014 64 10000 5.14 230 18:28 01.05.2022
2339 Clear 20 1017 68 10000 4.63 230 17:26 01.05.2022
2340 Clouds 20 1018 73 10000 5.66 240 16:23 01.05.2022
2341 Clouds 20 1018 73 10000 4.12 240 15:25 01.05.2022
2342 Clouds 21 1019 61 10000 4.63 240 13:42 01.05.2022
2343 Clouds 20 1020 62 10000 4.12 220 11:18 01.05.2022
2344 Clouds 16 1016 75 10000 1.03 0 08:53 01.05.2022
2345 Clouds 15 1016 79 10000 1.03 0 08:34 01.05.2022
2346 Clouds 15 1017 77 10000 1.54 50 03:35 01.05.2022
2347 Clouds 16 1018 76 10000 1.34 68 00:18 01.05.2022
2348 Clouds 19 1018 64 10000 1.54 180 21:47 30.04.2022
2349 Clouds 19 1021 71 10000 2.06 220 20:59 30.04.2022
2350 Clouds 20 1020 61 10000 3.6 220 19:41 30.04.2022
2351 Clouds 21 1020 56 10000 4.63 220 18:21 30.04.2022
2352 Clouds 21 1020 51 10000 5.14 220 16:44 30.04.2022
2353 Clouds 22 1020 49 10000 5.66 220 15:47 30.04.2022
2354 Clouds 22 1021 51 10000 5.81 211 14:48 30.04.2022
2355 Clouds 21 1022 52 10000 5.14 230 12:55 30.04.2022
2356 Clouds 22 1022 48 10000 2.68 213 11:34 30.04.2022
2357 Clouds 22 1022 47 10000 0.51 330 10:44 30.04.2022
2358 Clouds 19 1022 58 10000 1.54 20 09:41 30.04.2022
2359 Clouds 13 1018 64 10000 1.54 50 06:43 30.04.2022
2360 Clear 14 1020 63 10000 2.06 50 02:36 30.04.2022
2361 Clear 17 1020 59 10000 3.6 40 23:37 29.04.2022
2362 Clear 17 1022 61 10000 3.09 40 22:31 29.04.2022
2363 Clear 18 1021 52 10000 2.57 60 21:39 29.04.2022
2364 Clear 20 1021 42 10000 3.6 80 20:49 29.04.2022
2365 Clear 23 1020 38 10000 5.14 70 19:47 29.04.2022
2366 Clouds 24 1021 31 10000 5.36 66 17:59 29.04.2022
2367 Clouds 24 1022 31 10000 5.66 50 17:23 29.04.2022
2368 Clouds 24 1023 34 10000 5.66 40 15:50 29.04.2022
2369 Clouds 24 1023 40 10000 4.63 70 14:22 29.04.2022
2370 Clouds 22 1024 47 10000 6.69 60 13:22 29.04.2022
2371 Clouds 21 1024 55 10000 8.75 60 11:50 29.04.2022
2372 Clouds 18 1021 61 10000 6.71 64 08:53 29.04.2022
2373 Clouds 13 1020 81 10000 1.03 0 07:28 29.04.2022
2374 Clouds 13 1020 81 10000 1.03 0 07:28 29.04.2022
2375 Clouds 13 1019 79 10000 2.06 90 06:46 29.04.2022
2376 Clouds 13 1019 72 10000 1.03 0 05:44 29.04.2022
2377 Clouds 16 1020 71 10000 3.58 26 00:46 29.04.2022
2378 Clouds 16 1019 77 10000 3.09 50 23:48 28.04.2022
2379 Clouds 16 1019 76 10000 3.6 50 22:45 28.04.2022
2380 Clouds 16 1018 74 10000 5.66 50 21:47 28.04.2022
2381 Clouds 17 1018 72 10000 5.14 60 21:22 28.04.2022
2382 Clouds 17 1017 67 10000 7.72 60 20:35 28.04.2022
2383 Clouds 18 1016 65 10000 5.66 70 19:46 28.04.2022
2384 Clouds 19 1016 64 10000 5.14 60 19:23 28.04.2022
2385 Clouds 20 1016 59 10000 4.12 90 18:37 28.04.2022
2386 Clouds 21 1016 53 10000 5.66 80 17:32 28.04.2022
2387 Clouds 21 1019 59 10000 5.66 70 16:41 28.04.2022
2388 Clouds 21 1019 56 10000 5.66 50 16:19 28.04.2022
2389 Clouds 21 1019 58 10000 5.66 50 15:40 28.04.2022
2390 Clouds 21 1019 50 10000 4.47 27 14:38 28.04.2022
2391 Clouds 21 1019 53 10000 5.66 50 13:20 28.04.2022
2392 Clouds 20 1019 54 10000 6.69 60 12:28 28.04.2022
2393 Clouds 19 1019 62 10000 5.14 60 10:47 28.04.2022
2394 Clouds 18 1019 67 10000 5.14 60 10:26 28.04.2022
2395 Clouds 18 1019 69 10000 6.17 60 09:41 28.04.2022
2396 Clear 14 1015 70 10000 3.09 60 07:38 28.04.2022
2397 Clear 14 1014 70 10000 3.6 50 06:37 28.04.2022
2398 Clear 14 1015 70 10000 3.6 30 05:39 28.04.2022
2399 Clear 14 1015 68 10000 1.54 340 04:41 28.04.2022
2400 Clear 16 1016 63 10000 2.06 70 00:36 28.04.2022
2401 Clear 17 1016 55 10000 3.09 60 22:49 27.04.2022
2402 Clear 17 1015 53 10000 1.34 64 21:58 27.04.2022
2403 Clear 18 1015 50 10000 1.79 84 21:29 27.04.2022
2404 Clear 19 1016 45 10000 2.06 200 20:44 27.04.2022
2405 Clouds 19 1017 54 10000 5.14 240 19:39 27.04.2022
2406 Clouds 19 1017 54 10000 5.14 240 19:39 27.04.2022
2407 Clouds 20 1014 43 10000 5.14 240 19:19 27.04.2022
2408 Clouds 19 1016 52 10000 3.13 258 18:38 27.04.2022
2409 Clouds 20 1016 48 10000 2.57 240 17:26 27.04.2022
2410 Clouds 21 1017 47 10000 4.63 220 15:56 27.04.2022
2411 Rain 22 1014 31 10000 3.6 60 12:34 27.04.2022
2412 Clear 21 1018 44 10000 3.09 50 11:23 27.04.2022
2413 Clear 19 1015 44 10000 4.63 60 10:22 27.04.2022
2414 Clear 13 1013 64 10000 1.03 0 07:41 27.04.2022
2415 Clear 13 1013 64 10000 1.54 40 06:30 27.04.2022
2416 Clear 14 1013 57 10000 1.79 360 02:21 27.04.2022
2417 Clear 15 1013 56 10000 1.54 110 01:18 27.04.2022
2418 Clear 16 1013 52 10000 1.03 0 00:27 27.04.2022
2419 Clear 17 1013 48 10000 0.89 68 23:23 26.04.2022
2420 Clear 17 1016 56 10000 3.6 60 22:43 26.04.2022
2421 Clear 18 1015 49 10000 3.13 38 21:57 26.04.2022
2422 Clear 19 1014 45 10000 2.06 80 20:58 26.04.2022
2423 Clear 20 1014 42 10000 3.09 90 20:36 26.04.2022
2424 Clear 21 1014 40 10000 4.02 105 19:35 26.04.2022
2425 Clear 22 1014 38 10000 4.02 88 18:53 26.04.2022
2426 Clear 21 1014 51 10000 1.79 206 18:19 26.04.2022
2427 Clear 21 1015 55 10000 4.12 280 17:34 26.04.2022
2428 Clouds 21 1015 59 10000 5.14 240 14:58 26.04.2022
2429 Clear 23 1016 42 10000 3.6 100 13:34 26.04.2022
2430 Clouds 23 1016 37 10000 4.02 41 12:35 26.04.2022
2431 Clear 21 1015 46 10000 3.6 50 10:57 26.04.2022
2432 Clear 19 1015 52 10000 3.09 60 10:29 26.04.2022
2433 Clear 13 1013 72 10000 1.34 5 08:29 26.04.2022
2434 Clear 11 1011 75 10000 2.68 5 04:38 26.04.2022
2435 Clear 11 1012 72 10000 1.34 355 03:25 26.04.2022
2436 Clear 13 1013 70 10000 0.45 292 00:46 26.04.2022
2437 Clear 14 1013 68 10000 1.54 60 23:48 25.04.2022
2438 Clear 16 1011 56 10000 1.54 210 21:49 25.04.2022
2439 Clear 17 1011 60 10000 1.54 210 21:23 25.04.2022
2440 Clouds 18 1014 54 10000 3.09 210 19:39 25.04.2022
2441 Clouds 20 1014 44 10000 4.12 220 18:31 25.04.2022
2442 Clouds 20 1013 52 10000 4.12 220 17:39 25.04.2022
2443 Clouds 20 1014 43 10000 4.63 230 16:35 25.04.2022
2444 Clouds 20 1015 43 10000 4.63 240 15:21 25.04.2022
2445 Clouds 20 1015 51 10000 4.12 230 14:23 25.04.2022
2446 Clouds 19 1015 63 10000 4.12 230 12:40 25.04.2022
2447 Clouds 18 1014 68 10000 1.34 173 10:29 25.04.2022
2448 Clear 16 1014 81 10000 0 0 09:39 25.04.2022
2449 Fog 8 1012 91 10000 1.54 50 07:34 25.04.2022
2450 Clear 10 1011 79 10000 1.79 338 05:54 25.04.2022
2451 Clear 12 1011 71 10000 1.03 170 01:28 25.04.2022
2452 Clear 14 1011 70 10000 1.03 0 23:54 24.04.2022
2453 Clear 14 1011 67 10000 1.03 0 23:22 24.04.2022
2454 Clear 16 1010 64 10000 1.54 190 22:38 24.04.2022
2455 Clear 16 1006 34 10000 2.06 180 21:55 24.04.2022
2456 Clear 17 1010 54 10000 2.57 190 21:21 24.04.2022
2457 Clear 16 1011 72 10000 4.12 230 20:44 24.04.2022
2458 Clear 18 1011 63 10000 5.66 230 19:57 24.04.2022
2459 Clear 20 1011 48 10000 6.17 230 18:37 24.04.2022
2460 Clear 20 1012 52 10000 8.23 240 17:42 24.04.2022
2461 Clear 20 1012 52 10000 8.23 240 17:21 24.04.2022
2462 Clear 19 1012 54 10000 7.72 240 16:51 24.04.2022
2463 Clear 21 1012 42 10000 7.72 240 16:25 24.04.2022
2464 Clouds 20 1011 50 10000 8.75 240 15:39 24.04.2022
2465 Clear 20 1011 49 10000 8.75 250 14:33 24.04.2022
2466 Clear 20 1011 49 10000 8.75 250 14:33 24.04.2022
2467 Clear 20 1011 47 10000 7.72 240 13:26 24.04.2022
2468 Clouds 20 1011 46 10000 7.2 240 12:55 24.04.2022
2469 Clouds 19 1011 50 10000 7.2 240 11:49 24.04.2022
2470 Clouds 18 1010 51 10000 4.63 250 10:37 24.04.2022
2471 Clouds 18 1010 55 10000 4.63 250 09:43 24.04.2022
2472 Clouds 14 1006 59 10000 2.68 215 07:42 24.04.2022
2473 Clouds 16 1005 50 10000 3.6 270 05:45 24.04.2022
2474 Clouds 16 1005 46 10000 6.17 250 01:58 24.04.2022
2475 Clouds 16 1005 49 10000 8.75 260 00:45 24.04.2022
2476 Clouds 16 1005 56 10000 8.23 250 23:46 23.04.2022
2477 Clouds 16 1005 51 10000 8.23 240 23:25 23.04.2022
2478 Clouds 16 1004 64 10000 6.69 220 21:58 23.04.2022
2479 Clouds 16 1004 68 10000 7.72 230 21:36 23.04.2022
2480 Clouds 16 1003 70 10000 8.75 230 20:59 23.04.2022
2481 Clouds 17 1002 64 10000 11.32 230 19:56 23.04.2022
2482 Clouds 17 1002 64 10000 10.8 230 19:20 23.04.2022
2483 Clouds 18 1002 62 10000 10.29 230 18:53 23.04.2022
2484 Clouds 18 1002 62 10000 12.35 230 18:31 23.04.2022
2485 Clouds 18 1002 56 10000 12.86 230 17:44 23.04.2022
2486 Clouds 17 1004 64 10000 13.38 230 16:45 23.04.2022
2487 Clouds 17 1001 60 10000 12.35 230 15:36 23.04.2022
2488 Clouds 14 1000 72 10000 7.72 220 12:59 23.04.2022
2489 Rain 13 1000 75 10000 7.72 260 11:29 23.04.2022
2490 Clouds 15 998 78 10000 6.17 240 09:39 23.04.2022
2491 Clouds 16 999 76 10000 8.75 220 07:52 23.04.2022
2492 Clouds 16 999 78 10000 5.66 210 03:56 23.04.2022
2493 Clouds 16 1000 76 10000 6.17 200 02:34 23.04.2022
2494 Clouds 15 1001 81 9000 3.6 200 23:34 22.04.2022
2495 Clouds 16 1001 82 9000 2.68 209 22:40 22.04.2022
2496 Clouds 16 1000 81 9000 3.6 220 21:55 22.04.2022
2497 Clouds 16 1000 81 9000 3.6 220 21:55 22.04.2022
2498 Clouds 16 1001 81 9000 5.66 210 21:37 22.04.2022
2499 Clouds 16 1001 79 10000 6.17 220 20:29 22.04.2022
2500 Clouds 16 1001 76 10000 6.69 210 19:23 22.04.2022
2501 Clouds 17 1002 75 10000 6.69 210 18:56 22.04.2022
2502 Clouds 17 1002 73 10000 6.69 220 18:24 22.04.2022
2503 Clouds 18 1002 73 10000 6.71 219 16:53 22.04.2022
2504 Clouds 18 1005 69 10000 6.17 220 15:57 22.04.2022
2505 Clouds 20 1001 56 10000 7.2 220 15:23 22.04.2022
2506 Clouds 18 1005 64 10000 7.2 220 14:37 22.04.2022
2507 Clouds 19 1005 62 10000 6.17 220 13:41 22.04.2022
2508 Clouds 18 1005 66 10000 5.66 230 12:36 22.04.2022
2509 Clouds 18 1003 74 10000 4.12 230 11:23 22.04.2022
2510 Clouds 17 1005 80 10000 3.09 230 10:56 22.04.2022
2511 Clouds 17 1005 82 10000 3.13 201 10:32 22.04.2022
2512 Clouds 16 1005 84 10000 1.03 0 09:54 22.04.2022
2513 Clouds 14 1003 88 10000 1.03 0 08:56 22.04.2022
2514 Clouds 12 1001 91 10000 0.89 68 08:36 22.04.2022
2515 Clouds 11 1001 86 10000 0.51 0 06:38 22.04.2022
2516 Clouds 13 1003 83 10000 3.6 280 00:56 22.04.2022
2517 Clouds 13 1002 85 10000 4.63 300 23:31 21.04.2022
2518 Rain 13 1002 85 10000 6.69 330 22:36 21.04.2022
2519 Drizzle 13 1000 86 10000 8.23 320 21:36 21.04.2022
2520 Drizzle 13 1000 81 10000 7.2 320 20:30 21.04.2022
2521 Clouds 14 1000 71 10000 7.2 310 18:49 21.04.2022
2522 Clouds 15 1000 66 10000 7.2 320 18:26 21.04.2022
2523 Clouds 15 1000 61 10000 6.69 300 17:19 21.04.2022
2524 Clouds 17 1000 54 10000 8.75 330 15:25 21.04.2022
2525 Clouds 17 1002 60 10000 8.23 350 14:52 21.04.2022
2526 Clouds 16 1002 61 10000 7.6 19 14:18 21.04.2022
2527 Clouds 16 1002 61 10000 7.72 350 13:21 21.04.2022
2528 Clouds 17 1003 54 10000 2.57 340 12:25 21.04.2022
2529 Clouds 15 1002 63 10000 2.24 32 09:36 21.04.2022
2530 Clouds 13 1000 64 10000 3.09 50 08:47 21.04.2022
2531 Clouds 11 1000 72 10000 2.06 50 06:44 21.04.2022
2532 Clouds 11 1000 78 10000 3.13 32 03:42 21.04.2022
2533 Clouds 11 1000 78 10000 3.09 60 03:22 21.04.2022
2534 Clouds 11 1001 78 10000 1.54 100 02:44 21.04.2022
2535 Clouds 11 1001 78 10000 2.06 50 02:44 21.04.2022
2536 Rain 13 997 60 10000 2.57 150 00:35 21.04.2022
2537 Clouds 14 997 52 10000 4.12 140 23:37 20.04.2022
2538 Rain 15 1002 61 10000 4.12 140 23:18 20.04.2022
2539 Clouds 15 1001 62 10000 5.81 129 22:36 20.04.2022
2540 Clouds 15 1001 58 10000 4.47 150 21:47 20.04.2022
2541 Clouds 15 1001 54 10000 7.2 200 20:45 20.04.2022
2542 Clouds 16 1001 52 10000 6.69 210 20:21 20.04.2022
2543 Clouds 16 1001 55 10000 6.26 182 19:46 20.04.2022
2544 Clouds 17 1001 60 10000 6.17 220 18:48 20.04.2022
2545 Clouds 17 1004 65 10000 5.14 230 17:50 20.04.2022
2546 Clouds 18 1003 68 10000 8.23 220 16:39 20.04.2022
2547 Clouds 19 1002 71 10000 6.69 190 15:33 20.04.2022
2548 Clouds 17 1003 82 9000 4.63 180 12:46 20.04.2022
2549 Clouds 17 1003 79 9000 4.12 160 11:42 20.04.2022
2550 Clouds 17 1000 80 9000 3.09 160 10:44 20.04.2022
2551 Clouds 16 1001 85 9000 1.54 140 09:34 20.04.2022
2552 Clouds 16 999 85 9000 2.06 160 08:51 20.04.2022
2553 Clouds 15 999 85 9000 1.03 0 08:19 20.04.2022
2554 Clouds 14 1002 83 10000 0.51 0 06:23 20.04.2022
2555 Clouds 14 1004 80 10000 1.54 50 02:58 20.04.2022
2556 Clear 15 1005 73 10000 1.54 60 00:22 20.04.2022
2557 Clear 16 1006 69 10000 2.57 50 23:19 19.04.2022
2558 Clear 17 1009 72 10000 2.24 116 22:24 19.04.2022
2559 Clear 17 1009 70 10000 2.24 85 21:55 19.04.2022
2560 Clear 17 1009 70 10000 2.24 85 21:55 19.04.2022
2561 Clear 18 1000 50 10000 1.54 100 21:18 19.04.2022
2562 Clear 21 1007 43 10000 4.12 150 20:37 19.04.2022
2563 Clear 19 1009 65 10000 3.6 120 19:43 19.04.2022
2564 Clear 22 1008 48 10000 3.6 150 18:37 19.04.2022
2565 Clear 23 1009 41 10000 3.6 130 17:27 19.04.2022
2566 Clear 23 1009 44 10000 4.12 140 16:43 19.04.2022
2567 Clear 24 1010 41 10000 3.13 196 16:21 19.04.2022
2568 Clouds 24 1011 35 10000 3.09 130 14:47 19.04.2022
2569 Clouds 21 1012 43 10000 2.57 50 13:22 19.04.2022
2570 Clouds 20 1011 40 10000 1.54 70 12:49 19.04.2022
2571 Clear 21 1008 27 10000 1.54 50 11:39 19.04.2022
2572 Clear 16 1012 63 10000 0.51 0 09:57 19.04.2022
2573 Clouds 15 1008 50 10000 1.03 0 08:43 19.04.2022
2574 Clear 11 1011 61 10000 1.34 344 04:41 19.04.2022
2575 Clear 12 1012 63 10000 1.79 346 03:19 19.04.2022
2576 Clear 13 1013 64 10000 1.34 360 00:27 19.04.2022
2577 Clear 14 1013 66 10000 1.03 0 23:25 18.04.2022
2578 Clear 16 1012 69 10000 0.51 40 21:29 18.04.2022
2579 Clear 17 1011 62 10000 2.57 250 20:53 18.04.2022
2580 Clear 18 1012 67 10000 2.57 240 20:27 18.04.2022
2581 Clear 18 1016 77 10000 3.6 260 19:42 18.04.2022
2582 Clear 18 1015 75 10000 3.6 250 18:54 18.04.2022
2583 Clear 19 1016 69 10000 4.12 230 17:55 18.04.2022
2584 Clear 19 1016 67 10000 4.12 240 17:33 18.04.2022
2585 Clear 19 1016 67 10000 4.12 240 17:33 18.04.2022
2586 Clear 19 1016 68 10000 4.12 240 16:50 18.04.2022
2587 Clear 19 1016 71 10000 5.66 240 16:21 18.04.2022
2588 Clouds 18 1017 71 10000 4.12 240 14:45 18.04.2022
2589 Clouds 19 1017 63 10000 3.09 250 13:35 18.04.2022
2590 Clouds 20 1017 50 10000 3.6 240 12:29 18.04.2022
2591 Clouds 20 1014 39 10000 2.57 240 11:34 18.04.2022
2592 Clouds 18 1017 52 10000 1.03 0 10:31 18.04.2022
2593 Clouds 18 1014 36 10000 1.03 0 09:31 18.04.2022
2594 Clear 12 1013 53 10000 0.51 0 07:42 18.04.2022
2595 Clouds 12 1013 52 9000 1.03 50 05:37 18.04.2022
2596 Clear 14 1014 52 10000 1.03 0 00:27 18.04.2022
2597 Clear 16 1014 39 10000 1.54 70 22:41 17.04.2022
2598 Clear 16 1017 55 10000 2.57 20 21:46 17.04.2022
2599 Clear 17 1013 42 10000 1.54 60 21:24 17.04.2022
2600 Clear 20 1012 35 10000 3.09 120 20:35 17.04.2022
2601 Clear 20 1012 35 10000 3.09 120 20:35 17.04.2022
2602 Clear 22 1015 46 10000 3.6 190 19:28 17.04.2022
2603 Clear 23 1015 43 10000 4.63 230 17:48 17.04.2022
2604 Clear 25 1015 33 10000 3.09 90 15:40 17.04.2022
2605 Clear 24 1016 35 10000 5.14 80 14:55 17.04.2022
2606 Clear 25 1016 36 10000 5.66 70 13:48 17.04.2022
2607 Clear 25 1016 35 10000 3.6 50 12:58 17.04.2022
2608 Clear 24 1016 33 10000 5.14 30 12:27 17.04.2022
2609 Clear 23 1016 40 10000 3.09 50 10:46 17.04.2022
2610 Clear 21 1016 52 10000 4.63 60 10:28 17.04.2022
2611 Clear 18 1016 64 10000 0.51 0 09:34 17.04.2022
2612 Clear 18 1013 62 10000 1.03 0 08:51 17.04.2022
2613 Clear 12 1013 75 10000 1.54 70 07:30 17.04.2022
2614 Clouds 14 1013 70 10000 0.89 68 04:29 17.04.2022
2615 Clouds 14 1014 61 10000 1.54 60 01:26 17.04.2022
2616 Clear 16 1013 54 10000 0.51 0 23:52 16.04.2022
2617 Clear 18 1013 46 10000 2.06 210 22:35 16.04.2022
2618 Clear 20 1015 60 10000 3.09 200 21:38 16.04.2022
2619 Clear 21 1015 60 10000 4.12 210 20:32 16.04.2022
2620 Clouds 25 1015 47 10000 3.09 210 18:59 16.04.2022
2621 Clouds 25 1015 41 10000 4.12 230 17:52 16.04.2022
2622 Clouds 25 1016 44 10000 3.6 230 16:40 16.04.2022
2623 Clouds 25 1017 44 10000 5.14 230 15:45 16.04.2022
2624 Clouds 24 1017 46 10000 4.63 240 14:56 16.04.2022
2625 Clear 22 1018 56 10000 2.06 240 13:58 16.04.2022
2626 Clear 21 1018 60 10000 2.06 210 13:37 16.04.2022
2627 Clear 21 1018 53 10000 2.06 210 12:26 16.04.2022
2628 Clear 22 1015 45 10000 1.34 212 11:18 16.04.2022
2629 Clear 19 1015 57 10000 0.51 310 09:56 16.04.2022
2630 Clear 14 1015 74 10000 0.51 0 08:59 16.04.2022
2631 Clear 8 1018 93 10000 1.54 50 07:57 16.04.2022
2632 Clear 11 1018 83 10000 1.03 0 06:58 16.04.2022
2633 Clear 12 1015 72 10000 0.51 0 03:36 16.04.2022
2634 Clear 14 1016 68 10000 1.03 10 00:31 16.04.2022
2635 Clear 15 1016 62 10000 1.54 50 23:23 15.04.2022
2636 Clear 16 1015 57 10000 2.06 90 22:36 15.04.2022
2637 Clear 17 1015 51 10000 0 0 21:55 15.04.2022
2638 Clear 17 1015 51 10000 1.03 0 21:18 15.04.2022
2639 Clear 19 1015 39 10000 1.54 190 20:24 15.04.2022
2640 Clear 20 1018 51 10000 2.57 220 19:40 15.04.2022
2641 Clear 20 1018 52 10000 2.57 200 18:54 15.04.2022
2642 Clear 22 1014 35 10000 4.12 100 18:25 15.04.2022
2643 Clear 22 1017 49 10000 6.17 80 17:35 15.04.2022
2644 Clear 23 1017 40 10000 7.72 80 16:53 15.04.2022
2645 Clear 24 1017 35 10000 5.66 90 16:19 15.04.2022
2646 Clear 24 1017 31 10000 6.17 80 15:24 15.04.2022
2647 Clear 23 1017 25 10000 7.72 60 13:42 15.04.2022
2648 Clouds 21 1018 40 10000 7.2 60 12:43 15.04.2022
2649 Clouds 21 1018 37 10000 6.69 60 11:58 15.04.2022
2650 Clouds 21 1018 37 10000 7.2 60 11:35 15.04.2022
2651 Clear 21 1017 43 10000 5.66 50 10:45 15.04.2022
2652 Clear 17 1014 57 10000 1.79 54 09:50 15.04.2022
2653 Clouds 15 1014 67 10000 3.6 40 09:21 15.04.2022
2654 Clear 14 1014 68 10000 2.06 40 07:53 15.04.2022
2655 Clouds 15 1014 68 10000 3.09 70 06:46 15.04.2022
2656 Clouds 15 1013 65 10000 3.09 60 03:47 15.04.2022
2657 Rain 15 1013 65 10000 5.14 60 23:32 14.04.2022
2658 Clouds 15 1013 64 10000 4.12 60 22:50 14.04.2022
2659 Rain 15 1013 65 10000 4.12 70 22:32 14.04.2022
2660 Clouds 15 1013 63 10000 5.14 70 21:59 14.04.2022
2661 Clouds 16 1012 61 10000 3.6 70 21:30 14.04.2022
2662 Clouds 18 1011 49 10000 6.69 60 19:24 14.04.2022
2663 Clouds 18 1014 59 10000 8.75 50 18:31 14.04.2022
2664 Clouds 18 1013 63 10000 9.26 50 17:44 14.04.2022
2665 Clouds 19 1013 63 10000 8.23 50 16:49 14.04.2022
2666 Clouds 19 1013 63 10000 7.2 50 15:48 14.04.2022
2667 Clouds 19 1010 50 10000 6.17 50 13:49 14.04.2022
2668 Clouds 19 1010 53 10000 7.72 60 13:19 14.04.2022
2669 Clouds 17 1010 57 10000 7.72 60 12:32 14.04.2022
2670 Rain 17 1010 56 10000 8.23 40 11:36 14.04.2022
2671 Clouds 17 1010 55 10000 8.23 60 10:57 14.04.2022
2672 Clouds 17 1009 58 10000 8.75 60 10:29 14.04.2022
2673 Rain 15 1009 67 10000 6.17 50 09:28 14.04.2022
2674 Clouds 14 1009 72 7000 3.09 60 07:54 14.04.2022
2675 Clouds 14 1008 76 7000 8.23 50 05:35 14.04.2022
2676 Clouds 14 1008 88 6000 6.69 50 00:22 14.04.2022
2677 Clouds 15 1008 86 9000 7.2 50 22:37 13.04.2022
2678 Clouds 15 1007 84 9000 6.69 60 21:42 13.04.2022
2679 Rain 15 1009 94 10000 4.63 70 20:39 13.04.2022
2680 Clouds 15 1010 93 8000 5.14 50 19:48 13.04.2022
2681 Clouds 15 1010 93 7000 3.6 60 18:37 13.04.2022
2682 Clouds 15 1010 90 10000 2.57 30 17:25 13.04.2022
2683 Clouds 15 1008 86 10000 3.09 50 16:52 13.04.2022
2684 Clouds 16 1010 88 10000 3.09 40 15:45 13.04.2022
2685 Clouds 15 1008 87 10000 2.06 50 15:23 13.04.2022
2686 Drizzle 16 1011 91 10000 1.03 0 14:40 13.04.2022
2687 Clouds 16 1011 91 10000 2.06 80 13:38 13.04.2022
2688 Clouds 15 1011 91 10000 1.79 106 12:51 13.04.2022
2689 Clouds 15 1009 89 10000 1.03 0 11:47 13.04.2022
2690 Rain 15 1009 89 8000 0.51 30 10:31 13.04.2022
2691 Rain 14 1006 88 10000 1.03 0 08:45 13.04.2022
2692 Rain 14 1006 88 10000 2.57 320 08:23 13.04.2022
2693 Rain 15 1008 86 10000 2.24 275 06:49 13.04.2022
2694 Clouds 15 1008 85 10000 1.79 271 06:24 13.04.2022
2695 Clouds 16 1009 84 10000 3.09 200 02:24 13.04.2022
2696 Clouds 16 1008 82 10000 3.09 50 00:20 13.04.2022
2697 Clouds 17 1012 85 10000 2.57 60 22:34 12.04.2022
2698 Clouds 17 1011 84 10000 2.57 50 21:56 12.04.2022
2699 Clouds 18 1009 77 10000 4.12 80 20:48 12.04.2022
2700 Clouds 19 1010 76 10000 3.6 60 20:22 12.04.2022
2701 Clouds 22 1009 43 10000 2.06 270 19:40 12.04.2022
2702 Clouds 21 1010 57 10000 3.6 240 18:56 12.04.2022
2703 Clouds 21 1009 64 9000 3.6 220 17:39 12.04.2022
2704 Clouds 22 1009 60 9000 4.12 210 16:47 12.04.2022
2705 Clouds 22 1010 61 9000 4.92 281 15:38 12.04.2022
2706 Clouds 21 1010 71 9000 5.66 230 15:20 12.04.2022
2707 Clouds 22 1010 66 9000 3.13 221 13:53 12.04.2022
2708 Clouds 22 1011 67 9000 1.54 80 13:27 12.04.2022
2709 Clouds 20 1011 74 9000 3.09 60 12:21 12.04.2022
2710 Clouds 19 1011 75 9000 3.09 50 11:39 12.04.2022
2711 Clouds 18 1008 73 7000 5.14 60 09:59 12.04.2022
2712 Clouds 16 1008 80 7000 3.09 80 08:52 12.04.2022
2713 Clouds 15 1007 82 9000 4.63 70 07:21 12.04.2022
2714 Clouds 15 1008 79 10000 4.63 60 05:42 12.04.2022
2715 Clouds 15 1009 80 10000 5.66 60 02:49 12.04.2022
2716 Clouds 15 1011 78 10000 4.12 60 23:25 11.04.2022
2717 Clouds 15 1011 78 10000 5.14 60 22:43 11.04.2022
2718 Clouds 16 1010 74 10000 5.14 70 21:35 11.04.2022
2719 Clouds 17 1013 74 10000 4.12 70 20:37 11.04.2022
2720 Clouds 17 1010 67 10000 4.12 70 20:19 11.04.2022
2721 Clear 18 1013 68 10000 4.92 66 19:27 11.04.2022
2722 Clear 19 1012 65 10000 5.66 80 18:59 11.04.2022
2723 Clear 20 1013 62 10000 5.66 90 18:33 11.04.2022
2724 Clear 20 1013 59 10000 5.66 80 17:43 11.04.2022
2725 Clear 21 1014 61 10000 5.14 80 16:36 11.04.2022
2726 Clear 21 1014 57 10000 5.66 80 15:24 11.04.2022
2727 Clear 21 1015 57 10000 6.69 70 13:44 11.04.2022
2728 Clear 20 1016 58 10000 5.14 80 12:41 11.04.2022
2729 Clear 19 1016 61 10000 5.14 80 12:22 11.04.2022
2730 Clear 17 1016 73 10000 5.14 60 10:47 11.04.2022
2731 Clear 15 1016 75 10000 5.14 70 09:58 11.04.2022
2732 Clear 13 1014 74 10000 3.6 60 08:23 11.04.2022
2733 Clear 12 1015 72 10000 2.06 80 04:57 11.04.2022
2734 Clear 13 1016 70 10000 2.06 80 00:30 11.04.2022
2735 Clear 14 1017 60 10000 2.06 90 22:27 10.04.2022
2736 Clear 14 1015 52 10000 2.06 120 21:54 10.04.2022
2737 Clear 15 1015 52 10000 3.6 120 21:23 10.04.2022
2738 Clear 17 1016 48 10000 4.63 130 20:21 10.04.2022
2739 Clear 19 1018 45 10000 4.12 130 19:37 10.04.2022
2740 Clear 18 1019 52 10000 4.12 160 18:50 10.04.2022
2741 Clouds 18 1019 51 10000 4.12 160 18:27 10.04.2022
2742 Clouds 18 1019 53 10000 4.47 214 17:46 10.04.2022
2743 Clouds 18 1020 52 10000 5.81 198 16:59 10.04.2022
2744 Clouds 18 1020 52 10000 6.26 188 15:41 10.04.2022
2745 Clouds 18 1021 51 10000 5.36 206 14:42 10.04.2022
2746 Clouds 18 1021 51 10000 5.36 206 14:42 10.04.2022
2747 Clouds 18 1021 55 10000 4.02 217 13:45 10.04.2022
2748 Clouds 18 1022 57 10000 4.47 227 12:32 10.04.2022
2749 Clouds 17 1022 57 10000 2.68 140 11:44 10.04.2022
2750 Clouds 17 1022 56 10000 2.57 130 11:20 10.04.2022
2751 Clouds 16 1022 64 10000 2.68 116 10:34 10.04.2022
2752 Clear 14 1022 75 10000 2.24 61 09:46 10.04.2022
2753 Clouds 12 1019 81 10000 1.54 70 08:40 10.04.2022
2754 Clouds 12 1019 81 10000 1.54 70 08:18 10.04.2022
2755 Clouds 12 1019 80 10000 2.57 70 06:59 10.04.2022
2756 Clouds 13 1019 77 10000 3.09 50 03:40 10.04.2022
2757 Clouds 13 1019 76 10000 1.54 70 02:19 10.04.2022
2758 Clouds 13 1018 76 10000 2.06 80 23:54 09.04.2022
2759 Clouds 13 1018 76 10000 1.03 60 22:56 09.04.2022
2760 Clouds 13 1017 74 10000 2.57 50 22:38 09.04.2022
2761 Clouds 15 1016 73 10000 2.68 141 21:23 09.04.2022
2762 Clouds 16 1014 64 10000 2.57 160 20:30 09.04.2022
2763 Clouds 17 1015 61 10000 4.12 160 19:57 09.04.2022
2764 Clouds 19 1016 55 10000 3.6 160 19:39 09.04.2022
2765 Clouds 19 1016 39 10000 4.12 320 18:23 09.04.2022
2766 Clouds 19 1016 41 10000 4.47 327 17:50 09.04.2022
2767 Clouds 19 1017 39 10000 4.12 10 16:57 09.04.2022
2768 Clouds 20 1017 40 10000 4.12 340 16:38 09.04.2022
2769 Clouds 20 1017 40 10000 4.12 340 16:38 09.04.2022
2770 Clouds 20 1017 40 10000 4.12 340 16:38 09.04.2022
2771 Clouds 20 1017 40 10000 4.12 340 16:38 09.04.2022
2772 Clouds 20 1017 40 10000 4.12 340 16:38 09.04.2022
2773 Clouds 19 1017 43 10000 6.17 320 15:50 09.04.2022
2774 Clouds 20 1013 32 10000 6.17 350 15:26 09.04.2022
2775 Clouds 20 1014 36 10000 5.81 9 14:26 09.04.2022
2776 Clouds 20 1013 33 10000 6.69 320 13:33 09.04.2022
2777 Clouds 19 1017 46 10000 6.69 320 12:56 09.04.2022
2778 Clouds 19 1016 46 10000 7.72 330 11:50 09.04.2022
2779 Clouds 19 1016 47 10000 5.81 317 10:52 09.04.2022
2780 Clouds 18 1013 42 10000 5.81 5 10:18 09.04.2022
2781 Clouds 18 1013 51 10000 3.13 276 09:23 09.04.2022
2782 Clouds 17 1011 49 10000 1.79 9 08:26 09.04.2022
2783 Clear 14 1011 84 10000 1.03 0 04:38 09.04.2022
2784 Clear 15 1012 80 10000 4.63 210 00:35 09.04.2022
2785 Clear 15 1012 81 10000 3.6 230 23:24 08.04.2022
2786 Clear 16 1012 74 10000 3.6 240 21:53 08.04.2022
2787 Clouds 16 1011 66 10000 4.63 240 20:44 08.04.2022
2788 Clear 16 1014 78 10000 4.12 240 19:50 08.04.2022
2789 Clear 18 1014 73 10000 3.09 210 18:59 08.04.2022
2790 Clear 17 1014 76 10000 5.14 220 18:24 08.04.2022
2791 Clear 18 1014 71 10000 4.63 220 17:29 08.04.2022
2792 Clear 18 1014 71 10000 5.66 220 16:58 08.04.2022
2793 Clear 19 1015 66 10000 6.69 220 16:32 08.04.2022
2794 Clear 20 1015 57 10000 8.23 220 15:38 08.04.2022
2795 Clear 20 1015 60 10000 9.26 230 14:52 08.04.2022
2796 Clear 20 1015 56 10000 7.72 230 14:21 08.04.2022
2797 Clear 20 1016 61 10000 7.2 240 13:41 08.04.2022
2798 Clear 20 1016 60 10000 7.2 240 13:22 08.04.2022
2799 Clear 20 1016 63 10000 5.66 250 11:43 08.04.2022
2800 Clouds 18 1016 64 10000 1.34 288 10:26 08.04.2022
2801 Clear 14 1014 83 10000 0.45 68 09:20 08.04.2022
2802 Clear 9 1015 93 10000 0.89 318 07:58 08.04.2022
2803 Clear 9 1015 93 10000 2.06 180 06:47 08.04.2022
2804 Clear 11 1015 77 10000 2.06 170 03:48 08.04.2022
2805 Clear 14 1016 68 10000 2.57 180 00:32 08.04.2022
2806 Clear 15 1016 64 10000 2.57 160 23:59 07.04.2022
2807 Clear 15 1015 60 10000 1.54 170 22:58 07.04.2022
2808 Clear 16 1015 57 10000 2.06 170 22:37 07.04.2022
2809 Clear 16 1015 57 10000 2.06 170 22:19 07.04.2022
2810 Clear 16 1014 56 10000 1.54 180 21:47 07.04.2022
2811 Clear 16 1014 53 10000 2.06 220 20:57 07.04.2022
2812 Clear 17 1015 57 10000 3.13 232 20:28 07.04.2022
2813 Clear 18 1017 74 10000 6.17 220 17:57 07.04.2022
2814 Clear 18 1018 70 10000 7.2 220 17:24 07.04.2022
2815 Clear 19 1017 54 10000 9.77 250 16:43 07.04.2022
2816 Clear 20 1018 46 10000 10.29 250 16:18 07.04.2022
2817 Clear 20 1018 55 10000 7.72 230 14:36 07.04.2022
2818 Clear 20 1018 60 10000 5.36 204 13:42 07.04.2022
2819 Clear 19 1019 62 10000 5.66 220 12:40 07.04.2022
2820 Clear 18 1018 71 10000 4.63 230 11:29 07.04.2022
2821 Clouds 13 1016 82 10000 0.89 45 09:36 07.04.2022
2822 Fog 6 1016 93 5000 0 0 08:37 07.04.2022
2823 Clouds 5 1016 100 10000 1.54 340 06:42 07.04.2022
2824 Clouds 8 1014 85 10000 1.54 70 02:47 07.04.2022
2825 Clouds 9 1014 81 10000 0.51 0 02:18 07.04.2022
2826 Clouds 10 1015 80 10000 3.6 250 00:26 07.04.2022
2827 Clouds 11 1015 75 10000 4.12 260 22:49 06.04.2022
2828 Clouds 11 1014 74 10000 3.6 250 22:26 06.04.2022
2829 Clouds 12 1013 71 10000 5.14 260 21:34 06.04.2022
2830 Clouds 12 1013 67 10000 5.66 260 20:36 06.04.2022
2831 Clouds 14 1014 72 10000 5.66 250 19:53 06.04.2022
2832 Clouds 14 1013 63 10000 5.14 310 18:51 06.04.2022
2833 Clouds 14 1013 64 10000 4.63 300 18:25 06.04.2022
2834 Clouds 14 1013 64 10000 5.14 320 17:35 06.04.2022
2835 Clouds 13 1013 69 10000 6.69 320 16:38 06.04.2022
2836 Clouds 13 1013 72 10000 7.2 310 15:48 06.04.2022
2837 Clouds 13 1013 70 10000 7.2 310 15:21 06.04.2022
2838 Clouds 12 1013 82 10000 3.6 260 13:24 06.04.2022
2839 Clouds 11 1013 82 10000 2.57 40 12:27 06.04.2022
2840 Clouds 10 1012 91 10000 4.12 50 10:48 06.04.2022
2841 Clouds 9 1012 92 10000 2.57 40 10:29 06.04.2022
2842 Rain 9 1011 89 9000 4.63 30 09:40 06.04.2022
2843 Drizzle 9 1009 89 9000 6.17 40 08:34 06.04.2022
2844 Drizzle 10 1009 81 9000 4.63 30 07:53 06.04.2022
2845 Clouds 9 1011 89 10000 4.12 30 04:30 06.04.2022
2846 Clouds 10 1013 88 10000 3.09 30 23:54 05.04.2022
2847 Clouds 11 1013 86 10000 1.54 30 22:58 05.04.2022
2848 Rain 12 1012 84 10000 3.58 19 21:23 05.04.2022
2849 Rain 12 1012 75 10000 5.14 60 20:26 05.04.2022
2850 Rain 13 1011 71 10000 5.14 60 19:52 05.04.2022
2851 Clouds 14 1011 58 10000 8.75 60 18:18 05.04.2022
2852 Clouds 15 1012 52 10000 9.26 60 16:55 05.04.2022
2853 Clouds 15 1013 48 10000 8.23 70 16:35 05.04.2022
2854 Clouds 15 1013 49 10000 9.77 50 15:43 05.04.2022
2855 Clouds 15 1013 49 10000 9.77 50 15:43 05.04.2022
2856 Clouds 16 1014 46 10000 9.26 60 15:24 05.04.2022
2857 Clouds 15 1014 49 10000 9.77 70 13:38 05.04.2022
2858 Clouds 14 1013 49 10000 9.77 60 11:51 05.04.2022
2859 Clouds 14 1013 51 10000 10.8 70 11:33 05.04.2022
2860 Clouds 13 1013 55 10000 9.26 60 10:52 05.04.2022
2861 Clouds 12 1011 58 10000 5.66 60 09:29 05.04.2022
2862 Clouds 11 1012 64 10000 8.75 60 07:32 05.04.2022
2863 Clouds 11 1014 66 10000 2.68 15 02:43 05.04.2022
2864 Clouds 11 1014 66 10000 4.63 60 23:18 04.04.2022
2865 Clouds 11 1014 65 10000 4.47 15 22:29 04.04.2022
2866 Clouds 11 1014 63 10000 5.14 60 21:43 04.04.2022
2867 Clouds 11 1013 60 10000 5.14 50 21:18 04.04.2022
2868 Clouds 11 1013 59 10000 5.14 50 20:46 04.04.2022
2869 Clouds 11 1013 56 10000 10.29 60 19:27 04.04.2022
2870 Clouds 12 1012 54 10000 11.83 50 18:39 04.04.2022
2871 Clouds 12 1013 53 10000 11.32 50 17:19 04.04.2022
2872 Clouds 13 1014 51 10000 10.8 60 16:27 04.04.2022
2873 Clouds 13 1014 50 10000 10.8 60 15:33 04.04.2022
2874 Clouds 12 1014 50 10000 10.8 60 14:46 04.04.2022
2875 Clouds 12 1015 50 10000 10.29 50 13:59 04.04.2022
2876 Clouds 12 1015 52 10000 10.29 60 12:58 04.04.2022
2877 Clouds 11 1015 53 10000 9.77 60 11:29 04.04.2022
2878 Clouds 10 1014 54 10000 8.75 70 09:53 04.04.2022
2879 Clouds 10 1015 59 10000 6.17 70 05:34 04.04.2022
2880 Clouds 9 1016 61 10000 5.14 60 02:59 04.04.2022
2881 Clouds 9 1016 60 10000 4.63 70 23:19 03.04.2022
2882 Clouds 9 1015 61 10000 4.63 70 22:00 03.04.2022
2883 Clouds 9 1015 61 10000 4.63 70 21:27 03.04.2022
2884 Clouds 10 1014 60 10000 6.17 70 20:32 03.04.2022
2885 Clouds 10 1014 62 10000 7.2 70 18:47 03.04.2022
2886 Clouds 11 1014 62 10000 6.69 80 17:56 03.04.2022
2887 Clouds 11 1014 63 10000 7.2 80 17:36 03.04.2022
2888 Clouds 11 1014 65 10000 7.2 60 16:50 03.04.2022
2889 Clouds 10 1015 75 10000 4.63 80 15:57 03.04.2022
2890 Rain 8 1015 81 10000 2.06 320 14:27 03.04.2022
2891 Rain 9 1015 70 10000 5.14 100 13:34 03.04.2022
2892 Clouds 11 1017 67 10000 5.14 70 11:51 03.04.2022
2893 Clouds 9 1015 64 10000 2.57 50 09:59 03.04.2022
2894 Clouds 10 1013 65 10000 3.6 50 09:19 03.04.2022
2895 Clouds 6 1014 74 10000 2.57 70 06:41 03.04.2022
2896 Clear 6 1014 63 10000 1.34 64 02:56 03.04.2022
2897 Clouds 8 1014 60 10000 1.54 100 23:50 02.04.2022
2898 Clouds 9 1014 53 10000 1.54 50 22:52 02.04.2022
2899 Clouds 10 1014 47 10000 2.24 241 21:56 02.04.2022
2900 Clouds 10 1013 45 10000 2.57 290 21:26 02.04.2022
2901 Clouds 12 1013 39 10000 4.63 300 20:39 02.04.2022
2902 Clouds 13 1012 35 10000 6.69 320 18:51 02.04.2022
2903 Clouds 13 1012 35 10000 7.72 310 18:20 02.04.2022
2904 Clouds 13 1012 34 10000 7.72 320 17:46 02.04.2022
2905 Clouds 12 1014 44 10000 7.2 340 15:59 02.04.2022
2906 Clouds 12 1013 36 10000 6.17 330 15:21 02.04.2022
2907 Clouds 12 1015 46 10000 9.26 320 14:42 02.04.2022
2908 Clouds 11 1014 49 10000 6.71 9 13:34 02.04.2022
2909 Clouds 11 1014 52 10000 6.69 320 12:37 02.04.2022
2910 Clouds 10 1014 55 10000 10.29 320 10:56 02.04.2022
2911 Clouds 9 1010 47 10000 6.69 320 08:44 02.04.2022
2912 Clouds 8 1010 50 10000 8.23 320 06:49 02.04.2022
2913 Clouds 9 1011 50 10000 8.75 320 03:39 02.04.2022
2914 Clouds 10 1011 36 10000 6.69 320 23:55 01.04.2022
2915 Clouds 11 1011 34 10000 8.23 320 23:18 01.04.2022
2916 Clouds 12 1010 32 10000 7.6 284 21:33 01.04.2022
2917 Clouds 12 1009 33 10000 8.23 310 20:51 01.04.2022
2918 Clouds 12 1008 31 10000 8.75 310 19:57 01.04.2022
2919 Clouds 12 1008 29 10000 6.69 300 19:31 01.04.2022
2920 Clouds 12 1010 42 10000 7.2 310 18:45 01.04.2022
2921 Clouds 12 1010 39 10000 8.23 310 17:46 01.04.2022
2922 Clouds 12 1011 37 10000 6.69 310 16:48 01.04.2022
2923 Clouds 13 1009 38 10000 5.14 300 15:36 01.04.2022
2924 Clouds 12 1006 28 10000 6.17 360 14:20 01.04.2022
2925 Clouds 11 1010 48 10000 7.2 350 13:33 01.04.2022
2926 Clouds 13 1006 36 10000 9.77 340 12:32 01.04.2022
2927 Clouds 13 1004 42 10000 11.83 320 11:37 01.04.2022
2928 Clouds 11 1002 48 10000 11.83 320 10:19 01.04.2022
2929 Clouds 12 1002 42 10000 10.29 320 08:47 01.04.2022
2930 Clouds 12 1001 59 10000 6.69 310 06:54 01.04.2022
2931 Clouds 13 1003 66 10000 5.14 300 04:51 01.04.2022
2932 Clouds 13 1003 65 10000 5.14 310 04:31 01.04.2022
2933 Clouds 12 1003 77 10000 1.79 262 01:56 01.04.2022
2934 Clouds 11 1003 85 10000 1.54 160 23:58 31.03.2022
2935 Clear 13 1003 79 10000 1.03 0 21:53 31.03.2022
2936 Clear 13 1003 78 10000 1.03 0 21:32 31.03.2022
2937 Clouds 14 1000 64 10000 4.12 240 20:29 31.03.2022
2938 Clouds 14 999 61 10000 4.12 240 19:50 31.03.2022
2939 Clouds 16 999 54 10000 5.14 250 18:46 31.03.2022
2940 Clouds 16 1001 58 10000 5.14 240 17:50 31.03.2022
2941 Clouds 15 1002 68 10000 6.17 330 16:38 31.03.2022
2942 Clouds 14 1000 65 10000 5.66 320 15:45 31.03.2022
2943 Clouds 14 1000 68 10000 6.17 330 15:19 31.03.2022
2944 Clouds 14 1000 69 10000 3.13 303 14:37 31.03.2022
2945 Clouds 13 1000 82 8000 5.14 310 12:19 31.03.2022
2946 Clouds 12 1000 86 6000 4.12 280 11:22 31.03.2022
2947 Rain 12 998 86 9000 1.54 270 09:47 31.03.2022
2948 Rain 12 997 83 10000 2.57 290 08:20 31.03.2022
2949 Clouds 12 1000 89 10000 0 0 05:42 31.03.2022
2950 Clouds 11 1001 90 10000 0 0 00:32 31.03.2022
2951 Clouds 13 1001 79 10000 1.54 100 22:45 30.03.2022
2952 Clouds 13 1001 78 10000 2.57 70 21:39 30.03.2022
2953 Clouds 13 1000 76 10000 3.09 60 20:54 30.03.2022
2954 Clouds 14 1000 77 10000 3.6 70 20:20 30.03.2022
2955 Clouds 14 1000 81 10000 4.63 60 19:35 30.03.2022
2956 Clouds 15 1000 76 10000 4.63 70 18:29 30.03.2022
2957 Clouds 15 1000 76 10000 5.14 70 17:48 30.03.2022
2958 Clouds 16 1000 71 10000 4.63 60 16:57 30.03.2022
2959 Clouds 16 1000 72 10000 4.63 20 16:38 30.03.2022
2960 Clouds 15 1000 72 10000 6.17 350 15:24 30.03.2022
2961 Clouds 16 1000 72 10000 8.75 330 13:44 30.03.2022
2962 Clouds 16 997 66 10000 9.26 340 12:58 30.03.2022
2963 Clouds 14 997 80 10000 9.26 320 11:34 30.03.2022
2964 Clouds 14 997 80 10000 9.26 320 11:34 30.03.2022
2965 Clouds 14 997 88 10000 4.63 280 10:31 30.03.2022
2966 Clouds 15 996 90 10000 6.17 300 09:25 30.03.2022
2967 Clouds 15 994 87 10000 1.79 90 07:33 30.03.2022
2968 Clouds 15 994 89 6000 2.57 250 05:41 30.03.2022
2969 Mist 15 996 90 4000 2.57 350 03:59 30.03.2022
2970 Clouds 15 998 84 9000 3.09 70 00:42 30.03.2022
2971 Clouds 15 999 81 9000 5.14 60 22:34 29.03.2022
2972 Clouds 15 999 77 9000 3.6 50 21:45 29.03.2022
2973 Clouds 16 998 73 8000 6.17 60 20:54 29.03.2022
2974 Clouds 17 998 71 10000 6.17 60 20:19 29.03.2022
2975 Clouds 18 999 71 10000 7.72 70 18:56 29.03.2022
2976 Clouds 18 1000 70 10000 6.69 70 18:21 29.03.2022
2977 Clouds 17 999 70 10000 7.2 70 17:36 29.03.2022
2978 Clouds 17 1001 73 10000 7.72 60 16:58 29.03.2022
2979 Rain 18 1003 67 10000 3.6 90 15:57 29.03.2022
2980 Clouds 19 1004 62 10000 6.69 80 14:53 29.03.2022
2981 Clouds 18 1004 65 10000 7.2 80 14:18 29.03.2022
2982 Clouds 17 1006 66 10000 6.69 50 12:53 29.03.2022
2983 Clouds 18 1008 68 10000 3.09 100 11:43 29.03.2022
2984 Rain 16 1007 68 10000 6.69 50 10:51 29.03.2022
2985 Clouds 14 1008 73 10000 4.63 60 09:49 29.03.2022
2986 Clear 12 1009 78 10000 3.6 60 07:35 29.03.2022
2987 Clear 11 1011 81 10000 2.57 70 04:47 29.03.2022
2988 Clear 14 1015 62 10000 4.12 70 00:36 29.03.2022
2989 Clear 14 1019 77 10000 3.09 60 23:24 28.03.2022
2990 Clear 14 1019 76 10000 2.57 70 22:53 28.03.2022
2991 Clear 14 1019 75 10000 2.57 70 22:26 28.03.2022
2992 Clear 15 1018 72 10000 2.57 90 20:58 28.03.2022
2993 Clear 16 1017 51 10000 3.09 80 20:23 28.03.2022
2994 Clear 17 1019 59 10000 2.57 90 19:45 28.03.2022
2995 Clear 18 1018 48 10000 1.54 100 19:27 28.03.2022
2996 Clear 19 1020 48 10000 3.6 70 18:40 28.03.2022
2997 Clear 19 1020 47 10000 3.6 70 17:39 28.03.2022
2998 Clear 20 1021 53 10000 3.58 29 16:33 28.03.2022
2999 Clear 20 1023 45 10000 3.6 90 14:48 28.03.2022
3000 Clouds 19 1023 43 10000 3.6 110 14:21 28.03.2022
3001 Clear 18 1026 49 10000 2.24 55 12:24 28.03.2022
3002 Clear 17 1023 61 10000 3.09 70 11:31 28.03.2022
3003 Clouds 13 1022 76 10000 3.09 50 09:43 28.03.2022
3004 Clouds 12 1022 85 10000 3.09 50 09:19 28.03.2022
3005 Clouds 10 1021 89 10000 4.63 70 08:22 28.03.2022
3006 Clouds 9 1021 86 10000 1.54 30 07:34 28.03.2022
3007 Clouds 11 1022 84 10000 0 0 03:52 28.03.2022
3008 Clouds 13 1022 79 10000 2.57 70 23:33 27.03.2022
3009 Clouds 14 1022 76 10000 1.54 60 22:24 27.03.2022
3010 Clouds 14 1022 73 10000 3.09 80 21:42 27.03.2022
3011 Clouds 15 1021 66 10000 3.6 80 20:58 27.03.2022
3012 Clouds 16 1021 61 10000 5.66 70 19:49 27.03.2022
3013 Clouds 17 1020 66 10000 5.66 70 19:26 27.03.2022
3014 Clouds 17 1019 58 10000 6.17 60 18:28 27.03.2022
3015 Clouds 19 1019 52 10000 5.66 60 17:40 27.03.2022
3016 Clouds 19 1019 51 10000 5.66 60 17:20 27.03.2022
3017 Clouds 19 1021 59 10000 6.17 50 15:28 27.03.2022
3018 Clouds 19 1021 60 10000 6.69 70 13:56 27.03.2022
3019 Clouds 17 1021 72 10000 6.69 50 12:41 27.03.2022
3020 Clouds 17 1018 62 10000 6.17 50 11:21 27.03.2022
3021 Clouds 14 1017 79 10000 4.12 40 09:21 27.03.2022
3022 Clouds 13 1016 87 10000 4.12 40 05:56 27.03.2022
3023 Clouds 13 1017 89 10000 2.57 30 00:57 27.03.2022
3024 Clouds 13 1017 89 7000 2.57 20 23:46 26.03.2022
3025 Clouds 13 1017 89 7000 3.6 30 22:42 26.03.2022
3026 Rain 13 1017 89 4000 4.63 50 21:46 26.03.2022
3027 Rain 13 1017 89 4000 4.63 50 21:25 26.03.2022
3028 Rain 13 1015 88 4000 7.2 60 19:29 26.03.2022
3029 Rain 14 1014 78 4000 2.57 80 17:54 26.03.2022
3030 Clouds 15 1014 74 9000 5.66 50 17:33 26.03.2022
3031 Clouds 15 1014 71 10000 6.17 70 16:27 26.03.2022
3032 Clouds 16 1014 67 10000 6.69 80 15:23 26.03.2022
3033 Clouds 17 1014 60 10000 7.72 80 13:54 26.03.2022
3034 Clouds 17 1014 61 10000 8.23 70 13:18 26.03.2022
3035 Clouds 15 1014 72 10000 6.69 70 11:41 26.03.2022
3036 Clouds 15 1014 73 10000 7.2 70 10:29 26.03.2022
3037 Clouds 14 1013 79 10000 6.69 50 08:44 26.03.2022
3038 Clouds 14 1013 79 10000 6.69 60 06:25 26.03.2022
3039 Clouds 14 1013 77 10000 7.2 60 05:22 26.03.2022
3040 Clouds 14 1015 75 10000 3.09 80 00:30 26.03.2022
3041 Clouds 14 1015 74 10000 7.72 60 21:51 25.03.2022
3042 Clouds 14 1015 74 9000 6.69 50 20:46 25.03.2022
3043 Clouds 14 1014 76 9000 7.2 60 20:20 25.03.2022
3044 Clouds 15 1014 74 9000 6.69 60 18:47 25.03.2022
3045 Clouds 15 1015 75 10000 6.17 70 17:49 25.03.2022
3046 Clouds 15 1014 74 10000 8.23 60 17:27 25.03.2022
3047 Clouds 16 1014 72 10000 8.23 60 16:19 25.03.2022
3048 Clouds 16 1015 70 10000 7.72 70 14:49 25.03.2022
3049 Clouds 17 1016 68 10000 6.69 80 13:24 25.03.2022
3050 Clouds 15 1017 78 10000 6.69 60 10:26 25.03.2022
3051 Clouds 14 1017 77 10000 8.23 50 09:28 25.03.2022
3052 Clouds 13 1017 76 10000 7.72 50 08:24 25.03.2022
3053 Clouds 13 1017 80 10000 7.72 50 07:28 25.03.2022
3054 Clouds 13 1018 80 10000 4.12 60 06:29 25.03.2022
3055 Clouds 13 1018 80 10000 4.12 60 06:29 25.03.2022
3056 Clouds 13 1019 80 10000 3.6 60 01:32 25.03.2022
3057 Clouds 14 1020 80 10000 4.12 70 22:53 24.03.2022
3058 Clouds 14 1020 80 10000 4.12 70 21:52 24.03.2022
3059 Clouds 14 1019 81 10000 4.63 60 20:40 24.03.2022
3060 Clouds 14 1019 80 10000 4.12 60 19:48 24.03.2022
3061 Clouds 16 1019 71 10000 5.66 70 17:50 24.03.2022
3062 Clouds 16 1019 72 10000 6.17 70 17:29 24.03.2022
3063 Clouds 17 1019 70 9000 5.66 70 15:52 24.03.2022
3064 Clouds 17 1020 73 9000 6.17 70 14:50 24.03.2022
3065 Clouds 16 1020 76 9000 5.14 70 14:20 24.03.2022
3066 Clouds 16 1020 78 9000 5.14 70 13:26 24.03.2022
3067 Clouds 15 1021 84 6000 4.12 60 11:59 24.03.2022
3068 Clouds 13 1020 90 4000 5.66 70 10:28 24.03.2022
3069 Rain 13 1022 90 6000 3.6 60 09:22 24.03.2022
3070 Clouds 13 1020 88 4000 2.57 80 07:39 24.03.2022
3071 Clouds 13 1021 88 8000 4.63 60 04:43 24.03.2022
3072 Drizzle 12 1022 91 7000 3.6 80 23:38 23.03.2022
3073 Clouds 12 1022 90 7000 4.63 80 22:18 23.03.2022
3074 Clouds 12 1022 90 7000 4.63 60 21:20 23.03.2022
3075 Clouds 13 1021 85 7000 5.14 70 19:50 23.03.2022
3076 Clouds 13 1021 81 8000 5.66 80 19:25 23.03.2022
3077 Drizzle 12 1021 85 10000 5.66 70 17:47 23.03.2022
3078 Clouds 12 1022 84 10000 4.92 51 16:55 23.03.2022
3079 Drizzle 12 1023 81 10000 5.66 70 15:21 23.03.2022
3080 Clouds 13 1023 75 10000 5.14 70 14:41 23.03.2022
3081 Clouds 13 1023 75 10000 5.66 70 13:30 23.03.2022
3082 Clouds 13 1024 71 10000 6.69 70 10:37 23.03.2022
3083 Clouds 12 1023 71 10000 3.58 35 08:21 23.03.2022
3084 Clouds 11 1024 69 10000 3.13 50 05:50 23.03.2022
3085 Clouds 11 1025 63 10000 3.6 60 01:59 23.03.2022
3086 Clouds 12 1025 64 10000 4.12 60 00:25 23.03.2022
3087 Clouds 12 1025 64 10000 4.12 60 00:25 23.03.2022
3088 Clouds 13 1025 69 10000 4.12 70 21:36 22.03.2022
3089 Clouds 13 1025 66 10000 5.14 80 20:57 22.03.2022
3090 Clouds 13 1025 67 10000 4.63 80 20:00 22.03.2022
3091 Clouds 13 1025 65 10000 4.12 80 19:26 22.03.2022
3092 Clouds 14 1025 62 10000 5.14 80 18:46 22.03.2022
3093 Clouds 14 1024 60 10000 6.17 80 17:43 22.03.2022
3094 Clouds 14 1025 55 10000 5.14 80 16:37 22.03.2022
3095 Clouds 15 1025 54 10000 7.2 90 15:41 22.03.2022
3096 Clouds 15 1025 54 10000 7.6 92 15:19 22.03.2022
3097 Clouds 15 1025 54 10000 6.17 90 14:42 22.03.2022
3098 Clouds 14 1025 54 10000 7.2 90 13:42 22.03.2022
3099 Clouds 15 1025 52 10000 6.69 90 11:53 22.03.2022
3100 Clouds 14 1027 62 10000 6.69 80 10:54 22.03.2022
3101 Clouds 13 1027 65 10000 5.81 66 09:28 22.03.2022
3102 Clouds 12 1023 67 10000 3.6 70 07:30 22.03.2022
3103 Clouds 12 1025 68 10000 5.14 80 03:57 22.03.2022
3104 Clouds 12 1025 67 10000 3.6 60 00:50 22.03.2022
3105 Clouds 13 1025 67 10000 4.12 70 22:57 21.03.2022
3106 Clouds 14 1025 70 10000 5.36 36 21:37 21.03.2022
3107 Clouds 14 1025 70 10000 5.14 80 20:44 21.03.2022
3108 Clouds 14 1024 70 10000 5.36 46 20:23 21.03.2022
3109 Clouds 14 1024 69 10000 5.14 80 19:47 21.03.2022
3110 Clouds 14 1023 68 10000 6.69 90 18:59 21.03.2022
3111 Clouds 14 1023 66 10000 7.2 90 17:36 21.03.2022
3112 Clouds 15 1023 67 10000 6.17 100 16:59 21.03.2022
3113 Clouds 15 1024 65 10000 6.69 100 16:33 21.03.2022
3114 Clouds 15 1024 65 10000 7.6 76 15:43 21.03.2022
3115 Clouds 15 1024 68 10000 7.15 63 14:45 21.03.2022
3116 Drizzle 15 1025 69 10000 6.71 93 13:20 21.03.2022
3117 Clouds 16 1027 72 10000 7.15 63 11:59 21.03.2022
3118 Clouds 16 1025 63 10000 7.72 100 11:28 21.03.2022
3119 Clouds 15 1025 69 10000 5.81 47 09:53 21.03.2022
3120 Clouds 14 1023 72 10000 5.14 80 07:53 21.03.2022
3121 Clouds 14 1022 73 10000 4.63 70 06:30 21.03.2022
3122 Clouds 14 1024 76 9000 4.02 50 02:23 21.03.2022
3123 Clouds 14 1025 78 9000 3.58 32 23:26 20.03.2022
3124 Clouds 14 1025 78 9000 4.02 72 22:36 20.03.2022
3125 Clouds 14 1024 79 9000 4.12 80 21:44 20.03.2022
3126 Clouds 14 1024 78 9000 4.12 80 20:58 20.03.2022
3127 Clouds 14 1024 78 9000 3.6 80 20:39 20.03.2022
3128 Clouds 14 1024 80 9000 4.02 57 19:56 20.03.2022
3129 Clouds 14 1023 78 10000 3.6 90 19:25 20.03.2022
3130 Clouds 16 1023 74 10000 4.02 77 17:50 20.03.2022
3131 Clouds 16 1023 74 10000 4.92 65 17:28 20.03.2022
3132 Clouds 15 1023 78 9000 4.12 120 16:46 20.03.2022
3133 Clouds 18 1023 62 10000 6.71 80 14:54 20.03.2022
3134 Clouds 17 1026 72 10000 6.26 123 13:46 20.03.2022
3135 Clouds 18 1024 67 10000 5.14 110 12:21 20.03.2022
3136 Clouds 16 1023 75 10000 4.02 70 10:39 20.03.2022
3137 Clouds 14 1023 85 9000 2.24 24 08:37 20.03.2022
3138 Clouds 12 1021 82 10000 3.09 70 06:55 20.03.2022
3139 Clouds 12 1022 85 10000 4.63 60 03:59 20.03.2022
3140 Clouds 13 1023 77 10000 4.63 70 00:59 20.03.2022
3141 Clouds 13 1023 77 10000 4.63 50 00:36 20.03.2022
3142 Clouds 14 1023 76 10000 5.66 60 22:56 19.03.2022
3143 Clouds 14 1023 77 10000 5.14 50 21:27 19.03.2022
3144 Clouds 14 1022 72 10000 3.6 60 20:19 19.03.2022
3145 Clouds 15 1021 70 10000 5.14 60 18:44 19.03.2022
3146 Clouds 15 1021 68 10000 4.92 40 18:23 19.03.2022
3147 Clouds 16 1021 66 10000 7.2 70 17:34 19.03.2022
3148 Clouds 16 1021 67 10000 4.02 34 15:43 19.03.2022
3149 Clouds 17 1021 65 10000 5.14 60 14:30 19.03.2022
3150 Clouds 18 1021 63 10000 6.17 60 12:58 19.03.2022
3151 Clouds 17 1022 64 10000 7.2 50 12:38 19.03.2022
3152 Clouds 18 1022 64 10000 8.23 50 11:51 19.03.2022
3153 Clouds 16 1022 70 9000 8.23 60 10:44 19.03.2022
3154 Clouds 12 1020 87 10000 4.12 50 06:27 19.03.2022
3155 Clouds 12 1022 84 10000 3.09 50 03:21 19.03.2022
3156 Clouds 13 1022 80 10000 5.36 24 01:33 19.03.2022
3157 Clouds 13 1022 78 10000 7.2 50 23:36 18.03.2022
3158 Clouds 14 1022 76 10000 7.2 50 22:26 18.03.2022
3159 Clouds 14 1022 77 10000 5.66 50 21:19 18.03.2022
3160 Clouds 14 1021 77 10000 8.23 60 19:50 18.03.2022
3161 Clouds 14 1021 74 10000 6.69 60 19:21 18.03.2022
3162 Clouds 14 1021 74 10000 6.69 60 19:21 18.03.2022
3163 Rain 14 1020 74 4000 10.8 70 17:43 18.03.2022
3164 Clouds 15 1019 68 10000 10.29 60 16:47 18.03.2022
3165 Clouds 16 1019 64 10000 9.26 60 14:51 18.03.2022
3166 Clouds 15 1019 67 10000 10.8 50 14:21 18.03.2022
3167 Clouds 16 1020 65 10000 8.75 60 12:26 18.03.2022
3168 Clouds 15 1019 68 10000 10.29 60 10:47 18.03.2022
3169 Clouds 15 1019 72 9000 7.2 70 09:28 18.03.2022
3170 Clouds 14 1017 75 9000 5.14 50 08:30 18.03.2022
3171 Clouds 14 1016 68 10000 8.23 50 06:34 18.03.2022
3172 Clouds 14 1018 74 8000 6.17 50 02:51 18.03.2022
3173 Clouds 13 1018 73 7000 5.66 60 00:22 18.03.2022
3174 Clouds 13 1018 73 7000 5.66 60 00:22 18.03.2022
3175 Clouds 13 1018 75 7000 5.14 70 23:22 17.03.2022
3176 Rain 14 1018 73 7000 7.2 50 22:24 17.03.2022
3177 Clouds 13 1017 77 7000 6.17 50 21:48 17.03.2022
3178 Clouds 13 1017 77 7000 7.72 60 21:21 17.03.2022
3179 Clouds 13 1017 79 6000 10.29 60 20:42 17.03.2022
3180 Clouds 13 1016 76 3000 9.77 60 19:47 17.03.2022
3181 Clouds 14 1015 74 8000 8.75 50 18:57 17.03.2022
3182 Clouds 14 1015 71 9000 8.75 50 18:39 17.03.2022
3183 Clouds 15 1015 69 8000 8.75 40 16:49 17.03.2022
3184 Clouds 15 1014 72 8000 8.75 50 15:44 17.03.2022
3185 Clouds 15 1014 72 8000 8.75 50 15:25 17.03.2022
3186 Clouds 15 1015 80 5000 10.29 60 14:29 17.03.2022
3187 Clouds 14 1015 81 5000 8.75 50 12:54 17.03.2022
3188 Clouds 14 1015 82 5000 10.29 50 12:25 17.03.2022
3189 Rain 14 1015 83 2000 8.23 60 11:29 17.03.2022
3190 Clouds 15 1015 80 7000 8.75 60 10:30 17.03.2022
3191 Rain 14 1012 85 4000 7.2 60 08:37 17.03.2022
3192 Rain 14 1012 86 5000 8.23 60 07:34 17.03.2022
3193 Clouds 15 1012 85 7000 7.2 60 05:47 17.03.2022
3194 Rain 15 1013 85 7000 4.63 60 01:30 17.03.2022
3195 Clouds 15 1013 83 7000 3.09 70 23:50 16.03.2022
3196 Clouds 15 1013 82 7000 4.12 70 22:48 16.03.2022
3197 Clouds 15 1012 82 7000 4.12 70 22:48 16.03.2022
3198 Clouds 15 1012 82 7000 4.12 80 22:30 16.03.2022
3199 Clouds 15 1011 82 7000 4.92 59 21:42 16.03.2022
3200 Clouds 15 1011 79 6000 5.66 60 19:47 16.03.2022
3201 Clouds 15 1011 79 6000 6.17 50 19:21 16.03.2022
3202 Clouds 16 1011 76 7000 6.17 70 18:37 16.03.2022
3203 Clouds 16 1011 76 7000 6.17 70 17:43 16.03.2022
3204 Clouds 16 1011 76 7000 6.17 70 17:43 16.03.2022
3205 Clouds 16 1011 75 7000 7.2 60 17:20 16.03.2022
3206 Clouds 17 1011 71 8000 7.72 60 15:55 16.03.2022
3207 Clouds 19 1011 63 8000 6.69 60 14:27 16.03.2022
3208 Clouds 20 1013 64 8000 7.72 50 13:31 16.03.2022
3209 Clouds 19 1013 69 6000 6.17 70 11:57 16.03.2022
3210 Clouds 17 1015 75 6000 6.17 70 11:21 16.03.2022
3211 Clouds 17 1015 77 6000 8.23 60 10:23 16.03.2022
3212 Clouds 15 1014 84 6000 8.23 60 08:53 16.03.2022
3213 Clouds 15 1014 84 9000 6.69 60 06:27 16.03.2022
3214 Clouds 15 1016 78 9000 6.69 60 01:45 16.03.2022
3215 Clouds 15 1018 74 9000 6.17 70 22:41 15.03.2022
3216 Clouds 15 1018 74 9000 5.66 70 22:18 15.03.2022
3217 Clouds 15 1018 74 9000 7.2 60 20:33 15.03.2022
3218 Clouds 17 1018 67 9000 7.72 70 18:58 15.03.2022
3219 Clouds 19 1018 62 9000 5.14 80 16:59 15.03.2022
3220 Clouds 20 1018 61 9000 7.2 80 16:32 15.03.2022
3221 Clouds 21 1015 52 9000 7.2 70 15:21 15.03.2022
3222 Clouds 21 1016 52 9000 7.2 70 14:45 15.03.2022
3223 Clouds 20 1016 54 8000 6.17 80 13:46 15.03.2022
3224 Clouds 20 1019 63 8000 7.2 60 12:24 15.03.2022
3225 Clouds 19 1018 62 8000 6.69 70 11:31 15.03.2022
3226 Clouds 19 1018 62 8000 6.69 70 11:31 15.03.2022
3227 Clouds 17 1019 73 8000 7.2 60 09:46 15.03.2022
3228 Clouds 16 1018 80 8000 6.17 60 08:42 15.03.2022
3229 Clouds 15 1017 78 8000 6.69 70 07:52 15.03.2022
3230 Clouds 15 1017 77 8000 7.2 60 07:32 15.03.2022
3231 Clouds 15 1017 82 10000 5.14 60 03:41 15.03.2022
3232 Clouds 16 1017 79 10000 6.69 30 23:57 14.03.2022
3233 Clouds 16 1017 79 10000 5.14 40 23:24 14.03.2022
3234 Clouds 16 1017 79 10000 7.2 50 22:30 14.03.2022
3235 Clouds 16 1016 75 10000 6.69 60 21:30 14.03.2022
3236 Clouds 16 1016 74 10000 6.69 70 20:48 14.03.2022
3237 Clouds 16 1016 74 10000 7.2 70 20:20 14.03.2022
3238 Clouds 17 1015 70 10000 7.2 70 18:55 14.03.2022
3239 Clouds 18 1015 67 10000 7.2 80 17:54 14.03.2022
3240 Clouds 18 1015 64 10000 7.2 80 17:23 14.03.2022
3241 Clouds 20 1015 60 10000 6.69 80 15:56 14.03.2022
3242 Clouds 20 1015 57 10000 7.72 90 14:41 14.03.2022
3243 Clouds 19 1016 61 10000 8.75 80 12:29 14.03.2022
3244 Clouds 17 1017 68 10000 8.23 80 10:54 14.03.2022
3245 Clouds 15 1017 78 10000 6.69 90 09:52 14.03.2022
3246 Clouds 15 1016 78 10000 6.69 80 09:22 14.03.2022
3247 Clouds 14 1016 80 10000 5.14 60 08:56 14.03.2022
3248 Clouds 13 1015 82 10000 5.66 60 07:34 14.03.2022
3249 Clouds 13 1017 87 9000 4.12 60 05:46 14.03.2022
3250 Clouds 13 1017 88 10000 2.68 45 01:55 14.03.2022
3251 Clouds 13 1017 89 9000 3.6 70 01:28 14.03.2022
3252 Clouds 13 1017 89 9000 2.57 70 22:52 13.03.2022
3253 Clouds 14 1017 87 9000 1.54 90 21:31 13.03.2022
3254 Clouds 15 1016 87 9000 1.03 0 20:56 13.03.2022
3255 Clouds 15 1016 87 9000 1.34 100 20:31 13.03.2022
3256 Clouds 15 1016 86 9000 1.54 150 19:59 13.03.2022
3257 Clouds 15 1016 84 9000 2.06 200 19:37 13.03.2022
3258 Clouds 15 1015 83 9000 2.06 200 19:18 13.03.2022
3259 Clouds 15 1015 83 9000 3.09 210 19:18 13.03.2022
3260 Clouds 16 1015 82 9000 3.6 220 18:38 13.03.2022
3261 Clouds 16 1015 80 10000 4.63 220 17:47 13.03.2022
3262 Clouds 16 1015 80 10000 4.63 220 17:21 13.03.2022
3263 Clouds 17 1015 76 10000 5.14 210 16:33 13.03.2022
3264 Clouds 17 1014 75 10000 4.12 210 15:49 13.03.2022
3265 Clouds 17 1014 77 10000 5.14 220 14:58 13.03.2022
3266 Clouds 17 1015 77 10000 4.12 210 13:49 13.03.2022
3267 Clouds 17 1014 74 10000 4.12 220 12:57 13.03.2022
3268 Clouds 17 1014 74 9000 3.09 210 12:19 13.03.2022
3269 Clouds 17 1015 76 9000 3.6 220 11:36 13.03.2022
3270 Clouds 17 1015 78 8000 2.06 220 10:48 13.03.2022
3271 Clouds 16 1015 79 8000 0.89 200 10:48 13.03.2022
3272 Clouds 16 1015 81 8000 0.45 97 10:24 13.03.2022
3273 Clouds 13 1013 87 8000 1.54 0 09:41 13.03.2022
3274 Clouds 11 1012 88 8000 0.45 68 08:47 13.03.2022
3275 Clouds 10 1012 88 8000 1.03 0 07:47 13.03.2022
3276 Clouds 7 1013 93 10000 0.51 0 05:42 13.03.2022
3277 Clouds 9 1013 81 10000 0.45 70 02:43 13.03.2022
3278 Clouds 12 1013 75 10000 4.02 210 23:59 12.03.2022
3279 Clouds 12 1013 74 10000 2.57 230 22:37 12.03.2022
3280 Clouds 13 1013 74 10000 3.13 283 20:54 12.03.2022
3281 Clouds 13 1012 73 10000 2.57 300 19:50 12.03.2022
3282 Clouds 13 1012 71 10000 4.12 310 19:32 12.03.2022
3283 Clouds 14 1011 70 10000 5.14 310 18:27 12.03.2022
3284 Clouds 14 1011 74 9000 4.63 290 17:34 12.03.2022
3285 Clouds 13 1010 78 10000 6.26 292 16:24 12.03.2022
3286 Clouds 13 1010 76 10000 7.2 280 15:24 12.03.2022
3287 Clouds 14 1012 81 10000 5.66 300 14:50 12.03.2022
3288 Clouds 15 1010 75 10000 7.72 270 13:47 12.03.2022
3289 Clouds 14 1013 90 9000 3.6 240 11:57 12.03.2022
3290 Clouds 13 1013 89 9000 4.63 250 11:38 12.03.2022
3291 Clouds 12 1010 88 5000 7.2 260 10:58 12.03.2022
3292 Rain 13 1009 91 5000 5.66 180 09:46 12.03.2022
3293 Rain 13 1009 91 5000 5.66 180 09:46 12.03.2022
3294 Rain 13 1009 92 5000 3.6 140 09:20 12.03.2022
3295 Rain 13 1009 90 10000 2.57 140 07:29 12.03.2022
3296 Clouds 13 1012 90 10000 0.51 0 03:54 12.03.2022
3297 Clouds 13 1015 84 10000 0.51 0 23:56 11.03.2022
3298 Clouds 13 1015 84 10000 0.51 0 23:56 11.03.2022
3299 Clouds 13 1015 83 10000 1.03 90 23:19 11.03.2022
3300 Clouds 13 1015 83 10000 1.03 90 23:19 11.03.2022
3301 Clouds 14 1015 81 10000 0.89 200 21:43 11.03.2022
3302 Clouds 14 1015 80 10000 1.03 150 20:57 11.03.2022
3303 Clouds 14 1015 79 10000 1.34 220 20:35 11.03.2022
3304 Clouds 14 1015 78 10000 0.89 206 19:52 11.03.2022
3305 Clouds 15 1015 77 10000 1.34 191 19:22 11.03.2022
3306 Clouds 15 1015 71 10000 5.66 230 17:34 11.03.2022
3307 Clouds 16 1015 67 10000 6.69 230 16:38 11.03.2022
3308 Clouds 16 1017 72 10000 5.66 230 15:55 11.03.2022
3309 Clouds 16 1018 72 10000 3.6 260 14:21 11.03.2022
3310 Clouds 17 1017 67 10000 3.6 240 12:52 11.03.2022
3311 Clouds 15 1019 74 10000 3.13 229 12:21 11.03.2022
3312 Clouds 16 1019 71 10000 3.13 186 11:53 11.03.2022
3313 Clouds 14 1017 75 10000 1.54 30 10:18 11.03.2022
3314 Clouds 10 1017 84 10000 1.54 50 08:57 11.03.2022
3315 Clouds 10 1017 85 10000 1.79 355 08:24 11.03.2022
3316 Clouds 9 1016 84 10000 1.03 50 07:45 11.03.2022
3317 Clouds 8 1017 84 10000 1.54 30 05:44 11.03.2022
3318 Clouds 9 1018 83 10000 1.79 342 03:49 11.03.2022
3319 Clouds 11 1019 75 10000 1.54 90 23:46 10.03.2022
3320 Clouds 12 1020 72 10000 1.54 70 22:31 10.03.2022
3321 Clouds 12 1020 72 10000 2.57 80 21:47 10.03.2022
3322 Clouds 12 1020 71 10000 2.57 50 21:19 10.03.2022
3323 Clouds 13 1016 43 10000 2.06 100 19:45 10.03.2022
3324 Clouds 15 1020 58 10000 2.57 130 18:53 10.03.2022
3325 Clouds 16 1021 53 10000 3.6 120 17:36 10.03.2022
3326 Clouds 16 1022 47 10000 3.6 130 15:55 10.03.2022
3327 Clouds 17 1022 55 10000 4.12 130 14:48 10.03.2022
3328 Clouds 16 1023 60 10000 2.57 140 13:24 10.03.2022
3329 Clouds 15 1025 66 10000 3.09 130 11:58 10.03.2022
3330 Clouds 15 1025 69 10000 2.57 120 10:54 10.03.2022
3331 Clouds 12 1025 83 10000 3.09 80 09:21 10.03.2022
3332 Clouds 9 1021 85 10000 2.57 70 07:38 10.03.2022
3333 Clouds 8 1024 93 10000 1.03 50 04:44 10.03.2022
3334 Clouds 10 1023 82 10000 2.06 50 01:49 10.03.2022
3335 Clouds 11 1023 79 10000 1.54 60 23:26 09.03.2022
3336 Clouds 11 1023 77 10000 1.03 60 21:51 09.03.2022
3337 Clouds 12 1023 76 10000 1.54 70 21:32 09.03.2022
3338 Clouds 13 1022 70 10000 1.54 210 19:50 09.03.2022
3339 Clouds 14 1022 68 10000 4.63 210 18:34 09.03.2022
3340 Clouds 15 1023 75 10000 4.12 220 17:27 09.03.2022
3341 Clouds 15 1023 65 10000 4.12 220 16:31 09.03.2022
3342 Clouds 15 1024 73 10000 5.66 230 15:28 09.03.2022
3343 Clouds 15 1024 69 10000 4.63 230 13:54 09.03.2022
3344 Clouds 15 1024 67 10000 5.14 240 12:47 09.03.2022
3345 Clouds 15 1024 66 10000 1.79 223 11:54 09.03.2022
3346 Clouds 15 1024 66 10000 1.34 68 11:35 09.03.2022
3347 Clouds 14 1024 71 10000 1.54 70 10:34 09.03.2022
3348 Clouds 10 1022 88 10000 1.54 50 08:57 09.03.2022
3349 Clouds 7 1020 90 10000 1.54 70 07:54 09.03.2022
3350 Clouds 9 1020 79 10000 0.51 40 02:57 09.03.2022
3351 Clouds 9 1020 77 10000 1.03 50 00:46 09.03.2022
3352 Clouds 10 1019 72 10000 0.89 62 22:48 08.03.2022
3353 Clouds 11 1019 70 10000 0.51 0 22:27 08.03.2022
3354 Clouds 11 1019 67 10000 1.54 130 21:23 08.03.2022
3355 Clouds 12 1019 66 10000 1.03 170 20:42 08.03.2022
3356 Clouds 13 1018 57 10000 2.06 230 19:42 08.03.2022
3357 Clouds 13 1018 61 10000 3.6 240 18:44 08.03.2022
3358 Clouds 14 1019 64 10000 4.12 230 17:32 08.03.2022
3359 Clouds 15 1018 56 10000 5.14 230 16:26 08.03.2022
3360 Clouds 15 1019 60 10000 6.17 240 14:19 08.03.2022
3361 Clouds 15 1019 56 10000 3.09 230 12:43 08.03.2022
3362 Clouds 15 1020 55 10000 2.57 50 11:45 08.03.2022
3363 Clear 13 1020 59 10000 2.06 40 10:50 08.03.2022
3364 Clear 12 1019 67 10000 1.03 0 09:57 08.03.2022
3365 Clear 5 1016 78 10000 1.54 40 07:32 08.03.2022
3366 Clouds 5 1017 78 10000 1.79 5 05:43 08.03.2022
3367 Clouds 8 1017 69 10000 1.54 50 23:52 07.03.2022
3368 Clouds 9 1017 63 10000 3.09 60 21:59 07.03.2022
3369 Clouds 10 1016 61 10000 2.06 50 21:32 07.03.2022
3370 Clouds 11 1016 59 10000 1.54 90 20:48 07.03.2022
3371 Clouds 11 1016 57 10000 2.06 100 20:20 07.03.2022
3372 Clouds 12 1015 53 10000 2.57 100 19:33 07.03.2022
3373 Clouds 13 1014 42 10000 1.79 140 18:44 07.03.2022
3374 Clouds 15 1014 44 10000 4.12 110 17:50 07.03.2022
3375 Clouds 15 1014 46 10000 4.12 100 16:56 07.03.2022
3376 Clouds 16 1014 44 10000 4.63 90 15:59 07.03.2022
3377 Clouds 16 1015 48 10000 5.14 110 13:52 07.03.2022
3378 Clouds 16 1015 48 10000 5.14 110 13:52 07.03.2022
3379 Clouds 15 1017 57 10000 4.12 80 12:28 07.03.2022
3380 Clouds 13 1016 60 10000 3.6 70 10:39 07.03.2022
3381 Clouds 12 1014 63 10000 1.79 41 09:24 07.03.2022
3382 Clouds 9 1015 73 10000 1.03 70 04:51 07.03.2022
3383 Clouds 11 1015 68 10000 3.09 70 00:23 07.03.2022
3384 Clouds 11 1015 69 10000 2.06 80 23:35 06.03.2022
3385 Clouds 11 1015 69 10000 2.06 80 23:35 06.03.2022
3386 Clouds 11 1015 68 10000 1.54 90 22:52 06.03.2022
3387 Clouds 11 1015 68 10000 2.57 70 22:19 06.03.2022
3388 Clouds 12 1014 66 10000 3.09 60 20:50 06.03.2022
3389 Clouds 12 1014 64 10000 3.6 60 20:23 06.03.2022
3390 Clouds 12 1013 63 10000 4.63 60 19:21 06.03.2022
3391 Clouds 13 1013 64 10000 5.14 70 18:25 06.03.2022
3392 Clouds 13 1013 65 10000 5.14 70 18:25 06.03.2022
3393 Clouds 13 1013 65 10000 4.63 60 17:21 06.03.2022
3394 Clouds 13 1012 65 10000 5.66 50 16:43 06.03.2022
3395 Clouds 13 1012 67 10000 5.14 60 15:54 06.03.2022
3396 Clouds 13 1013 70 10000 3.09 40 14:57 06.03.2022
3397 Clouds 13 1013 70 10000 3.6 50 14:33 06.03.2022
3398 Clouds 13 1014 73 10000 3.6 60 13:30 06.03.2022
3399 Drizzle 13 1014 74 10000 3.6 60 12:35 06.03.2022
3400 Clouds 13 1014 72 10000 4.12 70 11:18 06.03.2022
3401 Clouds 12 1014 78 10000 2.57 70 10:28 06.03.2022
3402 Clouds 11 1012 80 10000 3.09 60 08:30 06.03.2022
3403 Rain 11 1012 79 10000 2.57 70 07:45 06.03.2022
3404 Clouds 11 1012 74 10000 1.54 110 06:19 06.03.2022
3405 Clouds 12 1015 71 10000 2.57 60 00:53 06.03.2022
3406 Clouds 12 1015 70 10000 1.03 40 00:31 06.03.2022
3407 Clouds 12 1015 70 10000 2.06 70 23:23 05.03.2022
3408 Clouds 12 1015 69 10000 2.57 70 22:57 05.03.2022
3409 Clouds 12 1015 69 10000 2.57 60 22:23 05.03.2022
3410 Clouds 12 1015 65 10000 1.03 0 21:23 05.03.2022
3411 Clouds 13 1014 63 10000 2.06 70 19:49 05.03.2022
3412 Clouds 13 1014 59 10000 2.24 54 18:56 05.03.2022
3413 Clouds 14 1014 57 10000 1.34 123 18:27 05.03.2022
3414 Clouds 14 1016 59 10000 2.06 80 16:52 05.03.2022
3415 Clouds 15 1014 60 10000 2.57 70 15:40 05.03.2022
3416 Clouds 14 1014 60 10000 2.57 70 14:52 05.03.2022
3417 Clouds 14 1015 59 10000 2.57 70 14:33 05.03.2022
3418 Clouds 15 1015 56 10000 3.13 107 13:34 05.03.2022
3419 Clouds 15 1016 59 10000 3.09 80 11:49 05.03.2022
3420 Clouds 14 1018 71 10000 2.68 65 11:20 05.03.2022
3421 Clouds 13 1018 75 10000 2.06 150 10:20 05.03.2022
3422 Clouds 13 1015 71 10000 1.03 150 09:26 05.03.2022
3423 Clouds 12 1013 69 10000 1.54 360 07:58 05.03.2022
3424 Clouds 12 1014 71 10000 3.6 320 05:43 05.03.2022
3425 Clouds 13 1014 67 10000 2.68 322 04:33 05.03.2022
3426 Clouds 13 1015 68 10000 1.79 306 23:38 04.03.2022
3427 Clouds 13 1015 69 10000 0.89 358 22:44 04.03.2022
3428 Clouds 13 1015 69 10000 1.79 261 22:23 04.03.2022
3429 Clouds 13 1014 67 10000 2.06 310 21:24 04.03.2022
3430 Clouds 13 1013 60 10000 2.06 100 20:28 04.03.2022
3431 Clouds 14 1013 59 10000 2.24 97 19:36 04.03.2022
3432 Clouds 14 1016 69 10000 1.79 87 18:46 04.03.2022
3433 Clouds 15 1013 54 10000 3.13 60 18:22 04.03.2022
3434 Clouds 16 1013 49 10000 6.17 50 17:28 04.03.2022
3435 Clouds 17 1014 52 10000 6.71 19 15:31 04.03.2022
3436 Clouds 17 1015 51 10000 4.47 59 14:36 04.03.2022
3437 Clouds 17 1015 56 10000 6.17 70 13:27 04.03.2022
3438 Clouds 17 1014 57 10000 4.02 45 11:57 04.03.2022
3439 Clouds 15 1014 65 10000 4.63 80 10:58 04.03.2022
3440 Clouds 15 1014 70 10000 4.12 60 10:21 04.03.2022
3441 Clouds 11 1012 86 10000 0.51 0 08:48 04.03.2022
3442 Clouds 9 1010 88 10000 1.54 80 07:47 04.03.2022
3443 Clouds 9 1011 84 10000 0.89 355 05:26 04.03.2022
3444 Clouds 11 1012 82 10000 0.89 68 00:41 04.03.2022
3445 Clouds 12 1012 78 10000 2.06 80 23:28 03.03.2022
3446 Clouds 12 1012 77 10000 2.57 60 21:58 03.03.2022
3447 Clouds 12 1012 75 10000 2.06 70 21:35 03.03.2022
3448 Clouds 13 1012 72 10000 3.09 80 20:27 03.03.2022
3449 Clouds 14 1012 69 10000 4.12 70 19:22 03.03.2022
3450 Clouds 16 1012 60 10000 4.02 53 18:25 03.03.2022
3451 Clouds 16 1014 66 10000 4.47 61 17:31 03.03.2022
3452 Clouds 17 1014 56 10000 4.12 240 16:38 03.03.2022
3453 Clouds 17 1015 59 10000 5.14 240 15:43 03.03.2022
3454 Clouds 17 1015 61 10000 5.66 250 14:44 03.03.2022
3455 Clouds 17 1016 65 10000 5.14 230 14:25 03.03.2022
3456 Clouds 17 1017 62 10000 1.03 0 12:32 03.03.2022
3457 Clouds 16 1018 66 10000 2.06 70 10:58 03.03.2022
3458 Clouds 15 1018 71 10000 2.24 338 10:20 03.03.2022
3459 Clouds 12 1016 85 10000 1.03 0 08:42 03.03.2022
3460 Clouds 10 1015 89 10000 1.54 190 06:55 03.03.2022
3461 Fog 10 1016 88 9000 0.51 200 05:22 03.03.2022
3462 Rain 12 1019 87 10000 2.06 10 23:48 02.03.2022
3463 Rain 12 1019 85 6000 1.03 200 22:59 02.03.2022
3464 Rain 12 1019 83 6000 1.34 220 22:40 02.03.2022
3465 Rain 12 1019 71 10000 0.89 298 21:22 02.03.2022
3466 Clouds 13 1019 65 10000 1.03 0 20:26 02.03.2022
3467 Clouds 14 1019 66 10000 3.09 200 19:41 02.03.2022
3468 Clouds 14 1019 65 10000 0.45 292 19:23 02.03.2022
3469 Clouds 14 1021 71 10000 4.12 220 18:37 02.03.2022
3470 Clouds 15 1019 58 10000 4.12 230 17:45 02.03.2022
3471 Clouds 15 1022 65 10000 4.63 210 16:54 02.03.2022
3472 Clouds 16 1022 63 10000 5.14 230 16:18 02.03.2022
3473 Clouds 16 1023 61 10000 5.66 220 14:39 02.03.2022
3474 Clouds 16 1024 65 10000 5.66 220 13:18 02.03.2022
3475 Clouds 16 1023 59 10000 5.36 215 12:39 02.03.2022
3476 Clouds 15 1025 67 10000 3.58 176 11:28 02.03.2022
3477 Clouds 14 1025 71 10000 2.68 192 10:58 02.03.2022
3478 Clouds 12 1024 82 10000 0.89 45 09:40 02.03.2022
3479 Clouds 8 1024 93 10000 1.03 30 08:50 02.03.2022
3480 Fog 5 1024 93 10000 1.03 40 07:25 02.03.2022
3481 Fog 6 1024 88 7000 1.03 40 05:43 02.03.2022
3482 Clouds 8 1024 77 10000 0.89 346 00:57 02.03.2022
3483 Clouds 9 1024 76 10000 1.34 344 23:45 01.03.2022
3484 Clouds 10 1025 77 10000 1.54 60 22:42 01.03.2022
3485 Clouds 11 1025 74 10000 0.89 266 21:56 01.03.2022
3486 Clouds 12 1025 73 10000 3.09 230 21:21 01.03.2022
3487 Clouds 13 1025 72 10000 3.09 230 20:24 01.03.2022
3488 Clouds 13 1024 66 10000 3.09 240 19:23 01.03.2022
3489 Clouds 15 1024 63 10000 4.63 230 18:35 01.03.2022
3490 Clouds 15 1026 73 10000 5.14 230 17:55 01.03.2022
3491 Clouds 16 1026 60 10000 5.66 230 16:54 01.03.2022
3492 Clouds 16 1026 60 10000 5.66 230 16:30 01.03.2022
3493 Clouds 16 1027 57 10000 6.17 230 15:32 01.03.2022
3494 Clouds 17 1027 59 10000 6.69 240 14:34 01.03.2022
3495 Clouds 17 1028 56 10000 6.69 230 13:45 01.03.2022
3496 Clouds 17 1028 58 10000 6.69 230 13:22 01.03.2022
3497 Clouds 17 1028 57 10000 5.14 230 12:27 01.03.2022
3498 Clouds 15 1026 63 10000 0.89 165 10:33 01.03.2022
3499 Clear 5 1026 87 10000 1.03 50 08:41 01.03.2022
3500 Clear 4 1026 86 10000 1.54 40 07:40 01.03.2022
3501 Clear 8 1025 77 10000 0.45 301 05:49 01.03.2022
3502 Clear 9 1025 73 10000 0.89 296 01:48 01.03.2022
3503 Clear 8 1025 73 10000 0.45 88 00:25 01.03.2022
3504 Clear 8 1025 69 10000 0.45 309 23:29 28.02.2022
3505 Clouds 9 1026 70 10000 1.79 15 21:59 28.02.2022
3506 Clouds 10 1026 66 10000 1.54 80 21:24 28.02.2022
3507 Clouds 11 1027 59 10000 2.06 170 19:53 28.02.2022
3508 Clouds 12 1026 59 10000 2.57 200 19:33 28.02.2022
3509 Clouds 14 1024 48 10000 3.6 210 18:40 28.02.2022
3510 Clouds 15 1026 50 10000 4.63 220 17:24 28.02.2022
3511 Clouds 15 1027 55 10000 4.12 210 16:33 28.02.2022
3512 Clouds 15 1026 46 10000 5.66 240 15:23 28.02.2022
3513 Clouds 15 1028 53 10000 4.12 230 14:31 28.02.2022
3514 Clouds 15 1028 49 10000 1.34 151 13:47 28.02.2022
3515 Clouds 15 1029 51 10000 2.06 0 12:47 28.02.2022
3516 Clouds 14 1029 54 10000 1.54 70 11:57 28.02.2022
3517 Clouds 14 1028 54 10000 2.24 119 10:48 28.02.2022
3518 Clouds 14 1028 59 10000 1.54 50 10:20 28.02.2022
3519 Clouds 11 1028 73 10000 2.06 30 09:33 28.02.2022
3520 Clouds 9 1026 74 10000 2.06 10 08:32 28.02.2022
3521 Clouds 6 1024 75 10000 1.54 40 07:35 28.02.2022
3522 Clouds 7 1025 70 10000 1.54 60 05:21 28.02.2022
3523 Clouds 8 1025 67 10000 2.57 20 04:27 28.02.2022
3524 Clouds 11 1025 61 10000 2.06 50 23:44 27.02.2022
3525 Clouds 11 1025 54 10000 2.06 60 22:35 27.02.2022
3526 Clouds 11 1024 53 10000 1.54 30 21:52 27.02.2022
3527 Clouds 12 1024 54 10000 1.54 40 21:27 27.02.2022
3528 Clouds 12 1024 52 10000 1.34 88 20:37 27.02.2022
3529 Clouds 13 1022 41 10000 2.57 130 19:58 27.02.2022
3530 Clouds 13 1023 52 10000 2.24 273 19:27 27.02.2022
3531 Clouds 14 1021 48 10000 2.06 310 18:48 27.02.2022
3532 Clouds 14 1023 47 10000 3.09 290 17:57 27.02.2022
3533 Clouds 14 1022 46 10000 2.06 310 17:20 27.02.2022
3534 Clouds 15 1022 46 10000 3.6 250 16:22 27.02.2022
3535 Clear 15 1025 43 10000 2.57 110 13:40 27.02.2022
3536 Clear 15 1025 46 10000 1.54 60 12:33 27.02.2022
3537 Clear 13 1025 53 10000 1.79 15 11:27 27.02.2022
3538 Clear 13 1024 53 10000 1.79 34 10:24 27.02.2022
3539 Clear 11 1024 58 10000 1.34 45 09:51 27.02.2022
3540 Clear 9 1024 60 10000 1.54 40 09:21 27.02.2022
3541 Clear 7 1022 60 10000 1.54 20 08:31 27.02.2022
3542 Clear 7 1023 61 10000 2.57 60 05:41 27.02.2022
3543 Clear 8 1023 55 10000 2.06 140 02:57 27.02.2022
3544 Clear 9 1023 54 10000 1.03 0 23:36 26.02.2022
3545 Clear 10 1023 53 10000 3.6 60 22:34 26.02.2022
3546 Clear 10 1022 50 10000 3.6 60 21:26 26.02.2022
3547 Clear 11 1023 52 10000 3.09 50 20:37 26.02.2022
3548 Clear 11 1023 53 10000 3.13 22 20:37 26.02.2022
3549 Clear 12 1022 46 10000 3.09 60 19:54 26.02.2022
3550 Clear 12 1023 48 10000 3.6 60 19:33 26.02.2022
3551 Clouds 13 1022 44 10000 7.2 50 18:31 26.02.2022
3552 Clouds 15 1022 41 10000 5.66 50 17:31 26.02.2022
3553 Clouds 15 1024 53 10000 5.66 50 16:38 26.02.2022
3554 Clouds 15 1024 55 10000 6.69 60 15:28 26.02.2022
3555 Clouds 14 1025 54 10000 6.69 60 14:59 26.02.2022
3556 Clouds 15 1025 55 10000 6.69 70 14:41 26.02.2022
3557 Clouds 15 1023 48 10000 7.2 50 13:51 26.02.2022
3558 Clouds 15 1024 41 10000 8.75 70 12:53 26.02.2022
3559 Clouds 15 1024 44 10000 7.2 60 11:50 26.02.2022
3560 Clear 14 1026 54 10000 8.23 50 11:25 26.02.2022
3561 Clouds 12 1025 57 10000 6.69 50 09:31 26.02.2022
3562 Clouds 9 1025 67 10000 4.63 60 08:28 26.02.2022
3563 Clouds 7 1025 84 10000 0.89 319 04:23 26.02.2022
3564 Clouds 11 1026 78 10000 2.57 90 23:50 25.02.2022
3565 Clouds 11 1026 75 10000 2.57 60 22:34 25.02.2022
3566 Clouds 12 1026 73 10000 2.06 70 21:32 25.02.2022
3567 Clouds 12 1026 72 10000 2.57 60 20:51 25.02.2022
3568 Clouds 12 1026 72 10000 2.57 60 20:25 25.02.2022
3569 Clouds 14 1025 65 10000 5.66 70 17:57 25.02.2022
3570 Clouds 14 1025 65 10000 6.17 60 16:59 25.02.2022
3571 Clouds 14 1025 66 10000 7.72 70 15:56 25.02.2022
3572 Clouds 14 1024 66 10000 6.69 60 15:23 25.02.2022
3573 Clouds 14 1025 67 10000 8.75 60 14:56 25.02.2022
3574 Clouds 14 1025 66 10000 8.75 60 14:37 25.02.2022
3575 Clouds 15 1026 64 10000 8.23 60 13:30 25.02.2022
3576 Clouds 14 1027 66 10000 8.23 50 12:33 25.02.2022
3577 Clouds 14 1027 68 10000 8.23 60 11:22 25.02.2022
3578 Clouds 14 1026 71 10000 8.23 70 10:24 25.02.2022
3579 Clouds 13 1026 74 10000 6.69 70 09:52 25.02.2022
3580 Clouds 12 1025 79 10000 4.12 60 08:44 25.02.2022
3581 Clouds 9 1023 82 10000 2.57 60 07:36 25.02.2022
3582 Clouds 9 1023 80 10000 1.34 348 05:45 25.02.2022
3583 Clouds 8 1024 83 10000 1.54 40 02:49 25.02.2022
3584 Clouds 10 1024 82 10000 1.03 40 22:56 24.02.2022
3585 Clouds 11 1024 80 10000 1.03 0 21:54 24.02.2022
3586 Clouds 12 1023 80 10000 2.06 60 21:31 24.02.2022
3587 Clouds 13 1024 76 10000 0.89 29 20:57 24.02.2022
3588 Clear 14 1022 83 10000 2.57 20 19:38 24.02.2022
3589 Clear 16 1021 71 10000 1.79 219 18:37 24.02.2022
3590 Clear 16 1021 73 10000 1.79 219 18:18 24.02.2022
3591 Clear 16 1021 69 10000 4.02 207 17:33 24.02.2022
3592 Clear 17 1021 65 10000 3.6 250 17:33 24.02.2022
3593 Clear 17 1021 60 10000 4.12 250 16:29 24.02.2022
3594 Clouds 17 1021 58 10000 4.12 260 15:47 24.02.2022
3595 Clear 17 1021 54 10000 3.58 197 14:53 24.02.2022
3596 Clear 18 1022 50 10000 2.24 215 14:26 24.02.2022
3597 Clear 18 1022 47 10000 1.54 70 13:39 24.02.2022
3598 Clear 18 1023 48 10000 1.54 100 12:49 24.02.2022
3599 Clear 15 1024 55 10000 3.09 60 10:40 24.02.2022
3600 Clear 10 1023 71 10000 2.06 50 08:59 24.02.2022
3601 Clear 9 1023 74 10000 2.57 40 08:40 24.02.2022
3602 Clouds 8 1023 74 10000 2.06 40 05:52 24.02.2022
3603 Clouds 9 1024 78 10000 2.06 60 01:56 24.02.2022
3604 Clouds 9 1024 78 10000 2.06 60 01:56 24.02.2022
3605 Clouds 10 1026 80 10000 2.06 50 22:56 23.02.2022
3606 Clouds 10 1026 81 10000 1.54 80 21:43 23.02.2022
3607 Clouds 12 1026 75 10000 0.51 0 20:31 23.02.2022
3608 Clouds 14 1026 72 10000 0.51 0 19:47 23.02.2022
3609 Clouds 15 1025 67 10000 3.09 220 18:32 23.02.2022
3610 Clouds 15 1025 67 10000 3.09 220 18:32 23.02.2022
3611 Clouds 15 1025 70 10000 3.6 230 17:44 23.02.2022
3612 Clouds 16 1027 64 10000 4.63 240 15:19 23.02.2022
3613 Clouds 17 1029 59 10000 5.14 230 12:50 23.02.2022
3614 Clouds 17 1028 56 10000 4.63 230 12:24 23.02.2022
3615 Clear 14 1029 67 10000 1.03 20 10:35 23.02.2022
3616 Clear 8 1029 78 10000 0 0 08:59 23.02.2022
3617 Clear 6 1025 74 10000 0.51 0 08:23 23.02.2022
3618 Clear 6 1024 75 10000 2.06 40 06:53 23.02.2022
3619 Clouds 7 1026 70 10000 1.54 50 01:21 23.02.2022
3620 Clear 8 1026 68 10000 2.57 80 23:39 22.02.2022
3621 Clear 9 1026 67 10000 0.89 5 22:51 22.02.2022
3622 Clouds 10 1026 67 10000 1.79 10 21:55 22.02.2022
3623 Clear 11 1025 58 10000 0.45 68 21:37 22.02.2022
3624 Clear 11 1025 58 10000 0.45 58 21:18 22.02.2022
3625 Clouds 11 1024 60 10000 1.03 0 20:31 22.02.2022
3626 Clouds 12 1024 55 10000 1.54 240 19:51 22.02.2022
3627 Clouds 13 1024 61 10000 3.09 230 19:31 22.02.2022
3628 Clouds 15 1026 77 10000 4.63 240 18:23 22.02.2022
3629 Clouds 16 1027 66 10000 6.17 240 17:26 22.02.2022
3630 Clouds 16 1027 63 10000 7.2 240 16:42 22.02.2022
3631 Clouds 17 1027 68 10000 7.72 240 15:59 22.02.2022
3632 Clouds 16 1027 66 10000 7.2 230 14:52 22.02.2022
3633 Clouds 16 1028 67 10000 6.26 197 12:52 22.02.2022
3634 Clouds 15 1028 70 10000 3.13 190 10:54 22.02.2022
3635 Clouds 9 1025 84 10000 0 0 08:56 22.02.2022
3636 Clouds 7 1024 83 10000 1.03 150 07:28 22.02.2022
3637 Clouds 8 1024 85 10000 1.54 340 06:53 22.02.2022
3638 Clouds 11 1025 81 10000 2.06 70 02:48 22.02.2022
3639 Clear 13 1022 55 10000 2.57 170 23:18 21.02.2022
3640 Clear 13 1019 59 10000 2.06 260 21:56 21.02.2022
3641 Clear 14 1020 61 10000 3.09 180 20:38 21.02.2022
3642 Clouds 16 1020 53 10000 2.57 210 18:47 21.02.2022
3643 Clouds 17 1020 41 10000 4.12 230 18:18 21.02.2022
3644 Clouds 18 1023 51 10000 6.69 320 15:36 21.02.2022
3645 Clouds 17 1024 55 10000 7.72 330 14:22 21.02.2022
3646 Clouds 17 1024 58 10000 6.69 250 13:30 21.02.2022
3647 Clouds 17 1025 56 10000 6.17 240 12:25 21.02.2022
3648 Clouds 17 1025 66 10000 7.2 240 11:31 21.02.2022
3649 Clouds 15 1024 68 10000 6.17 250 10:23 21.02.2022
3650 Clouds 5 1025 87 10000 1.54 60 05:40 21.02.2022
3651 Clear 9 1026 72 10000 0.89 314 00:30 21.02.2022
3652 Clear 11 1026 61 10000 2.57 260 22:30 20.02.2022
3653 Clear 11 1026 60 10000 4.12 250 21:43 20.02.2022
3654 Clear 11 1026 56 10000 5.66 250 21:19 20.02.2022
3655 Clear 11 1024 49 10000 6.17 260 20:42 20.02.2022
3656 Clear 12 1024 43 10000 5.66 250 19:42 20.02.2022
3657 Clear 13 1025 47 10000 5.66 250 18:54 20.02.2022
3658 Clear 14 1026 50 10000 5.14 250 18:34 20.02.2022
3659 Clouds 16 1026 39 10000 3.09 250 17:55 20.02.2022
3660 Clouds 16 1027 45 10000 4.12 310 16:18 20.02.2022
3661 Clouds 16 1028 58 10000 5.66 230 14:53 20.02.2022
3662 Clouds 16 1028 58 10000 5.66 230 14:53 20.02.2022
3663 Clouds 16 1029 57 10000 6.17 220 13:58 20.02.2022
3664 Clouds 15 1030 64 10000 4.47 190 12:35 20.02.2022
3665 Clouds 14 1030 71 10000 3.13 186 10:52 20.02.2022
3666 Clouds 13 1029 72 10000 1.34 219 10:20 20.02.2022
3667 Clouds 11 1026 78 10000 0.51 50 08:58 20.02.2022
3668 Clouds 11 1024 69 10000 1.03 0 01:19 20.02.2022
3669 Clouds 12 1024 68 10000 2.57 50 00:31 20.02.2022
3670 Clouds 12 1023 65 10000 3.09 40 23:30 19.02.2022
3671 Clouds 11 1022 62 10000 4.12 60 22:23 19.02.2022
3672 Clouds 12 1022 61 10000 5.14 60 21:45 19.02.2022
3673 Clouds 12 1021 51 10000 6.17 50 20:25 19.02.2022
3674 Clouds 12 1021 50 10000 6.17 50 20:24 19.02.2022
3675 Clouds 13 1021 47 10000 6.69 50 19:34 19.02.2022
3676 Clouds 14 1020 47 10000 0.89 47 18:39 19.02.2022
3677 Clouds 14 1019 44 10000 9.77 60 17:54 19.02.2022
3678 Clouds 15 1018 47 10000 11.83 60 16:47 19.02.2022
3679 Clouds 15 1018 43 10000 12.35 60 15:58 19.02.2022
3680 Clouds 15 1019 53 10000 10.8 60 14:53 19.02.2022
3681 Clouds 15 1017 53 10000 12.35 60 13:55 19.02.2022
3682 Clouds 15 1017 59 10000 9.77 60 11:42 19.02.2022
3683 Clouds 14 1017 61 10000 10.29 60 10:45 19.02.2022
3684 Clouds 13 1016 74 10000 9.26 60 08:56 19.02.2022
3685 Clouds 11 1014 75 10000 7.2 60 06:45 19.02.2022
3686 Clear 9 1014 81 10000 2.06 340 00:23 19.02.2022
3687 Clear 10 1015 80 10000 1.34 355 22:24 18.02.2022
3688 Clear 11 1015 81 10000 1.03 0 21:21 18.02.2022
3689 Clear 13 1015 83 10000 2.06 260 19:56 18.02.2022
3690 Clear 15 1015 81 10000 2.06 230 18:51 18.02.2022
3691 Clear 15 1015 78 10000 2.06 230 18:28 18.02.2022
3692 Clear 16 1017 83 10000 3.09 230 17:56 18.02.2022
3693 Clouds 18 1015 66 10000 3.09 250 16:19 18.02.2022
3694 Clear 18 1017 64 10000 3.6 230 13:56 18.02.2022
3695 Clear 18 1018 65 10000 3.6 230 13:32 18.02.2022
3696 Clear 17 1019 67 10000 1.34 194 12:48 18.02.2022
3697 Clouds 18 1019 66 10000 3.09 230 11:56 18.02.2022
3698 Clouds 16 1019 69 10000 1.34 178 10:42 18.02.2022
3699 Fog 5 1020 100 2000 0.51 0 07:20 18.02.2022
3700 Fog 5 1021 100 6000 1.03 0 05:52 18.02.2022
3701 Fog 5 1021 93 6000 1.03 50 05:34 18.02.2022
3702 Clear 12 1022 72 10000 0.51 0 21:59 17.02.2022
3703 Clear 13 1022 70 10000 1.03 30 21:33 17.02.2022
3704 Clear 14 1022 69 10000 1.03 0 20:42 17.02.2022
3705 Clear 15 1020 61 10000 1.03 0 19:55 17.02.2022
3706 Clear 16 1023 69 10000 2.06 180 18:57 17.02.2022
3707 Clear 16 1023 76 10000 2.57 190 18:18 17.02.2022
3708 Clear 17 1023 73 10000 4.12 200 17:30 17.02.2022
3709 Clear 19 1023 57 10000 5.66 230 15:50 17.02.2022
3710 Clear 19 1024 57 10000 4.12 220 14:29 17.02.2022
3711 Clear 20 1025 53 10000 2.68 180 13:30 17.02.2022
3712 Clear 18 1025 52 10000 1.54 30 11:36 17.02.2022
3713 Clear 16 1024 65 10000 3.58 277 09:58 17.02.2022
3714 Clear 14 1018 52 10000 1.79 61 06:44 17.02.2022
3715 Clear 11 1022 64 10000 3.09 180 23:23 16.02.2022
3716 Clear 12 1022 63 10000 1.79 222 22:28 16.02.2022
3717 Clear 13 1022 50 10000 1.54 140 20:22 16.02.2022
3718 Clear 15 1020 32 10000 4.12 260 18:56 16.02.2022
3719 Clear 16 1022 48 10000 6.69 250 17:56 16.02.2022
3720 Clear 17 1023 52 10000 7.2 250 16:44 16.02.2022
3721 Clouds 17 1023 42 10000 8.23 260 15:22 16.02.2022
3722 Clear 17 1025 37 10000 5.14 280 13:40 16.02.2022
3723 Clear 17 1025 38 10000 6.17 310 12:24 16.02.2022
3724 Clear 17 1025 40 10000 6.17 310 11:46 16.02.2022
3725 Clouds 16 1025 45 10000 5.66 310 10:34 16.02.2022
3726 Clouds 14 1026 55 10000 1.79 234 09:38 16.02.2022
3727 Clouds 7 1021 81 10000 1.03 0 06:43 16.02.2022
3728 Clear 9 1024 73 10000 1.03 0 00:37 16.02.2022
3729 Clouds 10 1024 64 10000 2.06 230 22:34 15.02.2022
3730 Clear 11 1024 60 10000 3.6 240 21:50 15.02.2022
3731 Clear 12 1024 60 10000 3.6 260 21:29 15.02.2022
3732 Clear 11 1024 61 10000 0.89 253 20:58 15.02.2022
3733 Clear 12 1023 56 10000 2.06 340 20:22 15.02.2022
3734 Clear 12 1023 56 10000 2.06 340 19:43 15.02.2022
3735 Clouds 13 1021 51 10000 3.09 300 18:25 15.02.2022
3736 Clouds 14 1024 57 10000 4.63 310 17:53 15.02.2022
3737 Clouds 14 1022 51 10000 4.12 300 17:32 15.02.2022
3738 Clouds 14 1024 59 10000 7.2 320 15:43 15.02.2022
3739 Clouds 14 1024 60 10000 5.66 320 13:57 15.02.2022
3740 Clouds 14 1024 59 10000 5.81 282 13:25 15.02.2022
3741 Clouds 14 1022 56 10000 4.92 291 11:41 15.02.2022
3742 Clouds 12 1022 58 10000 4.02 302 10:27 15.02.2022
3743 Clouds 12 1020 60 10000 4.63 310 08:42 15.02.2022
3744 Clouds 11 1018 55 10000 2.06 300 06:45 15.02.2022
3745 Clear 10 1017 58 10000 0.45 292 23:35 14.02.2022
3746 Clear 11 1017 59 10000 1.34 304 21:57 14.02.2022
3747 Clear 12 1016 57 10000 1.54 270 20:53 14.02.2022
3748 Clouds 12 1016 58 10000 2.57 300 19:49 14.02.2022
3749 Clouds 12 1015 59 10000 2.57 300 19:29 14.02.2022
3750 Clouds 14 1015 54 10000 5.14 330 18:24 14.02.2022
3751 Clouds 15 1014 54 10000 6.17 330 17:30 14.02.2022
3752 Clouds 15 1014 57 10000 4.63 320 16:37 14.02.2022
3753 Clouds 15 1014 71 10000 10.29 260 15:22 14.02.2022
3754 Clouds 16 1015 73 10000 7.2 240 13:35 14.02.2022
3755 Clouds 16 1016 76 10000 6.17 230 12:58 14.02.2022
3756 Clouds 16 1014 72 10000 7.2 240 12:32 14.02.2022
3757 Clouds 15 1015 79 10000 7.2 230 11:39 14.02.2022
3758 Clouds 14 1015 86 10000 6.69 240 10:21 14.02.2022
3759 Rain 13 1013 85 10000 5.66 220 08:18 14.02.2022
3760 Clouds 14 1015 84 10000 5.66 220 07:26 14.02.2022
3761 Clouds 12 1020 83 10000 1.54 150 23:19 13.02.2022
3762 Clouds 11 1021 82 10000 0.89 115 22:41 13.02.2022
3763 Clouds 11 1021 82 10000 0.51 0 22:22 13.02.2022
3764 Clouds 12 1021 77 10000 1.54 150 21:24 13.02.2022
3765 Clouds 13 1021 77 10000 1.79 193 20:28 13.02.2022
3766 Clouds 13 1021 74 10000 1.54 180 19:23 13.02.2022
3767 Clouds 13 1021 73 10000 2.57 210 18:41 13.02.2022
3768 Clouds 14 1022 70 10000 4.63 220 17:41 13.02.2022
3769 Clouds 15 1022 71 10000 6.17 230 15:53 13.02.2022
3770 Clouds 15 1023 68 10000 5.66 220 14:52 13.02.2022
3771 Clouds 15 1024 71 10000 5.14 230 13:42 13.02.2022
3772 Clouds 15 1025 73 10000 4.63 220 12:49 13.02.2022
3773 Clouds 13 1025 83 10000 0.51 330 10:50 13.02.2022
3774 Clouds 12 1025 89 10000 0.51 0 10:27 13.02.2022
3775 Fog 8 1025 94 10000 1.03 0 09:36 13.02.2022
3776 Clouds 6 1024 91 10000 1.03 50 06:21 13.02.2022
3777 Clouds 10 1027 88 10000 1.03 40 00:35 13.02.2022
3778 Clouds 12 1028 84 10000 0.51 150 22:59 12.02.2022
3779 Clouds 12 1027 83 10000 0.45 132 22:33 12.02.2022
3780 Clouds 13 1026 80 10000 1.03 110 21:19 12.02.2022
3781 Clouds 13 1025 78 10000 1.03 150 20:32 12.02.2022
3782 Clouds 13 1026 77 10000 1.79 170 19:21 12.02.2022
3783 Clouds 14 1026 73 10000 2.06 240 18:50 12.02.2022
3784 Clouds 14 1026 73 10000 2.06 240 18:32 12.02.2022
3785 Clouds 15 1026 69 10000 4.12 220 16:55 12.02.2022
3786 Clouds 15 1025 66 10000 3.6 230 16:25 12.02.2022
3787 Clouds 15 1026 67 10000 3.6 230 15:50 12.02.2022
3788 Clouds 15 1026 69 10000 4.12 230 14:31 12.02.2022
3789 Clouds 16 1027 62 10000 1.79 180 12:58 12.02.2022
3790 Clouds 12 1028 82 10000 1.03 20 10:40 12.02.2022
3791 Clouds 8 1026 95 9000 1.54 30 09:39 12.02.2022
3792 Clouds 5 1026 87 9000 1.54 60 08:50 12.02.2022
3793 Clouds 5 1026 93 9000 1.54 40 08:18 12.02.2022
3794 Clouds 6 1026 91 8000 1.34 355 05:33 12.02.2022
3795 Clouds 6 1026 91 10000 1.79 355 04:27 12.02.2022
3796 Clouds 7 1027 88 10000 1.34 340 02:18 12.02.2022
3797 Clouds 9 1027 85 10000 1.79 329 22:29 11.02.2022
3798 Clouds 10 1028 79 10000 0.45 322 21:55 11.02.2022
3799 Clear 11 1027 78 10000 0.51 210 20:41 11.02.2022
3800 Clear 12 1027 73 10000 0.89 110 19:47 11.02.2022
3801 Clear 13 1026 71 10000 2.06 90 19:27 11.02.2022
3802 Clear 15 1025 63 10000 4.12 80 17:59 11.02.2022
3803 Clear 16 1025 58 10000 5.14 80 17:26 11.02.2022
3804 Clear 16 1025 54 10000 4.12 70 16:23 11.02.2022
3805 Clear 17 1024 48 10000 4.02 84 14:43 11.02.2022
3806 Clouds 17 1024 51 10000 3.09 70 14:21 11.02.2022
3807 Clouds 17 1025 51 10000 1.54 60 13:59 11.02.2022
3808 Clouds 17 1025 53 10000 1.54 80 13:39 11.02.2022
3809 Clouds 14 1028 68 10000 1.03 0 11:47 11.02.2022
3810 Clouds 12 1028 77 10000 2.06 20 10:24 11.02.2022
3811 Clouds 6 1027 88 10000 1.34 355 08:49 11.02.2022
3812 Clouds 5 1026 89 10000 1.54 80 08:27 11.02.2022
3813 Clouds 4 1025 92 10000 0 0 07:22 11.02.2022
3814 Clear 6 1027 91 10000 1.34 355 02:40 11.02.2022
3815 Clear 6 1027 91 10000 0.89 350 02:19 11.02.2022
3816 Clouds 8 1027 89 10000 1.03 60 23:20 10.02.2022
3817 Clouds 9 1027 83 10000 2.06 50 21:53 10.02.2022
3818 Clouds 11 1027 78 10000 1.54 70 21:21 10.02.2022
3819 Clouds 11 1027 77 10000 1.54 70 20:48 10.02.2022
3820 Clouds 12 1027 71 10000 1.54 130 19:26 10.02.2022
3821 Clouds 13 1026 67 10000 1.03 200 18:47 10.02.2022
3822 Clouds 15 1026 65 10000 3.09 230 17:27 10.02.2022
3823 Clouds 15 1027 64 10000 3.6 230 16:57 10.02.2022
3824 Clouds 15 1027 61 10000 4.12 240 15:59 10.02.2022
3825 Clouds 16 1027 59 10000 4.63 240 15:33 10.02.2022
3826 Clouds 16 1027 58 10000 5.14 240 14:49 10.02.2022
3827 Clouds 16 1028 56 10000 2.57 260 14:29 10.02.2022
3828 Clouds 16 1029 58 10000 2.24 266 13:33 10.02.2022
3829 Clouds 16 1029 57 10000 1.03 350 12:51 10.02.2022
3830 Clouds 15 1030 61 10000 0.51 40 11:38 10.02.2022
3831 Clouds 14 1030 62 10000 0.51 40 11:20 10.02.2022
3832 Clouds 12 1030 74 10000 1.34 346 10:18 10.02.2022
3833 Clouds 8 1030 86 10000 1.79 336 09:25 10.02.2022
3834 Clouds 4 1028 93 10000 1.03 360 07:37 10.02.2022
3835 Clouds 6 1030 86 10000 2.68 13 05:52 10.02.2022
3836 Clouds 6 1031 84 10000 2.06 40 01:57 10.02.2022
3837 Clear 7 1031 86 10000 2.24 360 00:50 10.02.2022
3838 Clear 7 1031 86 10000 2.24 360 00:50 10.02.2022
3839 Clear 7 1031 85 10000 1.03 0 00:29 10.02.2022
3840 Clear 8 1031 82 10000 1.54 80 23:28 09.02.2022
3841 Clear 9 1031 78 10000 3.09 70 22:38 09.02.2022
3842 Clear 9 1031 76 10000 1.54 40 21:56 09.02.2022
3843 Clear 9 1031 75 10000 1.34 350 21:32 09.02.2022
3844 Clear 10 1032 66 10000 1.54 70 20:53 09.02.2022
3845 Clear 11 1032 64 10000 1.54 70 20:31 09.02.2022
3846 Clear 12 1031 64 10000 1.54 50 19:59 09.02.2022
3847 Clear 12 1030 61 10000 2.06 140 19:38 09.02.2022
3848 Clear 17 1030 42 10000 2.57 150 17:39 09.02.2022
3849 Clouds 16 1031 40 10000 3.09 160 16:53 09.02.2022
3850 Clear 17 1032 39 10000 3.58 232 15:54 09.02.2022
3851 Clouds 17 1031 53 10000 3.6 160 14:43 09.02.2022
3852 Clouds 16 1034 62 10000 2.57 160 12:30 09.02.2022
3853 Clouds 15 1034 69 10000 1.54 90 11:19 09.02.2022
3854 Clouds 13 1034 75 10000 2.06 60 10:31 09.02.2022
3855 Clouds 12 1032 75 10000 1.34 91 09:42 09.02.2022
3856 Clouds 11 1031 75 10000 1.03 0 09:19 09.02.2022
3857 Clouds 9 1031 79 10000 1.54 30 07:56 09.02.2022
3858 Clouds 9 1031 79 10000 2.57 50 05:30 09.02.2022
3859 Clouds 9 1031 77 10000 2.57 60 03:50 09.02.2022
3860 Clouds 9 1031 75 10000 1.54 60 01:28 09.02.2022
3861 Clouds 9 1032 71 10000 1.79 335 23:39 08.02.2022
3862 Clouds 9 1032 70 10000 1.79 336 22:51 08.02.2022
3863 Clouds 9 1031 71 10000 1.79 309 22:22 08.02.2022
3864 Clouds 9 1031 69 10000 1.79 13 21:50 08.02.2022
3865 Clouds 10 1031 66 10000 2.57 60 21:21 08.02.2022
3866 Clouds 10 1032 66 10000 2.57 60 20:45 08.02.2022
3867 Clouds 11 1032 61 10000 3.09 60 19:52 08.02.2022
3868 Clouds 12 1031 50 10000 5.66 80 18:52 08.02.2022
3869 Clouds 14 1031 44 10000 6.17 70 17:50 08.02.2022
3870 Clouds 16 1032 49 10000 6.17 70 16:34 08.02.2022
3871 Clouds 16 1032 48 10000 6.17 60 15:39 08.02.2022
3872 Clouds 17 1032 48 10000 6.17 60 14:44 08.02.2022
3873 Clouds 16 1033 55 10000 6.17 60 13:29 08.02.2022
3874 Clouds 16 1032 53 10000 4.63 70 12:18 08.02.2022
3875 Clouds 14 1032 63 10000 4.63 50 10:39 08.02.2022
3876 Clouds 12 1032 72 10000 4.12 40 09:46 08.02.2022
3877 Clouds 7 1030 82 10000 3.09 70 08:25 08.02.2022
3878 Clouds 6 1031 87 10000 1.54 60 05:45 08.02.2022
3879 Clouds 7 1031 87 10000 1.54 340 04:39 08.02.2022
3880 Clouds 7 1031 86 10000 1.54 340 04:21 08.02.2022
3881 Clouds 7 1030 81 10000 2.57 40 03:36 08.02.2022
3882 Clouds 7 1030 81 10000 2.57 40 03:18 08.02.2022
3883 Clouds 7 1030 81 10000 2.06 20 02:59 08.02.2022
3884 Clouds 7 1030 81 10000 1.03 0 02:36 08.02.2022
3885 Clouds 7 1030 82 10000 3.09 30 02:18 08.02.2022
3886 Clear 8 1029 77 10000 1.79 336 01:44 08.02.2022
3887 Clear 8 1029 78 10000 2.24 338 01:24 08.02.2022
3888 Clouds 8 1030 82 10000 0.89 86 00:55 08.02.2022
3889 Clouds 8 1029 80 10000 2.57 60 23:58 07.02.2022
3890 Clouds 9 1029 79 10000 1.34 5 23:40 07.02.2022
3891 Clouds 9 1029 79 10000 1.34 5 23:40 07.02.2022
3892 Clouds 8 1029 79 10000 1.03 0 23:18 07.02.2022
3893 Clouds 9 1028 77 10000 2.06 10 22:54 07.02.2022
3894 Clouds 10 1028 73 10000 2.06 20 22:18 07.02.2022
3895 Clouds 10 1026 71 10000 2.57 40 21:44 07.02.2022
3896 Clouds 10 1026 71 10000 2.06 40 21:25 07.02.2022
3897 Clouds 11 1027 70 10000 3.6 60 20:41 07.02.2022
3898 Clouds 12 1027 68 10000 3.6 60 20:18 07.02.2022
3899 Clear 13 1026 60 10000 2.24 38 19:45 07.02.2022
3900 Clouds 14 1025 52 10000 2.57 300 18:22 07.02.2022
3901 Clouds 15 1026 60 10000 3.58 288 16:53 07.02.2022
3902 Clouds 16 1024 48 10000 3.6 300 16:20 07.02.2022
3903 Clouds 16 1026 58 10000 4.02 314 15:48 07.02.2022
3904 Clouds 16 1027 60 10000 4.12 230 13:39 07.02.2022
3905 Clouds 16 1027 60 10000 4.12 230 13:21 07.02.2022
3906 Clouds 15 1028 67 10000 1.34 317 11:58 07.02.2022
3907 Clouds 14 1028 69 10000 1.34 277 11:37 07.02.2022
3908 Clouds 14 1027 67 10000 0.45 194 10:53 07.02.2022
3909 Clouds 13 1027 69 10000 0.45 203 10:32 07.02.2022
3910 Fog 12 1027 77 10000 0.45 111 09:53 07.02.2022
3911 Fog 8 1027 80 10000 0.45 262 09:18 07.02.2022
3912 Clouds 6 1028 88 10000 0.89 275 08:44 07.02.2022
3913 Clouds 4 1026 90 10000 1.03 50 07:30 07.02.2022
3914 Clouds 4 1026 88 10000 1.54 60 06:34 07.02.2022
3915 Clouds 5 1028 83 10000 1.03 40 03:49 07.02.2022
3916 Clouds 7 1026 75 10000 1.34 295 00:47 07.02.2022
3917 Clouds 8 1027 78 10000 0.89 252 23:50 06.02.2022
3918 Clouds 8 1027 79 10000 0.45 270 23:19 06.02.2022
3919 Clouds 8 1027 79 10000 0.45 270 22:34 06.02.2022
3920 Clouds 9 1027 78 10000 0.45 292 21:36 06.02.2022
3921 Clouds 10 1026 75 10000 0.45 292 20:58 06.02.2022
3922 Clouds 11 1026 75 10000 0.89 302 20:36 06.02.2022
3923 Clouds 12 1027 72 10000 0.89 304 19:46 06.02.2022
3924 Clouds 13 1026 68 10000 0.45 270 18:50 06.02.2022
3925 Clouds 13 1026 68 10000 0.45 229 18:26 06.02.2022
3926 Clouds 14 1027 73 10000 1.79 327 17:29 06.02.2022
3927 Clouds 15 1026 69 10000 1.79 194 16:50 06.02.2022
3928 Clouds 15 1028 75 10000 2.24 166 15:50 06.02.2022
3929 Clouds 15 1028 73 10000 1.79 161 15:28 06.02.2022
3930 Clouds 14 1028 74 10000 1.34 182 14:59 06.02.2022
3931 Clouds 15 1027 68 10000 1.34 239 13:57 06.02.2022
3932 Clouds 15 1027 68 10000 1.34 241 13:20 06.02.2022
3933 Clouds 15 1028 76 10000 2.57 50 11:45 06.02.2022
3934 Clouds 13 1026 76 10000 0.89 56 10:33 06.02.2022
3935 Clouds 11 1026 87 10000 0.45 61 09:36 06.02.2022
3936 Clouds 11 1026 90 10000 0.45 45 08:41 06.02.2022
3937 Clouds 11 1024 87 9000 0.51 30 06:31 06.02.2022
3938 Clouds 11 1025 87 8000 1.03 80 05:28 06.02.2022
3939 Clouds 10 1025 88 9000 0.51 40 02:25 06.02.2022
3940 Clouds 11 1025 85 10000 1.03 80 00:32 06.02.2022
3941 Clouds 12 1025 83 10000 0.51 0 23:38 05.02.2022
3942 Clouds 12 1024 82 10000 1.03 0 21:46 05.02.2022
3943 Clouds 13 1024 78 10000 0.89 44 20:41 05.02.2022
3944 Clouds 13 1023 75 10000 0.45 68 20:20 05.02.2022
3945 Clouds 14 1023 74 10000 3.09 40 19:42 05.02.2022
3946 Clouds 14 1022 68 10000 0.45 68 18:30 05.02.2022
3947 Clouds 15 1022 64 10000 0.89 17 17:35 05.02.2022
3948 Clouds 15 1024 70 10000 3.09 270 15:51 05.02.2022
3949 Clouds 15 1024 69 10000 2.57 230 15:29 05.02.2022
3950 Clouds 15 1024 64 10000 0 0 13:25 05.02.2022
3951 Clouds 16 1024 66 10000 0.51 0 12:46 05.02.2022
3952 Clouds 15 1023 73 10000 1.03 20 11:45 05.02.2022
3953 Clouds 14 1022 77 10000 0.45 112 10:43 05.02.2022
3954 Clouds 13 1022 81 10000 1.03 0 09:50 05.02.2022
3955 Clouds 11 1022 84 10000 1.54 360 08:39 05.02.2022
3956 Clouds 11 1021 83 10000 0.51 0 06:59 05.02.2022
3957 Clouds 11 1021 83 10000 0.51 0 06:35 05.02.2022
3958 Clouds 12 1021 81 10000 1.03 0 02:40 05.02.2022
3959 Clouds 12 1022 82 10000 0.45 68 01:18 05.02.2022
3960 Clouds 12 1022 82 10000 1.03 0 00:36 05.02.2022
3961 Clouds 13 1022 82 10000 0.89 68 23:33 04.02.2022
3962 Clouds 13 1022 81 10000 0.89 73 22:45 04.02.2022
3963 Clouds 13 1021 80 10000 0.45 42 21:36 04.02.2022
3964 Clouds 13 1021 80 10000 0.45 65 21:18 04.02.2022
3965 Clouds 13 1021 78 10000 0.89 46 20:36 04.02.2022
3966 Clouds 14 1020 79 10000 0.45 254 19:19 04.02.2022
3967 Clear 17 1019 66 10000 1.34 184 16:44 04.02.2022
3968 Clear 18 1019 58 10000 1.34 214 15:19 04.02.2022
3969 Clear 18 1020 61 10000 3.13 230 14:47 04.02.2022
3970 Clouds 19 1019 55 10000 0.89 259 12:43 04.02.2022
3971 Clouds 17 1020 64 10000 0.89 198 11:45 04.02.2022
3972 Clouds 16 1020 68 10000 0.89 89 10:56 04.02.2022
3973 Clouds 15 1020 74 10000 1.34 68 10:22 04.02.2022
3974 Clouds 8 1018 82 10000 0.89 68 08:30 04.02.2022
3975 Clouds 6 1018 86 10000 1.03 60 04:45 04.02.2022
3976 Clouds 6 1019 84 8000 0 0 02:38 04.02.2022
3977 Fog 6 1019 100 5000 0.51 0 23:56 03.02.2022
3978 Clouds 8 1020 93 7000 1.03 40 22:51 03.02.2022
3979 Clouds 9 1021 93 8000 0.89 333 21:58 03.02.2022
3980 Clouds 10 1021 93 9000 0.89 342 21:37 03.02.2022
3981 Clear 11 1020 84 10000 0.51 340 20:22 03.02.2022
3982 Clear 12 1020 84 10000 2.06 180 19:49 03.02.2022
3983 Clear 14 1019 82 10000 2.57 170 19:20 03.02.2022
3984 Clear 15 1019 77 10000 0.45 214 17:59 03.02.2022
3985 Clear 17 1019 72 10000 0.89 212 17:19 03.02.2022
3986 Clouds 17 1020 70 10000 0.89 171 15:38 03.02.2022
3987 Clouds 18 1019 62 10000 1.79 223 14:18 03.02.2022
3988 Clouds 18 1022 60 10000 0.89 174 12:32 03.02.2022
3989 Fog 3 1022 100 10000 0 0 08:56 03.02.2022
3990 Clouds 4 1022 93 10000 2.06 70 07:43 03.02.2022
3991 Clear 8 1023 71 10000 0.45 256 00:59 03.02.2022
3992 Clear 8 1023 71 10000 0.45 270 00:22 03.02.2022
3993 Clear 11 1022 61 10000 0.45 348 22:39 02.02.2022
3994 Clear 11 1022 63 10000 0.51 0 21:51 02.02.2022
3995 Clear 11 1022 60 10000 0.45 292 21:29 02.02.2022
3996 Clear 13 1020 48 10000 1.54 70 20:27 02.02.2022
3997 Clear 13 1022 58 10000 2.57 60 19:46 02.02.2022
3998 Clear 14 1022 62 10000 2.06 180 18:56 02.02.2022
3999 Clear 18 1022 45 10000 2.57 170 18:25 02.02.2022
4000 Clear 19 1021 45 10000 2.06 220 17:22 02.02.2022
4001 Clear 19 1022 45 10000 3.09 220 16:58 02.02.2022
4002 Clear 19 1023 43 10000 5.36 276 15:29 02.02.2022
4003 Clear 19 1025 48 10000 4.02 295 12:47 02.02.2022
4004 Clear 17 1025 55 10000 6.26 306 11:49 02.02.2022
4005 Clear 18 1026 48 10000 4.47 288 11:30 02.02.2022
4006 Clear 11 1021 54 10000 3.09 240 09:18 02.02.2022
4007 Clear 11 1021 49 10000 0.45 292 04:57 02.02.2022
4008 Clear 11 1025 61 10000 0.45 292 22:34 01.02.2022
4009 Clouds 11 1025 58 10000 0.89 269 20:58 01.02.2022
4010 Clouds 12 1024 62 10000 0.89 266 19:39 01.02.2022
4011 Clouds 14 1023 51 10000 0.45 135 17:37 01.02.2022
4012 Clouds 15 1023 47 10000 1.79 59 16:31 01.02.2022
4013 Clouds 15 1025 65 10000 2.68 304 13:27 01.02.2022
4014 Clouds 14 1025 68 10000 1.79 321 12:28 01.02.2022
4015 Clouds 12 1024 76 10000 1.03 0 10:42 01.02.2022
4016 Clouds 10 1020 74 10000 1.34 54 02:24 01.02.2022
4017 Clouds 9 1020 69 10000 0.45 314 23:39 31.01.2022
4018 Clouds 9 1021 79 10000 1.34 303 22:42 31.01.2022
4019 Clouds 9 1020 66 10000 0.89 349 21:36 31.01.2022
4020 Clouds 10 1020 64 10000 0.45 261 20:44 31.01.2022
4021 Clouds 10 1019 62 10000 0.45 327 20:24 31.01.2022
4022 Clouds 12 1018 48 10000 0.45 42 18:54 31.01.2022
4023 Clouds 13 1018 42 10000 0.89 309 18:20 31.01.2022
4024 Clouds 15 1018 36 10000 2.24 35 17:25 31.01.2022
4025 Clouds 16 1020 46 10000 1.79 302 16:25 31.01.2022
4026 Clouds 17 1020 45 10000 4.47 270 14:54 31.01.2022
4027 Clear 18 1019 42 10000 4.12 230 13:43 31.01.2022
4028 Clear 18 1022 40 10000 2.68 319 12:38 31.01.2022
4029 Clear 16 1022 57 10000 3.58 284 11:42 31.01.2022
4030 Clear 14 1022 74 10000 1.79 265 10:49 31.01.2022
4031 Fog 13 1021 60 6000 2.24 62 09:45 31.01.2022
4032 Fog 8 1022 76 10000 0.89 293 08:58 31.01.2022
4033 Fog 6 1022 82 10000 1.79 284 08:39 31.01.2022
4034 Fog 2 1021 88 10000 1.03 0 08:20 31.01.2022
4035 Fog 6 1021 76 50 0.51 0 06:18 31.01.2022
4036 Clear 5 1024 86 10000 2.06 170 00:44 31.01.2022
4037 Clear 9 1022 64 10000 0.45 68 22:40 30.01.2022
4038 Clear 9 1022 65 10000 0.45 112 22:22 30.01.2022
4039 Clear 9 1024 65 10000 0.45 112 21:38 30.01.2022
4040 Clear 9 1024 65 10000 0.45 111 21:18 30.01.2022
4041 Clear 10 1025 67 10000 2.06 210 20:45 30.01.2022
4042 Clear 10 1025 68 10000 2.06 200 20:27 30.01.2022
4043 Clear 12 1025 65 10000 1.34 203 19:24 30.01.2022
4044 Clear 13 1024 61 10000 0.45 217 18:43 30.01.2022
4045 Clear 14 1025 60 10000 2.24 166 18:18 30.01.2022
4046 Clear 15 1026 67 10000 4.02 209 17:22 30.01.2022
4047 Clear 16 1027 57 10000 6.26 211 16:39 30.01.2022
4048 Clear 16 1027 57 10000 6.26 211 16:21 30.01.2022
4049 Clear 17 1027 57 10000 3.58 207 15:50 30.01.2022
4050 Clear 17 1027 57 10000 3.58 207 15:31 30.01.2022
4051 Clear 17 1028 54 10000 3.58 220 14:46 30.01.2022
4052 Clear 16 1028 53 10000 0.89 192 12:47 30.01.2022
4053 Clear 15 1028 51 10000 0.89 194 11:57 30.01.2022
4054 Clear 11 1027 57 10000 0.89 193 10:36 30.01.2022
4055 Clear 8 1029 65 10000 0 0 09:51 30.01.2022
4056 Clear 10 1029 38 10000 2.53 264 08:55 30.01.2022
4057 Clear 7 1029 39 10000 2.08 255 07:28 30.01.2022
4058 Clear 1 1031 86 10000 1.54 30 01:56 30.01.2022
4059 Clear 5 1032 77 10000 1.79 13 00:34 30.01.2022
4060 Clear 6 1032 71 10000 1.34 336 23:20 29.01.2022
4061 Clear 8 1032 67 10000 0.45 281 21:58 29.01.2022
4062 Clear 8 1031 59 10000 0.89 281 21:25 29.01.2022
4063 Clear 8 1031 57 10000 0.45 270 20:35 29.01.2022
4064 Clear 11 1031 52 10000 0.45 270 19:35 29.01.2022
4065 Clear 11 1029 43 10000 2.06 70 18:53 29.01.2022
4066 Clear 13 1031 44 10000 0.45 257 18:26 29.01.2022
4067 Clear 15 1031 44 10000 4.63 60 17:35 29.01.2022
4068 Clouds 17 1031 37 10000 0.89 191 16:37 29.01.2022
4069 Clouds 16 1032 52 10000 2.24 161 14:23 29.01.2022
4070 Clouds 16 1033 49 10000 2.68 192 13:45 29.01.2022
4071 Clouds 17 1032 40 10000 0.89 243 13:24 29.01.2022
4072 Clear 16 1032 40 10000 0.89 227 12:35 29.01.2022
4073 Clear 15 1032 44 10000 0.89 287 11:27 29.01.2022
4074 Clouds 8 1031 56 10000 0.45 112 09:29 29.01.2022
4075 Clear 4 1029 59 10000 1.03 70 06:55 29.01.2022
4076 Clear 8 1029 38 10000 0.45 94 00:49 29.01.2022
4077 Clear 8 1029 36 10000 0.89 69 00:31 29.01.2022
4078 Clear 8 1028 38 10000 0.89 37 22:51 28.01.2022
4079 Clear 7 1028 43 10000 1.34 65 22:26 28.01.2022
4080 Clear 6 1028 44 10000 1.54 50 21:52 28.01.2022
4081 Clear 9 1027 37 10000 0.51 50 20:30 28.01.2022
4082 Clear 9 1027 37 10000 0.51 50 20:30 28.01.2022
4083 Clear 9 1027 37 10000 0.51 50 20:30 28.01.2022
4084 Clear 11 1027 23 10000 0.45 158 19:33 28.01.2022
4085 Clear 12 1025 12 10000 0.45 282 18:46 28.01.2022
4086 Clear 16 1028 20 10000 1.34 38 17:31 28.01.2022
4087 Clear 18 1030 21 10000 3.13 319 15:20 28.01.2022
4088 Clear 17 1031 38 10000 3.13 317 13:52 28.01.2022
4089 Clear 16 1029 45 10000 0.89 205 12:31 28.01.2022
4090 Fog 14 1029 62 10000 0.45 231 11:25 28.01.2022
4091 Fog 8 1028 87 10000 0.51 220 09:52 28.01.2022
4092 Fog 3 1030 86 1000 0 0 08:26 28.01.2022
4093 Fog 3 1029 86 500 1.03 0 07:34 28.01.2022
4094 Fog 3 1029 87 50 0.51 60 05:23 28.01.2022
4095 Fog 3 1029 87 100 0 0 03:45 28.01.2022
4096 Fog 3 1029 87 500 0.51 0 02:22 28.01.2022
4097 Mist 4 1031 84 4500 1.34 330 01:33 28.01.2022
4098 Clear 7 1030 80 10000 1.34 327 23:25 27.01.2022
4099 Clouds 7 1029 81 7000 1.79 5 21:49 27.01.2022
4100 Clear 8 1029 78 10000 0.89 5 21:29 27.01.2022
4101 Clear 9 1029 77 10000 0.45 323 20:44 27.01.2022
4102 Clouds 11 1028 76 10000 0.45 203 18:55 27.01.2022
4103 Clear 13 1028 68 10000 0.45 203 17:56 27.01.2022
4104 Clouds 16 1028 62 10000 0.89 209 15:18 27.01.2022
4105 Clear 16 1029 63 10000 0.89 199 13:36 27.01.2022
4106 Clouds 15 1029 64 10000 0.89 154 12:45 27.01.2022
4107 Fog 10 1029 80 10000 1.03 30 10:24 27.01.2022
4108 Fog 1 1029 93 10000 0 0 08:57 27.01.2022
4109 Fog 1 1029 88 10000 0.51 90 08:34 27.01.2022
4110 Fog 1 1029 89 1500 0.51 0 05:59 27.01.2022
4111 Fog 4 1030 89 6000 1.79 355 02:57 27.01.2022
4112 Clear 7 1029 81 10000 1.34 347 23:32 26.01.2022
4113 Clear 8 1029 80 10000 1.34 355 21:59 26.01.2022
4114 Clear 8 1029 79 10000 0.89 350 21:35 26.01.2022
4115 Clear 8 1030 81 10000 0.45 292 20:41 26.01.2022
4116 Clear 9 1030 80 10000 0.45 292 20:22 26.01.2022
4117 Clear 11 1029 77 10000 0.45 270 19:20 26.01.2022
4118 Clear 12 1028 69 10000 0.45 234 18:45 26.01.2022
4119 Clear 13 1029 65 10000 0.89 231 17:51 26.01.2022
4120 Clear 14 1029 62 10000 1.34 240 17:23 26.01.2022
4121 Clear 15 1030 64 10000 1.79 161 16:33 26.01.2022
4122 Clouds 15 1030 61 10000 2.68 219 15:49 26.01.2022
4123 Clouds 16 1031 55 10000 0.45 176 14:21 26.01.2022
4124 Clouds 14 1031 67 10000 0.89 254 11:54 26.01.2022
4125 Clouds 11 1031 83 10000 0.89 90 10:43 26.01.2022
4126 Clear 7 1030 89 10000 1.54 360 09:48 26.01.2022
4127 Clear 0 1031 100 10000 2.06 40 08:27 26.01.2022
4128 Clouds 4 1029 85 10000 1.54 360 04:24 26.01.2022
4129 Clouds 6 1031 83 10000 2.68 5 23:58 25.01.2022
4130 Clear 7 1031 80 10000 0.45 111 23:20 25.01.2022
4131 Clear 8 1031 78 10000 1.79 360 22:26 25.01.2022
4132 Clear 8 1031 77 10000 1.34 338 21:59 25.01.2022
4133 Clouds 8 1031 77 10000 0.45 9 21:22 25.01.2022
4134 Clouds 8 1031 76 10000 0.45 270 20:44 25.01.2022
4135 Clouds 9 1031 74 10000 0.45 23 19:53 25.01.2022
4136 Clouds 9 1031 74 10000 0.45 23 19:53 25.01.2022
4137 Clouds 11 1031 68 10000 0.89 122 18:43 25.01.2022
4138 Clouds 12 1031 60 10000 0.89 116 17:45 25.01.2022
4139 Clouds 15 1031 55 10000 0.89 128 16:58 25.01.2022
4140 Clouds 14 1032 63 10000 3.13 48 16:34 25.01.2022
4141 Clouds 15 1031 53 10000 0.89 125 15:39 25.01.2022
4142 Clouds 15 1031 53 10000 1.34 43 14:58 25.01.2022
4143 Clouds 15 1032 58 10000 0.89 117 13:47 25.01.2022
4144 Clouds 12 1033 70 10000 0.89 80 10:59 25.01.2022
4145 Clouds 8 1032 87 10000 0.45 68 09:20 25.01.2022
4146 Clouds 7 1031 87 10000 0.89 69 07:31 25.01.2022
4147 Clouds 7 1030 88 10000 0.45 45 06:53 25.01.2022
4148 Clear 6 1031 84 10000 1.34 325 05:23 25.01.2022
4149 Clear 8 1031 81 10000 0.89 5 00:20 25.01.2022
4150 Clouds 8 1031 85 10000 0.89 67 23:36 24.01.2022
4151 Clouds 8 1031 85 10000 0.89 67 23:18 24.01.2022
4152 Clouds 8 1031 85 10000 0.89 74 22:42 24.01.2022
4153 Clear 9 1030 80 10000 0.45 38 21:57 24.01.2022
4154 Clear 9 1030 80 10000 0.45 38 21:57 24.01.2022
4155 Clouds 9 1030 84 10000 0.45 112 21:32 24.01.2022
4156 Clouds 10 1030 80 10000 1.34 11 20:34 24.01.2022
4157 Clouds 10 1030 78 10000 0.45 90 19:58 24.01.2022
4158 Clouds 11 1029 77 10000 0.89 81 19:37 24.01.2022
4159 Clouds 12 1028 72 10000 1.34 89 18:37 24.01.2022
4160 Clouds 13 1028 71 10000 0.89 103 17:24 24.01.2022
4161 Clouds 13 1027 72 10000 1.34 90 16:58 24.01.2022
4162 Clouds 13 1027 72 10000 1.34 78 16:58 24.01.2022
4163 Clouds 14 1027 70 10000 0.89 71 16:30 24.01.2022
4164 Drizzle 13 1027 73 10000 1.34 77 14:54 24.01.2022
4165 Clouds 14 1028 76 10000 0.89 80 13:38 24.01.2022
4166 Clouds 12 1029 81 9000 0.89 114 12:32 24.01.2022
4167 Drizzle 11 1029 86 7000 0.89 47 11:21 24.01.2022
4168 Drizzle 10 1028 81 8000 1.79 20 09:50 24.01.2022
4169 Drizzle 10 1028 82 10000 0.45 23 09:25 24.01.2022
4170 Clouds 8 1025 77 10000 0.89 62 07:28 24.01.2022
4171 Clouds 6 1027 80 10000 1.79 343 01:38 24.01.2022
4172 Clear 7 1027 76 10000 1.79 347 00:47 24.01.2022
4173 Clear 7 1027 75 10000 0.45 292 00:29 24.01.2022
4174 Clouds 8 1027 75 10000 1.34 331 22:46 23.01.2022
4175 Clouds 8 1027 74 10000 1.34 347 21:52 23.01.2022
4176 Clouds 8 1026 73 10000 0.89 360 21:27 23.01.2022
4177 Clouds 9 1026 70 10000 0.89 355 20:55 23.01.2022
4178 Clouds 9 1026 69 10000 0.45 90 20:21 23.01.2022
4179 Clouds 11 1026 66 10000 0.89 68 18:53 23.01.2022
4180 Clouds 11 1026 67 10000 0.45 68 18:22 23.01.2022
4181 Clouds 12 1027 61 10000 0.89 98 16:55 23.01.2022
4182 Clouds 13 1027 56 10000 0.89 208 15:46 23.01.2022
4183 Clouds 13 1027 56 10000 0.89 187 14:50 23.01.2022
4184 Clouds 13 1027 53 10000 0.45 133 14:18 23.01.2022
4185 Clouds 13 1030 59 10000 3.58 116 12:44 23.01.2022
4186 Clouds 13 1030 63 10000 0.89 97 12:19 23.01.2022
4187 Clouds 12 1029 63 10000 0.89 92 11:26 23.01.2022
4188 Clouds 11 1029 68 10000 0.89 51 10:57 23.01.2022
4189 Clouds 9 1029 79 10000 0.89 104 10:25 23.01.2022
4190 Clouds 5 1029 85 10000 1.79 344 09:31 23.01.2022
4191 Clouds 5 1029 85 10000 1.79 344 09:31 23.01.2022
4192 Clouds 3 1028 80 10000 0.51 320 08:33 23.01.2022
4193 Clouds 6 1029 80 10000 1.79 5 03:49 23.01.2022
4194 Clouds 7 1029 75 10000 1.34 348 01:37 23.01.2022
4195 Clouds 8 1030 72 10000 0.45 332 00:47 23.01.2022
4196 Clouds 9 1030 70 10000 0.45 292 23:59 22.01.2022
4197 Clouds 9 1030 70 10000 0.89 344 22:53 22.01.2022
4198 Clouds 9 1030 68 10000 0.89 327 22:19 22.01.2022
4199 Clouds 10 1029 64 10000 0.89 9 20:46 22.01.2022
4200 Clouds 11 1028 45 10000 0.45 52 19:46 22.01.2022
4201 Clouds 11 1028 42 10000 2.57 230 18:38 22.01.2022
4202 Clouds 12 1029 62 10000 3.6 230 17:49 22.01.2022
4203 Clouds 12 1029 57 10000 0.89 255 17:29 22.01.2022
4204 Clouds 12 1030 61 10000 3.13 180 16:54 22.01.2022
4205 Clouds 13 1030 61 10000 1.34 234 15:45 22.01.2022
4206 Clouds 13 1029 52 10000 0.89 246 14:56 22.01.2022
4207 Clouds 13 1030 52 10000 1.79 242 13:31 22.01.2022
4208 Clouds 13 1031 53 10000 0.89 159 12:40 22.01.2022
4209 Clouds 13 1031 54 10000 0.89 172 12:22 22.01.2022
4210 Clouds 11 1031 67 10000 0.89 62 10:55 22.01.2022
4211 Clouds 9 1030 73 10000 0.89 59 10:27 22.01.2022
4212 Clouds 6 1030 81 10000 0.89 72 09:43 22.01.2022
4213 Clouds 4 1029 82 10000 0.51 50 08:51 22.01.2022
4214 Clouds 3 1029 89 10000 1.03 0 07:28 22.01.2022
4215 Clouds 5 1030 85 10000 0.45 346 04:50 22.01.2022
4216 Clouds 8 1029 68 10000 0.45 68 00:57 22.01.2022
4217 Clouds 8 1028 70 10000 0.45 292 23:21 21.01.2022
4218 Clouds 8 1028 70 10000 0.45 36 22:19 21.01.2022
4219 Clouds 8 1028 70 10000 0.45 68 22:19 21.01.2022
4220 Clouds 9 1027 66 10000 0.89 83 19:55 21.01.2022
4221 Clouds 10 1026 67 10000 0.89 112 18:23 21.01.2022
4222 Clouds 10 1025 67 10000 1.79 86 17:18 21.01.2022
4223 Clouds 11 1024 70 10000 2.24 138 15:27 21.01.2022
4224 Clear 11 1025 72 10000 1.79 70 13:18 21.01.2022
4225 Clouds 12 1026 75 10000 5.81 43 12:28 21.01.2022
4226 Clouds 12 1025 74 10000 0.45 208 11:27 21.01.2022
4227 Fog 6 1024 90 10000 0.51 90 09:46 21.01.2022
4228 Fog 2 1023 92 10000 0 0 08:22 21.01.2022
4229 Clouds 4 1025 86 10000 1.34 360 04:37 21.01.2022
4230 Clouds 7 1025 82 10000 0.89 333 23:27 20.01.2022
4231 Clouds 8 1025 79 10000 1.79 355 21:50 20.01.2022
4232 Clouds 8 1025 78 10000 0.89 248 21:32 20.01.2022
4233 Clouds 9 1025 75 10000 0.45 68 20:31 20.01.2022
4234 Clouds 10 1025 71 10000 0.45 60 19:19 20.01.2022
4235 Clouds 11 1025 67 10000 0.45 4 18:18 20.01.2022
4236 Clouds 14 1025 57 10000 1.34 40 16:53 20.01.2022
4237 Clouds 14 1026 60 10000 0.45 156 15:40 20.01.2022
4238 Clouds 14 1027 53 10000 1.79 219 14:40 20.01.2022
4239 Clouds 14 1028 54 10000 1.79 215 13:33 20.01.2022
4240 Clouds 14 1029 53 10000 0 0 12:32 20.01.2022
4241 Clouds 13 1029 57 10000 0.45 319 11:50 20.01.2022
4242 Clouds 10 1028 73 10000 0.89 44 10:38 20.01.2022
4243 Clouds 8 1028 78 10000 0.45 14 09:36 20.01.2022
4244 Clouds 8 1026 77 10000 0.89 69 07:50 20.01.2022
4245 Clouds 7 1029 82 10000 0.89 344 00:46 20.01.2022
4246 Clouds 8 1030 82 10000 0.45 46 22:59 19.01.2022
4247 Clear 7 1029 78 10000 1.34 5 22:21 19.01.2022
4248 Clouds 8 1029 77 10000 0.89 333 21:23 19.01.2022
4249 Clear 9 1029 74 10000 0.45 90 20:46 19.01.2022
4250 Clouds 10 1029 73 10000 0.45 9 19:42 19.01.2022
4251 Clouds 11 1029 66 10000 0.45 68 18:29 19.01.2022
4252 Clouds 13 1028 55 10000 0.45 261 17:45 19.01.2022
4253 Clouds 13 1030 66 10000 1.79 184 16:47 19.01.2022
4254 Clouds 14 1030 58 10000 1.79 225 14:42 19.01.2022
4255 Clouds 13 1032 63 10000 1.34 212 12:43 19.01.2022
4256 Clouds 13 1032 73 10000 0.45 112 11:41 19.01.2022
4257 Fog 8 1032 89 10000 0.45 68 10:23 19.01.2022
4258 Fog 2 1031 92 9000 0.51 80 09:34 19.01.2022
4259 Clouds 0 1031 92 9000 1.03 10 06:56 19.01.2022
4260 Clouds 4 1032 87 10000 0.45 45 02:41 19.01.2022
4261 Clear 6 1032 85 10000 1.34 344 23:20 18.01.2022
4262 Clear 6 1032 84 10000 0.89 5 22:34 18.01.2022
4263 Clear 7 1031 81 10000 0.45 16 21:01 18.01.2022
4264 Clear 9 1031 78 10000 0.45 89 19:55 18.01.2022
4265 Clear 9 1031 75 10000 0.45 128 19:36 18.01.2022
4266 Clear 10 1031 71 10000 2.06 150 18:54 18.01.2022
4267 Clouds 12 1030 63 10000 0.89 207 17:58 18.01.2022
4268 Clouds 14 1030 61 10000 1.34 239 16:58 18.01.2022
4269 Clouds 15 1030 62 10000 1.79 242 15:48 18.01.2022
4270 Clouds 15 1030 62 10000 1.79 242 15:47 18.01.2022
4271 Clouds 14 1031 67 10000 3.58 149 15:22 18.01.2022
4272 Clear 14 1031 61 10000 1.34 195 12:49 18.01.2022
4273 Clear 9 1030 69 10000 0.45 158 10:47 18.01.2022
4274 Clear 2 1031 81 10000 1.03 30 09:21 18.01.2022
4275 Clouds 0 1030 81 10000 0.51 0 07:56 18.01.2022
4276 Clouds 1 1031 81 10000 0.51 50 02:35 18.01.2022
4277 Clouds 4 1032 76 10000 0.45 329 23:47 17.01.2022
4278 Clouds 6 1032 71 10000 0.45 302 22:29 17.01.2022
4279 Clouds 6 1032 70 10000 0.45 265 21:35 17.01.2022
4280 Clear 9 1031 63 10000 0.45 68 20:27 17.01.2022
4281 Clouds 11 1031 57 10000 0.45 68 18:31 17.01.2022
4282 Clouds 12 1031 51 10000 0.89 39 17:51 17.01.2022
4283 Clouds 14 1032 47 10000 1.34 222 16:45 17.01.2022
4284 Clouds 15 1032 40 10000 3.6 250 15:23 17.01.2022
4285 Clouds 15 1032 40 10000 0.89 143 14:57 17.01.2022
4286 Clouds 15 1032 32 10000 1.34 213 13:27 17.01.2022
4287 Clouds 15 1032 37 10000 0.89 211 12:57 17.01.2022
4288 Clouds 14 1033 51 10000 0.45 195 11:49 17.01.2022
4289 Clouds 9 1032 77 10000 0.45 346 10:38 17.01.2022
4290 Clouds 2 1032 92 10000 1.03 30 09:35 17.01.2022
4291 Clouds 0 1031 95 10000 0.51 0 07:47 17.01.2022
4292 Clouds 2 1031 85 10000 1.03 0 07:19 17.01.2022
4293 Clear 5 1032 75 10000 0.45 281 00:57 17.01.2022
4294 Clear 7 1031 74 10000 0.45 267 22:31 16.01.2022
4295 Clouds 8 1031 71 10000 0.51 0 20:40 16.01.2022
4296 Clouds 11 1030 65 10000 0.45 45 18:53 16.01.2022
4297 Clouds 11 1029 63 10000 0.89 38 18:18 16.01.2022
4298 Clouds 13 1029 58 10000 1.34 56 17:25 16.01.2022
4299 Clouds 14 1030 65 10000 1.34 327 16:48 16.01.2022
4300 Clouds 14 1029 57 10000 0.89 211 15:19 16.01.2022
4301 Clouds 14 1029 55 10000 0.89 200 14:28 16.01.2022
4302 Clouds 14 1030 64 10000 2.24 153 12:51 16.01.2022
4303 Clouds 14 1030 64 10000 1.34 211 11:48 16.01.2022
4304 Clouds 11 1030 78 10000 0.89 206 10:58 16.01.2022
4305 Clouds 9 1030 87 10000 1.03 0 10:26 16.01.2022
4306 Clouds 8 1028 89 10000 1.03 0 09:54 16.01.2022
4307 Clouds 2 1029 93 10000 1.03 90 09:22 16.01.2022
4308 Clouds 2 1029 89 10000 0.51 0 08:39 16.01.2022
4309 Clouds 2 1028 87 10000 2.06 60 03:58 16.01.2022
4310 Clear 6 1027 80 10000 0.89 314 23:50 15.01.2022
4311 Clear 6 1027 80 10000 0.89 312 23:50 15.01.2022
4312 Clear 7 1026 78 10000 0.45 304 22:35 15.01.2022
4313 Clear 8 1027 76 10000 0.45 337 21:20 15.01.2022
4314 Clear 9 1027 74 10000 0.45 337 20:40 15.01.2022
4315 Clouds 10 1027 72 10000 0.45 312 19:30 15.01.2022
4316 Clouds 11 1026 68 10000 0.45 286 18:47 15.01.2022
4317 Clouds 13 1025 57 10000 0.89 240 17:30 15.01.2022
4318 Clouds 14 1027 64 10000 0.45 360 16:37 15.01.2022
4319 Clouds 14 1028 62 10000 2.68 147 13:57 15.01.2022
4320 Clouds 13 1029 64 10000 0.89 191 12:20 15.01.2022
4321 Clouds 10 1029 79 10000 0 0 10:43 15.01.2022
4322 Clear 1 1028 86 10000 0.51 20 08:32 15.01.2022
4323 Clouds 5 1030 79 10000 0.89 340 00:35 15.01.2022
4324 Clouds 7 1031 73 10000 1.34 355 21:52 14.01.2022
4325 Clouds 9 1031 69 10000 0.89 337 20:41 14.01.2022
4326 Clouds 9 1031 66 10000 0.45 23 20:21 14.01.2022
4327 Clouds 11 1031 59 10000 0.89 68 18:49 14.01.2022
4328 Clouds 11 1031 58 10000 0.45 23 18:27 14.01.2022
4329 Clouds 14 1032 57 10000 0.45 277 16:50 14.01.2022
4330 Clouds 14 1032 59 10000 1.34 229 15:48 14.01.2022
4331 Clouds 14 1032 52 10000 1.03 0 14:42 14.01.2022
4332 Clouds 14 1033 53 10000 1.03 70 13:37 14.01.2022
4333 Clouds 14 1034 53 10000 1.54 50 12:29 14.01.2022
4334 Clouds 12 1033 59 10000 0.89 64 10:57 14.01.2022
4335 Clouds 8 1033 73 10000 0.45 22 09:44 14.01.2022
4336 Clouds 8 1032 72 10000 0.89 112 08:44 14.01.2022
4337 Clouds 6 1031 75 10000 2.06 360 06:45 14.01.2022
4338 Clouds 10 1033 66 10000 0.89 68 01:33 14.01.2022
4339 Clouds 10 1033 68 10000 0.45 30 23:19 13.01.2022
4340 Clouds 9 1033 68 10000 0.51 0 21:38 13.01.2022
4341 Clouds 9 1033 68 10000 0.51 0 21:19 13.01.2022
4342 Clouds 10 1033 61 10000 0.45 292 19:40 13.01.2022
4343 Clouds 10 1033 63 10000 0.89 44 19:22 13.01.2022
4344 Clouds 10 1033 63 10000 0.89 44 19:22 13.01.2022
4345 Clouds 11 1032 54 10000 0.45 307 17:52 13.01.2022
4346 Clouds 14 1031 46 10000 1.79 20 16:21 13.01.2022
4347 Clouds 14 1032 45 10000 1.79 38 15:37 13.01.2022
4348 Clouds 14 1033 44 10000 3.58 51 14:46 13.01.2022
4349 Clouds 14 1033 52 10000 0.89 277 12:44 13.01.2022
4350 Clouds 9 1033 77 10000 0.45 120 10:25 13.01.2022
4351 Clouds 4 1034 89 10000 1.34 5 09:20 13.01.2022
4352 Clouds 4 1034 89 10000 1.34 5 09:20 13.01.2022
4353 Clouds 2 1032 86 10000 0.51 0 08:27 13.01.2022
4354 Clouds 3 1032 82 10000 0 0 07:23 13.01.2022
4355 Clear 2 1032 86 10000 2.06 40 05:59 13.01.2022
4356 Clear 2 1032 86 10000 2.06 40 05:59 13.01.2022
4357 Clear 3 1033 87 10000 0.89 339 05:19 13.01.2022
4358 Clear 5 1032 79 10000 0 0 01:58 13.01.2022
4359 Clear 6 1032 77 10000 0.45 298 00:54 13.01.2022
4360 Clear 6 1032 79 10000 0.45 5 23:49 12.01.2022
4361 Clear 6 1032 79 10000 0.45 5 23:49 12.01.2022
4362 Clouds 6 1032 74 10000 2.06 60 23:19 12.01.2022
4363 Clouds 7 1031 77 10000 1.79 348 21:57 12.01.2022
4364 Clouds 7 1031 75 10000 0.89 331 21:22 12.01.2022
4365 Clouds 7 1031 75 10000 0.89 331 21:22 12.01.2022
4366 Clouds 8 1031 74 10000 0.45 305 20:56 12.01.2022
4367 Clouds 9 1031 72 10000 0.45 313 19:44 12.01.2022
4368 Clouds 10 1030 68 10000 2.24 39 18:42 12.01.2022
4369 Clouds 12 1029 60 10000 2.24 59 17:22 12.01.2022
4370 Clouds 12 1029 59 10000 1.34 41 16:33 12.01.2022
4371 Clouds 13 1029 56 10000 3.58 58 14:48 12.01.2022
4372 Clouds 14 1029 61 10000 6.17 70 13:24 12.01.2022
4373 Clouds 13 1030 70 10000 2.24 39 11:59 12.01.2022
4374 Clouds 6 1028 89 10000 0.51 260 08:43 12.01.2022
4375 Clouds 6 1027 89 10000 2.57 320 07:50 12.01.2022
4376 Clouds 5 1027 92 10000 1.03 60 07:31 12.01.2022
4377 Clouds 6 1027 87 10000 1.34 346 23:53 11.01.2022
4378 Clear 6 1027 86 10000 1.79 355 22:57 11.01.2022
4379 Clouds 7 1026 84 10000 0.89 355 22:23 11.01.2022
4380 Clouds 7 1026 83 10000 0.89 346 21:25 11.01.2022
4381 Clouds 8 1026 77 10000 1.34 355 20:21 11.01.2022
4382 Clouds 10 1025 70 10000 0.45 55 18:43 11.01.2022
4383 Clouds 12 1024 60 10000 0.45 57 17:42 11.01.2022
4384 Clouds 14 1024 53 10000 0.45 38 16:38 11.01.2022
4385 Clouds 14 1024 50 10000 5.14 70 15:56 11.01.2022
4386 Clouds 15 1024 46 10000 4.63 80 14:43 11.01.2022
4387 Clouds 15 1024 46 10000 4.63 80 14:43 11.01.2022
4388 Clouds 15 1024 42 10000 0.45 193 13:58 11.01.2022
4389 Clouds 15 1024 43 10000 1.79 214 13:39 11.01.2022
4390 Clouds 15 1024 41 10000 0.45 108 13:21 11.01.2022
4391 Clouds 14 1025 43 10000 1.34 336 12:22 11.01.2022
4392 Clouds 11 1024 62 10000 0.89 294 10:24 11.01.2022
4393 Clouds 7 1022 79 10000 1.03 210 07:35 11.01.2022
4394 Clouds 11 1021 65 10000 3.13 23 01:47 11.01.2022
4395 Clouds 11 1021 68 10000 1.34 24 00:22 11.01.2022
4396 Clouds 11 1020 67 10000 1.34 15 23:37 10.01.2022
4397 Clouds 11 1020 67 10000 2.24 323 22:19 10.01.2022
4398 Clouds 11 1020 67 10000 3.13 338 21:55 10.01.2022
4399 Clouds 11 1020 66 10000 1.34 336 21:32 10.01.2022
4400 Clouds 11 1019 68 10000 2.24 32 20:58 10.01.2022
4401 Clouds 11 1019 74 10000 2.68 19 20:29 10.01.2022
4402 Clouds 11 1018 82 10000 0.89 290 19:47 10.01.2022
4403 Clouds 10 1018 86 9000 0.45 263 19:22 10.01.2022
4404 Clouds 10 1018 86 9000 0.89 270 18:54 10.01.2022
4405 Clouds 10 1017 87 9000 0.89 355 18:34 10.01.2022
4406 Clouds 11 1017 85 9000 1.79 30 16:43 10.01.2022
4407 Clouds 11 1016 86 9000 2.24 61 15:55 10.01.2022
4408 Clouds 11 1016 90 10000 2.68 94 14:41 10.01.2022
4409 Clouds 12 1015 87 10000 1.79 97 12:43 10.01.2022
4410 Clouds 12 1015 86 10000 2.24 45 11:40 10.01.2022
4411 Clouds 12 1013 87 10000 1.79 34 10:45 10.01.2022
4412 Clouds 13 1010 84 10000 4.12 60 08:59 10.01.2022
4413 Clouds 13 1009 88 10000 2.06 260 05:51 10.01.2022
4414 Clouds 14 1012 80 10000 2.06 80 01:35 10.01.2022
4415 Clouds 14 1013 79 10000 1.03 0 00:44 10.01.2022
4416 Clouds 13 1013 82 10000 0.89 236 00:19 10.01.2022
4417 Clouds 15 1014 70 10000 0.89 256 22:43 09.01.2022
4418 Clouds 14 1014 73 10000 1.79 196 21:57 09.01.2022
4419 Clouds 14 1014 73 10000 2.24 205 21:37 09.01.2022
4420 Clouds 14 1014 74 10000 2.68 223 21:18 09.01.2022
4421 Clouds 14 1015 74 10000 3.13 215 20:45 09.01.2022
4422 Clouds 14 1015 77 10000 3.13 196 20:26 09.01.2022
4423 Clouds 15 1015 73 10000 3.13 192 19:38 09.01.2022
4424 Clouds 15 1015 71 10000 1.79 190 19:20 09.01.2022
4425 Clouds 15 1014 59 10000 1.79 212 18:37 09.01.2022
4426 Clouds 15 1015 62 10000 1.34 229 17:48 09.01.2022
4427 Clouds 15 1015 62 10000 2.06 230 17:29 09.01.2022
4428 Clouds 16 1015 55 10000 1.79 290 16:43 09.01.2022
4429 Clouds 17 1015 53 10000 6.26 315 15:46 09.01.2022
4430 Clouds 16 1015 53 10000 6.71 268 15:25 09.01.2022
4431 Clouds 15 1016 60 10000 2.68 290 14:39 09.01.2022
4432 Clouds 15 1016 63 10000 5.36 295 13:48 09.01.2022
4433 Clouds 15 1018 58 10000 3.13 360 11:58 09.01.2022
4434 Clouds 15 1017 58 10000 6.26 291 11:28 09.01.2022
4435 Clouds 15 1017 64 10000 3.13 270 09:55 09.01.2022
4436 Clouds 15 1017 64 10000 3.13 301 09:24 09.01.2022
4437 Clouds 15 1015 57 10000 2.57 230 07:54 09.01.2022
4438 Clouds 12 1018 75 10000 3.13 241 01:30 09.01.2022
4439 Clouds 12 1019 73 10000 2.24 229 00:50 09.01.2022
4440 Clouds 9 1019 76 10000 3.09 270 23:36 08.01.2022
4441 Clouds 10 1020 73 10000 1.79 246 22:56 08.01.2022
4442 Clouds 11 1020 70 10000 3.09 240 21:32 08.01.2022
4443 Clouds 12 1022 65 10000 1.34 243 20:44 08.01.2022
4444 Clouds 12 1022 64 10000 1.34 243 20:23 08.01.2022
4445 Clouds 12 1022 65 10000 1.34 232 19:22 08.01.2022
4446 Clouds 13 1022 63 10000 3.13 289 17:43 08.01.2022
4447 Clouds 14 1023 59 10000 3.58 274 16:57 08.01.2022
4448 Clouds 14 1023 59 10000 3.58 265 15:35 08.01.2022
4449 Clouds 14 1024 59 10000 6.26 293 14:33 08.01.2022
4450 Clouds 14 1025 62 10000 5.81 271 12:36 08.01.2022
4451 Clouds 13 1026 69 10000 6.26 286 10:46 08.01.2022
4452 Clouds 12 1025 69 10000 4.92 265 10:24 08.01.2022
4453 Clouds 11 1025 74 10000 3.13 301 09:34 08.01.2022
4454 Clouds 11 1024 69 10000 2.06 290 07:18 08.01.2022
4455 Clouds 8 1025 82 10000 0.45 247 01:52 08.01.2022
4456 Clouds 5 1026 87 10000 0.89 348 00:25 08.01.2022
4457 Clouds 7 1026 81 10000 0.51 0 22:39 07.01.2022
4458 Clouds 8 1026 75 10000 4.02 266 20:56 07.01.2022
4459 Clouds 9 1025 74 10000 1.03 260 19:39 07.01.2022
4460 Clouds 10 1025 68 10000 1.79 292 18:53 07.01.2022
4461 Clouds 10 1025 69 10000 2.68 350 18:30 07.01.2022
4462 Clouds 11 1024 63 10000 1.79 350 17:25 07.01.2022
4463 Clouds 12 1024 58 10000 2.68 329 16:23 07.01.2022
4464 Clouds 13 1023 59 10000 3.58 302 13:53 07.01.2022
4465 Clouds 13 1024 57 10000 4.92 292 13:19 07.01.2022
4466 Clouds 12 1024 60 10000 4.02 317 12:35 07.01.2022
4467 Clouds 4 1024 91 10000 0.45 348 09:21 07.01.2022
4468 Clear 5 1022 86 10000 1.34 355 02:54 07.01.2022
4469 Clear 5 1022 84 10000 1.34 344 01:52 07.01.2022
4470 Clear 5 1022 84 10000 0.89 344 01:27 07.01.2022
4471 Clear 6 1021 82 10000 1.54 60 00:57 07.01.2022
4472 Clear 8 1021 72 10000 2.06 330 22:46 06.01.2022
4473 Clear 8 1020 78 10000 1.34 322 21:23 06.01.2022
4474 Clouds 9 1020 74 10000 0.51 70 20:20 06.01.2022
4475 Clouds 9 1019 73 10000 3.09 340 19:41 06.01.2022
4476 Clouds 11 1018 70 10000 2.24 310 17:54 06.01.2022
4477 Clouds 11 1018 70 10000 2.24 310 17:34 06.01.2022
4478 Clouds 12 1018 70 10000 1.79 277 16:42 06.01.2022
4479 Clouds 12 1017 69 10000 3.13 344 15:46 06.01.2022
4480 Clouds 12 1017 72 10000 3.58 310 15:25 06.01.2022
4481 Clouds 12 1017 71 10000 2.24 257 14:43 06.01.2022
4482 Clouds 12 1017 68 10000 2.68 273 14:18 06.01.2022
4483 Clouds 13 1017 60 10000 0.45 192 12:43 06.01.2022
4484 Clouds 12 1018 69 10000 0.51 330 11:43 06.01.2022
4485 Clouds 12 1018 74 10000 1.03 0 11:22 06.01.2022
4486 Clouds 5 1013 87 9000 1.54 30 08:51 06.01.2022
4487 Clouds 8 1012 76 10000 0.89 337 00:53 06.01.2022
4488 Clouds 10 1012 70 10000 0.45 261 23:38 05.01.2022
4489 Clouds 10 1012 70 10000 0.89 257 22:57 05.01.2022
4490 Clouds 10 1012 69 10000 0.89 341 22:32 05.01.2022
4491 Clouds 11 1012 67 10000 0.45 342 21:48 05.01.2022
4492 Clouds 11 1012 67 10000 0.89 8 21:20 05.01.2022
4493 Clouds 11 1012 75 10000 0.45 226 20:18 05.01.2022
4494 Clouds 11 1011 77 10000 1.34 241 18:44 05.01.2022
4495 Clouds 11 1010 82 10000 0.89 216 17:44 05.01.2022
4496 Clouds 11 1011 85 10000 0.89 250 16:51 05.01.2022
4497 Clouds 11 1010 86 8000 0.45 177 15:26 05.01.2022
4498 Rain 11 1011 82 10000 0.45 267 13:52 05.01.2022
4499 Rain 11 1011 85 9000 2.06 50 13:25 05.01.2022
4500 Rain 11 1011 86 9000 0.89 351 11:36 05.01.2022
4501 Rain 12 1005 79 10000 0.89 4 07:47 05.01.2022
4502 Clouds 12 1004 72 10000 0.89 4 06:25 05.01.2022
4503 Clouds 14 1005 86 10000 0.89 225 00:59 05.01.2022
4504 Clouds 14 1007 82 10000 0.89 169 23:28 04.01.2022
4505 Clouds 14 1007 82 10000 0.45 197 22:58 04.01.2022
4506 Clouds 14 1007 81 10000 1.34 247 21:31 04.01.2022
4507 Clouds 15 1008 87 9000 0.89 271 19:22 04.01.2022
4508 Clouds 16 1008 86 10000 1.34 223 17:54 04.01.2022
4509 Clouds 17 1009 82 10000 1.34 226 16:53 04.01.2022
4510 Clouds 17 1009 81 10000 1.34 245 16:30 04.01.2022
4511 Clouds 18 1010 79 10000 1.34 208 14:54 04.01.2022
4512 Clouds 18 1010 79 9000 1.79 194 14:36 04.01.2022
4513 Clouds 18 1011 78 9000 1.34 225 13:40 04.01.2022
4514 Clouds 16 1013 86 9000 1.34 198 10:52 04.01.2022
4515 Clouds 14 1016 95 9000 3.09 240 09:58 04.01.2022
4516 Clouds 12 1014 86 9000 0.89 96 08:35 04.01.2022
4517 Clouds 12 1018 88 10000 0.45 203 03:39 04.01.2022
4518 Clouds 12 1020 86 10000 0.45 292 00:42 04.01.2022
4519 Clouds 12 1020 87 10000 0.89 282 23:41 03.01.2022
4520 Clouds 12 1020 85 10000 0.89 248 22:21 03.01.2022
4521 Clouds 12 1021 84 10000 0.45 263 21:35 03.01.2022
4522 Clouds 12 1021 85 10000 0.45 253 20:28 03.01.2022
4523 Clouds 12 1021 83 10000 0.89 314 18:54 03.01.2022
4524 Clouds 13 1021 81 10000 0.45 337 18:29 03.01.2022
4525 Clouds 14 1021 76 10000 0.89 279 17:18 03.01.2022
4526 Clouds 15 1022 73 10000 1.34 222 16:28 03.01.2022
4527 Clouds 15 1024 73 10000 1.79 234 14:31 03.01.2022
4528 Clouds 15 1024 73 10000 1.79 252 12:51 03.01.2022
4529 Clouds 14 1024 70 10000 1.34 270 11:50 03.01.2022
4530 Clouds 13 1025 82 10000 0.89 286 10:37 03.01.2022
4531 Clouds 11 1024 87 10000 1.03 0 08:54 03.01.2022
4532 Clouds 11 1025 88 10000 0.45 203 07:52 03.01.2022
4533 Clouds 11 1028 90 8000 0.45 68 02:28 03.01.2022
4534 Clouds 11 1028 90 8000 0.45 21 23:22 02.01.2022
4535 Clouds 11 1028 89 9000 0.45 40 22:56 02.01.2022
4536 Clouds 11 1029 89 10000 0.45 307 21:52 02.01.2022
4537 Clouds 11 1029 92 10000 1.54 240 20:50 02.01.2022
4538 Clouds 12 1029 90 10000 0.45 336 20:29 02.01.2022
4539 Clouds 12 1029 89 10000 0.45 222 19:31 02.01.2022
4540 Clouds 12 1029 90 10000 1.34 209 18:56 02.01.2022
4541 Clouds 13 1027 83 10000 0.45 231 17:57 02.01.2022
4542 Clouds 13 1027 81 10000 0.89 222 17:39 02.01.2022
4543 Clouds 13 1027 81 10000 0.89 236 17:20 02.01.2022
4544 Clouds 15 1026 73 10000 1.34 226 16:28 02.01.2022
4545 Clouds 15 1026 76 10000 1.79 227 14:41 02.01.2022
4546 Clouds 13 1029 88 10000 3.6 220 13:25 02.01.2022
4547 Clouds 13 1030 88 10000 3.09 230 12:32 02.01.2022
4548 Clouds 13 1030 88 10000 3.6 220 11:49 02.01.2022
4549 Clouds 12 1029 94 9000 3.09 250 10:53 02.01.2022
4550 Clouds 11 1029 93 8000 3.09 240 09:57 02.01.2022
4551 Clouds 11 1026 87 10000 1.54 340 07:34 02.01.2022
4552 Clouds 12 1027 89 10000 2.57 240 02:56 02.01.2022
4553 Clouds 12 1028 90 10000 0.45 288 23:42 01.01.2022
4554 Clouds 12 1028 89 10000 2.57 220 23:24 01.01.2022
4555 Clouds 12 1028 90 10000 0.89 257 22:25 01.01.2022
4556 Clouds 12 1027 90 10000 0.45 258 21:46 01.01.2022
4557 Clouds 12 1029 93 10000 3.6 240 21:28 01.01.2022
4558 Clouds 12 1029 93 10000 3.6 240 20:25 01.01.2022
4559 Clouds 13 1029 92 10000 2.24 225 19:34 01.01.2022
4560 Clouds 12 1026 88 10000 0.45 283 18:51 01.01.2022
4561 Clouds 13 1027 83 10000 0.45 250 17:38 01.01.2022
4562 Clouds 15 1027 80 10000 0.89 203 16:34 01.01.2022
4563 Clouds 16 1025 77 10000 0.89 213 15:37 01.01.2022
4564 Clouds 15 1026 72 10000 1.34 217 14:25 01.01.2022
4565 Clouds 15 1026 74 10000 1.79 215 13:41 01.01.2022
4566 Clouds 16 1026 70 8000 0.89 206 12:25 01.01.2022
4567 Clouds 14 1026 83 7000 0.45 68 11:25 01.01.2022
4568 Clouds 12 1029 94 7000 0.51 0 10:56 01.01.2022
4569 Clouds 11 1029 93 7000 2.57 320 09:48 01.01.2022
4570 Clouds 10 1026 88 9000 0.45 349 08:35 01.01.2022
4571 Clouds 10 1026 93 10000 0.45 49 07:57 01.01.2022
4572 Clouds 11 1025 91 10000 0.45 36 07:37 01.01.2022
4573 Clouds 11 1025 88 10000 0.45 46 06:44 01.01.2022
4574 Clouds 11 1027 93 6000 0.45 347 04:40 01.01.2022
4575 Mist 11 1027 93 4000 0.45 347 03:52 01.01.2022
4576 Fog 12 1028 93 300 0.45 5 23:55 31.12.2021
4577 Fog 12 1028 93 600 1.03 0 22:25 31.12.2021
4578 Fog 12 1028 93 600 0.51 0 21:47 31.12.2021
4579 Mist 13 1027 91 4500 0.51 0 19:48 31.12.2021
4580 Mist 13 1027 90 4500 0.45 157 19:28 31.12.2021
4581 Mist 14 1025 87 4500 1.03 0 17:56 31.12.2021
4582 Mist 14 1025 87 4500 1.03 0 17:28 31.12.2021
4583 Mist 14 1025 87 4500 0.45 164 16:52 31.12.2021
4584 Mist 14 1025 85 4500 0.45 181 16:18 31.12.2021
4585 Mist 14 1025 85 4500 0.89 200 15:50 31.12.2021
4586 Mist 14 1027 94 4500 2.57 210 15:27 31.12.2021
4587 Mist 15 1025 83 2000 0.45 211 14:41 31.12.2021
4588 Fog 16 1025 80 900 2.57 220 13:56 31.12.2021
4589 Fog 13 1027 100 900 2.57 220 12:54 31.12.2021
4590 Fog 12 1027 100 500 1.03 0 12:33 31.12.2021
4591 Fog 13 1027 92 500 1.03 200 11:42 31.12.2021
4592 Fog 12 1027 95 1500 0 0 10:58 31.12.2021
4593 Fog 12 1027 87 3000 1.03 360 10:29 31.12.2021
4594 Fog 8 1026 93 500 0.51 0 09:35 31.12.2021
4595 Fog 5 1026 100 5000 1.03 0 08:54 31.12.2021
4596 Fog 7 1026 88 5000 1.54 90 08:23 31.12.2021
4597 Fog 7 1025 100 1000 0.51 30 06:24 31.12.2021
4598 Clouds 11 1025 89 6000 0 0 23:23 30.12.2021
4599 Clear 12 1025 89 10000 0.89 320 22:32 30.12.2021
4600 Clear 13 1024 86 10000 1.79 13 21:41 30.12.2021
4601 Clear 13 1024 86 10000 0.89 333 21:22 30.12.2021
4602 Clear 13 1022 83 10000 0.45 303 20:44 30.12.2021
4603 Clear 13 1022 82 10000 0.45 22 20:24 30.12.2021
4604 Clear 15 1021 79 10000 0.45 327 19:43 30.12.2021
4605 Clear 16 1021 77 10000 1.54 240 18:29 30.12.2021
4606 Clear 16 1018 72 10000 0.45 263 17:45 30.12.2021
4607 Clear 19 1023 72 10000 0.89 144 15:58 30.12.2021
4608 Clear 20 1023 65 10000 0.89 138 15:39 30.12.2021
4609 Clear 20 1023 68 10000 0.89 123 14:37 30.12.2021
4610 Clear 19 1020 69 10000 0.89 195 13:33 30.12.2021
4611 Clear 17 1019 70 10000 0.45 199 12:29 30.12.2021
4612 Fog 13 1023 92 900 0 0 10:50 30.12.2021
4613 Fog 10 1023 89 400 0 0 09:56 30.12.2021
4614 Fog 9 1023 85 150 0 0 08:56 30.12.2021
4615 Fog 8 1022 91 300 0.51 180 06:52 30.12.2021
4616 Fog 8 1022 85 150 1.03 30 03:42 30.12.2021
4617 Mist 8 1022 89 2000 0.51 40 02:47 30.12.2021
4618 Clear 10 1023 89 10000 1.54 80 23:43 29.12.2021
4619 Clear 11 1021 80 10000 0.45 33 23:22 29.12.2021
4620 Clear 12 1021 77 10000 0.45 45 22:21 29.12.2021
4621 Clear 13 1021 78 10000 0.89 52 21:33 29.12.2021
4622 Clear 13 1020 74 10000 0.45 337 20:38 29.12.2021
4623 Clear 14 1020 72 10000 0.45 243 19:48 29.12.2021
4624 Clear 15 1020 67 10000 0.89 301 18:54 29.12.2021
4625 Clear 17 1019 59 10000 0.45 112 17:56 29.12.2021
4626 Clear 17 1020 57 10000 0.45 68 17:28 29.12.2021
4627 Clear 18 1020 72 10000 4.63 210 16:41 29.12.2021
4628 Clear 19 1021 61 10000 1.34 244 16:19 29.12.2021
4629 Clear 20 1021 60 10000 2.24 236 14:24 29.12.2021
4630 Clear 20 1022 60 10000 2.68 205 12:42 29.12.2021
4631 Clear 19 1023 51 10000 2.68 252 11:49 29.12.2021
4632 Clear 17 1020 58 10000 0.89 335 09:59 29.12.2021
4633 Clear 14 1017 67 10000 0.45 292 07:52 29.12.2021
4634 Clear 14 1019 77 10000 1.54 70 06:43 29.12.2021
4635 Clear 14 1019 77 10000 1.54 70 06:23 29.12.2021
4636 Clear 12 1019 94 10000 2.06 150 05:40 29.12.2021
4637 Clear 15 1016 58 10000 0.89 267 03:18 29.12.2021
4638 Clear 19 1018 55 10000 4.12 280 00:24 29.12.2021
4639 Clear 17 1015 58 10000 1.34 215 23:47 28.12.2021
4640 Clear 16 1012 52 10000 0.89 146 22:43 28.12.2021
4641 Clear 15 1012 49 10000 0.89 143 22:24 28.12.2021
4642 Clear 16 1014 53 10000 0.89 270 21:53 28.12.2021
4643 Clouds 16 1014 49 10000 0.89 228 20:47 28.12.2021
4644 Clouds 16 1015 58 10000 0.89 93 19:39 28.12.2021
4645 Clouds 17 1017 67 10000 3.6 230 18:44 28.12.2021
4646 Clouds 17 1013 49 10000 0.89 238 18:23 28.12.2021
4647 Clear 20 1016 56 10000 3.09 270 16:35 28.12.2021
4648 Clear 20 1017 54 10000 1.79 355 15:51 28.12.2021
4649 Clear 20 1017 57 10000 2.68 320 15:25 28.12.2021
4650 Clear 20 1017 60 10000 1.79 332 14:52 28.12.2021
4651 Clear 20 1017 58 10000 1.79 269 14:21 28.12.2021
4652 Clear 20 1017 55 10000 3.13 265 13:51 28.12.2021
4653 Clear 20 1017 55 10000 2.68 340 13:31 28.12.2021
4654 Clear 19 1017 57 10000 2.68 291 12:55 28.12.2021
4655 Clouds 20 1015 47 10000 0.89 271 11:51 28.12.2021
4656 Clouds 16 1014 58 10000 0.45 337 09:30 28.12.2021
4657 Clouds 15 1011 45 10000 3.09 200 07:31 28.12.2021
4658 Clouds 17 1015 66 10000 2.68 267 02:23 28.12.2021
4659 Clouds 15 1013 69 10000 1.34 322 23:26 27.12.2021
4660 Clear 16 1012 67 10000 0.89 359 22:20 27.12.2021
4661 Clear 16 1012 66 10000 1.79 30 21:29 27.12.2021
4662 Clear 16 1011 66 10000 0.45 109 20:24 27.12.2021
4663 Clear 16 1011 66 10000 0.45 317 20:24 27.12.2021
4664 Clear 17 1010 60 10000 0.89 312 19:45 27.12.2021
4665 Clear 17 1010 52 10000 0.45 349 18:56 27.12.2021
4666 Clouds 19 1012 59 10000 1.03 0 17:50 27.12.2021
4667 Clouds 19 1007 50 10000 0.89 4 17:27 27.12.2021
4668 Clouds 21 1010 60 10000 5.66 260 15:53 27.12.2021
4669 Clouds 21 1010 60 10000 6.17 250 14:35 27.12.2021
4670 Clouds 21 1010 64 10000 7.2 250 13:59 27.12.2021
4671 Clouds 20 1010 68 10000 9.26 250 12:49 27.12.2021
4672 Clouds 19 1009 66 10000 1.79 327 10:37 27.12.2021
4673 Clouds 18 1009 70 10000 2.24 267 10:18 27.12.2021
4674 Clouds 17 1007 72 10000 1.79 309 08:42 27.12.2021
4675 Clouds 17 1006 72 10000 2.24 342 08:42 27.12.2021
4676 Clouds 16 1006 75 10000 2.68 300 07:34 27.12.2021
4677 Clouds 14 1009 84 10000 1.79 234 02:29 27.12.2021
4678 Clouds 13 1011 84 10000 0.45 277 00:57 27.12.2021
4679 Clouds 12 1011 82 10000 1.03 0 23:43 26.12.2021
4680 Clouds 12 1011 78 10000 4.93 237 23:19 26.12.2021
4681 Clouds 13 1011 76 10000 1.54 160 21:33 26.12.2021
4682 Clouds 14 1011 70 10000 2.06 210 19:55 26.12.2021
4683 Clouds 14 1010 71 10000 0.89 306 18:39 26.12.2021
4684 Clouds 15 1010 70 10000 0.45 306 18:19 26.12.2021
4685 Clouds 18 1009 59 10000 0.89 23 15:38 26.12.2021
4686 Clouds 18 1009 62 10000 1.34 39 13:49 26.12.2021
4687 Clouds 18 1009 66 10000 1.34 47 13:31 26.12.2021
4688 Clouds 18 1009 75 10000 0.89 50 12:35 26.12.2021
4689 Clouds 17 1009 87 10000 0.45 211 11:20 26.12.2021
4690 Mist 13 1009 93 5000 0.89 320 09:31 26.12.2021
4691 Fog 13 1007 92 5000 1.54 10 08:45 26.12.2021
4692 Clouds 13 1007 92 8000 1.03 0 08:26 26.12.2021
4693 Clouds 14 1007 88 10000 3.09 210 02:19 26.12.2021
4694 Clouds 14 1007 87 10000 0.45 11 00:40 26.12.2021
4695 Clouds 15 1008 87 10000 0.89 251 23:37 25.12.2021
4696 Clouds 14 1008 87 10000 0.89 229 22:39 25.12.2021
4697 Clouds 15 1008 86 10000 1.34 245 22:20 25.12.2021
4698 Clouds 15 1008 86 10000 0.89 234 20:27 25.12.2021
4699 Clouds 15 1008 84 10000 0.45 201 19:19 25.12.2021
4700 Clouds 15 1008 83 10000 0.45 174 18:39 25.12.2021
4701 Clouds 17 1007 71 10000 0.89 112 16:51 25.12.2021
4702 Clouds 17 1008 81 10000 3.13 209 15:48 25.12.2021
4703 Clouds 18 1007 71 10000 1.34 236 14:24 25.12.2021
4704 Clouds 18 1008 67 10000 2.24 230 12:42 25.12.2021
4705 Clouds 17 1009 68 7000 1.34 272 11:21 25.12.2021
4706 Clouds 16 1009 81 10000 1.34 253 09:49 25.12.2021
4707 Clouds 14 1007 91 9000 3.09 230 07:51 25.12.2021
4708 Clouds 14 1009 90 8000 2.57 220 01:45 25.12.2021
4709 Clouds 14 1009 90 7000 0 0 00:27 25.12.2021
4710 Clouds 14 1010 89 7000 1.03 0 22:28 24.12.2021
4711 Clouds 15 1011 88 9000 2.06 180 19:37 24.12.2021
4712 Clouds 15 1011 88 9000 2.06 180 19:19 24.12.2021
4713 Clouds 16 1012 83 9000 0.45 219 16:50 24.12.2021
4714 Clouds 17 1012 82 10000 1.34 204 15:54 24.12.2021
4715 Clouds 17 1012 82 10000 0.89 208 15:34 24.12.2021
4716 Clouds 17 1012 81 10000 1.34 215 14:46 24.12.2021
4717 Clouds 17 1013 82 10000 1.34 211 14:22 24.12.2021
4718 Clouds 16 1014 83 10000 0.89 224 13:37 24.12.2021
4719 Clouds 16 1015 82 10000 1.34 216 12:48 24.12.2021
4720 Clouds 16 1016 85 10000 0.89 222 11:52 24.12.2021
4721 Clouds 16 1016 84 10000 0.89 258 11:26 24.12.2021
4722 Clouds 15 1016 86 10000 0.89 207 10:46 24.12.2021
4723 Clouds 15 1015 86 10000 0.45 231 09:33 24.12.2021
4724 Clouds 14 1015 90 9000 1.34 229 08:23 24.12.2021
4725 Clouds 14 1015 88 9000 1.34 210 07:47 24.12.2021
4726 Clouds 13 1018 85 9000 0.51 0 02:52 24.12.2021
4727 Clouds 14 1019 81 7000 0 0 23:56 23.12.2021
4728 Clouds 14 1020 82 7000 0 0 23:22 23.12.2021
4729 Clouds 14 1020 79 7000 0 0 22:37 23.12.2021
4730 Clouds 14 1020 79 7000 0 0 22:19 23.12.2021
4731 Clouds 14 1020 78 7000 0.45 292 20:59 23.12.2021
4732 Clouds 15 1020 75 7000 0.89 198 20:19 23.12.2021
4733 Clouds 15 1020 85 7000 0.45 236 18:37 23.12.2021
4734 Clouds 15 1019 84 7000 0.89 258 17:57 23.12.2021
4735 Clouds 15 1020 83 7000 0.89 197 16:47 23.12.2021
4736 Clouds 15 1020 83 7000 0.45 188 16:24 23.12.2021
4737 Clouds 15 1019 83 7000 0.89 181 15:31 23.12.2021
4738 Clouds 15 1019 83 7000 0.89 181 15:31 23.12.2021
4739 Clouds 15 1020 83 7000 0.89 199 14:54 23.12.2021
4740 Clouds 15 1020 82 7000 0.89 231 14:36 23.12.2021
4741 Clouds 15 1021 81 7000 0.89 226 13:19 23.12.2021
4742 Clouds 13 1022 89 7000 0.45 68 10:53 23.12.2021
4743 Clouds 13 1021 89 7000 0.51 0 09:47 23.12.2021
4744 Clouds 12 1021 89 7000 1.03 0 09:19 23.12.2021
4745 Clouds 12 1020 89 7000 1.54 20 06:59 23.12.2021
4746 Clouds 12 1021 87 10000 1.54 70 04:35 23.12.2021
4747 Clouds 13 1022 84 10000 2.06 60 23:33 22.12.2021
4748 Clouds 13 1022 83 10000 2.06 50 22:48 22.12.2021
4749 Clouds 13 1022 82 10000 2.57 70 21:57 22.12.2021
4750 Clouds 13 1022 83 10000 0.45 53 21:29 22.12.2021
4751 Clouds 13 1021 83 10000 2.57 60 20:51 22.12.2021
4752 Clouds 14 1021 81 10000 0.45 23 20:33 22.12.2021
4753 Clouds 14 1021 81 10000 0.45 33 19:35 22.12.2021
4754 Clouds 14 1021 80 10000 0.89 14 18:18 22.12.2021
4755 Clouds 14 1021 81 10000 0.89 95 17:35 22.12.2021
4756 Clouds 14 1020 80 10000 0.45 52 15:46 22.12.2021
4757 Clouds 14 1019 82 8000 0.89 72 13:46 22.12.2021
4758 Clouds 14 1020 85 8000 0.45 126 12:44 22.12.2021
4759 Clouds 13 1020 88 6000 2.06 330 10:48 22.12.2021
4760 Clouds 12 1019 90 6000 1.54 60 09:40 22.12.2021
4761 Clouds 11 1019 89 6000 0.45 63 07:48 22.12.2021
4762 Fog 10 1018 89 1000 1.54 80 05:51 22.12.2021
4763 Fog 10 1018 89 1500 1.34 69 05:28 22.12.2021
4764 Clouds 9 1019 88 8000 0.45 33 04:55 22.12.2021
4765 Fog 9 1019 90 8000 0.89 355 04:31 22.12.2021
4766 Fog 10 1019 91 400 1.34 344 03:34 22.12.2021
4767 Clouds 11 1019 89 10000 0.45 5 01:37 22.12.2021
4768 Clouds 12 1020 89 10000 1.34 360 23:47 21.12.2021
4769 Fog 12 1019 91 7000 1.34 346 22:29 21.12.2021
4770 Clouds 12 1020 91 9000 0.89 331 21:53 21.12.2021
4771 Clouds 12 1019 91 9000 0.89 331 21:26 21.12.2021
4772 Clouds 12 1019 89 9000 0.89 11 20:24 21.12.2021
4773 Clouds 13 1019 88 9000 2.06 70 19:52 21.12.2021
4774 Clouds 13 1019 87 10000 0.45 19 19:31 21.12.2021
4775 Clouds 15 1018 84 10000 0.45 31 18:23 21.12.2021
4776 Clouds 15 1018 83 10000 0.45 193 17:52 21.12.2021
4777 Clouds 17 1018 78 10000 0.45 269 16:47 21.12.2021
4778 Clouds 17 1019 86 10000 2.68 189 15:33 21.12.2021
4779 Clouds 18 1019 78 10000 1.34 205 13:55 21.12.2021
4780 Clouds 18 1019 78 10000 0.89 192 13:36 21.12.2021
4781 Clouds 17 1020 81 10000 0.45 196 12:25 21.12.2021
4782 Clouds 13 1019 91 10000 1.03 0 10:38 21.12.2021
4783 Clouds 12 1019 91 10000 0.51 10 09:41 21.12.2021
4784 Clouds 11 1019 89 10000 1.03 0 08:39 21.12.2021
4785 Clouds 11 1018 89 10000 1.03 10 07:42 21.12.2021
4786 Clouds 11 1019 89 10000 0 0 07:19 21.12.2021
4787 Clouds 9 1020 90 10000 1.34 56 03:24 21.12.2021
4788 Clouds 9 1020 89 10000 0.89 315 01:19 21.12.2021
4789 Clouds 9 1020 87 10000 0.45 360 23:54 20.12.2021
4790 Clouds 10 1021 86 10000 0.89 341 22:35 20.12.2021
4791 Clouds 10 1021 85 10000 0.89 5 21:48 20.12.2021
4792 Clouds 10 1021 85 10000 0.45 337 21:24 20.12.2021
4793 Clouds 11 1021 83 10000 0.45 335 20:51 20.12.2021
4794 Clouds 11 1021 83 10000 0.45 319 20:19 20.12.2021
4795 Clouds 12 1020 79 10000 0.45 337 19:36 20.12.2021
4796 Clouds 12 1020 79 10000 0.51 0 19:18 20.12.2021
4797 Clouds 12 1020 77 10000 0.45 337 18:30 20.12.2021
4798 Clouds 13 1020 75 10000 1.34 213 17:49 20.12.2021
4799 Clouds 15 1020 67 10000 0.89 267 16:45 20.12.2021
4800 Clouds 16 1020 66 10000 0.89 268 15:55 20.12.2021
4801 Clouds 16 1020 66 10000 0.89 311 15:31 20.12.2021
4802 Clouds 16 1021 68 10000 1.34 271 13:31 20.12.2021
4803 Clouds 14 1022 76 10000 0.45 229 11:48 20.12.2021
4804 Clouds 11 1022 87 10000 0.45 158 10:36 20.12.2021
4805 Clouds 5 1022 90 10000 1.54 70 09:39 20.12.2021
4806 Clouds 3 1022 94 10000 1.03 30 08:49 20.12.2021
4807 Clouds 3 1022 94 10000 0 0 08:31 20.12.2021
4808 Clouds 4 1022 89 10000 1.03 80 07:32 20.12.2021
4809 Clouds 5 1022 91 10000 1.03 30 06:39 20.12.2021
4810 Clouds 7 1025 88 10000 1.34 360 00:20 20.12.2021
4811 Clouds 8 1023 80 10000 0.45 22 22:56 19.12.2021
4812 Clouds 8 1023 81 10000 0.45 22 22:24 19.12.2021
4813 Clouds 9 1024 79 10000 1.34 334 21:32 19.12.2021
4814 Clouds 10 1023 74 10000 0.89 351 20:42 19.12.2021
4815 Clouds 10 1023 74 10000 0.45 315 20:23 19.12.2021
4816 Clouds 11 1023 69 10000 1.03 0 19:41 19.12.2021
4817 Clouds 13 1023 68 10000 0.89 337 18:37 19.12.2021
4818 Clouds 13 1023 65 10000 0.45 337 17:53 19.12.2021
4819 Clouds 14 1024 62 10000 0.45 337 17:28 19.12.2021
4820 Clouds 15 1024 58 10000 0.89 227 16:27 19.12.2021
4821 Clouds 15 1024 57 10000 0.45 360 15:52 19.12.2021
4822 Clouds 15 1024 57 10000 0.45 337 15:24 19.12.2021
4823 Clouds 15 1025 57 10000 0.89 288 14:45 19.12.2021
4824 Clouds 15 1026 59 10000 0.89 90 13:27 19.12.2021
4825 Clouds 15 1026 63 10000 0.45 149 12:52 19.12.2021
4826 Clouds 14 1028 73 10000 1.54 80 12:29 19.12.2021
4827 Clouds 14 1027 71 10000 0.45 68 11:37 19.12.2021
4828 Clouds 13 1028 77 10000 0.45 68 10:49 19.12.2021
4829 Clouds 12 1027 81 10000 0.89 336 10:22 19.12.2021
4830 Clouds 10 1026 79 10000 0.45 45 08:46 19.12.2021
4831 Clouds 10 1026 82 10000 0.45 68 06:45 19.12.2021
4832 Clouds 9 1029 83 10000 1.03 0 01:51 19.12.2021
4833 Clouds 9 1030 83 10000 1.34 346 00:54 19.12.2021
4834 Clouds 9 1029 81 10000 1.34 332 22:59 18.12.2021
4835 Clouds 9 1029 80 10000 0.89 338 22:24 18.12.2021
4836 Clouds 9 1029 80 10000 0.45 313 21:44 18.12.2021
4837 Clouds 9 1029 80 10000 0.45 22 21:22 18.12.2021
4838 Clear 11 1028 75 10000 0.45 60 20:26 18.12.2021
4839 Clouds 11 1028 78 10000 0.45 29 19:38 18.12.2021
4840 Clouds 12 1028 73 10000 0.89 56 18:25 18.12.2021
4841 Clouds 13 1028 68 10000 0.89 84 17:49 18.12.2021
4842 Clouds 15 1028 63 10000 0.89 118 16:48 18.12.2021
4843 Clouds 15 1028 61 10000 0.45 51 16:20 18.12.2021
4844 Clouds 15 1028 66 10000 1.79 36 14:54 18.12.2021
4845 Clouds 16 1028 62 10000 0.89 98 13:58 18.12.2021
4846 Clouds 15 1029 71 10000 0.89 101 11:57 18.12.2021
4847 Clouds 15 1029 71 10000 0.89 101 11:57 18.12.2021
4848 Clouds 9 1028 89 10000 1.34 351 09:59 18.12.2021
4849 Clouds 8 1028 88 10000 0.89 323 09:32 18.12.2021
4850 Clouds 8 1027 87 10000 1.54 20 08:36 18.12.2021
4851 Clouds 7 1026 87 9000 2.06 40 07:24 18.12.2021
4852 Clouds 8 1028 81 10000 1.34 328 01:46 18.12.2021
4853 Clouds 9 1028 77 10000 0.45 46 23:51 17.12.2021
4854 Clear 11 1028 72 10000 0.45 68 22:51 17.12.2021
4855 Clear 11 1028 70 10000 0.89 51 21:49 17.12.2021
4856 Clear 12 1028 67 10000 0.89 53 20:44 17.12.2021
4857 Clouds 13 1028 70 10000 1.34 51 19:57 17.12.2021
4858 Clouds 13 1027 70 10000 1.34 93 18:40 17.12.2021
4859 Clouds 13 1027 70 10000 1.34 76 18:18 17.12.2021
4860 Clouds 14 1027 68 10000 0.89 56 16:57 17.12.2021
4861 Clouds 14 1027 66 10000 0.89 60 16:28 17.12.2021
4862 Clouds 14 1027 67 10000 1.34 52 15:51 17.12.2021
4863 Clouds 14 1028 67 10000 0.45 45 14:43 17.12.2021
4864 Clouds 13 1028 70 10000 1.34 55 13:55 17.12.2021
4865 Clouds 13 1028 73 10000 0.45 68 12:37 17.12.2021
4866 Fog 11 1029 83 10000 0.89 43 10:42 17.12.2021
4867 Fog 9 1029 88 10000 0.89 105 09:47 17.12.2021
4868 Clouds 7 1028 89 10000 1.34 68 08:43 17.12.2021
4869 Clouds 7 1028 90 10000 0.45 68 08:18 17.12.2021
4870 Clear 8 1028 87 10000 0.89 355 04:57 17.12.2021
4871 Clouds 9 1029 90 10000 0.89 62 00:57 17.12.2021
4872 Clouds 8 1028 89 10000 0.89 338 22:44 16.12.2021
4873 Clouds 9 1027 86 10000 0.45 34 22:22 16.12.2021
4874 Clouds 9 1027 83 10000 0.45 90 21:43 16.12.2021
4875 Clouds 10 1028 83 10000 2.06 30 20:42 16.12.2021
4876 Clouds 11 1028 83 10000 0.45 68 20:21 16.12.2021
4877 Clouds 11 1028 83 10000 0.45 68 20:21 16.12.2021
4878 Clouds 12 1028 80 10000 1.03 80 19:30 16.12.2021
4879 Clouds 12 1028 78 10000 0.45 292 18:33 16.12.2021
4880 Clouds 13 1027 75 10000 1.54 70 17:46 16.12.2021
4881 Clouds 15 1027 70 10000 0.45 117 16:24 16.12.2021
4882 Clouds 15 1028 76 10000 0.89 78 15:38 16.12.2021
4883 Clouds 16 1027 68 10000 1.34 239 13:45 16.12.2021
4884 Clouds 15 1029 78 10000 0.89 188 11:56 16.12.2021
4885 Clouds 14 1029 83 10000 0.89 90 11:18 16.12.2021
4886 Clouds 12 1028 90 10000 0.45 68 10:39 16.12.2021
4887 Clouds 6 1029 93 10000 1.03 50 09:43 16.12.2021
4888 Clouds 4 1028 100 10000 1.54 10 06:23 16.12.2021
4889 Clouds 7 1027 89 10000 0.89 68 04:33 16.12.2021
4890 Clouds 8 1027 86 10000 1.34 355 23:47 15.12.2021
4891 Clouds 9 1027 85 10000 1.34 355 22:50 15.12.2021
4892 Clouds 9 1027 83 10000 0.45 1 22:21 15.12.2021
4893 Clouds 10 1027 82 10000 0.89 341 21:31 15.12.2021
4894 Clouds 10 1026 79 10000 0.45 60 20:51 15.12.2021
4895 Clouds 11 1026 80 10000 1.34 56 19:53 15.12.2021
4896 Clouds 12 1026 75 10000 0.89 118 19:18 15.12.2021
4897 Clouds 12 1026 76 10000 0.89 54 18:19 15.12.2021
4898 Clouds 13 1025 75 10000 0.89 144 17:45 15.12.2021
4899 Clouds 13 1025 73 10000 0.89 108 17:21 15.12.2021
4900 Clouds 15 1024 69 10000 1.34 236 15:49 15.12.2021
4901 Clouds 15 1025 75 10000 0.89 90 15:30 15.12.2021
4902 Clouds 15 1025 76 10000 1.34 74 14:59 15.12.2021
4903 Clouds 15 1026 76 10000 1.34 55 13:45 15.12.2021
4904 Clouds 15 1026 76 10000 0.89 90 11:52 15.12.2021
4905 Clouds 10 1026 91 10000 0.45 68 10:22 15.12.2021
4906 Fog 5 1025 96 10000 1.54 60 08:26 15.12.2021
4907 Clouds 6 1023 86 10000 0.45 68 05:53 15.12.2021
4908 Clear 9 1025 87 10000 0.45 68 00:39 15.12.2021
4909 Clouds 8 1025 87 10000 1.34 5 23:31 14.12.2021
4910 Clouds 9 1025 86 10000 0.45 68 22:44 14.12.2021
4911 Clouds 9 1025 86 10000 1.34 343 21:43 14.12.2021
4912 Clear 10 1025 84 10000 1.34 343 21:43 14.12.2021
4913 Clouds 10 1025 83 10000 1.34 347 20:23 14.12.2021
4914 Clouds 11 1025 81 10000 0.89 343 19:37 14.12.2021
4915 Clouds 12 1025 76 10000 0.45 68 18:39 14.12.2021
4916 Clouds 13 1025 73 10000 0.89 286 17:56 14.12.2021
4917 Clouds 15 1024 69 10000 3.09 220 16:47 14.12.2021
4918 Clouds 16 1026 77 10000 0.89 138 16:29 14.12.2021
4919 Clouds 17 1025 68 10000 1.34 198 14:32 14.12.2021
4920 Clouds 16 1026 71 10000 1.79 232 12:58 14.12.2021
4921 Clouds 16 1027 72 10000 0.45 228 11:51 14.12.2021
4922 Clouds 14 1027 79 10000 0 0 11:22 14.12.2021
4923 Fog 8 1027 99 10000 0 0 09:55 14.12.2021
4924 Fog 8 1028 90 10000 1.34 344 09:19 14.12.2021
4925 Fog 4 1026 95 10000 1.03 0 08:22 14.12.2021
4926 Clear 5 1026 94 7000 0.51 0 07:39 14.12.2021
4927 Clouds 8 1028 91 10000 0.89 341 00:35 14.12.2021
4928 Clear 9 1026 85 10000 1.34 339 22:33 13.12.2021
4929 Clouds 10 1026 86 10000 1.34 360 21:49 13.12.2021
4930 Clouds 10 1026 85 10000 0.45 340 20:58 13.12.2021
4931 Clouds 11 1026 84 10000 0.51 70 20:29 13.12.2021
4932 Clouds 12 1026 81 10000 0.45 337 19:51 13.12.2021
4933 Clouds 14 1025 75 10000 1.34 237 17:55 13.12.2021
4934 Clouds 15 1025 71 10000 0.89 249 17:19 13.12.2021
4935 Clouds 16 1026 75 10000 3.58 229 15:49 13.12.2021
4936 Clouds 17 1026 75 10000 2.68 223 15:18 13.12.2021
4937 Clouds 17 1026 74 10000 1.34 212 13:38 13.12.2021
4938 Clouds 16 1026 77 10000 0.89 172 12:42 13.12.2021
4939 Clouds 15 1027 79 10000 0.89 204 11:54 13.12.2021
4940 Clouds 15 1027 80 10000 1.34 226 11:35 13.12.2021
4941 Clouds 13 1027 87 10000 0.45 234 10:41 13.12.2021
4942 Fog 6 1027 90 400 0.51 0 08:52 13.12.2021
4943 Fog 6 1027 94 500 0 0 07:37 13.12.2021
4944 Fog 6 1026 94 200 0.51 60 05:34 13.12.2021
4945 Clouds 8 1028 92 10000 1.79 348 00:43 13.12.2021
4946 Clouds 10 1027 85 10000 0.45 1 21:59 12.12.2021
4947 Clouds 10 1027 85 10000 1.03 0 21:33 12.12.2021
4948 Clouds 12 1026 81 10000 0.89 1 19:40 12.12.2021
4949 Clouds 13 1025 75 10000 0.89 338 18:35 12.12.2021
4950 Clouds 16 1025 68 10000 0.89 267 16:58 12.12.2021
4951 Clouds 16 1026 74 10000 1.34 208 16:27 12.12.2021
4952 Clouds 16 1026 72 10000 1.79 200 15:41 12.12.2021
4953 Clouds 17 1026 72 10000 1.79 192 15:22 12.12.2021
4954 Clouds 16 1027 70 10000 2.68 167 14:30 12.12.2021
4955 Clouds 16 1027 70 10000 2.68 167 14:30 12.12.2021
4956 Clouds 17 1025 61 10000 1.34 194 12:57 12.12.2021
4957 Clouds 16 1026 60 10000 1.34 183 12:27 12.12.2021
4958 Clouds 16 1026 61 10000 0.89 190 11:44 12.12.2021
4959 Clouds 15 1026 63 10000 1.34 183 11:20 12.12.2021
4960 Clouds 12 1025 81 10000 0 0 10:22 12.12.2021
4961 Clouds 5 1025 94 10000 0.51 0 08:54 12.12.2021
4962 Clouds 5 1025 93 10000 1.54 80 07:31 12.12.2021
4963 Clouds 7 1022 86 10000 1.03 0 05:57 12.12.2021
4964 Clouds 7 1023 87 10000 1.34 342 04:55 12.12.2021
4965 Clouds 8 1023 87 10000 1.34 344 02:58 12.12.2021
4966 Clouds 9 1022 80 9000 1.34 360 23:39 11.12.2021
4967 Clouds 9 1021 82 10000 0.89 347 22:22 11.12.2021
4968 Clouds 9 1021 82 10000 0.45 1 21:51 11.12.2021
4969 Clouds 10 1021 80 10000 1.34 57 20:29 11.12.2021
4970 Clouds 11 1019 75 10000 0.89 14 19:21 11.12.2021
4971 Clouds 12 1019 73 10000 0.45 23 18:52 11.12.2021
4972 Clouds 13 1017 66 10000 0.89 23 18:19 11.12.2021
4973 Clouds 14 1018 63 10000 0.45 23 17:20 11.12.2021
4974 Clouds 15 1019 68 10000 2.24 230 15:53 11.12.2021
4975 Clouds 15 1018 61 10000 1.34 231 15:27 11.12.2021
4976 Clouds 14 1019 65 10000 0.89 134 12:50 11.12.2021
4977 Clouds 14 1019 65 10000 0.89 134 12:50 11.12.2021
4978 Clouds 13 1019 72 10000 0.45 38 11:25 11.12.2021
4979 Clouds 12 1015 72 10000 0.45 45 09:45 11.12.2021
4980 Clouds 12 1014 72 10000 1.54 60 08:23 11.12.2021
4981 Clouds 14 1011 52 10000 2.24 332 02:23 11.12.2021
4982 Clouds 15 1011 49 10000 4.02 77 23:58 10.12.2021
4983 Clouds 15 1011 49 10000 3.13 64 23:20 10.12.2021
4984 Clouds 16 1008 42 10000 4.92 347 21:56 10.12.2021
4985 Clouds 16 1008 41 10000 7.15 1 21:28 10.12.2021
4986 Clouds 17 1008 41 10000 5.36 285 19:21 10.12.2021
4987 Clouds 17 1008 48 10000 3.13 349 18:19 10.12.2021
4988 Clouds 17 1007 52 10000 2.68 349 16:56 10.12.2021
4989 Clouds 18 1006 53 10000 2.68 288 16:28 10.12.2021
4990 Clouds 18 1005 51 10000 3.58 4 15:41 10.12.2021
4991 Clouds 18 1006 51 10000 3.58 341 15:21 10.12.2021
4992 Clouds 18 1006 49 10000 4.92 307 13:52 10.12.2021
4993 Clouds 19 1005 51 10000 4.02 310 13:26 10.12.2021
4994 Clouds 18 1010 64 10000 4.92 290 12:39 10.12.2021
4995 Clouds 18 1007 56 10000 2.68 305 11:29 10.12.2021
4996 Clouds 17 1006 57 10000 1.79 290 10:37 10.12.2021
4997 Clouds 16 1006 60 10000 1.34 270 08:58 10.12.2021
4998 Clouds 16 1006 62 10000 1.79 226 06:56 10.12.2021
4999 Clouds 16 1010 65 10000 1.34 226 02:48 10.12.2021
5000 Clouds 16 1011 68 10000 1.79 262 00:55 10.12.2021
5001 Clouds 15 1012 65 10000 1.79 271 23:23 09.12.2021
5002 Clouds 16 1010 54 10000 1.34 295 22:32 09.12.2021
5003 Clouds 15 1010 57 10000 1.34 268 21:59 09.12.2021
5004 Clouds 15 1012 61 10000 1.34 267 21:20 09.12.2021
5005 Clouds 14 1012 62 10000 0.89 257 20:29 09.12.2021
5006 Clouds 14 1012 56 10000 0.89 234 19:22 09.12.2021
5007 Clouds 14 1013 55 10000 0.89 204 18:50 09.12.2021
5008 Clouds 14 1013 54 10000 1.34 252 17:57 09.12.2021
5009 Clouds 14 1012 51 10000 1.34 295 17:27 09.12.2021
5010 Clouds 14 1012 50 10000 2.24 264 16:57 09.12.2021
5011 Clouds 14 1012 50 10000 2.68 309 15:59 09.12.2021
5012 Clouds 14 1013 48 10000 2.24 353 14:52 09.12.2021
5013 Clouds 13 1013 48 10000 1.34 335 13:50 09.12.2021
5014 Clouds 13 1014 48 10000 2.68 352 12:47 09.12.2021
5015 Clouds 12 1015 52 10000 2.68 342 11:25 09.12.2021
5016 Clouds 12 1015 52 10000 2.24 359 10:19 09.12.2021
5017 Clouds 11 1011 53 10000 2.68 305 06:51 09.12.2021
5018 Clouds 11 1010 46 10000 3.13 307 03:49 09.12.2021
5019 Clouds 12 1011 41 10000 2.68 27 00:24 09.12.2021
5020 Clouds 12 1011 41 10000 1.79 28 23:32 08.12.2021
5021 Clouds 13 1010 40 10000 2.24 13 22:56 08.12.2021
5022 Clouds 13 1010 37 10000 2.24 287 21:50 08.12.2021
5023 Clouds 13 1010 37 10000 2.68 323 21:31 08.12.2021
5024 Clouds 13 1010 38 10000 2.24 293 20:31 08.12.2021
5025 Clouds 13 1009 40 10000 1.79 30 19:55 08.12.2021
5026 Clouds 13 1008 40 10000 2.24 329 18:57 08.12.2021
5027 Clouds 13 1008 45 10000 2.24 320 18:22 08.12.2021
5028 Clouds 12 1007 60 10000 1.79 318 16:49 08.12.2021
5029 Rain 11 1009 69 10000 8.05 231 15:40 08.12.2021
5030 Rain 12 1009 70 10000 8.49 274 15:21 08.12.2021
5031 Clouds 16 1007 47 10000 1.79 328 13:21 08.12.2021
5032 Clouds 14 1008 64 10000 1.34 16 10:42 08.12.2021
5033 Clouds 13 1008 75 10000 0.89 52 09:32 08.12.2021
5034 Clouds 15 1006 69 10000 1.34 358 08:31 08.12.2021
5035 Clouds 16 1006 64 10000 2.68 286 05:37 08.12.2021
5036 Clouds 17 1009 62 10000 4.47 256 00:27 08.12.2021
5037 Clouds 16 1009 69 10000 4.02 274 23:22 07.12.2021
5038 Clouds 15 1011 84 10000 1.34 215 21:25 07.12.2021
5039 Clouds 15 1012 81 10000 0.89 190 20:25 07.12.2021
5040 Clouds 15 1013 80 10000 0.89 204 18:59 07.12.2021
5041 Clouds 15 1013 80 10000 0.89 220 18:23 07.12.2021
5042 Clouds 16 1014 75 10000 0.89 234 17:27 07.12.2021
5043 Clouds 16 1014 74 10000 0.89 257 16:53 07.12.2021
5044 Clouds 17 1015 70 10000 1.34 244 16:25 07.12.2021
5045 Clouds 18 1016 65 10000 1.34 214 14:38 07.12.2021
5046 Clear 18 1017 61 10000 1.79 230 13:40 07.12.2021
5047 Clear 18 1018 53 10000 1.34 212 12:22 07.12.2021
5048 Clear 18 1019 49 10000 0.89 202 11:19 07.12.2021
5049 Clear 14 1018 57 10000 0.89 53 09:36 07.12.2021
5050 Clouds 14 1018 52 10000 0.45 188 07:35 07.12.2021
5051 Clouds 15 1016 58 10000 2.24 15 05:52 07.12.2021
5052 Clouds 15 1019 66 10000 1.34 31 05:26 07.12.2021
5053 Clouds 7 1020 87 10000 1.03 100 23:36 06.12.2021
5054 Clouds 10 1021 81 10000 0.89 304 22:41 06.12.2021
5055 Clouds 11 1020 71 10000 0.51 290 21:59 06.12.2021
5056 Clouds 12 1020 67 10000 0.45 112 21:31 06.12.2021
5057 Clouds 12 1020 64 10000 0.89 346 20:32 06.12.2021
5058 Clouds 12 1020 63 10000 0.89 339 19:24 06.12.2021
5059 Clouds 12 1020 61 10000 0.89 25 18:42 06.12.2021
5060 Clouds 13 1019 57 10000 0.45 158 17:54 06.12.2021
5061 Clouds 13 1019 57 10000 0.89 257 17:33 06.12.2021
5062 Clouds 14 1019 63 10000 3.58 312 15:52 06.12.2021
5063 Clouds 14 1018 54 10000 2.24 8 14:40 06.12.2021
5064 Clouds 14 1018 53 10000 2.24 28 13:35 06.12.2021
5065 Clouds 14 1018 54 10000 1.79 35 12:38 06.12.2021
5066 Clouds 12 1018 57 10000 1.34 244 10:28 06.12.2021
5067 Clouds 11 1015 56 10000 1.79 4 07:41 06.12.2021
5068 Clouds 10 1015 62 10000 1.34 338 03:52 06.12.2021
5069 Clouds 12 1013 52 10000 3.13 14 22:28 05.12.2021
5070 Clouds 12 1013 52 10000 3.13 14 22:28 05.12.2021
5071 Clouds 12 1013 51 10000 2.68 59 21:26 05.12.2021
5072 Clouds 12 1013 52 10000 2.68 335 20:58 05.12.2021
5073 Clouds 12 1013 53 10000 2.68 27 20:18 05.12.2021
5074 Clouds 12 1012 52 10000 2.68 357 19:26 05.12.2021
5075 Clouds 12 1011 51 10000 3.13 17 18:36 05.12.2021
5076 Clouds 12 1011 51 10000 2.68 35 17:53 05.12.2021
5077 Clouds 13 1010 50 10000 2.68 318 17:34 05.12.2021
5078 Clouds 13 1010 49 10000 4.02 321 16:38 05.12.2021
5079 Clouds 13 1010 50 10000 3.13 333 16:19 05.12.2021
5080 Clouds 14 1008 45 10000 4.02 1 14:48 05.12.2021
5081 Clouds 15 1009 43 10000 4.02 359 14:30 05.12.2021
5082 Clouds 15 1010 42 10000 3.58 21 13:37 05.12.2021
5083 Clouds 15 1010 45 10000 4.47 303 12:47 05.12.2021
5084 Clouds 15 1010 44 10000 4.47 307 12:29 05.12.2021
5085 Clouds 15 1011 44 10000 2.68 293 11:47 05.12.2021
5086 Clouds 15 1012 45 10000 3.58 295 10:51 05.12.2021
5087 Clouds 15 1012 48 10000 2.68 339 09:52 05.12.2021
5088 Clouds 13 1011 55 10000 1.34 316 07:33 05.12.2021
5089 Clouds 15 1014 58 10000 0.89 7 02:25 05.12.2021
5090 Clouds 15 1015 66 10000 0.89 275 23:27 04.12.2021
5091 Clouds 15 1014 60 10000 0.45 337 21:53 04.12.2021
5092 Clouds 16 1014 59 10000 1.34 283 20:47 04.12.2021
5093 Clouds 15 1014 64 10000 2.24 280 19:54 04.12.2021
5094 Clouds 15 1014 64 10000 1.34 238 19:31 04.12.2021
5095 Clear 14 1014 63 10000 0.89 266 17:58 04.12.2021
5096 Clear 15 1014 59 10000 1.34 282 17:37 04.12.2021
5097 Clouds 17 1013 56 10000 0.89 264 16:48 04.12.2021
5098 Clouds 17 1014 56 10000 1.34 270 16:30 04.12.2021
5099 Clouds 17 1014 56 10000 1.34 270 16:30 04.12.2021
5100 Clouds 17 1014 60 10000 1.79 291 15:18 04.12.2021
5101 Clouds 17 1017 60 10000 1.79 227 11:47 04.12.2021
5102 Clouds 17 1017 59 10000 1.79 237 11:29 04.12.2021
5103 Clouds 16 1018 65 10000 1.79 249 10:43 04.12.2021
5104 Clouds 6 1019 93 10000 1.03 0 08:46 04.12.2021
5105 Clouds 9 1016 82 10000 1.54 80 06:24 04.12.2021
5106 Clouds 7 1019 87 10000 0.51 350 04:41 04.12.2021
5107 Clouds 12 1020 66 10000 0.89 297 23:49 03.12.2021
5108 Clouds 12 1020 64 10000 0.89 258 22:57 03.12.2021
5109 Clouds 12 1020 63 10000 0.89 1 22:38 03.12.2021
5110 Clouds 12 1019 65 10000 1.34 303 21:25 03.12.2021
5111 Clouds 12 1019 67 10000 0.89 284 20:48 03.12.2021
5112 Clouds 10 1019 70 10000 0.45 234 19:50 03.12.2021
5113 Clouds 11 1018 63 10000 0.89 270 18:34 03.12.2021
5114 Clouds 11 1018 60 10000 0.89 337 17:59 03.12.2021
5115 Clouds 14 1019 56 10000 2.24 186 15:36 03.12.2021
5116 Clouds 14 1016 45 10000 1.79 56 12:54 03.12.2021
5117 Clouds 13 1018 63 10000 0.51 0 11:39 03.12.2021
5118 Clouds 13 1016 61 10000 1.34 32 10:55 03.12.2021
5119 Clouds 9 1013 78 10000 0.45 305 08:26 03.12.2021
5120 Clouds 8 1012 83 10000 0.45 292 07:42 03.12.2021
5121 Clouds 6 1011 85 10000 0.45 329 04:35 03.12.2021
5122 Clouds 6 1011 85 10000 0.89 304 00:48 03.12.2021
5123 Clouds 6 1013 91 10000 4.02 59 23:47 02.12.2021
5124 Clouds 8 1010 89 10000 2.24 62 22:24 02.12.2021
5125 Clouds 8 1009 88 10000 0.89 55 21:35 02.12.2021
5126 Clouds 8 1008 89 10000 0.45 292 20:40 02.12.2021
5127 Clouds 9 1008 86 10000 0.45 337 19:57 02.12.2021
5128 Clouds 10 1007 85 10000 0.45 53 18:34 02.12.2021
5129 Clouds 11 1006 84 10000 0.89 1 16:33 02.12.2021
5130 Clouds 11 1006 79 10000 0.89 36 15:30 02.12.2021
5131 Clouds 12 1005 75 10000 1.79 60 14:51 02.12.2021
5132 Clouds 13 1005 65 10000 1.34 42 12:53 02.12.2021
5133 Clouds 13 1005 64 10000 0.89 3 12:19 02.12.2021
5134 Clouds 13 1005 63 10000 1.34 31 10:41 02.12.2021
5135 Clouds 12 1004 62 10000 0.89 353 09:25 02.12.2021
5136 Clouds 11 1003 72 10000 0.89 352 06:45 02.12.2021
5137 Clouds 13 1007 76 10000 1.34 16 00:57 02.12.2021
5138 Clouds 13 1008 77 10000 1.34 291 23:30 01.12.2021
5139 Clouds 14 1010 76 10000 6.17 250 22:25 01.12.2021
5140 Clouds 13 1010 74 10000 0.45 274 21:42 01.12.2021
5141 Clouds 14 1011 70 10000 1.34 287 20:18 01.12.2021
5142 Clouds 14 1011 65 10000 1.34 255 19:37 01.12.2021
5143 Clouds 14 1012 62 10000 0.89 249 17:50 01.12.2021
5144 Clouds 15 1013 60 10000 1.34 250 16:59 01.12.2021
5145 Clouds 17 1014 58 10000 1.79 257 15:47 01.12.2021
5146 Clouds 17 1015 60 10000 2.24 260 14:30 01.12.2021
5147 Clouds 17 1016 63 10000 2.24 247 13:36 01.12.2021
5148 Clouds 14 1018 80 10000 1.34 254 10:44 01.12.2021
5149 Clouds 13 1018 83 10000 1.34 235 10:20 01.12.2021
5150 Clouds 6 1020 93 10000 0.51 0 08:51 01.12.2021
5151 Clouds 7 1020 94 10000 1.03 60 07:56 01.12.2021
5152 Clouds 6 1021 93 10000 2.06 40 07:27 01.12.2021
5153 Clouds 9 1024 95 10000 0.45 351 03:53 01.12.2021
5154 Clouds 9 1024 94 10000 0.45 355 03:19 01.12.2021
5155 Clouds 10 1026 91 10000 1.34 355 00:20 01.12.2021
5156 Clouds 10 1026 91 10000 1.34 355 00:20 01.12.2021
5157 Clouds 10 1025 84 10000 0.45 337 23:28 30.11.2021
5158 Clouds 11 1025 82 10000 0.45 292 22:31 30.11.2021
5159 Clouds 12 1025 77 10000 0.89 333 20:47 30.11.2021
5160 Clouds 12 1025 78 10000 0.89 323 20:24 30.11.2021
5161 Clouds 13 1025 74 10000 0.45 278 19:39 30.11.2021
5162 Clouds 13 1025 70 10000 0.45 292 18:53 30.11.2021
5163 Clouds 14 1025 66 10000 0.89 266 17:45 30.11.2021
5164 Clouds 15 1026 68 10000 1.34 282 15:57 30.11.2021
5165 Clouds 15 1026 58 10000 0.45 275 14:34 30.11.2021
5166 Clouds 15 1026 59 10000 0.45 246 13:41 30.11.2021
5167 Clouds 15 1025 58 10000 0.89 174 12:54 30.11.2021
5168 Clouds 15 1025 61 10000 0.45 128 11:59 30.11.2021
5169 Clouds 14 1025 64 10000 0.89 75 11:25 30.11.2021
5170 Clouds 12 1025 73 10000 0.45 46 10:36 30.11.2021
5171 Clouds 9 1023 80 10000 0.45 45 08:57 30.11.2021
5172 Clouds 9 1023 80 10000 2.57 40 08:32 30.11.2021
5173 Clouds 8 1022 79 10000 0.45 23 07:56 30.11.2021
5174 Clouds 8 1021 79 10000 2.57 60 06:37 30.11.2021
5175 Clouds 10 1019 76 10000 1.34 81 01:50 30.11.2021
5176 Clouds 9 1019 79 10000 0.89 139 01:27 30.11.2021
5177 Clouds 10 1018 76 10000 0.45 355 23:40 29.11.2021
5178 Clouds 10 1018 76 10000 0.89 277 23:19 29.11.2021
5179 Clouds 9 1018 78 10000 1.34 54 22:38 29.11.2021
5180 Clouds 10 1017 75 10000 0.45 270 21:56 29.11.2021
5181 Clouds 10 1017 72 10000 0.45 45 21:20 29.11.2021
5182 Clouds 11 1017 69 10000 0.45 360 20:48 29.11.2021
5183 Clouds 11 1016 68 10000 0.45 360 19:59 29.11.2021
5184 Clouds 12 1016 65 10000 0.45 328 19:41 29.11.2021
5185 Clouds 11 1015 65 10000 2.06 90 18:59 29.11.2021
5186 Clouds 11 1017 69 10000 1.34 352 18:41 29.11.2021
5187 Clouds 12 1015 68 10000 3.45 316 17:22 29.11.2021
5188 Clouds 12 1015 68 10000 3.44 316 16:50 29.11.2021
5189 Clear 13 1014 63 10000 4.41 308 16:24 29.11.2021
5190 Clear 13 1014 60 10000 4.76 302 14:47 29.11.2021
5191 Clouds 13 1014 59 10000 5.54 310 14:23 29.11.2021
5192 Clear 13 1013 55 10000 5.54 292 12:59 29.11.2021
5193 Clear 13 1013 52 10000 5.6 302 12:20 29.11.2021
5194 Clear 13 1013 52 10000 5.42 317 11:30 29.11.2021
5195 Clouds 12 1011 54 10000 4.12 300 09:59 29.11.2021
5196 Clouds 12 1009 62 10000 3.09 280 07:47 29.11.2021
5197 Clouds 12 1007 66 10000 8.75 320 05:52 29.11.2021
5198 Clouds 11 1007 71 10000 5.14 280 01:30 29.11.2021
5199 Clouds 12 1007 58 10000 7.2 310 23:59 28.11.2021
5200 Clouds 12 1008 54 10000 8.23 300 23:40 28.11.2021
5201 Clouds 12 1007 54 10000 12.35 320 22:20 28.11.2021
5202 Clouds 12 1007 50 10000 10.29 310 21:39 28.11.2021
5203 Clouds 12 1007 50 10000 8.75 320 20:44 28.11.2021
5204 Clouds 12 1007 50 10000 9.26 310 19:53 28.11.2021
5205 Clouds 13 1007 47 10000 10.29 310 18:40 28.11.2021
5206 Clouds 13 1007 47 10000 10.29 310 18:22 28.11.2021
5207 Clouds 12 1006 47 10000 10.8 310 17:46 28.11.2021
5208 Clouds 12 1006 47 10000 10.8 310 17:18 28.11.2021
5209 Clouds 13 1006 44 10000 5.66 310 16:28 28.11.2021
5210 Clouds 12 1007 47 10000 9.26 310 15:51 28.11.2021
5211 Clouds 12 1006 54 10000 7.2 310 14:56 28.11.2021
5212 Clouds 13 1007 50 10000 6.17 310 14:29 28.11.2021
5213 Clouds 13 1007 58 10000 10.8 330 12:55 28.11.2021
5214 Clouds 12 1007 62 10000 7.2 320 11:56 28.11.2021
5215 Clouds 12 1006 58 10000 7.2 330 10:37 28.11.2021
5216 Clouds 12 1006 58 10000 7.2 330 10:18 28.11.2021
5217 Clouds 10 1006 71 10000 5.66 320 09:36 28.11.2021
5218 Clouds 10 1006 71 10000 5.66 320 09:36 28.11.2021
5219 Clouds 10 1004 71 10000 2.57 300 05:50 28.11.2021
5220 Clouds 11 1002 66 10000 4.63 310 23:23 27.11.2021
5221 Clouds 10 1001 76 10000 2.57 290 20:33 27.11.2021
5222 Drizzle 11 1001 76 7000 5.14 330 18:47 27.11.2021
5223 Clouds 13 999 71 10000 4.63 330 16:31 27.11.2021
5224 Clouds 13 999 71 10000 2.57 340 15:32 27.11.2021
5225 Clouds 16 999 55 10000 6.69 270 13:46 27.11.2021
5226 Clouds 16 1000 59 10000 9.26 250 12:29 27.11.2021
5227 Clouds 13 1001 67 10000 4.12 290 10:31 27.11.2021
5228 Clouds 13 1001 62 10000 3.6 290 09:41 27.11.2021
5229 Clouds 11 1001 66 10000 1.03 0 07:44 27.11.2021
5230 Clouds 6 1002 100 10000 1.03 270 04:56 27.11.2021
5231 Clouds 10 1004 76 10000 1.03 0 00:55 27.11.2021
5232 Clouds 12 1004 66 10000 3.6 330 23:29 26.11.2021
5233 Clouds 8 1005 93 10000 0.51 210 22:25 26.11.2021
5234 Clouds 8 1005 93 10000 1.03 0 21:35 26.11.2021
5235 Clouds 9 1005 87 10000 1.03 0 20:46 26.11.2021
5236 Clouds 10 1005 81 10000 2.57 330 20:18 26.11.2021
5237 Clouds 10 1005 81 10000 1.03 0 19:47 26.11.2021
5238 Clouds 13 1004 67 10000 3.6 290 17:57 26.11.2021
5239 Clouds 14 1004 62 10000 3.6 270 17:22 26.11.2021
5240 Clouds 15 1004 58 10000 3.6 280 15:57 26.11.2021
5241 Clouds 15 1003 57 10000 1.34 267 13:36 26.11.2021
5242 Clouds 15 1004 57 10000 1.34 299 12:34 26.11.2021
5243 Clouds 13 1006 75 10000 0.45 111 10:38 26.11.2021
5244 Clouds 10 1005 84 10000 0.51 0 08:59 26.11.2021
5245 Clouds 10 1004 84 10000 0.45 232 08:21 26.11.2021
5246 Clouds 8 1004 87 10000 2.06 70 07:29 26.11.2021
5247 Clouds 9 1006 90 10000 0 0 06:27 26.11.2021
5248 Clouds 9 1004 90 10000 1.03 0 04:51 26.11.2021
5249 Clouds 10 1005 87 10000 0.45 112 03:25 26.11.2021
5250 Clouds 10 1005 83 10000 0.89 313 23:27 25.11.2021
5251 Clouds 11 1004 79 10000 0.45 266 21:48 25.11.2021
5252 Rain 12 1004 71 10000 0.89 27 20:37 25.11.2021
5253 Clouds 12 1002 73 10000 0.89 255 18:48 25.11.2021
5254 Clouds 12 1001 69 10000 0.45 337 17:48 25.11.2021
5255 Clouds 13 1001 68 10000 0.89 90 17:26 25.11.2021
5256 Clouds 13 1001 65 10000 0.45 111 16:34 25.11.2021
5257 Clouds 14 1000 62 10000 0.89 300 15:49 25.11.2021
5258 Clouds 14 1003 79 10000 1.79 270 14:19 25.11.2021
5259 Clouds 12 1001 77 10000 0.89 281 12:47 25.11.2021
5260 Clouds 11 1002 83 10000 1.34 67 11:52 25.11.2021
5261 Thunderstorm 9 1004 85 8000 2.06 120 09:56 25.11.2021
5262 Clouds 10 1001 63 10000 0.45 314 06:22 25.11.2021
5263 Clouds 13 1004 57 10000 1.34 246 02:52 25.11.2021
5264 Clouds 12 1006 64 10000 1.34 229 23:39 24.11.2021
5265 Clouds 10 1007 71 10000 0.45 292 22:28 24.11.2021
5266 Clouds 11 1007 70 10000 2.68 250 21:44 24.11.2021
5267 Clouds 11 1007 71 10000 0.89 243 20:56 24.11.2021
5268 Clouds 11 1007 71 10000 1.34 231 20:26 24.11.2021
5269 Clouds 12 1008 70 10000 1.34 286 18:37 24.11.2021
5270 Clouds 12 1008 70 10000 0.89 292 18:18 24.11.2021
5271 Clouds 14 1008 64 10000 1.34 243 16:19 24.11.2021
5272 Clouds 16 1008 60 10000 2.24 249 14:56 24.11.2021
5273 Clouds 16 1008 63 10000 2.24 234 14:20 24.11.2021
5274 Clouds 16 1008 61 10000 3.13 234 12:51 24.11.2021
5275 Clouds 15 1009 81 10000 1.79 265 11:22 24.11.2021
5276 Clouds 13 1009 87 8000 0.45 204 10:50 24.11.2021
5277 Rain 13 1009 86 4000 0.89 208 10:27 24.11.2021
5278 Clouds 12 1009 89 10000 0.89 57 07:59 24.11.2021
5279 Clouds 12 1009 89 7000 1.34 92 06:59 24.11.2021
5280 Clouds 12 1011 91 10000 1.34 31 03:59 24.11.2021
5281 Clouds 11 1010 91 10000 0.89 50 01:30 24.11.2021
5282 Clouds 11 1013 94 10000 2.06 50 23:30 23.11.2021
5283 Clouds 11 1010 89 10000 0.89 353 22:34 23.11.2021
5284 Clouds 12 1010 89 10000 0.45 45 21:45 23.11.2021
5285 Clouds 12 1009 87 6000 3.6 340 20:21 23.11.2021
5286 Clouds 13 1008 89 9000 0.45 95 19:20 23.11.2021
5287 Clouds 13 1008 90 4000 0.89 68 18:29 23.11.2021
5288 Rain 14 1008 88 9000 0.45 1 17:23 23.11.2021
5289 Clouds 14 1009 89 9000 0.45 1 16:35 23.11.2021
5290 Clouds 14 1009 88 8000 0.89 153 15:25 23.11.2021
5291 Rain 15 1009 90 9000 0.89 176 14:39 23.11.2021
5292 Rain 14 1010 89 4000 0.45 144 12:50 23.11.2021
5293 Thunderstorm 14 1011 89 10000 0.45 45 10:26 23.11.2021
5294 Rain 14 1011 89 10000 0.89 68 09:45 23.11.2021
5295 Clouds 13 1011 89 10000 1.34 64 07:51 23.11.2021
5296 Clouds 13 1012 91 10000 0.45 27 04:38 23.11.2021
5297 Rain 14 1012 90 10000 0.45 10 03:29 23.11.2021
5298 Clouds 14 1012 85 10000 0.45 46 23:35 22.11.2021
5299 Clouds 14 1012 84 10000 0.89 23 22:57 22.11.2021
5300 Clouds 14 1012 84 10000 0.89 45 22:30 22.11.2021
5301 Clouds 14 1012 84 10000 0.45 45 22:30 22.11.2021
5302 Clouds 14 1012 83 10000 0.45 45 21:44 22.11.2021
5303 Clouds 14 1012 83 10000 1.34 45 21:18 22.11.2021
5304 Clouds 14 1012 82 10000 0.89 68 20:26 22.11.2021
5305 Clouds 13 1011 80 10000 0.89 48 19:20 22.11.2021
5306 Clouds 14 1009 77 10000 0.89 68 18:40 22.11.2021
5307 Rain 15 1009 76 10000 1.34 60 17:46 22.11.2021
5308 Clouds 16 1008 69 10000 0.45 23 16:30 22.11.2021
5309 Clouds 19 1008 55 10000 1.34 218 14:41 22.11.2021
5310 Clouds 18 1008 60 10000 0.89 208 12:48 22.11.2021
5311 Clouds 18 1009 65 10000 0.89 35 11:28 22.11.2021
5312 Clouds 16 1009 75 10000 0.45 63 10:19 22.11.2021
5313 Clouds 11 1008 89 10000 0.45 45 08:43 22.11.2021
5314 Clouds 10 1007 88 10000 0.45 45 07:33 22.11.2021
5315 Clouds 13 1009 80 10000 0.45 322 00:50 22.11.2021
5316 Clouds 14 1010 84 10000 0.89 1 23:19 21.11.2021
5317 Clouds 14 1010 85 10000 0.89 45 22:42 21.11.2021
5318 Clouds 14 1008 82 10000 0.89 352 20:44 21.11.2021
5319 Clouds 14 1008 82 10000 0.89 27 20:26 21.11.2021
5320 Clouds 15 1008 81 10000 0.89 23 18:53 21.11.2021
5321 Clouds 15 1010 79 10000 0.89 33 17:52 21.11.2021
5322 Clouds 16 1010 77 10000 0.45 1 17:29 21.11.2021
5323 Clouds 17 1008 74 10000 1.34 339 14:50 21.11.2021
5324 Clouds 18 1008 69 10000 1.34 37 14:31 21.11.2021
5325 Clouds 18 1010 72 10000 1.03 0 12:58 21.11.2021
5326 Clouds 17 1010 79 10000 0.45 112 12:20 21.11.2021
5327 Clouds 17 1011 84 10000 0.45 45 11:37 21.11.2021
5328 Clouds 15 1011 90 10000 0.45 337 10:19 21.11.2021
5329 Clouds 14 1011 90 10000 0.45 337 09:45 21.11.2021
5330 Clouds 14 1012 90 10000 1.03 0 08:32 21.11.2021
5331 Clouds 14 1012 90 10000 0.45 337 07:52 21.11.2021
5332 Rain 14 1012 89 10000 1.54 310 06:28 21.11.2021
5333 Clouds 14 1013 91 10000 0.45 23 05:41 21.11.2021
5334 Rain 15 1015 90 10000 0.45 22 03:22 21.11.2021
5335 Clouds 15 1015 90 10000 0.45 45 02:55 21.11.2021
5336 Clouds 15 1016 89 10000 0.45 23 02:18 21.11.2021
5337 Clouds 15 1017 89 10000 0.89 68 00:43 21.11.2021
5338 Clouds 16 1018 87 10000 0.89 54 22:35 20.11.2021
5339 Clouds 16 1019 86 10000 0.89 45 21:33 20.11.2021
5340 Clouds 16 1019 85 10000 0.89 46 20:32 20.11.2021
5341 Clouds 16 1020 82 10000 0.89 63 18:45 20.11.2021
5342 Clouds 16 1020 81 10000 0.45 45 18:24 20.11.2021
5343 Clouds 17 1020 79 10000 0.89 63 17:22 20.11.2021
5344 Clouds 18 1021 75 10000 0.45 195 15:40 20.11.2021
5345 Clouds 18 1021 77 10000 0.45 36 14:39 20.11.2021
5346 Clouds 18 1021 77 10000 0.45 51 14:20 20.11.2021
5347 Clouds 18 1024 80 10000 0.89 68 11:56 20.11.2021
5348 Clouds 17 1023 84 10000 1.34 22 09:59 20.11.2021
5349 Clouds 14 1023 90 10000 0.89 45 08:48 20.11.2021
5350 Clouds 12 1023 89 10000 0.45 314 06:58 20.11.2021
5351 Clouds 12 1024 90 10000 1.34 346 05:24 20.11.2021
5352 Clouds 12 1025 88 10000 0.45 314 04:50 20.11.2021
5353 Clouds 12 1026 89 10000 0.45 45 01:34 20.11.2021
5354 Clouds 12 1027 88 10000 0.89 342 00:37 20.11.2021
5355 Clouds 12 1027 88 10000 1.34 61 22:55 19.11.2021
5356 Clouds 12 1027 87 10000 0.45 45 21:44 19.11.2021
5357 Clouds 13 1027 84 10000 0.45 46 20:54 19.11.2021
5358 Clouds 13 1027 84 10000 0.45 45 20:36 19.11.2021
5359 Clouds 14 1027 83 10000 0.89 45 19:49 19.11.2021
5360 Clouds 15 1027 78 10000 0.45 23 18:51 19.11.2021
5361 Clouds 15 1027 76 10000 0.45 47 18:19 19.11.2021
5362 Clouds 17 1027 69 10000 1.34 72 16:47 19.11.2021
5363 Clouds 19 1027 63 10000 0.89 61 15:31 19.11.2021
5364 Clouds 18 1029 71 10000 3.13 22 13:24 19.11.2021
5365 Clouds 17 1027 71 10000 0.89 73 10:27 19.11.2021
5366 Clouds 14 1026 83 10000 0.89 22 09:33 19.11.2021
5367 Clouds 11 1025 84 10000 3.09 70 07:34 19.11.2021
5368 Clouds 10 1029 88 10000 0.89 308 04:28 19.11.2021
5369 Clouds 10 1027 80 10000 0.45 292 02:26 19.11.2021
5370 Clouds 11 1026 76 10000 0.45 23 23:51 18.11.2021
5371 Clouds 11 1025 77 10000 1.34 47 21:50 18.11.2021
5372 Clouds 11 1025 76 10000 1.34 40 20:48 18.11.2021
5373 Clouds 11 1025 74 10000 0.45 68 20:30 18.11.2021
5374 Clouds 12 1025 73 10000 0.89 112 19:44 18.11.2021
5375 Clouds 13 1024 70 10000 1.34 42 18:55 18.11.2021
5376 Clouds 13 1023 69 10000 1.34 46 18:28 18.11.2021
5377 Clouds 14 1023 67 10000 0.89 68 17:49 18.11.2021
5378 Clouds 15 1024 66 10000 1.34 37 16:44 18.11.2021
5379 Clouds 15 1023 63 10000 0.89 68 15:32 18.11.2021
5380 Clouds 15 1025 65 10000 1.34 25 13:31 18.11.2021
5381 Clouds 15 1025 64 10000 1.34 66 12:33 18.11.2021
5382 Clouds 16 1025 61 10000 1.34 67 11:42 18.11.2021
5383 Clouds 16 1025 60 10000 2.24 85 11:24 18.11.2021
5384 Clouds 14 1025 71 10000 0.89 22 09:37 18.11.2021
5385 Clouds 12 1024 74 10000 3.6 50 07:35 18.11.2021
5386 Clouds 12 1023 76 10000 7.2 60 05:55 18.11.2021
5387 Clouds 11 1022 73 10000 0.45 344 05:36 18.11.2021
5388 Clouds 13 1023 72 10000 0.45 45 01:24 18.11.2021
5389 Clouds 13 1023 81 10000 0.89 27 23:18 17.11.2021
5390 Clouds 12 1022 79 10000 0.45 68 22:21 17.11.2021
5391 Clouds 13 1022 80 10000 0.45 68 21:39 17.11.2021
5392 Clouds 13 1021 80 10000 0.45 270 20:58 17.11.2021
5393 Clouds 13 1020 76 10000 0.45 23 18:47 17.11.2021
5394 Clouds 14 1020 72 10000 1.34 128 17:28 17.11.2021
5395 Clouds 16 1019 67 10000 1.34 71 14:52 17.11.2021
5396 Clouds 17 1019 65 10000 1.34 94 12:42 17.11.2021
5397 Clouds 16 1020 74 10000 3.13 42 11:49 17.11.2021
5398 Clouds 16 1018 72 10000 0.89 90 10:49 17.11.2021
5399 Clouds 14 1018 81 10000 0.89 103 09:26 17.11.2021
5400 Clouds 13 1015 79 10000 1.79 53 07:45 17.11.2021
5401 Clouds 12 1016 85 10000 0.45 68 04:47 17.11.2021
5402 Clouds 13 1016 87 10000 0.45 337 02:42 17.11.2021
5403 Clouds 14 1015 86 10000 2.06 330 23:27 16.11.2021
5404 Clouds 14 1015 88 10000 0.45 68 21:48 16.11.2021
5405 Clouds 14 1014 89 10000 0.45 42 20:19 16.11.2021
5406 Clouds 14 1014 87 10000 0.89 57 18:56 16.11.2021
5407 Drizzle 15 1014 86 9000 0.89 41 18:36 16.11.2021
5408 Clouds 15 1014 86 10000 1.34 83 17:44 16.11.2021
5409 Clouds 15 1013 88 9000 0.89 25 16:59 16.11.2021
5410 Clouds 14 1014 89 9000 1.34 29 16:19 16.11.2021
5411 Rain 14 1014 90 7000 1.34 42 15:41 16.11.2021
5412 Drizzle 15 1015 82 9000 1.79 37 12:43 16.11.2021
5413 Clouds 14 1015 84 10000 0.89 353 10:22 16.11.2021
5414 Clouds 14 1015 83 10000 1.34 17 09:39 16.11.2021
5415 Clouds 13 1012 83 10000 1.34 60 07:41 16.11.2021
5416 Clouds 14 1012 80 10000 2.24 20 06:43 16.11.2021
5417 Rain 13 1015 79 10000 1.79 49 23:26 15.11.2021
5418 Clouds 14 1014 75 10000 1.34 32 22:41 15.11.2021
5419 Clouds 14 1014 75 10000 2.24 49 21:57 15.11.2021
5420 Clouds 13 1014 76 10000 2.24 33 21:31 15.11.2021
5421 Rain 13 1014 77 10000 2.68 49 20:35 15.11.2021
5422 Clouds 13 1014 79 10000 3.58 30 19:18 15.11.2021
5423 Clouds 13 1011 79 10000 2.24 32 17:33 15.11.2021
5424 Clouds 14 1010 74 10000 1.34 26 15:52 15.11.2021
5425 Clouds 14 1010 73 10000 1.34 44 15:33 15.11.2021
5426 Clouds 14 1012 71 10000 1.79 30 14:27 15.11.2021
5427 Clouds 15 1012 65 10000 1.34 58 12:37 15.11.2021
5428 Rain 12 1011 86 10000 0.45 81 09:59 15.11.2021
5429 Rain 11 1011 86 10000 1.54 30 09:19 15.11.2021
5430 Rain 12 1010 78 10000 1.34 57 07:23 15.11.2021
5431 Clouds 14 1014 90 10000 0.45 52 00:56 15.11.2021
5432 Clouds 14 1014 90 10000 1.79 335 22:44 14.11.2021
5433 Clouds 14 1014 90 10000 2.57 40 21:45 14.11.2021
5434 Clouds 14 1013 88 10000 0.45 22 19:22 14.11.2021
5435 Clouds 14 1013 86 10000 0.45 40 18:55 14.11.2021
5436 Clouds 15 1013 85 10000 0.89 51 18:36 14.11.2021
5437 Clouds 15 1013 83 10000 0.45 7 18:18 14.11.2021
5438 Clouds 15 1013 83 10000 0.51 60 17:58 14.11.2021
5439 Clouds 16 1013 82 10000 0.45 22 17:40 14.11.2021
5440 Clouds 16 1013 81 10000 0.45 43 17:22 14.11.2021
5441 Clouds 16 1012 80 10000 0.45 26 16:59 14.11.2021
5442 Clouds 17 1012 80 10000 0.51 0 16:40 14.11.2021
5443 Clouds 17 1012 80 10000 0.51 0 16:19 14.11.2021
5444 Clouds 16 1013 87 10000 1.54 170 15:20 14.11.2021
5445 Clouds 16 1013 88 10000 0.51 0 14:45 14.11.2021
5446 Clouds 15 1013 89 6000 0.45 286 14:22 14.11.2021
5447 Clouds 15 1013 89 10000 0.89 305 13:52 14.11.2021
5448 Clouds 15 1014 90 7000 1.79 309 13:27 14.11.2021
5449 Clouds 15 1015 90 5000 0.45 34 12:23 14.11.2021
5450 Clouds 15 1014 86 9000 1.34 68 11:28 14.11.2021
5451 Clouds 15 1014 85 10000 1.03 0 10:39 14.11.2021
5452 Clouds 14 1014 90 10000 0 0 09:41 14.11.2021
5453 Clouds 13 1014 88 10000 0.51 10 08:51 14.11.2021
5454 Clouds 13 1015 87 10000 0.45 68 04:47 14.11.2021
5455 Clouds 14 1016 88 10000 0.89 13 23:27 13.11.2021
5456 Clouds 14 1016 87 10000 2.57 40 22:21 13.11.2021
5457 Clouds 15 1015 85 10000 1.34 17 21:36 13.11.2021
5458 Clouds 15 1015 85 10000 2.24 13 20:59 13.11.2021
5459 Clouds 16 1015 83 10000 0.45 22 19:33 13.11.2021
5460 Clouds 16 1015 81 10000 0.89 15 18:32 13.11.2021
5461 Clouds 17 1015 77 10000 0.89 61 17:41 13.11.2021
5462 Clouds 18 1014 73 10000 1.34 43 16:30 13.11.2021
5463 Clouds 19 1014 67 10000 1.34 54 14:55 13.11.2021
5464 Clouds 20 1014 65 10000 0.89 3 14:18 13.11.2021
5465 Clouds 19 1016 74 10000 3.13 53 12:52 13.11.2021
5466 Clouds 20 1015 70 10000 0.89 136 11:58 13.11.2021
5467 Clouds 19 1016 80 10000 2.24 81 11:26 13.11.2021
5468 Clouds 19 1015 76 10000 0.89 10 10:43 13.11.2021
5469 Clouds 17 1015 81 10000 1.34 54 09:50 13.11.2021
5470 Clouds 17 1014 87 10000 2.06 70 09:32 13.11.2021
5471 Clouds 16 1014 88 10000 0.45 28 08:54 13.11.2021
5472 Clouds 15 1014 89 10000 0.89 65 08:20 13.11.2021
5473 Clouds 14 1013 87 10000 2.24 62 04:43 13.11.2021
5474 Clouds 14 1013 88 10000 0.45 74 04:23 13.11.2021
5475 Clouds 15 1014 75 10000 1.79 72 00:28 13.11.2021
5476 Clouds 15 1013 82 10000 0.45 61 22:43 12.11.2021
5477 Clouds 15 1013 80 10000 1.79 13 21:29 12.11.2021
5478 Clouds 16 1013 84 10000 0.45 69 19:45 12.11.2021
5479 Clouds 16 1012 84 10000 1.79 70 19:27 12.11.2021
5480 Clouds 16 1011 82 10000 1.79 13 18:21 12.11.2021
5481 Clouds 17 1011 81 10000 1.79 45 16:20 12.11.2021
5482 Clouds 17 1010 79 10000 1.79 45 15:31 12.11.2021
5483 Clouds 16 1012 88 6000 0.89 36 11:32 12.11.2021
5484 Clouds 16 1012 88 10000 1.34 45 10:50 12.11.2021
5485 Clouds 15 1011 87 10000 1.34 66 09:36 12.11.2021
5486 Clouds 15 1010 84 10000 3.6 60 08:38 12.11.2021
5487 Clouds 15 1012 90 10000 1.79 41 02:25 12.11.2021
5488 Rain 15 1012 90 4000 1.79 96 23:39 11.11.2021
5489 Rain 16 1011 90 6000 1.34 72 22:30 11.11.2021
5490 Rain 16 1011 91 4000 1.79 87 21:27 11.11.2021
5491 Clouds 16 1010 91 9000 1.34 68 20:40 11.11.2021
5492 Clouds 16 1009 91 4000 1.34 59 18:56 11.11.2021
5493 Rain 16 1008 91 6000 1.79 58 17:43 11.11.2021
5494 Rain 16 1008 89 6000 0.89 72 16:43 11.11.2021
5495 Rain 16 1007 91 6000 2.24 66 14:51 11.11.2021
5496 Rain 16 1007 91 6000 0.45 152 14:28 11.11.2021
5497 Rain 16 1007 91 6000 0.45 204 13:38 11.11.2021
5498 Rain 16 1007 91 5000 0.45 310 12:48 11.11.2021
5499 Clouds 17 1009 88 9000 1.34 214 10:40 11.11.2021
5500 Rain 16 1009 87 4000 0.45 295 09:36 11.11.2021
5501 Clouds 16 1008 85 10000 0.89 221 07:59 11.11.2021
5502 Rain 16 1009 86 10000 2.68 49 04:45 11.11.2021
5503 Clouds 15 1010 84 10000 1.79 23 23:45 10.11.2021
5504 Clouds 15 1011 81 10000 1.34 16 22:24 10.11.2021
5505 Clouds 14 1011 82 10000 0.89 26 21:31 10.11.2021
5506 Clouds 15 1011 82 10000 1.34 11 20:47 10.11.2021
5507 Clouds 14 1011 84 10000 1.34 27 19:47 10.11.2021
5508 Clouds 14 1011 84 10000 1.34 36 19:27 10.11.2021
5509 Clouds 15 1011 80 10000 0 0 16:38 10.11.2021
5510 Clouds 13 1011 94 8000 2.06 30 15:40 10.11.2021
5511 Rain 14 1011 80 8000 5.14 340 13:51 10.11.2021
5512 Rain 15 1011 80 8000 4.63 330 13:26 10.11.2021
5513 Rain 15 1009 86 6000 1.34 16 11:36 10.11.2021
5514 Clouds 16 1011 80 10000 0.45 23 08:51 10.11.2021
5515 Clouds 15 1010 78 10000 0.45 23 08:33 10.11.2021
5516 Clouds 15 1010 76 10000 1.34 49 06:40 10.11.2021
5517 Clouds 15 1010 72 10000 1.34 42 05:51 10.11.2021
5518 Clouds 15 1011 84 10000 1.34 60 01:24 10.11.2021
5519 Clouds 15 1010 86 10000 0.89 36 21:55 09.11.2021
5520 Rain 15 1010 88 4000 0.89 51 20:32 09.11.2021
5521 Rain 14 1010 88 4000 0.45 51 20:32 09.11.2021
5522 Rain 15 1010 86 4500 1.34 11 19:26 09.11.2021
5523 Drizzle 15 1010 83 5000 1.34 69 18:38 09.11.2021
5524 Clouds 15 1011 78 10000 2.24 60 16:26 09.11.2021
5525 Clouds 16 1012 69 10000 2.68 65 14:52 09.11.2021
5526 Clouds 16 1015 71 10000 7.15 12 13:21 09.11.2021
5527 Clouds 16 1016 70 10000 5.81 15 11:59 09.11.2021
5528 Clouds 16 1014 67 10000 1.79 15 10:46 09.11.2021
5529 Clouds 15 1014 68 10000 3.13 53 09:42 09.11.2021
5530 Clouds 14 1013 70 10000 1.34 28 08:37 09.11.2021
5531 Clouds 14 1012 71 10000 1.79 54 05:58 09.11.2021
5532 Clouds 13 1014 65 10000 0.89 360 02:28 09.11.2021
5533 Clouds 13 1014 64 10000 0.89 5 01:48 09.11.2021
5534 Clouds 14 1014 60 10000 2.24 15 00:19 09.11.2021
5535 Clouds 14 1014 64 10000 0.45 23 23:20 08.11.2021
5536 Clouds 13 1014 66 10000 0.89 309 22:34 08.11.2021
5537 Clouds 13 1014 66 10000 0.45 316 21:21 08.11.2021
5538 Clouds 13 1014 64 10000 0.89 326 20:31 08.11.2021
5539 Clouds 15 1013 56 10000 0.89 48 18:57 08.11.2021
5540 Clouds 17 1012 55 10000 0.89 121 17:23 08.11.2021
5541 Clouds 18 1014 58 10000 2.68 50 15:38 08.11.2021
5542 Clouds 18 1014 61 10000 3.13 33 14:55 08.11.2021
5543 Clouds 18 1015 59 10000 3.58 19 13:59 08.11.2021
5544 Clouds 19 1015 58 10000 0.89 355 12:44 08.11.2021
5545 Clouds 17 1013 63 10000 0.89 46 11:28 08.11.2021
5546 Clouds 15 1013 79 10000 0.45 337 10:18 08.11.2021
5547 Clouds 13 1014 82 10000 0.89 293 08:56 08.11.2021
5548 Rain 13 1012 77 10000 0.89 66 07:47 08.11.2021
5549 Clouds 13 1012 71 10000 0.45 68 06:54 08.11.2021
5550 Clouds 14 1013 68 10000 0.45 306 03:35 08.11.2021
5551 Clouds 14 1015 59 10000 0.45 90 23:51 07.11.2021
5552 Clouds 14 1015 54 10000 1.54 80 22:30 07.11.2021
5553 Clouds 14 1015 51 10000 2.06 280 21:22 07.11.2021
5554 Clouds 14 1015 47 10000 1.34 319 19:56 07.11.2021
5555 Clouds 15 1015 39 10000 0.45 319 18:28 07.11.2021
5556 Clouds 15 1014 35 10000 0.45 68 17:38 07.11.2021
5557 Clouds 17 1015 36 10000 1.34 76 16:21 07.11.2021
5558 Clouds 17 1015 37 10000 2.24 50 14:47 07.11.2021
5559 Clouds 18 1015 36 10000 2.24 44 14:24 07.11.2021
5560 Clouds 18 1016 33 10000 3.13 34 11:58 07.11.2021
5561 Clouds 17 1016 34 10000 2.24 49 11:18 07.11.2021
5562 Clouds 16 1016 43 10000 1.79 56 08:59 07.11.2021
5563 Clouds 14 1015 54 8000 2.68 44 02:53 07.11.2021
5564 Clouds 15 1016 54 8000 3.13 37 00:25 07.11.2021
5565 Clouds 15 1017 54 9000 2.68 35 22:55 06.11.2021
5566 Clouds 15 1016 57 9000 2.68 49 21:50 06.11.2021
5567 Clouds 15 1016 60 10000 2.68 58 20:56 06.11.2021
5568 Clouds 15 1016 60 10000 3.58 50 19:42 06.11.2021
5569 Clouds 15 1016 63 10000 3.13 59 17:31 06.11.2021
5570 Clouds 15 1015 63 10000 3.58 46 16:32 06.11.2021
5571 Clouds 15 1016 60 10000 3.58 63 13:39 06.11.2021
5572 Clouds 15 1017 58 10000 3.13 39 12:55 06.11.2021
5573 Clouds 15 1017 58 10000 4.92 71 10:35 06.11.2021
5574 Clouds 15 1016 59 10000 3.13 45 08:47 06.11.2021
5575 Clouds 14 1017 68 10000 2.68 45 04:50 06.11.2021
5576 Clouds 14 1018 60 10000 1.34 57 23:49 05.11.2021
5577 Clouds 14 1018 59 10000 1.34 67 23:28 05.11.2021
5578 Clouds 14 1017 60 10000 1.34 52 22:33 05.11.2021
5579 Clouds 14 1017 54 10000 0.89 58 20:32 05.11.2021
5580 Clouds 13 1017 55 10000 0.45 97 19:51 05.11.2021
5581 Clouds 14 1017 51 10000 0.89 57 18:51 05.11.2021
5582 Clouds 14 1016 51 10000 0.45 64 18:29 05.11.2021
5583 Clouds 15 1014 47 10000 2.24 58 16:45 05.11.2021
5584 Clouds 16 1014 42 10000 3.13 65 14:22 05.11.2021
5585 Clouds 16 1015 44 10000 3.13 48 12:27 05.11.2021
5586 Clouds 15 1015 58 10000 1.34 60 09:29 05.11.2021
5587 Clouds 11 1014 73 10000 3.09 50 08:31 05.11.2021
5588 Clouds 11 1013 80 10000 0.89 313 06:22 05.11.2021
5589 Rain 10 1014 86 10000 0.89 43 02:38 05.11.2021
5590 Rain 10 1014 86 10000 0.89 58 02:19 05.11.2021
5591 Rain 11 1014 80 10000 1.79 32 23:58 04.11.2021
5592 Rain 11 1012 76 10000 2.24 34 22:36 04.11.2021
5593 Rain 12 1012 73 10000 1.34 62 22:18 04.11.2021
5594 Clouds 12 1011 64 10000 0.89 14 21:28 04.11.2021
5595 Clouds 13 1010 60 10000 0.45 304 20:29 04.11.2021
5596 Clouds 14 1011 59 10000 0.89 1 19:49 04.11.2021
5597 Clouds 14 1010 59 10000 0.45 346 19:28 04.11.2021
5598 Clouds 14 1009 61 10000 1.34 61 18:29 04.11.2021
5599 Clouds 15 1009 55 10000 1.34 128 17:26 04.11.2021
5600 Clouds 17 1008 45 10000 1.34 17 16:23 04.11.2021
5601 Clouds 19 1010 42 10000 4.12 320 13:50 04.11.2021
5602 Clouds 17 1008 54 10000 1.79 58 10:48 04.11.2021
5603 Clouds 14 1007 63 10000 0.89 44 08:48 04.11.2021
5604 Clouds 13 1007 65 10000 0.89 302 08:25 04.11.2021
5605 Clouds 12 1006 67 10000 0.45 4 07:33 04.11.2021
5606 Clouds 13 1005 58 10000 0.45 248 23:23 03.11.2021
5607 Clouds 15 1007 52 10000 2.06 60 22:29 03.11.2021
5608 Clouds 15 1004 48 10000 0.89 279 21:37 03.11.2021
5609 Clouds 15 1003 47 10000 0.45 239 20:45 03.11.2021
5610 Clouds 15 1003 47 10000 0.45 314 20:26 03.11.2021
5611 Clouds 15 1003 47 10000 0.45 285 19:37 03.11.2021
5612 Clouds 16 1002 48 10000 0.89 359 18:27 03.11.2021
5613 Clouds 16 1001 48 10000 1.79 329 17:56 03.11.2021
5614 Clouds 17 1001 47 10000 0.89 347 16:49 03.11.2021
5615 Clouds 18 1000 53 10000 1.79 5 15:51 03.11.2021
5616 Clouds 17 1000 56 10000 1.79 334 15:30 03.11.2021
5617 Clouds 17 1000 56 10000 1.79 334 15:30 03.11.2021
5618 Clouds 16 1000 69 10000 1.34 60 13:43 03.11.2021
5619 Clouds 18 1001 70 10000 1.79 55 11:38 03.11.2021
5620 Clouds 17 1001 74 10000 1.34 64 10:51 03.11.2021
5621 Rain 17 1000 75 10000 0.89 314 09:48 03.11.2021
5622 Clouds 19 999 68 10000 0.89 319 08:58 03.11.2021
5623 Clouds 17 999 74 10000 1.34 297 08:20 03.11.2021
5624 Clouds 17 999 70 10000 5.66 270 07:38 03.11.2021
5625 Clouds 18 1000 58 10000 0.89 357 04:23 03.11.2021
5626 Clouds 19 1001 70 10000 1.34 293 01:32 03.11.2021
5627 Clouds 18 1003 66 10000 4.63 240 23:30 02.11.2021
5628 Clouds 19 1004 64 10000 3.09 230 22:20 02.11.2021
5629 Clouds 18 1004 62 10000 3.6 250 20:45 02.11.2021
5630 Clouds 18 1004 60 10000 0.45 248 20:21 02.11.2021
5631 Clouds 18 1004 58 10000 0.45 263 19:31 02.11.2021
5632 Clouds 18 1005 54 10000 0.89 282 18:36 02.11.2021
5633 Clouds 19 1005 55 10000 1.34 249 17:56 02.11.2021
5634 Clouds 20 1005 54 10000 1.34 265 17:31 02.11.2021
5635 Clouds 21 1006 48 10000 1.34 221 16:26 02.11.2021
5636 Clouds 22 1006 46 10000 2.24 252 14:57 02.11.2021
5637 Clouds 22 1010 55 10000 3.6 220 13:44 02.11.2021
5638 Clouds 21 1011 54 10000 3.09 230 13:25 02.11.2021
5639 Clouds 22 1009 44 10000 1.34 226 12:20 02.11.2021
5640 Clouds 22 1009 45 10000 1.34 63 11:27 02.11.2021
5641 Clouds 21 1009 47 10000 1.34 31 10:50 02.11.2021
5642 Clouds 20 1009 49 10000 1.79 57 10:23 02.11.2021
5643 Clouds 18 1009 59 10000 0.89 49 08:25 02.11.2021
5644 Clouds 17 1008 57 10000 0.45 109 06:32 02.11.2021
5645 Clouds 18 1007 64 10000 1.34 48 03:32 02.11.2021
5646 Clouds 17 1008 75 10000 0.45 22 00:55 02.11.2021
5647 Clouds 18 1008 71 10000 1.03 0 22:28 01.11.2021
5648 Clouds 17 1008 70 10000 0.45 22 20:50 01.11.2021
5649 Clouds 17 1008 68 10000 0 0 20:32 01.11.2021
5650 Clouds 18 1007 65 10000 0 0 19:44 01.11.2021
5651 Clouds 20 1007 58 10000 1.54 310 18:55 01.11.2021
5652 Clouds 20 1006 54 10000 0.89 106 17:59 01.11.2021
5653 Clouds 21 1007 51 10000 0.45 349 17:18 01.11.2021
5654 Clouds 23 1006 48 10000 1.34 353 16:34 01.11.2021
5655 Clouds 24 1006 44 10000 1.79 299 15:44 01.11.2021
5656 Clouds 24 1005 40 10000 2.24 26 15:19 01.11.2021
5657 Clouds 24 1008 62 10000 5.14 270 14:40 01.11.2021
5658 Clouds 24 1008 62 10000 5.14 270 14:19 01.11.2021
5659 Clouds 22 1006 61 10000 1.34 282 12:59 01.11.2021
5660 Clouds 21 1006 71 10000 0.89 36 11:40 01.11.2021
5661 Clouds 20 1005 78 10000 1.34 342 10:22 01.11.2021
5662 Drizzle 20 1004 83 8000 1.34 42 08:26 01.11.2021
5663 Rain 21 1003 78 10000 1.34 327 07:47 01.11.2021
5664 Clouds 24 1003 64 10000 3.13 242 03:58 01.11.2021
5665 Clouds 24 1004 63 10000 2.68 271 03:39 01.11.2021
5666 Clouds 24 1006 61 10000 2.24 313 23:58 31.10.2021
5667 Clouds 23 1006 76 10000 0.89 310 21:26 31.10.2021
5668 Clouds 22 1006 77 10000 0.45 178 20:24 31.10.2021
5669 Clouds 23 1006 69 10000 1.34 307 18:46 31.10.2021
5670 Clouds 23 1006 67 10000 0.45 293 18:23 31.10.2021
5671 Clouds 25 1009 69 10000 6.17 250 16:48 31.10.2021
5672 Clouds 25 1005 61 10000 1.79 286 15:18 31.10.2021
5673 Clouds 25 1009 67 10000 6.69 260 12:58 31.10.2021
5674 Clouds 24 1009 70 10000 7.2 260 12:25 31.10.2021
5675 Clouds 24 1008 74 10000 0.45 231 10:51 31.10.2021
5676 Rain 22 1008 78 10000 0.45 211 09:43 31.10.2021
5677 Rain 22 1008 79 10000 0.45 195 08:47 31.10.2021
5678 Rain 21 1007 78 10000 1.34 205 04:54 31.10.2021
5679 Clouds 20 1008 88 10000 0.45 65 00:36 31.10.2021
5680 Clouds 21 1008 83 10000 0.45 169 22:28 30.10.2021
5681 Clouds 21 1007 84 10000 3.6 230 21:30 30.10.2021
5682 Clouds 21 1007 83 10000 0.45 177 19:57 30.10.2021
5683 Clouds 22 1006 84 9000 1.79 253 17:51 30.10.2021
5684 Clouds 22 1009 90 9000 6.69 240 15:58 30.10.2021
5685 Clouds 21 1009 95 9000 7.2 230 14:23 30.10.2021
5686 Rain 20 1010 92 10000 6.69 220 13:38 30.10.2021
5687 Rain 21 1010 92 10000 6.69 220 13:20 30.10.2021
5688 Clouds 20 1010 95 9000 7.72 210 11:50 30.10.2021
5689 Rain 18 1010 92 9000 3.09 190 10:58 30.10.2021
5690 Rain 18 1011 92 9000 2.57 190 09:53 30.10.2021
5691 Rain 18 1011 91 10000 7.72 220 08:31 30.10.2021
5692 Rain 19 1011 85 10000 6.69 210 05:49 30.10.2021
5693 Clouds 20 1011 87 10000 4.12 210 04:54 30.10.2021
5694 Clouds 20 1013 77 10000 2.06 170 23:47 29.10.2021
5695 Clouds 20 1014 76 10000 1.54 170 22:35 29.10.2021
5696 Clouds 21 1014 75 10000 2.06 160 21:20 29.10.2021
5697 Clouds 21 1014 71 10000 2.06 190 20:34 29.10.2021
5698 Clouds 21 1013 69 10000 4.12 210 19:38 29.10.2021
5699 Clouds 21 1013 69 10000 5.14 210 18:23 29.10.2021
5700 Clouds 22 1013 64 10000 6.17 210 16:34 29.10.2021
5701 Clouds 22 1015 66 10000 4.12 220 13:34 29.10.2021
5702 Clouds 17 1016 84 10000 0.51 0 10:50 29.10.2021
5703 Clouds 17 1016 86 10000 0.51 0 10:31 29.10.2021
5704 Clouds 13 1014 88 10000 0.51 0 07:23 29.10.2021
5705 Clouds 13 1016 85 10000 1.54 50 00:35 29.10.2021
5706 Clouds 14 1016 82 10000 1.54 40 22:51 28.10.2021
5707 Clouds 16 1016 78 10000 2.06 50 21:32 28.10.2021
5708 Clouds 17 1016 72 10000 3.09 50 20:20 28.10.2021
5709 Clouds 19 1016 67 10000 0.51 240 19:23 28.10.2021
5710 Clouds 20 1016 59 10000 3.09 230 17:59 28.10.2021
5711 Clouds 21 1016 63 10000 2.06 280 16:57 28.10.2021
5712 Clouds 20 1017 68 10000 4.12 240 15:20 28.10.2021
5713 Rain 22 1019 60 10000 0.89 243 13:43 28.10.2021
5714 Clouds 21 1019 59 10000 0.89 243 13:20 28.10.2021
5715 Clouds 21 1019 60 10000 1.34 265 12:39 28.10.2021
5716 Clouds 17 1019 83 10000 2.24 5 10:51 28.10.2021
5717 Clouds 15 1019 85 10000 1.54 80 09:38 28.10.2021
5718 Clouds 14 1017 82 10000 1.03 0 08:37 28.10.2021
5719 Clouds 14 1018 82 10000 1.54 30 07:49 28.10.2021
5720 Rain 14 1019 82 10000 0.89 5 04:42 28.10.2021
5721 Clouds 14 1021 78 10000 1.79 340 23:38 27.10.2021
5722 Clouds 15 1021 76 10000 1.34 355 22:30 27.10.2021
5723 Clouds 16 1021 73 10000 0.45 5 21:33 27.10.2021
5724 Clouds 17 1021 73 10000 0.89 28 20:50 27.10.2021
5725 Clouds 18 1021 70 10000 0.45 30 19:57 27.10.2021
5726 Clouds 18 1021 69 10000 0.89 30 19:38 27.10.2021
5727 Clouds 19 1021 64 10000 2.24 44 18:39 27.10.2021
5728 Clouds 21 1021 57 10000 1.34 60 16:27 27.10.2021
5729 Clouds 22 1021 58 10000 0.89 16 15:30 27.10.2021
5730 Clouds 21 1022 61 10000 0.89 24 14:39 27.10.2021
5731 Clouds 19 1023 70 10000 1.03 0 11:28 27.10.2021
5732 Clouds 17 1023 76 10000 0.45 355 10:58 27.10.2021
5733 Clouds 14 1023 84 10000 0.45 355 09:45 27.10.2021
5734 Clouds 12 1022 86 10000 1.54 70 07:53 27.10.2021
5735 Clouds 11 1022 86 10000 0 0 06:53 27.10.2021
5736 Clear 14 1021 78 10000 1.34 355 02:24 27.10.2021
5737 Clear 15 1021 74 10000 0.45 68 00:56 27.10.2021
5738 Clear 15 1021 74 10000 0.45 68 00:26 27.10.2021
5739 Clear 15 1021 71 10000 0.45 68 23:41 26.10.2021
5740 Clear 16 1021 68 10000 0.45 333 22:37 26.10.2021
5741 Clear 16 1021 65 10000 1.34 355 21:59 26.10.2021
5742 Clouds 18 1021 62 10000 0.45 76 20:36 26.10.2021
5743 Clouds 19 1020 59 10000 0.89 149 19:26 26.10.2021
5744 Clouds 20 1020 52 10000 0.89 62 18:41 26.10.2021
5745 Clouds 22 1022 52 10000 5.36 46 16:28 26.10.2021
5746 Clouds 23 1020 41 10000 1.34 115 14:30 26.10.2021
5747 Clouds 21 1021 53 10000 2.24 116 11:34 26.10.2021
5748 Clouds 20 1021 66 10000 1.34 78 10:20 26.10.2021
5749 Clouds 17 1018 82 10000 0.45 46 07:25 26.10.2021
5750 Clouds 18 1019 82 10000 0.45 9 03:39 26.10.2021
5751 Clouds 19 1020 79 10000 0.89 23 23:50 25.10.2021
5752 Clouds 19 1019 77 10000 0.89 78 22:53 25.10.2021
5753 Clouds 19 1019 78 10000 0.89 37 22:18 25.10.2021
5754 Clouds 19 1019 80 10000 0.89 58 21:39 25.10.2021
5755 Clouds 20 1018 75 10000 1.34 89 19:53 25.10.2021
5756 Clouds 20 1018 74 10000 1.34 77 19:25 25.10.2021
5757 Clouds 21 1018 70 10000 0.89 113 18:54 25.10.2021
5758 Clouds 21 1018 67 10000 1.34 84 17:59 25.10.2021
5759 Clouds 23 1019 61 10000 4.12 230 16:18 25.10.2021
5760 Clouds 23 1021 66 10000 3.13 207 14:28 25.10.2021
5761 Clouds 22 1022 64 10000 0.45 323 12:29 25.10.2021
5762 Clouds 19 1022 74 10000 0.45 24 10:20 25.10.2021
5763 Clouds 14 1017 84 10000 1.54 40 08:34 25.10.2021
5764 Clouds 15 1018 83 10000 0.89 360 06:24 25.10.2021
5765 Clouds 17 1020 75 10000 1.34 32 00:58 25.10.2021
5766 Clouds 17 1019 75 10000 1.34 47 00:37 25.10.2021
5767 Clouds 17 1019 72 10000 0.89 7 23:47 24.10.2021
5768 Clouds 17 1019 74 10000 0.89 39 23:47 24.10.2021
5769 Clouds 18 1019 69 10000 0.89 292 22:44 24.10.2021
5770 Clouds 18 1019 69 10000 0.89 311 22:21 24.10.2021
5771 Clouds 18 1019 67 10000 1.34 323 21:57 24.10.2021
5772 Clouds 19 1019 65 10000 1.34 49 20:45 24.10.2021
5773 Clouds 19 1019 63 10000 1.34 42 20:23 24.10.2021
5774 Clouds 20 1017 53 10000 1.79 38 18:52 24.10.2021
5775 Clouds 21 1019 54 10000 2.24 32 17:57 24.10.2021
5776 Clouds 22 1019 52 10000 2.68 34 16:52 24.10.2021
5777 Clouds 22 1021 57 10000 5.81 355 15:37 24.10.2021
5778 Clouds 22 1022 60 10000 6.26 12 13:49 24.10.2021
5779 Clouds 21 1022 60 10000 6.26 337 12:41 24.10.2021
5780 Clouds 21 1022 65 10000 4.47 36 11:40 24.10.2021
5781 Clouds 18 1022 71 10000 4.92 19 10:43 24.10.2021
5782 Clouds 19 1019 65 10000 1.79 66 09:38 24.10.2021
5783 Clouds 14 1019 74 10000 0.45 37 05:35 24.10.2021
5784 Clouds 14 1020 69 10000 0.89 344 00:40 24.10.2021
5785 Clouds 15 1020 66 10000 0.45 304 23:24 23.10.2021
5786 Clouds 15 1020 56 10000 1.54 70 21:50 23.10.2021
5787 Clouds 18 1019 48 10000 1.34 57 19:47 23.10.2021
5788 Clouds 19 1018 48 10000 0.89 71 18:48 23.10.2021
5789 Clouds 19 1018 46 10000 1.34 38 18:21 23.10.2021
5790 Clouds 20 1020 50 10000 3.13 55 17:42 23.10.2021
5791 Clouds 21 1020 51 10000 1.34 78 16:20 23.10.2021
5792 Clouds 21 1021 54 10000 4.92 19 13:57 23.10.2021
5793 Clouds 19 1017 55 10000 1.34 78 03:32 23.10.2021
5794 Clouds 19 1017 66 10000 1.79 63 23:45 22.10.2021
5795 Rain 18 1017 66 10000 1.34 47 22:44 22.10.2021
5796 Drizzle 19 1016 66 10000 0.89 58 19:51 22.10.2021
5797 Clouds 19 1016 67 10000 1.79 81 18:40 22.10.2021
5798 Rain 19 1016 66 10000 1.79 79 17:36 22.10.2021
5799 Clouds 20 1016 61 10000 1.79 57 14:58 22.10.2021
5800 Clouds 20 1016 58 10000 2.68 7 13:35 22.10.2021
5801 Clouds 20 1016 66 10000 2.24 48 10:58 22.10.2021
5802 Clouds 19 1016 66 10000 1.34 143 10:38 22.10.2021
5803 Rain 19 1016 65 10000 0.89 70 09:41 22.10.2021
5804 Drizzle 19 1014 68 10000 0.89 98 08:30 22.10.2021
5805 Clouds 18 1013 70 10000 1.34 63 07:21 22.10.2021
5806 Rain 19 1015 77 10000 1.34 81 02:56 22.10.2021
5807 Clouds 20 1015 72 10000 0.89 94 23:54 21.10.2021
5808 Clouds 20 1015 72 10000 0.89 75 23:21 21.10.2021
5809 Clouds 21 1015 71 10000 0.89 73 21:39 21.10.2021
5810 Clouds 21 1015 72 10000 0.89 120 20:27 21.10.2021
5811 Clouds 22 1014 69 10000 1.34 124 19:57 21.10.2021
5812 Clouds 22 1014 68 10000 0.89 70 19:28 21.10.2021
5813 Clouds 22 1014 66 10000 1.34 71 18:43 21.10.2021
5814 Clouds 23 1014 63 10000 1.34 56 17:54 21.10.2021
5815 Clouds 24 1014 62 10000 0.89 103 17:32 21.10.2021
5816 Clouds 26 1014 56 10000 1.79 149 15:34 21.10.2021
5817 Clouds 25 1016 62 10000 4.02 39 14:57 21.10.2021
5818 Clouds 25 1017 60 10000 3.58 15 14:37 21.10.2021
5819 Clouds 25 1017 60 10000 3.58 15 14:37 21.10.2021
5820 Clouds 24 1018 62 10000 3.58 37 12:44 21.10.2021
5821 Clouds 18 1016 83 10000 1.03 0 09:56 21.10.2021
5822 Clear 15 1016 86 10000 1.03 0 08:21 21.10.2021
5823 Clear 15 1016 86 10000 0.51 80 07:23 21.10.2021
5824 Clear 16 1017 83 10000 1.34 336 00:58 21.10.2021
5825 Clear 17 1018 78 10000 0.45 68 23:25 20.10.2021
5826 Clear 18 1018 72 10000 0.45 35 21:51 20.10.2021
5827 Clear 19 1018 70 10000 0.45 146 21:28 20.10.2021
5828 Clear 20 1019 66 10000 0.45 292 20:46 20.10.2021
5829 Clear 20 1019 66 10000 0.45 292 20:26 20.10.2021
5830 Clear 21 1018 62 10000 0.89 242 19:32 20.10.2021
5831 Clear 22 1018 59 10000 1.79 239 18:53 20.10.2021
5832 Clear 24 1021 57 10000 4.47 205 17:40 20.10.2021
5833 Clear 24 1023 57 10000 2.68 245 15:26 20.10.2021
5834 Clouds 19 1026 74 10000 0.89 347 10:25 20.10.2021
5835 Clear 14 1021 86 10000 2.06 40 08:36 20.10.2021
5836 Clouds 16 1024 82 10000 0.45 22 02:47 20.10.2021
5837 Clouds 16 1025 77 10000 0.45 23 00:43 20.10.2021
5838 Clouds 17 1025 76 10000 0.45 23 23:45 19.10.2021
5839 Clouds 20 1025 66 10000 0.45 104 21:41 19.10.2021
5840 Clouds 20 1025 64 10000 0.89 184 20:48 19.10.2021
5841 Clouds 21 1025 64 10000 0.89 221 20:22 19.10.2021
5842 Clouds 22 1024 63 10000 1.34 234 19:40 19.10.2021
5843 Clouds 22 1023 59 10000 1.34 229 18:52 19.10.2021
5844 Clouds 23 1024 57 10000 1.79 234 17:58 19.10.2021
5845 Clouds 24 1028 61 10000 3.58 168 15:38 19.10.2021
5846 Clouds 24 1028 62 10000 4.02 233 15:19 19.10.2021
5847 Clouds 23 1028 64 10000 3.13 221 14:23 19.10.2021
5848 Clouds 23 1029 64 10000 0.45 188 12:38 19.10.2021
5849 Clouds 22 1029 71 10000 0.45 220 11:32 19.10.2021
5850 Clouds 21 1026 75 10000 0.89 74 10:19 19.10.2021
5851 Clouds 18 1024 86 10000 1.03 0 08:58 19.10.2021
5852 Clouds 17 1025 87 10000 0.45 23 06:34 19.10.2021
5853 Clouds 19 1024 84 10000 0.45 337 00:24 19.10.2021
5854 Clouds 20 1024 84 10000 0.45 88 23:49 18.10.2021
5855 Clouds 20 1024 84 10000 0.89 89 23:19 18.10.2021
5856 Clouds 20 1024 83 10000 0.89 25 22:53 18.10.2021
5857 Clouds 21 1023 80 10000 1.34 81 21:19 18.10.2021
5858 Clouds 21 1023 73 10000 0.89 30 20:41 18.10.2021
5859 Clouds 21 1023 71 10000 0.45 292 20:18 18.10.2021
5860 Clouds 22 1022 69 10000 0.89 270 19:30 18.10.2021
5861 Clouds 22 1022 67 10000 0.89 296 18:57 18.10.2021
5862 Clouds 24 1024 68 10000 5.36 214 15:45 18.10.2021
5863 Clouds 24 1024 63 10000 3.13 178 14:26 18.10.2021
5864 Clouds 22 1022 72 10000 0.89 49 10:43 18.10.2021
5865 Clear 18 1020 87 10000 0.89 68 09:31 18.10.2021
5866 Clear 16 1019 89 10000 1.34 350 05:32 18.10.2021
5867 Clouds 18 1019 82 10000 0.45 90 23:37 17.10.2021
5868 Clouds 19 1018 78 10000 0.45 1 21:58 17.10.2021
5869 Clouds 19 1018 77 10000 0.45 346 21:40 17.10.2021
5870 Clouds 19 1018 76 10000 1.34 84 20:40 17.10.2021
5871 Clouds 20 1017 74 10000 1.34 76 19:43 17.10.2021
5872 Clouds 21 1017 71 10000 0.89 100 19:24 17.10.2021
5873 Clouds 23 1019 67 10000 2.68 231 17:47 17.10.2021
5874 Clouds 24 1018 60 10000 2.68 205 15:54 17.10.2021
5875 Clouds 24 1019 59 10000 2.24 211 14:32 17.10.2021
5876 Clouds 24 1019 60 10000 1.79 225 13:56 17.10.2021
5877 Clouds 23 1020 61 10000 1.34 87 12:38 17.10.2021
5878 Clouds 22 1017 67 10000 0.45 90 10:45 17.10.2021
5879 Clouds 18 1017 79 10000 0.45 90 09:56 17.10.2021
5880 Clouds 15 1014 87 10000 1.34 90 07:42 17.10.2021
5881 Clouds 16 1015 83 10000 0.45 1 01:44 17.10.2021
5882 Clouds 17 1016 83 10000 1.34 5 00:27 17.10.2021
5883 Clouds 18 1016 79 10000 0.89 13 22:40 16.10.2021
5884 Clouds 20 1016 70 10000 0.89 336 20:36 16.10.2021
5885 Clouds 20 1015 71 10000 0.89 46 19:58 16.10.2021
5886 Clouds 21 1015 69 10000 1.34 40 19:39 16.10.2021
5887 Clouds 21 1015 68 10000 1.34 61 19:18 16.10.2021
5888 Clouds 22 1015 62 10000 1.34 59 18:43 16.10.2021
5889 Clouds 22 1017 67 10000 2.24 62 18:22 16.10.2021
5890 Clouds 23 1017 65 10000 2.68 225 17:30 16.10.2021
5891 Clouds 24 1017 65 10000 2.68 198 15:40 16.10.2021
5892 Rain 24 1018 63 10000 2.24 199 12:50 16.10.2021
5893 Clouds 22 1018 72 10000 0.45 327 11:24 16.10.2021
5894 Clouds 16 1015 90 10000 1.34 329 08:57 16.10.2021
5895 Clouds 16 1015 88 10000 1.03 0 04:26 16.10.2021
5896 Clouds 17 1016 82 10000 0.45 314 00:29 16.10.2021
5897 Clouds 18 1015 79 10000 0.45 325 23:26 15.10.2021
5898 Clouds 18 1015 74 10000 1.34 342 22:21 15.10.2021
5899 Clouds 19 1015 72 10000 0.89 327 21:40 15.10.2021
5900 Clouds 20 1015 70 10000 0.45 242 20:54 15.10.2021
5901 Clouds 21 1015 67 10000 0.45 314 20:25 15.10.2021
5902 Clouds 21 1015 64 10000 0.45 257 19:20 15.10.2021
5903 Clouds 22 1015 60 10000 1.34 238 18:22 15.10.2021
5904 Clouds 22 1015 60 10000 1.34 242 18:22 15.10.2021
5905 Clouds 23 1018 50 10000 3.6 230 15:49 15.10.2021
5906 Clouds 23 1020 55 10000 3.58 178 14:22 15.10.2021
5907 Clouds 23 1021 57 10000 3.58 211 12:26 15.10.2021
5908 Clouds 21 1021 66 10000 0.89 234 11:19 15.10.2021
5909 Clouds 19 1021 77 10000 0.45 355 10:31 15.10.2021
5910 Clouds 13 1017 85 10000 0.51 40 07:37 15.10.2021
5911 Clouds 14 1020 84 10000 1.79 350 04:46 15.10.2021
5912 Clouds 15 1021 77 10000 1.34 348 00:23 15.10.2021
5913 Clouds 16 1021 74 10000 0.45 292 23:26 14.10.2021
5914 Clouds 17 1021 71 10000 0.45 328 22:22 14.10.2021
5915 Clouds 18 1021 68 10000 0.45 302 21:37 14.10.2021
5916 Clouds 19 1021 63 10000 0.89 88 20:21 14.10.2021
5917 Clouds 20 1020 58 10000 0.89 71 19:49 14.10.2021
5918 Clouds 21 1022 58 10000 2.68 44 18:44 14.10.2021
5919 Clouds 22 1022 51 10000 2.24 35 16:59 14.10.2021
5920 Clouds 22 1022 48 10000 3.58 34 16:33 14.10.2021
5921 Clouds 22 1023 46 10000 2.24 320 15:20 14.10.2021
5922 Clouds 23 1021 44 10000 2.24 38 14:30 14.10.2021
5923 Clouds 22 1024 53 10000 4.92 13 13:34 14.10.2021
5924 Clouds 21 1021 51 10000 1.79 63 11:35 14.10.2021
5925 Clouds 15 1021 75 10000 0.89 343 09:28 14.10.2021
5926 Clear 13 1019 74 10000 0.89 355 06:21 14.10.2021
5927 Clear 15 1019 69 10000 0.45 47 00:49 14.10.2021
5928 Clouds 16 1019 67 10000 0.89 51 22:46 13.10.2021
5929 Clouds 18 1019 60 10000 0.89 39 21:37 13.10.2021
5930 Clouds 18 1018 59 10000 0.89 46 20:45 13.10.2021
5931 Clouds 19 1018 56 10000 0.89 94 19:41 13.10.2021
5932 Clouds 20 1017 53 10000 0.89 67 18:48 13.10.2021
5933 Clouds 21 1016 47 10000 0.89 170 17:28 13.10.2021
5934 Clouds 21 1017 55 10000 1.34 79 15:21 13.10.2021
5935 Clouds 20 1017 59 10000 1.79 54 14:43 13.10.2021
5936 Clouds 22 1019 56 10000 2.24 219 12:48 13.10.2021
5937 Clouds 22 1019 56 10000 0 0 11:51 13.10.2021
5938 Clouds 19 1019 67 10000 0.51 360 10:21 13.10.2021
5939 Clouds 13 1014 80 10000 0.45 68 07:54 13.10.2021
5940 Clouds 15 1014 77 10000 0.45 346 05:41 13.10.2021
5941 Clear 15 1015 75 10000 1.34 349 02:24 13.10.2021
5942 Clear 16 1015 71 10000 0.45 36 23:54 12.10.2021
5943 Clear 16 1015 66 10000 0.45 1 23:28 12.10.2021
5944 Clouds 17 1014 66 10000 0.45 342 22:42 12.10.2021
5945 Clouds 18 1014 61 10000 0.45 12 21:19 12.10.2021
5946 Clouds 20 1017 63 10000 2.24 292 20:33 12.10.2021
5947 Clouds 20 1014 51 10000 0.89 346 19:51 12.10.2021
5948 Clouds 24 1014 36 10000 1.34 6 18:27 12.10.2021
5949 Clouds 24 1016 44 10000 2.24 329 17:35 12.10.2021
5950 Clouds 24 1017 50 10000 2.24 202 16:36 12.10.2021
5951 Clouds 24 1017 51 10000 3.13 180 15:43 12.10.2021
5952 Clouds 24 1018 50 10000 4.02 170 14:30 12.10.2021
5953 Clouds 23 1019 49 10000 5.81 211 13:42 12.10.2021
5954 Clouds 21 1020 52 10000 1.79 170 11:36 12.10.2021
5955 Clear 17 1016 63 10000 0.45 90 09:41 12.10.2021
5956 Clear 9 1019 93 10000 0.51 0 08:42 12.10.2021
5957 Clear 12 1020 78 10000 1.34 360 06:53 12.10.2021
5958 Clear 12 1020 76 10000 0.89 360 05:29 12.10.2021
5959 Clear 12 1021 76 10000 0.89 5 04:31 12.10.2021
5960 Clear 16 1019 61 10000 1.34 338 00:18 12.10.2021
5961 Clear 16 1019 59 10000 0.89 321 23:39 11.10.2021
5962 Clear 17 1019 59 10000 0.45 314 22:56 11.10.2021
5963 Clear 18 1019 54 10000 0.45 314 21:43 11.10.2021
5964 Clear 20 1019 47 10000 0.89 67 20:35 11.10.2021
5965 Clouds 22 1019 50 10000 0.89 271 19:38 11.10.2021
5966 Clouds 23 1021 49 10000 3.13 204 18:24 11.10.2021
5967 Clouds 24 1021 44 10000 3.58 101 16:51 11.10.2021
5968 Clouds 24 1021 43 10000 3.58 101 16:31 11.10.2021
5969 Clouds 25 1021 40 10000 3.13 215 15:46 11.10.2021
5970 Clouds 25 1022 37 10000 3.13 253 14:54 11.10.2021
5971 Clouds 25 1022 36 10000 0.45 319 14:22 11.10.2021
5972 Clouds 24 1023 42 10000 0.45 264 13:36 11.10.2021
5973 Clouds 25 1023 41 10000 0.45 264 13:36 11.10.2021
5974 Clouds 22 1023 57 10000 0.45 39 11:37 11.10.2021
5975 Clouds 20 1023 71 10000 0.45 349 10:30 11.10.2021
5976 Clouds 15 1018 83 10000 0.45 77 08:42 11.10.2021
5977 Clouds 17 1019 81 10000 0.45 292 03:49 11.10.2021
5978 Clouds 18 1019 76 10000 0.45 12 01:36 11.10.2021
5979 Clouds 18 1020 73 10000 0.45 68 00:44 11.10.2021
5980 Clouds 19 1020 70 10000 0.89 12 23:57 10.10.2021
5981 Clouds 20 1019 68 10000 0.89 33 21:51 10.10.2021
5982 Clouds 20 1019 68 10000 0.89 33 21:51 10.10.2021
5983 Clouds 20 1019 67 10000 0.89 89 21:29 10.10.2021
5984 Clouds 21 1019 67 10000 1.79 53 20:42 10.10.2021
5985 Clouds 21 1019 67 10000 0.89 88 20:21 10.10.2021
5986 Clouds 21 1019 68 10000 0.45 182 19:53 10.10.2021
5987 Clouds 21 1019 66 10000 0.45 151 19:34 10.10.2021
5988 Clouds 22 1021 70 10000 3.58 116 18:32 10.10.2021
5989 Clouds 23 1021 60 10000 3.13 179 16:45 10.10.2021
5990 Clouds 23 1022 59 10000 2.24 169 15:41 10.10.2021
5991 Clouds 23 1022 58 10000 2.24 26 13:42 10.10.2021
5992 Clouds 23 1022 61 10000 1.79 65 12:51 10.10.2021
5993 Clouds 23 1022 61 10000 3.13 35 12:33 10.10.2021
5994 Clouds 21 1022 71 10000 2.68 70 10:42 10.10.2021
5995 Clouds 19 1022 79 10000 0.45 360 09:29 10.10.2021
5996 Clouds 18 1021 84 10000 2.06 70 08:53 10.10.2021
5997 Clouds 17 1018 79 10000 0.45 1 06:54 10.10.2021
5998 Clear 19 1019 70 10000 0.89 360 02:38 10.10.2021
5999 Clouds 20 1019 69 10000 0.89 22 00:55 10.10.2021
6000 Clouds 20 1019 68 10000 0.89 22 23:57 09.10.2021
6001 Clouds 20 1018 68 10000 0.45 337 22:45 09.10.2021
6002 Clouds 20 1018 64 10000 0.89 62 21:39 09.10.2021
6003 Clouds 21 1018 63 10000 0.89 82 21:20 09.10.2021
6004 Clouds 22 1018 57 10000 1.79 47 19:44 09.10.2021
6005 Clouds 23 1018 53 10000 0.89 181 18:59 09.10.2021
6006 Clouds 23 1017 53 10000 0.45 218 18:32 09.10.2021
6007 Clouds 24 1020 53 10000 0.45 132 16:37 09.10.2021
6008 Clouds 24 1020 49 10000 2.24 11 15:32 09.10.2021
6009 Clouds 24 1021 49 10000 0.89 54 13:43 09.10.2021
6010 Clouds 23 1021 51 10000 1.79 26 12:40 09.10.2021
6011 Clouds 23 1021 54 10000 0.45 340 11:48 09.10.2021
6012 Clouds 22 1019 58 10000 0.89 40 10:42 09.10.2021
6013 Clouds 18 1017 73 10000 0.45 68 09:40 09.10.2021
6014 Clouds 13 1016 82 10000 0.89 63 08:30 09.10.2021
6015 Clouds 13 1016 82 10000 0.45 45 07:48 09.10.2021
6016 Clouds 15 1018 76 10000 1.34 349 05:29 09.10.2021
6017 Clouds 15 1018 78 10000 1.79 344 02:59 09.10.2021
6018 Clouds 15 1018 76 10000 1.79 355 02:39 09.10.2021
6019 Clouds 16 1018 73 10000 0.45 1 23:51 08.10.2021
6020 Clouds 17 1018 70 10000 0.45 23 22:55 08.10.2021
6021 Clouds 18 1018 67 10000 0.45 1 22:24 08.10.2021
6022 Clouds 19 1018 61 10000 0.89 43 20:55 08.10.2021
6023 Clouds 22 1017 49 10000 0.89 97 18:54 08.10.2021
6024 Clouds 23 1017 45 10000 0.89 96 17:34 08.10.2021
6025 Clouds 24 1016 45 10000 0.89 185 16:51 08.10.2021
6026 Clouds 24 1016 43 10000 1.34 256 16:23 08.10.2021
6027 Clouds 23 1021 51 10000 2.68 51 13:57 08.10.2021
6028 Clouds 23 1021 54 10000 0.89 24 12:56 08.10.2021
6029 Clouds 22 1021 57 10000 2.24 27 11:33 08.10.2021
6030 Clouds 21 1018 55 10000 1.34 88 10:41 08.10.2021
6031 Clouds 18 1018 70 10000 0.89 338 09:25 08.10.2021
6032 Clouds 18 1017 76 10000 1.79 347 23:59 07.10.2021
6033 Clouds 19 1017 75 10000 0.45 46 23:19 07.10.2021
6034 Clouds 20 1017 70 10000 0.45 38 21:46 07.10.2021
6035 Clouds 20 1017 69 10000 1.34 102 21:26 07.10.2021
6036 Clouds 21 1016 61 10000 0.89 61 20:22 07.10.2021
6037 Clouds 23 1016 51 10000 1.34 54 19:29 07.10.2021
6038 Clouds 24 1018 50 10000 2.68 335 18:24 07.10.2021
6039 Clouds 24 1018 50 10000 2.68 286 17:24 07.10.2021
6040 Clouds 24 1019 51 10000 3.13 277 15:53 07.10.2021
6041 Clouds 24 1018 51 10000 0.89 26 14:21 07.10.2021
6042 Clouds 24 1021 59 10000 2.68 205 13:38 07.10.2021
6043 Clouds 23 1021 59 10000 2.24 225 12:45 07.10.2021
6044 Clouds 21 1021 69 10000 0.51 0 10:56 07.10.2021
6045 Clouds 20 1022 76 10000 1.03 30 10:19 07.10.2021
6046 Clouds 18 1019 83 10000 0.89 68 09:34 07.10.2021
6047 Clouds 15 1017 87 10000 0.45 35 08:51 07.10.2021
6048 Clouds 14 1021 91 10000 1.03 60 07:44 07.10.2021
6049 Clouds 14 1021 91 10000 1.54 80 07:20 07.10.2021
6050 Clouds 15 1020 84 10000 1.79 350 02:50 07.10.2021
6051 Clouds 16 1021 81 10000 0.45 314 00:29 07.10.2021
6052 Clouds 17 1021 76 10000 0.89 314 22:51 06.10.2021
6053 Clouds 18 1021 75 10000 0.45 314 22:21 06.10.2021
6054 Clouds 19 1021 68 10000 0.45 23 20:40 06.10.2021
6055 Clouds 20 1020 66 10000 0.45 135 19:55 06.10.2021
6056 Clouds 21 1020 62 10000 0.89 93 18:41 06.10.2021
6057 Clouds 22 1020 60 10000 0.89 76 16:58 06.10.2021
6058 Clouds 22 1021 61 10000 1.34 60 15:31 06.10.2021
6059 Clouds 22 1021 63 10000 1.79 54 14:28 06.10.2021
6060 Clouds 22 1023 68 10000 6.71 24 13:20 06.10.2021
6061 Clouds 22 1021 63 10000 2.24 82 12:43 06.10.2021
6062 Clouds 22 1021 67 10000 1.79 65 12:21 06.10.2021
6063 Clouds 23 1022 64 10000 5.81 10 10:21 06.10.2021
6064 Clouds 23 1018 62 10000 1.79 33 09:39 06.10.2021
6065 Clouds 20 1019 70 10000 1.79 45 08:51 06.10.2021
6066 Clouds 20 1017 70 10000 1.34 17 07:50 06.10.2021
6067 Clouds 17 1017 80 10000 0.89 347 05:26 06.10.2021
6068 Clear 17 1021 82 10000 0.45 324 01:23 06.10.2021
6069 Clear 18 1018 71 10000 0.89 342 00:18 06.10.2021
6070 Clear 18 1018 70 10000 0.89 333 23:45 05.10.2021
6071 Clear 18 1018 69 10000 0.45 45 23:27 05.10.2021
6072 Clear 20 1017 62 10000 0.45 338 22:28 05.10.2021
6073 Clear 21 1017 58 10000 0.89 318 21:50 05.10.2021
6074 Clouds 21 1016 53 10000 0.89 347 20:49 05.10.2021
6075 Clouds 21 1016 51 10000 0.45 339 20:25 05.10.2021
6076 Clouds 22 1016 50 10000 1.34 247 19:50 05.10.2021
6077 Clouds 23 1016 48 10000 1.34 282 19:18 05.10.2021
6078 Clouds 24 1019 52 10000 5.36 197 16:58 05.10.2021
6079 Clouds 24 1019 51 10000 4.47 207 14:57 05.10.2021
6080 Clouds 24 1017 48 10000 2.24 236 13:42 05.10.2021
6081 Clouds 24 1018 50 10000 2.68 238 12:54 05.10.2021
6082 Clouds 23 1020 60 10000 4.02 233 12:19 05.10.2021
6083 Clouds 22 1020 67 10000 1.79 230 11:21 05.10.2021
6084 Clouds 18 1018 82 10000 0.45 68 09:50 05.10.2021
6085 Clouds 13 1020 91 10000 1.79 346 05:36 05.10.2021
6086 Clouds 16 1018 82 10000 0.45 314 23:54 04.10.2021
6087 Clouds 17 1017 79 10000 1.34 348 22:39 04.10.2021
6088 Clouds 18 1016 69 10000 0.89 69 20:43 04.10.2021
6089 Clouds 19 1015 67 10000 0.89 88 18:47 04.10.2021
6090 Clouds 20 1014 70 10000 3.13 55 16:44 04.10.2021
6091 Clouds 21 1013 60 10000 1.79 58 15:32 04.10.2021
6092 Clouds 21 1016 67 10000 1.79 313 14:43 04.10.2021
6093 Clouds 21 1016 75 10000 6.69 280 13:58 04.10.2021
6094 Clouds 20 1016 76 10000 1.34 281 13:30 04.10.2021
6095 Clouds 20 1016 78 10000 0.45 242 12:31 04.10.2021
6096 Clouds 20 1013 76 10000 0.45 282 11:32 04.10.2021
6097 Clouds 18 1013 84 10000 4.12 250 10:41 04.10.2021
6098 Rain 18 1012 85 10000 1.34 229 09:26 04.10.2021
6099 Clouds 18 1008 82 9000 1.34 64 07:52 04.10.2021
6100 Clouds 21 1009 72 10000 2.24 37 03:34 04.10.2021
6101 Clouds 24 1009 74 10000 1.34 241 22:48 03.10.2021
6102 Clouds 24 1008 72 10000 0.89 262 21:52 03.10.2021
6103 Clouds 24 1008 72 10000 1.34 279 21:29 03.10.2021
6104 Clouds 24 1007 71 10000 1.34 235 20:43 03.10.2021
6105 Clouds 24 1007 67 10000 1.34 241 19:33 03.10.2021
6106 Clouds 25 1007 67 10000 1.79 223 18:29 03.10.2021
6107 Clouds 25 1007 67 10000 1.79 223 18:29 03.10.2021
6108 Clouds 27 1007 66 10000 1.79 225 17:31 03.10.2021
6109 Clouds 28 1007 58 10000 2.68 212 14:50 03.10.2021
6110 Clouds 27 1009 63 10000 2.24 210 14:29 03.10.2021
6111 Clouds 27 1009 63 10000 2.68 219 13:35 03.10.2021
6112 Clouds 27 1010 64 10000 1.34 233 12:44 03.10.2021
6113 Clouds 26 1010 72 10000 0.89 217 10:58 03.10.2021
6114 Clouds 23 1010 82 10000 0.45 68 09:57 03.10.2021
6115 Clouds 21 1010 88 10000 0.45 107 05:25 03.10.2021
6116 Clouds 22 1013 82 10000 0.45 27 22:52 02.10.2021
6117 Clouds 22 1013 77 10000 0.45 200 21:49 02.10.2021
6118 Clouds 24 1013 74 10000 1.34 219 20:30 02.10.2021
6119 Clouds 25 1013 66 10000 1.79 235 18:56 02.10.2021
6120 Clouds 25 1013 66 10000 1.79 235 18:56 02.10.2021
6121 Clouds 26 1014 63 10000 1.79 225 18:20 02.10.2021
6122 Clouds 26 1016 67 10000 3.13 217 17:37 02.10.2021
6123 Clouds 27 1014 59 10000 1.79 226 16:28 02.10.2021
6124 Clouds 18 1014 92 8000 1.03 0 07:30 02.10.2021
6125 Clouds 25 1025 63 10000 2.68 219 15:37 30.09.2021
6126 Clouds 26 1023 52 10000 0.89 226 13:57 30.09.2021
6127 Clouds 24 1026 64 10000 2.68 26 11:54 30.09.2021
6128 Clouds 23 1023 67 10000 0.45 112 10:53 30.09.2021
6129 Clouds 23 1023 67 10000 0.89 72 10:22 30.09.2021
6130 Clouds 19 1021 79 10000 0 0 08:31 30.09.2021
6131 Clouds 19 1022 80 10000 1.03 0 07:35 30.09.2021
6132 Clouds 19 1025 83 10000 1.34 355 05:25 30.09.2021
6133 Clouds 21 1026 79 10000 0.45 29 02:19 30.09.2021
6134 Clouds 21 1026 76 10000 2.57 80 00:30 30.09.2021
6135 Clouds 22 1026 70 10000 2.24 26 22:39 29.09.2021
6136 Clouds 23 1025 66 10000 1.79 68 21:28 29.09.2021
6137 Clouds 23 1025 64 10000 2.24 35 20:30 29.09.2021
6138 Clouds 23 1025 63 10000 3.13 36 19:56 29.09.2021
6139 Clouds 25 1024 61 10000 5.81 54 18:54 29.09.2021
6140 Clouds 25 1024 59 10000 4.92 32 17:55 29.09.2021
6141 Clouds 26 1024 61 10000 4.47 69 16:55 29.09.2021
6142 Clouds 26 1024 63 10000 3.58 60 16:22 29.09.2021
6143 Clouds 27 1024 62 10000 3.58 42 14:42 29.09.2021
6144 Clouds 26 1024 65 10000 3.13 31 14:18 29.09.2021
6145 Clouds 26 1024 65 10000 3.58 52 13:32 29.09.2021
6146 Clouds 26 1024 67 10000 4.02 208 12:38 29.09.2021
6147 Clouds 25 1024 72 10000 0.45 244 10:57 29.09.2021
6148 Clouds 24 1023 73 10000 0 0 10:25 29.09.2021
6149 Clouds 22 1020 77 10000 0.45 90 09:39 29.09.2021
6150 Clouds 19 1017 85 10000 0.89 68 07:48 29.09.2021
6151 Clear 19 1017 82 10000 0.89 346 05:50 29.09.2021
6152 Clouds 21 1018 77 10000 0.45 270 23:47 28.09.2021
6153 Clouds 22 1018 73 10000 0.45 270 22:25 28.09.2021
6154 Clouds 23 1017 70 10000 0.89 248 21:45 28.09.2021
6155 Clouds 24 1017 67 10000 0.45 248 20:44 28.09.2021
6156 Clouds 25 1017 63 10000 1.34 218 19:48 28.09.2021
6157 Clouds 26 1017 61 10000 1.79 235 19:25 28.09.2021
6158 Clouds 27 1020 63 10000 3.58 208 18:40 28.09.2021
6159 Clouds 27 1021 61 10000 3.58 229 16:43 28.09.2021
6160 Clouds 28 1021 57 10000 4.02 212 14:53 28.09.2021
6161 Clouds 28 1022 51 10000 4.02 172 13:25 28.09.2021
6162 Clouds 27 1022 54 10000 2.24 136 12:24 28.09.2021
6163 Clouds 27 1022 54 10000 2.24 136 12:24 28.09.2021
6164 Clouds 26 1022 58 10000 3.13 68 11:47 28.09.2021
6165 Clouds 26 1022 58 10000 2.68 59 11:25 28.09.2021
6166 Clouds 24 1022 64 10000 4.02 34 10:27 28.09.2021
6167 Clear 23 1019 65 10000 0.89 44 09:29 28.09.2021
6168 Clear 20 1019 73 10000 1.54 70 08:43 28.09.2021
6169 Clear 19 1017 72 10000 0 0 07:55 28.09.2021
6170 Clouds 19 1018 77 10000 0.45 321 06:25 28.09.2021
6171 Clouds 21 1018 80 10000 0.45 112 01:35 28.09.2021
6172 Clouds 22 1019 80 10000 1.03 0 00:30 28.09.2021
6173 Clouds 22 1019 79 10000 0.45 90 23:49 27.09.2021
6174 Clouds 23 1019 77 10000 0.45 90 23:24 27.09.2021
6175 Clouds 23 1019 77 10000 0.45 55 22:21 27.09.2021
6176 Clouds 24 1018 74 10000 0.89 68 21:38 27.09.2021
6177 Clouds 25 1018 69 10000 0.45 248 20:27 27.09.2021
6178 Clouds 26 1017 63 10000 0.89 237 19:37 27.09.2021
6179 Clouds 26 1020 69 10000 4.02 200 18:53 27.09.2021
6180 Clouds 28 1020 56 10000 6.26 206 17:41 27.09.2021
6181 Clouds 28 1020 56 10000 6.26 206 17:41 27.09.2021
6182 Clear 28 1020 56 10000 5.36 225 16:59 27.09.2021
6183 Clear 28 1020 57 10000 5.36 183 16:35 27.09.2021
6184 Clear 28 1020 59 10000 6.26 222 15:39 27.09.2021
6185 Clear 29 1021 47 10000 4.92 225 13:50 27.09.2021
6186 Clear 28 1021 51 10000 1.79 192 12:25 27.09.2021
6187 Clouds 26 1018 57 10000 0.45 292 10:50 27.09.2021
6188 Clear 23 1017 66 10000 0.89 328 09:42 27.09.2021
6189 Clouds 20 1015 73 10000 0.45 68 07:57 27.09.2021
6190 Clouds 21 1017 66 10000 0.89 45 03:40 27.09.2021
6191 Clouds 23 1017 67 10000 0.89 349 00:21 27.09.2021
6192 Clouds 24 1017 60 10000 1.34 346 22:18 26.09.2021
6193 Clouds 25 1016 59 10000 0.45 42 21:30 26.09.2021
6194 Clouds 26 1016 53 10000 0.89 64 20:38 26.09.2021
6195 Clouds 27 1015 49 10000 1.34 53 19:59 26.09.2021
6196 Clouds 28 1015 46 10000 1.34 63 19:26 26.09.2021
6197 Clouds 28 1015 46 10000 1.34 63 19:26 26.09.2021
6198 Clouds 28 1015 46 10000 1.34 63 19:26 26.09.2021
6199 Clouds 28 1015 46 10000 1.34 63 19:26 26.09.2021
6200 Clouds 29 1018 51 10000 2.68 275 18:41 26.09.2021
6201 Clouds 29 1018 63 10000 0.45 207 17:49 26.09.2021
6202 Clouds 29 1018 61 10000 2.68 204 17:20 26.09.2021
6203 Clouds 29 1015 56 10000 2.24 234 16:28 26.09.2021
6204 Clouds 29 1016 60 10000 1.79 235 15:56 26.09.2021
6205 Clouds 29 1016 60 10000 1.34 83 14:26 26.09.2021
6206 Clouds 30 1019 63 10000 1.79 241 13:44 26.09.2021
6207 Clouds 28 1020 67 9000 3.13 295 12:31 26.09.2021
6208 Clouds 28 1016 63 9000 0.89 215 11:58 26.09.2021
6209 Clouds 28 1019 73 9000 1.34 276 11:36 26.09.2021
6210 Clouds 26 1015 82 8000 0.45 23 09:52 26.09.2021
6211 Clouds 23 1013 88 7000 0.45 22 08:54 26.09.2021
6212 Clouds 25 1014 86 10000 0.51 0 01:28 26.09.2021
6213 Clouds 25 1015 83 10000 0.45 181 00:20 26.09.2021
6214 Clouds 26 1015 76 10000 0.89 210 22:42 25.09.2021
6215 Clouds 26 1014 74 10000 0.45 53 22:23 25.09.2021
6216 Clouds 26 1013 73 10000 0.89 45 21:49 25.09.2021
6217 Clouds 27 1013 71 10000 1.34 45 20:53 25.09.2021
6218 Clouds 28 1016 68 10000 1.34 45 19:54 25.09.2021
6219 Clouds 29 1017 64 10000 1.34 216 18:40 25.09.2021
6220 Clouds 29 1017 63 10000 3.13 205 17:47 25.09.2021
6221 Clouds 29 1018 70 10000 5.81 202 15:35 25.09.2021
6222 Clouds 28 1018 72 10000 4.02 192 13:56 25.09.2021
6223 Clouds 30 1017 63 10000 2.06 20 12:48 25.09.2021
6224 Clouds 28 1017 73 10000 1.34 20 11:40 25.09.2021
6225 Clouds 26 1014 83 10000 0.89 42 10:24 25.09.2021
6226 Clouds 24 1014 88 8000 1.03 0 09:26 25.09.2021
6227 Clouds 23 1011 87 8000 0.45 234 07:52 25.09.2021
6228 Clouds 23 1011 87 8000 0.45 225 07:52 25.09.2021
6229 Clouds 24 1013 86 10000 0.45 5 01:35 25.09.2021
6230 Clouds 25 1013 83 10000 0.45 45 23:45 24.09.2021
6231 Clouds 26 1012 80 10000 1.34 69 21:41 24.09.2021
6232 Clouds 26 1011 75 10000 1.34 90 20:33 24.09.2021
6233 Clouds 27 1011 73 10000 1.34 96 19:45 24.09.2021
6234 Clouds 29 1011 66 10000 0.89 195 18:32 24.09.2021
6235 Clouds 29 1014 71 10000 0.89 174 17:53 24.09.2021
6236 Clouds 29 1014 70 10000 0.89 174 17:35 24.09.2021
6237 Clouds 29 1014 67 10000 1.79 71 16:55 24.09.2021
6238 Clouds 29 1012 65 10000 1.34 49 13:57 24.09.2021
6239 Clouds 28 1012 68 10000 1.34 81 12:45 24.09.2021
6240 Clouds 27 1012 72 10000 0.89 40 12:27 24.09.2021
6241 Clouds 27 1012 73 10000 1.34 48 11:59 24.09.2021
6242 Clouds 26 1012 75 10000 1.79 19 10:25 24.09.2021
6243 Clouds 24 1011 76 10000 1.79 68 08:29 24.09.2021
6244 Clouds 25 1011 77 10000 1.79 59 07:33 24.09.2021
6245 Clouds 24 1012 79 10000 1.34 39 06:44 24.09.2021
6246 Clouds 24 1012 79 10000 1.79 73 04:54 24.09.2021
6247 Clouds 24 1013 78 10000 1.34 48 23:57 23.09.2021
6248 Clouds 25 1013 78 10000 1.79 88 22:20 23.09.2021
6249 Clouds 25 1013 79 10000 1.79 53 21:47 23.09.2021
6250 Clouds 25 1013 76 10000 1.79 60 20:33 23.09.2021
6251 Clouds 26 1013 71 10000 1.79 43 19:28 23.09.2021
6252 Clouds 27 1013 62 10000 1.79 56 17:46 23.09.2021
6253 Clouds 29 1014 57 10000 1.34 66 15:28 23.09.2021
6254 Clouds 28 1017 65 10000 4.02 41 14:59 23.09.2021
6255 Clouds 27 1018 70 10000 6.71 43 13:45 23.09.2021
6256 Clouds 27 1018 70 10000 6.71 43 13:45 23.09.2021
6257 Clouds 27 1015 65 10000 2.24 65 13:19 23.09.2021
6258 Clouds 27 1015 65 10000 1.79 92 12:48 23.09.2021
6259 Clouds 26 1015 66 10000 2.24 63 12:22 23.09.2021
6260 Clouds 23 1016 76 10000 2.24 99 11:32 23.09.2021
6261 Clouds 23 1015 78 10000 1.34 38 10:20 23.09.2021
6262 Clouds 24 1014 85 10000 0.45 66 09:51 23.09.2021
6263 Clouds 24 1016 88 10000 2.06 70 07:44 23.09.2021
6264 Clouds 23 1016 89 10000 3.58 20 03:31 23.09.2021
6265 Rain 23 1018 89 10000 1.79 47 22:58 22.09.2021
6266 Rain 23 1018 86 10000 0.89 54 22:28 22.09.2021
6267 Rain 23 1018 87 10000 0.89 52 21:53 22.09.2021
6268 Rain 24 1017 85 10000 1.79 35 21:33 22.09.2021
6269 Rain 24 1017 82 10000 1.79 20 20:39 22.09.2021
6270 Rain 25 1017 76 10000 2.68 39 19:29 22.09.2021
6271 Rain 25 1017 73 10000 6.26 40 18:37 22.09.2021
6272 Rain 26 1017 72 10000 5.36 64 17:43 22.09.2021
6273 Clouds 25 1018 70 10000 5.36 36 16:37 22.09.2021
6274 Rain 26 1018 67 10000 4.47 38 15:18 22.09.2021
6275 Clouds 25 1018 72 10000 4.47 69 13:48 22.09.2021
6276 Clouds 24 1019 74 10000 4.02 42 11:46 22.09.2021
6277 Rain 22 1019 76 10000 3.58 66 10:45 22.09.2021
6278 Clouds 22 1019 78 10000 3.13 26 09:24 22.09.2021
6279 Clouds 21 1017 81 10000 3.6 50 08:28 22.09.2021
6280 Clouds 21 1018 82 10000 1.79 46 06:59 22.09.2021
6281 Clouds 20 1019 84 10000 3.58 30 05:53 22.09.2021
6282 Clouds 20 1019 83 10000 1.79 360 05:32 22.09.2021
6283 Rain 20 1020 81 10000 1.34 34 03:48 22.09.2021
6284 Rain 20 1021 78 10000 2.24 29 00:21 22.09.2021
6285 Clouds 20 1021 80 10000 4.02 342 22:52 21.09.2021
6286 Clouds 20 1021 81 10000 2.24 48 21:36 21.09.2021
6287 Clouds 20 1020 81 10000 2.24 40 20:26 21.09.2021
6288 Clouds 21 1020 80 10000 4.02 48 19:20 21.09.2021
6289 Clouds 22 1021 72 10000 5.81 24 17:35 21.09.2021
6290 Clouds 23 1020 71 10000 4.47 26 16:35 21.09.2021
6291 Clouds 23 1021 68 10000 3.58 31 15:39 21.09.2021
6292 Clouds 21 1021 73 10000 5.81 35 14:57 21.09.2021
6293 Clouds 21 1021 74 10000 4.47 13 13:56 21.09.2021
6294 Clouds 21 1021 74 10000 4.47 13 13:56 21.09.2021
6295 Clouds 21 1020 73 10000 10.8 60 13:36 21.09.2021
6296 Clouds 21 1021 79 10000 7.67 55 11:45 21.09.2021
6297 Clouds 21 1019 83 10000 2.06 40 10:26 21.09.2021
6298 Clouds 19 1018 88 10000 1.54 170 08:28 21.09.2021
6299 Clouds 18 1018 94 10000 5.14 70 06:53 21.09.2021
6300 Clouds 21 1018 78 10000 1.03 0 23:59 20.09.2021
6301 Clouds 22 1018 78 10000 2.57 50 22:27 20.09.2021
6302 Clouds 23 1018 73 10000 3.6 70 21:40 20.09.2021
6303 Clouds 24 1017 64 10000 4.12 70 20:34 20.09.2021
6304 Clouds 25 1017 61 10000 7.2 60 19:31 20.09.2021
6305 Clouds 27 1017 46 10000 4.02 291 17:52 20.09.2021
6306 Clouds 27 1018 44 10000 3.13 355 16:49 20.09.2021
6307 Clouds 27 1018 45 10000 4.92 309 15:56 20.09.2021
6308 Clouds 27 1018 47 10000 4.47 323 15:32 20.09.2021
6309 Clouds 27 1019 50 10000 4.47 292 14:25 20.09.2021
6310 Clouds 26 1019 48 10000 1.34 273 12:36 20.09.2021
6311 Clouds 26 1019 55 10000 2.24 360 11:44 20.09.2021
6312 Clouds 24 1019 68 10000 0 0 10:32 20.09.2021
6313 Clouds 21 1019 82 10000 0.45 355 09:43 20.09.2021
6314 Clouds 20 1019 85 10000 1.34 355 09:20 20.09.2021
6315 Clouds 18 1019 90 10000 1.34 342 08:27 20.09.2021
6316 Clouds 20 1020 85 10000 1.34 355 02:27 20.09.2021
6317 Clouds 22 1019 81 10000 0.89 98 22:46 19.09.2021
6318 Clouds 22 1019 80 10000 1.79 51 21:45 19.09.2021
6319 Clouds 23 1019 78 10000 2.24 46 20:58 19.09.2021
6320 Clouds 25 1018 67 10000 3.13 59 19:41 19.09.2021
6321 Clouds 26 1018 60 10000 1.34 50 18:32 19.09.2021
6322 Clouds 26 1018 62 10000 3.13 194 17:23 19.09.2021
6323 Clouds 27 1018 63 10000 3.58 208 16:32 19.09.2021
6324 Clouds 27 1018 52 10000 0.45 5 15:31 19.09.2021
6325 Clouds 27 1018 53 10000 3.13 33 14:48 19.09.2021
6326 Clouds 26 1019 60 10000 2.68 355 13:46 19.09.2021
6327 Clouds 26 1019 62 10000 4.02 57 12:52 19.09.2021
6328 Clouds 25 1018 67 10000 5.81 39 11:39 19.09.2021
6329 Clouds 25 1018 68 10000 4.47 59 11:20 19.09.2021
6330 Clouds 24 1017 79 10000 2.68 65 09:50 19.09.2021
6331 Clouds 24 1017 79 10000 2.68 65 09:50 19.09.2021
6332 Clouds 23 1017 86 10000 2.24 48 08:49 19.09.2021
6333 Clouds 23 1015 85 10000 0.89 340 06:43 19.09.2021
6334 Clouds 25 1015 81 10000 1.79 211 00:20 19.09.2021
6335 Clouds 25 1015 79 10000 1.34 226 22:54 18.09.2021
6336 Clouds 26 1014 80 10000 2.24 209 21:40 18.09.2021
6337 Clouds 26 1014 77 10000 1.34 223 20:46 18.09.2021
6338 Clouds 26 1013 74 10000 3.13 211 19:41 18.09.2021
6339 Clouds 26 1013 75 10000 3.13 222 19:21 18.09.2021
6340 Clouds 27 1014 72 10000 2.68 182 18:38 18.09.2021
6341 Clouds 27 1014 71 10000 4.02 201 17:59 18.09.2021
6342 Clouds 27 1014 72 10000 4.02 191 16:34 18.09.2021
6343 Clouds 28 1015 74 10000 4.47 170 13:51 18.09.2021
6344 Clouds 27 1015 75 10000 3.58 173 13:31 18.09.2021
6345 Clouds 27 1015 73 10000 3.13 121 12:51 18.09.2021
6346 Clouds 25 1016 78 10000 1.79 161 11:42 18.09.2021
6347 Clouds 26 1015 77 10000 0.51 130 10:37 18.09.2021
6348 Clouds 25 1015 80 10000 1.54 80 09:55 18.09.2021
6349 Clouds 22 1015 87 10000 1.03 0 09:22 18.09.2021
6350 Clouds 21 1014 90 10000 1.03 0 08:24 18.09.2021
6351 Clear 22 1016 83 10000 0.45 351 00:42 18.09.2021
6352 Clear 23 1016 82 10000 1.34 331 23:53 17.09.2021
6353 Clear 25 1016 77 10000 2.56 204 22:43 17.09.2021
6354 Clouds 25 1015 75 10000 1.34 231 22:21 17.09.2021
6355 Clouds 26 1014 73 10000 2.24 184 21:27 17.09.2021
6356 Clouds 27 1014 69 10000 3.58 207 19:30 17.09.2021
6357 Clouds 27 1014 68 10000 4.92 197 17:57 17.09.2021
6358 Clouds 27 1015 69 10000 4.47 163 16:33 17.09.2021
6359 Clouds 28 1016 65 10000 3.58 166 14:32 17.09.2021
6360 Clouds 27 1017 61 10000 1.79 151 11:30 17.09.2021
6361 Clouds 23 1017 77 10000 2.57 70 09:40 17.09.2021
6362 Clouds 22 1015 83 10000 1.03 0 07:36 17.09.2021
6363 Clouds 22 1016 81 10000 1.34 5 04:25 17.09.2021
6364 Clouds 24 1019 81 10000 1.79 324 00:29 17.09.2021
6365 Clouds 25 1018 78 10000 2.68 24 22:41 16.09.2021
6366 Clouds 26 1017 78 10000 2.24 25 22:23 16.09.2021
6367 Clouds 26 1017 76 10000 2.24 97 21:27 16.09.2021
6368 Clouds 27 1016 68 10000 2.24 160 20:29 16.09.2021
6369 Clouds 29 1016 48 10000 1.34 306 18:38 16.09.2021
6370 Clouds 30 1016 44 10000 3.58 327 17:59 16.09.2021
6371 Clouds 29 1016 54 10000 3.58 281 15:33 16.09.2021
6372 Clouds 29 1017 58 10000 4.02 308 14:43 16.09.2021
6373 Clouds 28 1017 63 10000 4.02 355 13:23 16.09.2021
6374 Clouds 27 1018 65 10000 4.47 271 12:40 16.09.2021
6375 Clouds 27 1017 69 10000 3.58 257 11:46 16.09.2021
6376 Clouds 26 1017 75 10000 1.34 250 10:51 16.09.2021
6377 Clouds 25 1017 80 10000 1.79 260 10:21 16.09.2021
6378 Clouds 24 1016 85 10000 3.58 253 09:18 16.09.2021
6379 Clouds 24 1015 84 10000 5.66 220 07:47 16.09.2021
6380 Clouds 21 1014 91 10000 0.51 60 06:56 16.09.2021
6381 Clouds 21 1015 90 10000 1.54 40 06:32 16.09.2021
6382 Rain 21 1017 94 10000 1.54 350 03:22 16.09.2021
6383 Rain 22 1019 78 10000 4.63 270 00:46 16.09.2021
6384 Rain 25 1018 69 10000 4.02 252 22:59 15.09.2021
6385 Rain 26 1016 65 10000 3.13 249 22:20 15.09.2021
6386 Rain 27 1016 65 10000 2.24 244 21:30 15.09.2021
6387 Rain 27 1015 75 10000 3.13 202 20:26 15.09.2021
6388 Clouds 27 1014 69 10000 0.89 157 19:31 15.09.2021
6389 Rain 28 1014 64 10000 2.24 74 18:37 15.09.2021
6390 Rain 28 1014 65 10000 0.45 225 17:33 15.09.2021
6391 Rain 29 1014 59 10000 0.89 186 16:28 15.09.2021
6392 Clouds 29 1015 61 10000 3.13 176 14:59 15.09.2021
6393 Rain 29 1015 59 10000 2.68 161 14:40 15.09.2021
6394 Clouds 29 1015 65 10000 1.79 242 13:45 15.09.2021
6395 Clouds 28 1015 65 10000 1.79 158 13:26 15.09.2021
6396 Rain 28 1015 68 10000 2.24 186 12:29 15.09.2021
6397 Clouds 28 1016 74 10000 3.13 168 11:50 15.09.2021
6398 Clouds 28 1015 80 9000 2.68 219 10:57 15.09.2021
6399 Clouds 28 1015 77 9000 2.68 219 10:57 15.09.2021
6400 Clouds 27 1014 86 9000 2.68 257 09:59 15.09.2021
6401 Clouds 27 1014 88 10000 4.47 227 08:46 15.09.2021
6402 Clouds 27 1013 88 10000 6.17 210 07:25 15.09.2021
6403 Clouds 27 1013 66 10000 1.79 15 00:41 15.09.2021
6404 Clouds 28 1013 58 10000 0.89 24 22:22 14.09.2021
6405 Clear 28 1013 55 10000 2.24 24 21:19 14.09.2021
6406 Clear 29 1012 52 10000 3.13 66 20:18 14.09.2021
6407 Clear 30 1012 47 10000 3.58 65 18:44 14.09.2021
6408 Clear 32 1009 42 10000 1.79 136 17:32 14.09.2021
6409 Rain 33 1009 37 10000 1.34 178 15:59 14.09.2021
6410 Clear 33 1011 40 10000 1.34 220 14:32 14.09.2021
6411 Clear 32 1011 46 10000 0.89 188 13:33 14.09.2021
6412 Clouds 31 1013 53 10000 0.45 141 11:41 14.09.2021
6413 Clouds 27 1016 69 10000 2.06 30 10:20 14.09.2021
6414 Clouds 25 1016 71 10000 1.34 347 09:45 14.09.2021
6415 Clouds 23 1015 77 10000 1.34 349 07:28 14.09.2021
6416 Clouds 25 1018 78 10000 1.54 50 00:57 14.09.2021
6417 Clouds 26 1018 77 10000 0.45 59 23:18 13.09.2021
6418 Clouds 26 1018 77 10000 0.45 111 22:27 13.09.2021
6419 Clouds 26 1018 75 10000 0.89 130 21:54 13.09.2021
6420 Clouds 27 1018 74 10000 0.89 132 21:23 13.09.2021
6421 Clouds 27 1017 68 10000 2.24 190 19:34 13.09.2021
6422 Clouds 27 1016 66 10000 3.58 196 18:44 13.09.2021
6423 Clouds 28 1016 68 10000 1.79 213 17:21 13.09.2021
6424 Clouds 28 1017 69 10000 3.13 206 16:23 13.09.2021
6425 Clouds 30 1017 54 10000 5.66 240 14:30 13.09.2021
6426 Clear 28 1018 62 10000 0.89 22 11:22 13.09.2021
6427 Clear 26 1018 70 10000 0.89 344 10:26 13.09.2021
6428 Clear 21 1017 87 10000 2.24 360 07:57 13.09.2021
6429 Clear 24 1017 79 10000 0.45 217 00:18 13.09.2021
6430 Clear 25 1017 77 10000 0.45 192 22:42 12.09.2021
6431 Clear 25 1017 75 10000 0.45 192 22:20 12.09.2021
6432 Clear 27 1016 71 10000 1.79 164 20:41 12.09.2021
6433 Clouds 27 1016 71 10000 1.79 192 19:56 12.09.2021
6434 Clouds 27 1016 69 10000 3.13 198 19:29 12.09.2021
6435 Clouds 28 1016 66 10000 3.13 228 18:50 12.09.2021
6436 Clouds 29 1016 60 10000 4.02 230 16:58 12.09.2021
6437 Clouds 30 1017 53 10000 3.13 168 15:37 12.09.2021
6438 Clouds 30 1017 57 10000 3.13 199 14:32 12.09.2021
6439 Clouds 28 1018 65 10000 1.79 56 12:28 12.09.2021
6440 Clouds 24 1017 87 10000 0.89 17 10:19 12.09.2021
6441 Clouds 23 1016 88 10000 0.51 0 08:38 12.09.2021
6442 Clouds 22 1017 89 10000 0.45 338 04:59 12.09.2021
6443 Clouds 24 1018 84 10000 1.54 30 00:46 12.09.2021
6444 Clouds 26 1018 80 10000 1.34 223 22:29 11.09.2021
6445 Clouds 26 1018 79 10000 0.89 200 21:38 11.09.2021
6446 Clouds 27 1018 73 10000 3.13 207 19:35 11.09.2021
6447 Clouds 27 1018 72 10000 3.58 209 17:56 11.09.2021
6448 Clouds 28 1018 70 10000 3.58 157 16:41 11.09.2021
6449 Clouds 28 1019 69 10000 5.81 266 15:24 11.09.2021
6450 Clouds 28 1020 64 10000 4.02 158 13:22 11.09.2021
6451 Clouds 27 1020 60 10000 0.45 321 11:40 11.09.2021
6452 Clouds 25 1019 73 10000 0.45 342 09:42 11.09.2021
6453 Clouds 22 1019 81 10000 0.89 342 08:31 11.09.2021
6454 Clouds 21 1019 82 10000 0.89 9 07:34 11.09.2021
6455 Clouds 23 1019 79 10000 0.45 347 02:29 11.09.2021
6456 Clouds 25 1018 70 10000 1.34 40 22:27 10.09.2021
6457 Clouds 25 1018 69 10000 4.12 70 21:56 10.09.2021
6458 Clouds 26 1017 65 10000 0.89 59 21:25 10.09.2021
6459 Clouds 29 1016 55 10000 4.47 290 18:47 10.09.2021
6460 Clouds 30 1016 53 10000 3.58 286 17:42 10.09.2021
6461 Clouds 29 1015 55 10000 4.47 284 15:38 10.09.2021
6462 Clouds 29 1015 58 10000 2.68 296 13:18 10.09.2021
6463 Clouds 27 1015 72 10000 3.58 280 10:32 10.09.2021
6464 Clouds 25 1013 77 10000 1.79 292 07:51 10.09.2021
6465 Clouds 26 1013 74 10000 2.68 264 04:33 10.09.2021
6466 Clouds 26 1013 74 10000 3.58 275 23:52 09.09.2021
6467 Clouds 27 1012 70 10000 4.02 306 21:47 09.09.2021
6468 Clouds 27 1012 69 10000 3.13 316 20:47 09.09.2021
6469 Clouds 28 1011 65 10000 3.58 317 20:23 09.09.2021
6470 Clouds 28 1011 65 10000 3.58 317 20:23 09.09.2021
6471 Clouds 29 1011 60 10000 3.58 308 18:39 09.09.2021
6472 Clouds 30 1010 58 10000 3.13 325 17:41 09.09.2021
6473 Clouds 31 1010 54 10000 4.47 340 16:27 09.09.2021
6474 Clouds 31 1011 57 10000 4.47 283 13:35 09.09.2021
6475 Clouds 29 1011 58 10000 3.58 322 11:50 09.09.2021
6476 Clouds 29 1011 61 10000 4.02 298 10:54 09.09.2021
6477 Clouds 27 1011 70 10000 3.58 287 09:34 09.09.2021
6478 Clouds 25 1011 78 10000 1.34 289 07:34 09.09.2021
6479 Clear 25 1011 75 10000 0.89 297 04:47 09.09.2021
6480 Clouds 27 1011 76 10000 0.45 309 23:54 08.09.2021
6481 Clouds 27 1011 72 10000 1.34 286 21:47 08.09.2021
6482 Clouds 28 1010 69 10000 2.68 225 20:37 08.09.2021
6483 Clear 28 1010 67 10000 2.68 203 19:44 08.09.2021
6484 Clear 29 1011 63 10000 2.68 216 18:47 08.09.2021
6485 Clear 30 1011 58 10000 2.68 203 17:59 08.09.2021
6486 Clear 30 1011 53 10000 4.02 220 17:39 08.09.2021
6487 Clear 33 1013 40 10000 3.13 183 14:57 08.09.2021
6488 Clear 32 1010 40 10000 1.34 213 13:28 08.09.2021
6489 Clear 32 1011 48 10000 1.79 223 12:41 08.09.2021
6490 Clear 31 1014 54 10000 2.24 49 12:22 08.09.2021
6491 Clouds 29 1014 63 10000 3.58 43 11:26 08.09.2021
6492 Clouds 29 1014 63 10000 3.58 43 11:26 08.09.2021
6493 Clouds 27 1015 70 10000 3.13 51 10:31 08.09.2021
6494 Clouds 25 1015 73 10000 2.68 28 09:37 08.09.2021
6495 Clouds 21 1014 77 10000 2.06 70 07:44 08.09.2021
6496 Clouds 22 1015 75 10000 0.89 355 06:43 08.09.2021
6497 Clear 25 1018 68 10000 0.89 72 23:18 07.09.2021
6498 Clear 27 1018 63 10000 1.34 107 22:19 07.09.2021
6499 Clear 28 1018 59 10000 0.45 131 20:41 07.09.2021
6500 Clear 30 1018 55 10000 2.68 134 18:53 07.09.2021
6501 Clear 30 1018 55 10000 4.02 165 18:25 07.09.2021
6502 Clouds 30 1018 57 10000 4.47 211 17:25 07.09.2021
6503 Clouds 32 1016 51 10000 1.79 232 15:56 07.09.2021
6504 Clouds 32 1017 51 10000 2.24 230 14:48 07.09.2021
6505 Clouds 31 1020 57 10000 2.68 195 13:52 07.09.2021
6506 Clouds 29 1021 63 10000 2.24 78 11:58 07.09.2021
6507 Clouds 27 1021 71 10000 1.79 46 10:50 07.09.2021
6508 Clouds 25 1021 77 10000 1.34 351 09:40 07.09.2021
6509 Clouds 22 1020 84 10000 1.03 40 07:47 07.09.2021
6510 Clear 22 1021 78 10000 0.89 330 06:20 07.09.2021
6511 Clear 23 1021 82 10000 1.34 355 02:39 07.09.2021
6512 Clear 23 1021 81 10000 0.89 344 01:57 07.09.2021
6513 Clear 24 1022 81 10000 0.89 342 23:49 06.09.2021
6514 Clear 25 1022 80 10000 0.89 323 23:30 06.09.2021
6515 Clouds 25 1022 78 10000 1.03 90 22:51 06.09.2021
6516 Clouds 25 1022 79 10000 0.51 0 22:21 06.09.2021
6517 Clouds 27 1021 74 10000 0.45 225 20:35 06.09.2021
6518 Clouds 27 1021 69 10000 4.02 207 19:19 06.09.2021
6519 Clouds 28 1021 66 10000 4.02 195 18:35 06.09.2021
6520 Clouds 28 1021 67 10000 4.92 219 17:52 06.09.2021
6521 Clouds 29 1021 67 10000 4.92 191 16:20 06.09.2021
6522 Clouds 29 1021 62 10000 5.36 173 14:59 06.09.2021
6523 Clear 29 1021 61 10000 2.24 163 13:44 06.09.2021
6524 Clear 29 1021 53 10000 3.13 231 12:41 06.09.2021
6525 Clear 27 1021 70 10000 0.45 355 10:36 06.09.2021
6526 Clouds 21 1020 88 10000 0.45 344 07:39 06.09.2021
6527 Clouds 22 1020 86 10000 1.34 355 04:27 06.09.2021
6528 Clouds 25 1020 80 10000 0.45 277 23:23 05.09.2021
6529 Clouds 26 1020 77 10000 1.03 170 22:33 05.09.2021
6530 Clouds 26 1019 76 10000 2.06 210 21:56 05.09.2021
6531 Clouds 27 1019 76 10000 0.89 225 21:20 05.09.2021
6532 Clouds 28 1018 71 10000 2.68 203 19:45 05.09.2021
6533 Clouds 28 1018 71 10000 2.68 149 17:52 05.09.2021
6534 Clouds 29 1018 68 10000 5.36 217 16:33 05.09.2021
6535 Clouds 29 1019 68 10000 4.47 201 15:20 05.09.2021
6536 Clouds 29 1019 62 10000 2.68 236 12:45 05.09.2021
6537 Clouds 28 1019 64 10000 1.79 219 11:44 05.09.2021
6538 Clouds 28 1019 68 10000 0.45 304 10:42 05.09.2021
6539 Clear 25 1018 79 10000 1.54 20 09:35 05.09.2021
6540 Clouds 22 1018 89 10000 1.54 50 08:35 05.09.2021
6541 Clouds 22 1017 88 10000 0.45 355 06:33 05.09.2021
6542 Clouds 25 1017 82 10000 0.89 9 00:41 05.09.2021
6543 Clouds 25 1017 81 10000 1.54 40 23:59 04.09.2021
6544 Clouds 25 1017 79 10000 1.54 70 23:25 04.09.2021
6545 Clouds 25 1017 79 10000 0.89 88 22:35 04.09.2021
6546 Clouds 26 1016 76 10000 0.45 222 21:20 04.09.2021
6547 Clouds 28 1015 69 10000 1.34 220 19:40 04.09.2021
6548 Clouds 28 1016 68 10000 2.24 206 17:25 04.09.2021
6549 Clouds 28 1016 66 10000 5.81 180 15:41 04.09.2021
6550 Clouds 28 1017 61 10000 1.79 210 11:54 04.09.2021
6551 Clouds 28 1016 66 10000 0.89 30 10:55 04.09.2021
6552 Clouds 23 1015 90 10000 2.06 10 08:39 04.09.2021
6553 Clouds 25 1015 83 10000 2.57 70 00:50 04.09.2021
6554 Clouds 25 1015 81 10000 2.06 80 00:23 04.09.2021
6555 Clear 25 1015 79 10000 2.57 70 23:23 03.09.2021
6556 Clouds 28 1014 66 10000 1.54 130 21:43 03.09.2021
6557 Clouds 28 1013 65 10000 1.03 200 21:24 03.09.2021
6558 Clouds 29 1013 62 10000 2.57 220 20:34 03.09.2021
6559 Clouds 29 1013 59 10000 2.57 220 19:45 03.09.2021
6560 Clouds 30 1013 55 10000 3.6 210 18:37 03.09.2021
6561 Clouds 30 1013 55 10000 2.06 220 17:32 03.09.2021
6562 Clouds 30 1014 58 10000 5.66 240 16:22 03.09.2021
6563 Clouds 29 1016 64 10000 4.47 171 14:47 03.09.2021
6564 Clouds 28 1016 69 10000 2.24 190 11:47 03.09.2021
6565 Clouds 27 1016 78 10000 0.51 340 10:21 03.09.2021
6566 Clouds 23 1013 86 10000 0.45 45 08:38 03.09.2021
6567 Clouds 23 1012 85 10000 0.45 22 07:34 03.09.2021
6568 Clouds 25 1013 72 10000 0.45 23 00:24 03.09.2021
6569 Clouds 25 1013 72 10000 0.45 23 00:24 03.09.2021
6570 Clouds 27 1013 66 10000 0.45 248 22:43 02.09.2021
6571 Clouds 28 1012 58 10000 0.89 51 21:18 02.09.2021
6572 Clouds 29 1011 48 10000 1.79 54 19:24 02.09.2021
6573 Clouds 32 1014 46 10000 2.68 288 17:22 02.09.2021
6574 Clouds 31 1015 53 10000 4.92 263 15:43 02.09.2021
6575 Clouds 30 1015 57 10000 2.68 316 13:51 02.09.2021
6576 Clouds 30 1016 67 10000 1.03 110 12:21 02.09.2021
6577 Clouds 28 1012 68 10000 0.89 76 11:33 02.09.2021
6578 Clouds 26 1011 72 10000 0.89 21 09:30 02.09.2021
6579 Clouds 23 1010 82 10000 0.89 42 07:45 02.09.2021
6580 Clouds 23 1014 85 10000 4.92 27 06:57 02.09.2021
6581 Clouds 25 1012 75 10000 1.34 33 02:44 02.09.2021
6582 Clouds 25 1010 69 10000 1.79 39 01:53 02.09.2021
6583 Clouds 25 1010 66 10000 1.34 46 01:18 02.09.2021
6584 Clouds 25 1010 66 10000 1.79 52 23:34 01.09.2021
6585 Clouds 25 1010 66 10000 1.79 85 22:34 01.09.2021
6586 Clear 26 1010 59 10000 1.79 54 21:33 01.09.2021
6587 Clouds 27 1012 61 10000 1.79 55 19:59 01.09.2021
6588 Clouds 30 1009 48 10000 1.79 57 17:58 01.09.2021
6589 Clouds 30 1010 47 10000 1.79 81 17:35 01.09.2021
6590 Clouds 30 1015 57 10000 4.63 80 16:46 01.09.2021
6591 Clouds 29 1013 53 10000 1.34 91 15:24 01.09.2021
6592 Clouds 28 1014 59 10000 1.34 90 11:49 01.09.2021
6593 Clouds 28 1014 63 10000 1.34 81 10:55 01.09.2021
6594 Clouds 25 1012 74 10000 1.79 49 08:46 01.09.2021
6595 Clouds 24 1011 76 10000 1.79 56 07:50 01.09.2021
6596 Clouds 25 1015 74 10000 0.89 106 23:43 31.08.2021
6597 Clouds 26 1014 71 10000 1.34 63 22:30 31.08.2021
6598 Clouds 27 1013 62 10000 1.34 260 20:57 31.08.2021
6599 Clouds 28 1012 56 10000 1.34 227 19:44 31.08.2021
6600 Clouds 30 1012 51 10000 1.34 226 18:23 31.08.2021
6601 Clouds 29 1016 59 10000 3.58 162 17:34 31.08.2021
6602 Clouds 29 1017 57 10000 2.68 205 16:52 31.08.2021
6603 Clouds 29 1017 61 10000 2.68 215 16:23 31.08.2021
6604 Clouds 29 1017 53 10000 2.06 260 12:56 31.08.2021
6605 Clouds 28 1018 59 10000 2.06 80 11:26 31.08.2021
6606 Clear 28 1017 64 10000 2.06 60 10:49 31.08.2021
6607 Clear 25 1014 73 10000 0.89 68 09:43 31.08.2021
6608 Clear 22 1013 90 10000 0.45 68 08:36 31.08.2021
6609 Clouds 21 1013 89 10000 1.03 0 05:58 31.08.2021
6610 Clouds 22 1012 86 10000 0.51 0 00:23 31.08.2021
6611 Clouds 23 1012 85 10000 0.89 354 23:29 30.08.2021
6612 Clouds 23 1012 80 8000 0.89 193 21:43 30.08.2021
6613 Thunderstorm 25 1012 68 10000 0.89 264 20:42 30.08.2021
6614 Clouds 26 1011 65 10000 0.89 175 20:18 30.08.2021
6615 Clouds 27 1011 63 10000 0.89 215 19:29 30.08.2021
6616 Clouds 27 1011 63 10000 1.34 238 18:29 30.08.2021
6617 Clouds 27 1015 68 10000 3.6 250 17:44 30.08.2021
6618 Clouds 27 1014 68 10000 0.89 128 15:56 30.08.2021
6619 Clouds 28 1009 60 10000 0.89 67 14:51 30.08.2021
6620 Clouds 21 1014 94 10000 1.03 290 13:27 30.08.2021
6621 Thunderstorm 23 1015 90 10000 2.57 330 11:57 30.08.2021
6622 Clouds 24 1011 65 10000 0.89 338 08:27 30.08.2021
6623 Clouds 25 1014 60 10000 1.34 111 22:26 29.08.2021
6624 Clouds 26 1014 60 10000 0.89 140 21:32 29.08.2021
6625 Clouds 27 1013 49 10000 3.58 209 19:33 29.08.2021
6626 Clouds 27 1013 48 10000 2.24 207 18:47 29.08.2021
6627 Clouds 28 1014 47 10000 4.02 274 17:41 29.08.2021
6628 Clouds 29 1014 47 10000 4.02 186 15:30 29.08.2021
6629 Clouds 29 1015 47 10000 4.92 202 14:18 29.08.2021
6630 Clouds 29 1015 41 10000 1.34 222 13:28 29.08.2021
6631 Clouds 28 1015 42 10000 1.79 113 12:31 29.08.2021
6632 Clouds 27 1014 45 10000 4.63 80 11:41 29.08.2021
6633 Clouds 26 1014 50 10000 5.14 60 10:52 29.08.2021
6634 Clouds 26 1014 50 10000 5.14 60 10:32 29.08.2021
6635 Clouds 25 1014 50 10000 3.6 70 09:50 29.08.2021
6636 Clouds 22 1014 61<